<?xml version="1.0" encoding="UTF-8" standalone="no" ?>
<gpx xmlns="http://www.topografix.com/GPX/1/1" xmlns:xsi="http://www.w3.org/2001/XMLSchema-instance" xsi:schemaLocation="http://www.topografix.com/GPX/1/1 http://www.topografix.com/GPX/1/1/gpx.xsd" version="1.1" creator="VisuGPX - https://www.visugpx.com">
  <metadata>
    <name>Ballade de ce matin avec François</name>
    <desc><![CDATA[Petite ballade en vélo avec le copain François, avec une difficulté : la chaleur !!

]]></desc>
  </metadata>
  <trk>
    <name><![CDATA[avecJacquot]]></name>
    <trkseg>
      <trkpt lat="47.25798" lon="6.03482">
        <ele>376</ele>
        <time>2013-06-19T08:52:24Z</time>
      </trkpt>
      <trkpt lat="47.25793" lon="6.03493">
        <ele>385</ele>
        <time>2013-06-19T08:52:25Z</time>
      </trkpt>
      <trkpt lat="47.25784" lon="6.03501">
        <ele>379</ele>
        <time>2013-06-19T08:53:40Z</time>
      </trkpt>
      <trkpt lat="47.25774" lon="6.03511">
        <ele>379</ele>
        <time>2013-06-19T08:53:43Z</time>
      </trkpt>
      <trkpt lat="47.25766" lon="6.03522">
        <ele>379</ele>
        <time>2013-06-19T08:53:45Z</time>
      </trkpt>
      <trkpt lat="47.25758" lon="6.0353">
        <ele>379</ele>
        <time>2013-06-19T08:53:47Z</time>
      </trkpt>
      <trkpt lat="47.25747" lon="6.03536">
        <ele>378</ele>
        <time>2013-06-19T08:53:48Z</time>
      </trkpt>
      <trkpt lat="47.25739" lon="6.03549">
        <ele>378</ele>
        <time>2013-06-19T08:53:50Z</time>
      </trkpt>
      <trkpt lat="47.25732" lon="6.03565">
        <ele>370</ele>
        <time>2013-06-19T08:53:52Z</time>
      </trkpt>
      <trkpt lat="47.25716" lon="6.03566">
        <ele>368</ele>
        <time>2013-06-19T08:53:55Z</time>
      </trkpt>
      <trkpt lat="47.25705" lon="6.03559">
        <ele>370</ele>
        <time>2013-06-19T08:53:57Z</time>
      </trkpt>
      <trkpt lat="47.25696" lon="6.03552">
        <ele>370</ele>
        <time>2013-06-19T08:53:59Z</time>
      </trkpt>
      <trkpt lat="47.25691" lon="6.03537">
        <ele>370</ele>
        <time>2013-06-19T08:54:01Z</time>
      </trkpt>
      <trkpt lat="47.25682" lon="6.03527">
        <ele>371</ele>
        <time>2013-06-19T08:54:03Z</time>
      </trkpt>
      <trkpt lat="47.25674" lon="6.03515">
        <ele>371</ele>
        <time>2013-06-19T08:54:05Z</time>
      </trkpt>
      <trkpt lat="47.25666" lon="6.03502">
        <ele>371</ele>
        <time>2013-06-19T08:54:08Z</time>
      </trkpt>
      <trkpt lat="47.25658" lon="6.03492">
        <ele>372</ele>
        <time>2013-06-19T08:54:09Z</time>
      </trkpt>
      <trkpt lat="47.25649" lon="6.03486">
        <ele>372</ele>
        <time>2013-06-19T08:54:11Z</time>
      </trkpt>
      <trkpt lat="47.2564" lon="6.03477">
        <ele>372</ele>
        <time>2013-06-19T08:54:13Z</time>
      </trkpt>
      <trkpt lat="47.25629" lon="6.03464">
        <ele>373</ele>
        <time>2013-06-19T08:54:15Z</time>
      </trkpt>
      <trkpt lat="47.25618" lon="6.03446">
        <ele>375</ele>
        <time>2013-06-19T08:54:17Z</time>
      </trkpt>
      <trkpt lat="47.25608" lon="6.03427">
        <ele>375</ele>
        <time>2013-06-19T08:54:19Z</time>
      </trkpt>
      <trkpt lat="47.25597" lon="6.0341">
        <ele>373</ele>
        <time>2013-06-19T08:54:21Z</time>
      </trkpt>
      <trkpt lat="47.25589" lon="6.03392">
        <ele>371</ele>
        <time>2013-06-19T08:54:23Z</time>
      </trkpt>
      <trkpt lat="47.25585" lon="6.03379">
        <ele>370</ele>
        <time>2013-06-19T08:54:27Z</time>
      </trkpt>
      <trkpt lat="47.2558" lon="6.03366">
        <ele>373</ele>
        <time>2013-06-19T08:54:36Z</time>
      </trkpt>
      <trkpt lat="47.2557" lon="6.03358">
        <ele>373</ele>
        <time>2013-06-19T08:54:40Z</time>
      </trkpt>
      <trkpt lat="47.25555" lon="6.03342">
        <ele>373</ele>
        <time>2013-06-19T08:54:42Z</time>
      </trkpt>
      <trkpt lat="47.25547" lon="6.03325">
        <ele>374</ele>
        <time>2013-06-19T08:54:44Z</time>
      </trkpt>
      <trkpt lat="47.25536" lon="6.03312">
        <ele>374</ele>
        <time>2013-06-19T08:54:46Z</time>
      </trkpt>
      <trkpt lat="47.25531" lon="6.033">
        <ele>372</ele>
        <time>2013-06-19T08:54:47Z</time>
      </trkpt>
      <trkpt lat="47.25521" lon="6.03279">
        <ele>372</ele>
        <time>2013-06-19T08:54:49Z</time>
      </trkpt>
      <trkpt lat="47.25509" lon="6.03263">
        <ele>372</ele>
        <time>2013-06-19T08:54:51Z</time>
      </trkpt>
      <trkpt lat="47.25497" lon="6.03246">
        <ele>371</ele>
        <time>2013-06-19T08:54:53Z</time>
      </trkpt>
      <trkpt lat="47.25487" lon="6.03231">
        <ele>371</ele>
        <time>2013-06-19T08:54:55Z</time>
      </trkpt>
      <trkpt lat="47.25475" lon="6.03221">
        <ele>371</ele>
        <time>2013-06-19T08:54:57Z</time>
      </trkpt>
      <trkpt lat="47.25463" lon="6.03219">
        <ele>371</ele>
        <time>2013-06-19T08:55:00Z</time>
      </trkpt>
      <trkpt lat="47.25453" lon="6.03217">
        <ele>371</ele>
        <time>2013-06-19T08:55:02Z</time>
      </trkpt>
      <trkpt lat="47.25441" lon="6.03206">
        <ele>371</ele>
        <time>2013-06-19T08:55:04Z</time>
      </trkpt>
      <trkpt lat="47.25432" lon="6.03191">
        <ele>370</ele>
        <time>2013-06-19T08:55:06Z</time>
      </trkpt>
      <trkpt lat="47.25423" lon="6.03179">
        <ele>368</ele>
        <time>2013-06-19T08:55:08Z</time>
      </trkpt>
      <trkpt lat="47.25415" lon="6.03171">
        <ele>367</ele>
        <time>2013-06-19T08:55:10Z</time>
      </trkpt>
      <trkpt lat="47.25405" lon="6.03163">
        <ele>367</ele>
        <time>2013-06-19T08:55:12Z</time>
      </trkpt>
      <trkpt lat="47.25398" lon="6.03146">
        <ele>365</ele>
        <time>2013-06-19T08:55:14Z</time>
      </trkpt>
      <trkpt lat="47.25392" lon="6.03134">
        <ele>365</ele>
        <time>2013-06-19T08:55:16Z</time>
      </trkpt>
      <trkpt lat="47.25378" lon="6.03123">
        <ele>365</ele>
        <time>2013-06-19T08:55:18Z</time>
      </trkpt>
      <trkpt lat="47.25364" lon="6.03113">
        <ele>364</ele>
        <time>2013-06-19T08:55:20Z</time>
      </trkpt>
      <trkpt lat="47.25352" lon="6.03104">
        <ele>365</ele>
        <time>2013-06-19T08:55:22Z</time>
      </trkpt>
      <trkpt lat="47.25336" lon="6.03091">
        <ele>365</ele>
        <time>2013-06-19T08:55:24Z</time>
      </trkpt>
      <trkpt lat="47.25317" lon="6.03083">
        <ele>364</ele>
        <time>2013-06-19T08:55:26Z</time>
      </trkpt>
      <trkpt lat="47.25301" lon="6.03078">
        <ele>363</ele>
        <time>2013-06-19T08:55:28Z</time>
      </trkpt>
      <trkpt lat="47.2529" lon="6.03076">
        <ele>363</ele>
        <time>2013-06-19T08:55:29Z</time>
      </trkpt>
      <trkpt lat="47.25281" lon="6.03069">
        <ele>363</ele>
        <time>2013-06-19T08:55:30Z</time>
      </trkpt>
      <trkpt lat="47.25269" lon="6.03063">
        <ele>362</ele>
        <time>2013-06-19T08:55:32Z</time>
      </trkpt>
      <trkpt lat="47.2526" lon="6.03058">
        <ele>361</ele>
        <time>2013-06-19T08:55:33Z</time>
      </trkpt>
      <trkpt lat="47.25245" lon="6.03048">
        <ele>361</ele>
        <time>2013-06-19T08:55:35Z</time>
      </trkpt>
      <trkpt lat="47.25233" lon="6.03042">
        <ele>361</ele>
        <time>2013-06-19T08:55:36Z</time>
      </trkpt>
      <trkpt lat="47.2522" lon="6.03038">
        <ele>359</ele>
        <time>2013-06-19T08:55:37Z</time>
      </trkpt>
      <trkpt lat="47.25211" lon="6.03032">
        <ele>359</ele>
        <time>2013-06-19T08:55:38Z</time>
      </trkpt>
      <trkpt lat="47.25195" lon="6.03023">
        <ele>358</ele>
        <time>2013-06-19T08:55:40Z</time>
      </trkpt>
      <trkpt lat="47.25186" lon="6.0302">
        <ele>357</ele>
        <time>2013-06-19T08:55:41Z</time>
      </trkpt>
      <trkpt lat="47.2517" lon="6.0302">
        <ele>353</ele>
        <time>2013-06-19T08:55:43Z</time>
      </trkpt>
      <trkpt lat="47.25161" lon="6.03023">
        <ele>354</ele>
        <time>2013-06-19T08:55:44Z</time>
      </trkpt>
      <trkpt lat="47.25147" lon="6.03029">
        <ele>352</ele>
        <time>2013-06-19T08:55:46Z</time>
      </trkpt>
      <trkpt lat="47.25137" lon="6.0303">
        <ele>349</ele>
        <time>2013-06-19T08:55:47Z</time>
      </trkpt>
      <trkpt lat="47.25124" lon="6.0304">
        <ele>348</ele>
        <time>2013-06-19T08:55:49Z</time>
      </trkpt>
      <trkpt lat="47.25109" lon="6.03048">
        <ele>348</ele>
        <time>2013-06-19T08:55:51Z</time>
      </trkpt>
      <trkpt lat="47.25098" lon="6.03045">
        <ele>345</ele>
        <time>2013-06-19T08:55:52Z</time>
      </trkpt>
      <trkpt lat="47.25083" lon="6.03032">
        <ele>341</ele>
        <time>2013-06-19T08:55:53Z</time>
      </trkpt>
      <trkpt lat="47.25074" lon="6.03026">
        <ele>341</ele>
        <time>2013-06-19T08:55:54Z</time>
      </trkpt>
      <trkpt lat="47.25066" lon="6.03017">
        <ele>340</ele>
        <time>2013-06-19T08:55:55Z</time>
      </trkpt>
      <trkpt lat="47.25055" lon="6.03">
        <ele>340</ele>
        <time>2013-06-19T08:55:57Z</time>
      </trkpt>
      <trkpt lat="47.25042" lon="6.02992">
        <ele>339</ele>
        <time>2013-06-19T08:56:00Z</time>
      </trkpt>
      <trkpt lat="47.25028" lon="6.02995">
        <ele>339</ele>
        <time>2013-06-19T08:56:02Z</time>
      </trkpt>
      <trkpt lat="47.2501" lon="6.03">
        <ele>339</ele>
        <time>2013-06-19T08:56:04Z</time>
      </trkpt>
      <trkpt lat="47.24987" lon="6.03014">
        <ele>341</ele>
        <time>2013-06-19T08:56:06Z</time>
      </trkpt>
      <trkpt lat="47.24976" lon="6.03018">
        <ele>341</ele>
        <time>2013-06-19T08:56:07Z</time>
      </trkpt>
      <trkpt lat="47.24967" lon="6.03027">
        <ele>340</ele>
        <time>2013-06-19T08:56:08Z</time>
      </trkpt>
      <trkpt lat="47.24958" lon="6.03032">
        <ele>340</ele>
        <time>2013-06-19T08:56:09Z</time>
      </trkpt>
      <trkpt lat="47.24946" lon="6.03035">
        <ele>340</ele>
        <time>2013-06-19T08:56:10Z</time>
      </trkpt>
      <trkpt lat="47.24936" lon="6.03042">
        <ele>338</ele>
        <time>2013-06-19T08:56:11Z</time>
      </trkpt>
      <trkpt lat="47.24927" lon="6.0305">
        <ele>336</ele>
        <time>2013-06-19T08:56:12Z</time>
      </trkpt>
      <trkpt lat="47.24914" lon="6.03054">
        <ele>336</ele>
        <time>2013-06-19T08:56:13Z</time>
      </trkpt>
      <trkpt lat="47.24898" lon="6.03061">
        <ele>335</ele>
        <time>2013-06-19T08:56:15Z</time>
      </trkpt>
      <trkpt lat="47.24886" lon="6.03068">
        <ele>335</ele>
        <time>2013-06-19T08:56:17Z</time>
      </trkpt>
      <trkpt lat="47.24877" lon="6.03067">
        <ele>335</ele>
        <time>2013-06-19T08:56:20Z</time>
      </trkpt>
      <trkpt lat="47.2487" lon="6.03055">
        <ele>336</ele>
        <time>2013-06-19T08:56:25Z</time>
      </trkpt>
      <trkpt lat="47.24861" lon="6.03042">
        <ele>336</ele>
        <time>2013-06-19T08:56:27Z</time>
      </trkpt>
      <trkpt lat="47.24856" lon="6.03025">
        <ele>336</ele>
        <time>2013-06-19T08:56:30Z</time>
      </trkpt>
      <trkpt lat="47.24854" lon="6.03001">
        <ele>335</ele>
        <time>2013-06-19T08:56:32Z</time>
      </trkpt>
      <trkpt lat="47.24847" lon="6.02987">
        <ele>335</ele>
        <time>2013-06-19T08:56:34Z</time>
      </trkpt>
      <trkpt lat="47.24835" lon="6.02973">
        <ele>334</ele>
        <time>2013-06-19T08:56:36Z</time>
      </trkpt>
      <trkpt lat="47.2482" lon="6.02964">
        <ele>334</ele>
        <time>2013-06-19T08:56:39Z</time>
      </trkpt>
      <trkpt lat="47.24809" lon="6.02957">
        <ele>335</ele>
        <time>2013-06-19T08:56:42Z</time>
      </trkpt>
      <trkpt lat="47.24797" lon="6.02949">
        <ele>338</ele>
        <time>2013-06-19T08:56:45Z</time>
      </trkpt>
      <trkpt lat="47.24795" lon="6.02929">
        <ele>338</ele>
        <time>2013-06-19T08:56:47Z</time>
      </trkpt>
      <trkpt lat="47.24795" lon="6.02915">
        <ele>338</ele>
        <time>2013-06-19T08:56:48Z</time>
      </trkpt>
      <trkpt lat="47.24795" lon="6.02901">
        <ele>338</ele>
        <time>2013-06-19T08:56:49Z</time>
      </trkpt>
      <trkpt lat="47.24791" lon="6.02883">
        <ele>338</ele>
        <time>2013-06-19T08:56:51Z</time>
      </trkpt>
      <trkpt lat="47.24787" lon="6.02867">
        <ele>339</ele>
        <time>2013-06-19T08:56:53Z</time>
      </trkpt>
      <trkpt lat="47.2477" lon="6.02867">
        <ele>340</ele>
        <time>2013-06-19T08:56:55Z</time>
      </trkpt>
      <trkpt lat="47.24761" lon="6.02873">
        <ele>340</ele>
        <time>2013-06-19T08:56:59Z</time>
      </trkpt>
      <trkpt lat="47.24753" lon="6.02891">
        <ele>338</ele>
        <time>2013-06-19T08:57:01Z</time>
      </trkpt>
      <trkpt lat="47.24749" lon="6.02902">
        <ele>336</ele>
        <time>2013-06-19T08:57:03Z</time>
      </trkpt>
      <trkpt lat="47.24745" lon="6.02921">
        <ele>336</ele>
        <time>2013-06-19T08:57:05Z</time>
      </trkpt>
      <trkpt lat="47.24742" lon="6.02942">
        <ele>334</ele>
        <time>2013-06-19T08:57:07Z</time>
      </trkpt>
      <trkpt lat="47.2474" lon="6.02963">
        <ele>335</ele>
        <time>2013-06-19T08:57:09Z</time>
      </trkpt>
      <trkpt lat="47.24744" lon="6.03003">
        <ele>335</ele>
        <time>2013-06-19T08:57:13Z</time>
      </trkpt>
      <trkpt lat="47.24743" lon="6.0302">
        <ele>337</ele>
        <time>2013-06-19T08:57:15Z</time>
      </trkpt>
      <trkpt lat="47.24742" lon="6.03033">
        <ele>337</ele>
        <time>2013-06-19T08:57:16Z</time>
      </trkpt>
      <trkpt lat="47.24738" lon="6.03058">
        <ele>336</ele>
        <time>2013-06-19T08:57:18Z</time>
      </trkpt>
      <trkpt lat="47.24746" lon="6.03064">
        <ele>337</ele>
        <time>2013-06-19T08:57:19Z</time>
      </trkpt>
      <trkpt lat="47.24753" lon="6.0308">
        <ele>336</ele>
        <time>2013-06-19T08:57:21Z</time>
      </trkpt>
      <trkpt lat="47.24751" lon="6.03094">
        <ele>336</ele>
        <time>2013-06-19T08:57:23Z</time>
      </trkpt>
      <trkpt lat="47.24744" lon="6.03111">
        <ele>336</ele>
        <time>2013-06-19T08:57:25Z</time>
      </trkpt>
      <trkpt lat="47.24737" lon="6.03126">
        <ele>336</ele>
        <time>2013-06-19T08:57:28Z</time>
      </trkpt>
      <trkpt lat="47.24725" lon="6.03133">
        <ele>332</ele>
        <time>2013-06-19T08:57:34Z</time>
      </trkpt>
      <trkpt lat="47.24723" lon="6.03148">
        <ele>330</ele>
        <time>2013-06-19T08:57:37Z</time>
      </trkpt>
      <trkpt lat="47.24723" lon="6.03163">
        <ele>331</ele>
        <time>2013-06-19T08:57:40Z</time>
      </trkpt>
      <trkpt lat="47.24726" lon="6.03177">
        <ele>330</ele>
        <time>2013-06-19T08:57:43Z</time>
      </trkpt>
      <trkpt lat="47.2473" lon="6.03189">
        <ele>331</ele>
        <time>2013-06-19T08:57:47Z</time>
      </trkpt>
      <trkpt lat="47.24733" lon="6.03203">
        <ele>331</ele>
        <time>2013-06-19T08:57:53Z</time>
      </trkpt>
      <trkpt lat="47.24736" lon="6.03217">
        <ele>330</ele>
        <time>2013-06-19T08:57:58Z</time>
      </trkpt>
      <trkpt lat="47.24735" lon="6.03234">
        <ele>329</ele>
        <time>2013-06-19T08:58:01Z</time>
      </trkpt>
      <trkpt lat="47.24735" lon="6.0325">
        <ele>329</ele>
        <time>2013-06-19T08:58:03Z</time>
      </trkpt>
      <trkpt lat="47.24733" lon="6.03263">
        <ele>328</ele>
        <time>2013-06-19T08:58:05Z</time>
      </trkpt>
      <trkpt lat="47.24728" lon="6.03275">
        <ele>327</ele>
        <time>2013-06-19T08:58:07Z</time>
      </trkpt>
      <trkpt lat="47.2472" lon="6.03288">
        <ele>326</ele>
        <time>2013-06-19T08:58:08Z</time>
      </trkpt>
      <trkpt lat="47.24711" lon="6.03298">
        <ele>326</ele>
        <time>2013-06-19T08:58:09Z</time>
      </trkpt>
      <trkpt lat="47.24698" lon="6.03312">
        <ele>327</ele>
        <time>2013-06-19T08:58:11Z</time>
      </trkpt>
      <trkpt lat="47.24686" lon="6.0333">
        <ele>326</ele>
        <time>2013-06-19T08:58:13Z</time>
      </trkpt>
      <trkpt lat="47.24679" lon="6.03341">
        <ele>323</ele>
        <time>2013-06-19T08:58:14Z</time>
      </trkpt>
      <trkpt lat="47.2467" lon="6.03352">
        <ele>322</ele>
        <time>2013-06-19T08:58:15Z</time>
      </trkpt>
      <trkpt lat="47.24662" lon="6.03366">
        <ele>321</ele>
        <time>2013-06-19T08:58:17Z</time>
      </trkpt>
      <trkpt lat="47.24649" lon="6.0338">
        <ele>322</ele>
        <time>2013-06-19T08:58:19Z</time>
      </trkpt>
      <trkpt lat="47.24641" lon="6.03387">
        <ele>322</ele>
        <time>2013-06-19T08:58:21Z</time>
      </trkpt>
      <trkpt lat="47.24636" lon="6.03402">
        <ele>322</ele>
        <time>2013-06-19T08:58:26Z</time>
      </trkpt>
      <trkpt lat="47.24624" lon="6.03413">
        <ele>315</ele>
        <time>2013-06-19T08:58:29Z</time>
      </trkpt>
      <trkpt lat="47.2462" lon="6.03426">
        <ele>317</ele>
        <time>2013-06-19T08:58:33Z</time>
      </trkpt>
      <trkpt lat="47.24616" lon="6.03439">
        <ele>317</ele>
        <time>2013-06-19T08:58:38Z</time>
      </trkpt>
      <trkpt lat="47.24605" lon="6.03445">
        <ele>318</ele>
        <time>2013-06-19T08:58:42Z</time>
      </trkpt>
      <trkpt lat="47.24595" lon="6.03448">
        <ele>319</ele>
        <time>2013-06-19T08:58:45Z</time>
      </trkpt>
      <trkpt lat="47.2459" lon="6.03465">
        <ele>317</ele>
        <time>2013-06-19T08:58:49Z</time>
      </trkpt>
      <trkpt lat="47.24593" lon="6.03483">
        <ele>318</ele>
        <time>2013-06-19T08:58:52Z</time>
      </trkpt>
      <trkpt lat="47.24593" lon="6.03497">
        <ele>321</ele>
        <time>2013-06-19T08:58:56Z</time>
      </trkpt>
      <trkpt lat="47.2458" lon="6.03505">
        <ele>318</ele>
        <time>2013-06-19T08:59:00Z</time>
      </trkpt>
      <trkpt lat="47.24568" lon="6.03508">
        <ele>319</ele>
        <time>2013-06-19T08:59:02Z</time>
      </trkpt>
      <trkpt lat="47.24556" lon="6.0351">
        <ele>318</ele>
        <time>2013-06-19T08:59:04Z</time>
      </trkpt>
      <trkpt lat="47.24536" lon="6.0351">
        <ele>319</ele>
        <time>2013-06-19T08:59:05Z</time>
      </trkpt>
      <trkpt lat="47.24522" lon="6.03509">
        <ele>319</ele>
        <time>2013-06-19T08:59:07Z</time>
      </trkpt>
      <trkpt lat="47.24511" lon="6.03509">
        <ele>321</ele>
        <time>2013-06-19T08:59:09Z</time>
      </trkpt>
      <trkpt lat="47.24501" lon="6.03511">
        <ele>321</ele>
        <time>2013-06-19T08:59:11Z</time>
      </trkpt>
      <trkpt lat="47.24489" lon="6.03515">
        <ele>323</ele>
        <time>2013-06-19T08:59:13Z</time>
      </trkpt>
      <trkpt lat="47.24472" lon="6.03511">
        <ele>323</ele>
        <time>2013-06-19T08:59:15Z</time>
      </trkpt>
      <trkpt lat="47.24459" lon="6.03505">
        <ele>323</ele>
        <time>2013-06-19T08:59:17Z</time>
      </trkpt>
      <trkpt lat="47.24447" lon="6.03494">
        <ele>323</ele>
        <time>2013-06-19T08:59:19Z</time>
      </trkpt>
      <trkpt lat="47.2443" lon="6.03497">
        <ele>323</ele>
        <time>2013-06-19T08:59:22Z</time>
      </trkpt>
      <trkpt lat="47.2442" lon="6.03487">
        <ele>321</ele>
        <time>2013-06-19T08:59:24Z</time>
      </trkpt>
      <trkpt lat="47.2441" lon="6.03474">
        <ele>320</ele>
        <time>2013-06-19T08:59:26Z</time>
      </trkpt>
      <trkpt lat="47.24398" lon="6.03462">
        <ele>319</ele>
        <time>2013-06-19T08:59:28Z</time>
      </trkpt>
      <trkpt lat="47.24386" lon="6.03451">
        <ele>319</ele>
        <time>2013-06-19T08:59:30Z</time>
      </trkpt>
      <trkpt lat="47.24374" lon="6.03442">
        <ele>320</ele>
        <time>2013-06-19T08:59:32Z</time>
      </trkpt>
      <trkpt lat="47.24362" lon="6.03435">
        <ele>320</ele>
        <time>2013-06-19T08:59:34Z</time>
      </trkpt>
      <trkpt lat="47.24349" lon="6.0343">
        <ele>321</ele>
        <time>2013-06-19T08:59:36Z</time>
      </trkpt>
      <trkpt lat="47.24335" lon="6.03422">
        <ele>318</ele>
        <time>2013-06-19T08:59:39Z</time>
      </trkpt>
      <trkpt lat="47.24325" lon="6.03418">
        <ele>316</ele>
        <time>2013-06-19T08:59:41Z</time>
      </trkpt>
      <trkpt lat="47.24315" lon="6.03412">
        <ele>316</ele>
        <time>2013-06-19T08:59:43Z</time>
      </trkpt>
      <trkpt lat="47.24305" lon="6.0341">
        <ele>315</ele>
        <time>2013-06-19T08:59:45Z</time>
      </trkpt>
      <trkpt lat="47.24292" lon="6.03405">
        <ele>315</ele>
        <time>2013-06-19T08:59:48Z</time>
      </trkpt>
      <trkpt lat="47.24282" lon="6.03399">
        <ele>314</ele>
        <time>2013-06-19T08:59:50Z</time>
      </trkpt>
      <trkpt lat="47.24272" lon="6.03391">
        <ele>316</ele>
        <time>2013-06-19T08:59:52Z</time>
      </trkpt>
      <trkpt lat="47.24263" lon="6.03384">
        <ele>315</ele>
        <time>2013-06-19T08:59:54Z</time>
      </trkpt>
      <trkpt lat="47.24252" lon="6.03375">
        <ele>315</ele>
        <time>2013-06-19T08:59:56Z</time>
      </trkpt>
      <trkpt lat="47.24241" lon="6.03364">
        <ele>315</ele>
        <time>2013-06-19T08:59:58Z</time>
      </trkpt>
      <trkpt lat="47.24232" lon="6.03356">
        <ele>314</ele>
        <time>2013-06-19T09:00:00Z</time>
      </trkpt>
      <trkpt lat="47.2422" lon="6.03349">
        <ele>317</ele>
        <time>2013-06-19T09:00:02Z</time>
      </trkpt>
      <trkpt lat="47.2421" lon="6.03338">
        <ele>316</ele>
        <time>2013-06-19T09:00:04Z</time>
      </trkpt>
      <trkpt lat="47.24199" lon="6.03329">
        <ele>314</ele>
        <time>2013-06-19T09:00:06Z</time>
      </trkpt>
      <trkpt lat="47.24188" lon="6.03319">
        <ele>314</ele>
        <time>2013-06-19T09:00:08Z</time>
      </trkpt>
      <trkpt lat="47.24174" lon="6.03312">
        <ele>315</ele>
        <time>2013-06-19T09:00:10Z</time>
      </trkpt>
      <trkpt lat="47.24166" lon="6.03305">
        <ele>314</ele>
        <time>2013-06-19T09:00:12Z</time>
      </trkpt>
      <trkpt lat="47.24155" lon="6.03301">
        <ele>314</ele>
        <time>2013-06-19T09:00:14Z</time>
      </trkpt>
      <trkpt lat="47.24151" lon="6.03289">
        <ele>314</ele>
        <time>2013-06-19T09:00:34Z</time>
      </trkpt>
      <trkpt lat="47.24141" lon="6.0329">
        <ele>329</ele>
        <time>2013-06-19T09:00:48Z</time>
      </trkpt>
      <trkpt lat="47.24133" lon="6.03298">
        <ele>329</ele>
        <time>2013-06-19T09:00:50Z</time>
      </trkpt>
      <trkpt lat="47.24122" lon="6.03309">
        <ele>328</ele>
        <time>2013-06-19T09:00:52Z</time>
      </trkpt>
      <trkpt lat="47.24106" lon="6.03323">
        <ele>328</ele>
        <time>2013-06-19T09:00:53Z</time>
      </trkpt>
      <trkpt lat="47.24096" lon="6.03333">
        <ele>327</ele>
        <time>2013-06-19T09:00:56Z</time>
      </trkpt>
      <trkpt lat="47.24089" lon="6.03343">
        <ele>327</ele>
        <time>2013-06-19T09:00:58Z</time>
      </trkpt>
      <trkpt lat="47.24076" lon="6.03349">
        <ele>328</ele>
        <time>2013-06-19T09:01:00Z</time>
      </trkpt>
      <trkpt lat="47.24067" lon="6.03354">
        <ele>328</ele>
        <time>2013-06-19T09:01:02Z</time>
      </trkpt>
      <trkpt lat="47.24056" lon="6.03362">
        <ele>328</ele>
        <time>2013-06-19T09:01:05Z</time>
      </trkpt>
      <trkpt lat="47.24038" lon="6.03365">
        <ele>326</ele>
        <time>2013-06-19T09:01:06Z</time>
      </trkpt>
      <trkpt lat="47.24028" lon="6.03369">
        <ele>326</ele>
        <time>2013-06-19T09:01:07Z</time>
      </trkpt>
      <trkpt lat="47.24012" lon="6.03378">
        <ele>326</ele>
        <time>2013-06-19T09:01:08Z</time>
      </trkpt>
      <trkpt lat="47.23997" lon="6.03385">
        <ele>324</ele>
        <time>2013-06-19T09:01:09Z</time>
      </trkpt>
      <trkpt lat="47.23983" lon="6.0339">
        <ele>324</ele>
        <time>2013-06-19T09:01:10Z</time>
      </trkpt>
      <trkpt lat="47.23971" lon="6.03396">
        <ele>322</ele>
        <time>2013-06-19T09:01:11Z</time>
      </trkpt>
      <trkpt lat="47.23962" lon="6.03394">
        <ele>321</ele>
        <time>2013-06-19T09:01:12Z</time>
      </trkpt>
      <trkpt lat="47.23945" lon="6.0339">
        <ele>314</ele>
        <time>2013-06-19T09:01:14Z</time>
      </trkpt>
      <trkpt lat="47.23929" lon="6.03387">
        <ele>312</ele>
        <time>2013-06-19T09:01:16Z</time>
      </trkpt>
      <trkpt lat="47.23916" lon="6.0339">
        <ele>312</ele>
        <time>2013-06-19T09:01:18Z</time>
      </trkpt>
      <trkpt lat="47.23905" lon="6.034">
        <ele>312</ele>
        <time>2013-06-19T09:01:20Z</time>
      </trkpt>
      <trkpt lat="47.23892" lon="6.03401">
        <ele>311</ele>
        <time>2013-06-19T09:01:22Z</time>
      </trkpt>
      <trkpt lat="47.23879" lon="6.03416">
        <ele>307</ele>
        <time>2013-06-19T09:01:24Z</time>
      </trkpt>
      <trkpt lat="47.23864" lon="6.03413">
        <ele>308</ele>
        <time>2013-06-19T09:01:26Z</time>
      </trkpt>
      <trkpt lat="47.23851" lon="6.03412">
        <ele>309</ele>
        <time>2013-06-19T09:01:28Z</time>
      </trkpt>
      <trkpt lat="47.23842" lon="6.03407">
        <ele>309</ele>
        <time>2013-06-19T09:01:30Z</time>
      </trkpt>
      <trkpt lat="47.23832" lon="6.03393">
        <ele>312</ele>
        <time>2013-06-19T09:01:32Z</time>
      </trkpt>
      <trkpt lat="47.23824" lon="6.03379">
        <ele>314</ele>
        <time>2013-06-19T09:01:34Z</time>
      </trkpt>
      <trkpt lat="47.23818" lon="6.03362">
        <ele>314</ele>
        <time>2013-06-19T09:01:36Z</time>
      </trkpt>
      <trkpt lat="47.23812" lon="6.03345">
        <ele>314</ele>
        <time>2013-06-19T09:01:38Z</time>
      </trkpt>
      <trkpt lat="47.23808" lon="6.03328">
        <ele>314</ele>
        <time>2013-06-19T09:01:40Z</time>
      </trkpt>
      <trkpt lat="47.23801" lon="6.03314">
        <ele>315</ele>
        <time>2013-06-19T09:01:42Z</time>
      </trkpt>
      <trkpt lat="47.23796" lon="6.03302">
        <ele>315</ele>
        <time>2013-06-19T09:01:44Z</time>
      </trkpt>
      <trkpt lat="47.23796" lon="6.03279">
        <ele>306</ele>
        <time>2013-06-19T09:01:45Z</time>
      </trkpt>
      <trkpt lat="47.2379" lon="6.03265">
        <ele>305</ele>
        <time>2013-06-19T09:01:48Z</time>
      </trkpt>
      <trkpt lat="47.23786" lon="6.03277">
        <ele>306</ele>
        <time>2013-06-19T09:02:08Z</time>
      </trkpt>
      <trkpt lat="47.23782" lon="6.03293">
        <ele>316</ele>
        <time>2013-06-19T09:02:12Z</time>
      </trkpt>
      <trkpt lat="47.23771" lon="6.03308">
        <ele>314</ele>
        <time>2013-06-19T09:02:16Z</time>
      </trkpt>
      <trkpt lat="47.2376" lon="6.03317">
        <ele>313</ele>
        <time>2013-06-19T09:02:19Z</time>
      </trkpt>
      <trkpt lat="47.23751" lon="6.03323">
        <ele>314</ele>
        <time>2013-06-19T09:02:22Z</time>
      </trkpt>
      <trkpt lat="47.23742" lon="6.03329">
        <ele>313</ele>
        <time>2013-06-19T09:02:25Z</time>
      </trkpt>
      <trkpt lat="47.23732" lon="6.03335">
        <ele>312</ele>
        <time>2013-06-19T09:02:27Z</time>
      </trkpt>
      <trkpt lat="47.23721" lon="6.03345">
        <ele>313</ele>
        <time>2013-06-19T09:02:29Z</time>
      </trkpt>
      <trkpt lat="47.2371" lon="6.03352">
        <ele>312</ele>
        <time>2013-06-19T09:02:31Z</time>
      </trkpt>
      <trkpt lat="47.237" lon="6.0336">
        <ele>311</ele>
        <time>2013-06-19T09:02:33Z</time>
      </trkpt>
      <trkpt lat="47.2369" lon="6.03366">
        <ele>310</ele>
        <time>2013-06-19T09:02:34Z</time>
      </trkpt>
      <trkpt lat="47.2368" lon="6.03374">
        <ele>310</ele>
        <time>2013-06-19T09:02:36Z</time>
      </trkpt>
      <trkpt lat="47.23672" lon="6.03382">
        <ele>310</ele>
        <time>2013-06-19T09:02:38Z</time>
      </trkpt>
      <trkpt lat="47.2366" lon="6.03387">
        <ele>307</ele>
        <time>2013-06-19T09:02:41Z</time>
      </trkpt>
      <trkpt lat="47.23649" lon="6.03391">
        <ele>308</ele>
        <time>2013-06-19T09:02:44Z</time>
      </trkpt>
      <trkpt lat="47.2364" lon="6.03396">
        <ele>309</ele>
        <time>2013-06-19T09:02:48Z</time>
      </trkpt>
      <trkpt lat="47.2363" lon="6.03403">
        <ele>308</ele>
        <time>2013-06-19T09:02:52Z</time>
      </trkpt>
      <trkpt lat="47.2362" lon="6.03408">
        <ele>306</ele>
        <time>2013-06-19T09:02:55Z</time>
      </trkpt>
      <trkpt lat="47.23607" lon="6.03421">
        <ele>306</ele>
        <time>2013-06-19T09:02:57Z</time>
      </trkpt>
      <trkpt lat="47.23597" lon="6.03427">
        <ele>306</ele>
        <time>2013-06-19T09:02:59Z</time>
      </trkpt>
      <trkpt lat="47.23588" lon="6.03434">
        <ele>306</ele>
        <time>2013-06-19T09:03:01Z</time>
      </trkpt>
      <trkpt lat="47.23579" lon="6.03443">
        <ele>306</ele>
        <time>2013-06-19T09:03:03Z</time>
      </trkpt>
      <trkpt lat="47.23567" lon="6.03437">
        <ele>302</ele>
        <time>2013-06-19T09:03:06Z</time>
      </trkpt>
      <trkpt lat="47.23555" lon="6.03441">
        <ele>302</ele>
        <time>2013-06-19T09:03:09Z</time>
      </trkpt>
      <trkpt lat="47.23543" lon="6.03443">
        <ele>303</ele>
        <time>2013-06-19T09:03:12Z</time>
      </trkpt>
      <trkpt lat="47.23534" lon="6.03442">
        <ele>303</ele>
        <time>2013-06-19T09:03:14Z</time>
      </trkpt>
      <trkpt lat="47.23521" lon="6.03437">
        <ele>301</ele>
        <time>2013-06-19T09:03:17Z</time>
      </trkpt>
      <trkpt lat="47.23512" lon="6.03431">
        <ele>300</ele>
        <time>2013-06-19T09:03:20Z</time>
      </trkpt>
      <trkpt lat="47.23502" lon="6.0343">
        <ele>302</ele>
        <time>2013-06-19T09:03:24Z</time>
      </trkpt>
      <trkpt lat="47.23495" lon="6.03442">
        <ele>305</ele>
        <time>2013-06-19T09:03:29Z</time>
      </trkpt>
      <trkpt lat="47.23491" lon="6.03455">
        <ele>306</ele>
        <time>2013-06-19T09:03:32Z</time>
      </trkpt>
      <trkpt lat="47.23484" lon="6.03464">
        <ele>308</ele>
        <time>2013-06-19T09:03:34Z</time>
      </trkpt>
      <trkpt lat="47.23468" lon="6.03474">
        <ele>309</ele>
        <time>2013-06-19T09:03:35Z</time>
      </trkpt>
      <trkpt lat="47.23457" lon="6.03483">
        <ele>308</ele>
        <time>2013-06-19T09:03:37Z</time>
      </trkpt>
      <trkpt lat="47.23446" lon="6.03493">
        <ele>310</ele>
        <time>2013-06-19T09:03:39Z</time>
      </trkpt>
      <trkpt lat="47.23433" lon="6.03502">
        <ele>311</ele>
        <time>2013-06-19T09:03:41Z</time>
      </trkpt>
      <trkpt lat="47.23422" lon="6.03505">
        <ele>310</ele>
        <time>2013-06-19T09:03:43Z</time>
      </trkpt>
      <trkpt lat="47.23409" lon="6.03509">
        <ele>309</ele>
        <time>2013-06-19T09:03:45Z</time>
      </trkpt>
      <trkpt lat="47.23398" lon="6.03515">
        <ele>308</ele>
        <time>2013-06-19T09:03:47Z</time>
      </trkpt>
      <trkpt lat="47.23386" lon="6.03521">
        <ele>307</ele>
        <time>2013-06-19T09:03:49Z</time>
      </trkpt>
      <trkpt lat="47.23375" lon="6.03527">
        <ele>308</ele>
        <time>2013-06-19T09:03:51Z</time>
      </trkpt>
      <trkpt lat="47.23365" lon="6.03534">
        <ele>308</ele>
        <time>2013-06-19T09:03:53Z</time>
      </trkpt>
      <trkpt lat="47.23354" lon="6.03538">
        <ele>307</ele>
        <time>2013-06-19T09:03:55Z</time>
      </trkpt>
      <trkpt lat="47.23343" lon="6.03544">
        <ele>307</ele>
        <time>2013-06-19T09:03:57Z</time>
      </trkpt>
      <trkpt lat="47.23332" lon="6.0355">
        <ele>306</ele>
        <time>2013-06-19T09:03:59Z</time>
      </trkpt>
      <trkpt lat="47.23322" lon="6.03555">
        <ele>306</ele>
        <time>2013-06-19T09:04:01Z</time>
      </trkpt>
      <trkpt lat="47.2331" lon="6.03561">
        <ele>305</ele>
        <time>2013-06-19T09:04:03Z</time>
      </trkpt>
      <trkpt lat="47.233" lon="6.03567">
        <ele>305</ele>
        <time>2013-06-19T09:04:05Z</time>
      </trkpt>
      <trkpt lat="47.23288" lon="6.03572">
        <ele>305</ele>
        <time>2013-06-19T09:04:07Z</time>
      </trkpt>
      <trkpt lat="47.23277" lon="6.03577">
        <ele>304</ele>
        <time>2013-06-19T09:04:09Z</time>
      </trkpt>
      <trkpt lat="47.23266" lon="6.03582">
        <ele>303</ele>
        <time>2013-06-19T09:04:11Z</time>
      </trkpt>
      <trkpt lat="47.23254" lon="6.03586">
        <ele>303</ele>
        <time>2013-06-19T09:04:13Z</time>
      </trkpt>
      <trkpt lat="47.23243" lon="6.0359">
        <ele>303</ele>
        <time>2013-06-19T09:04:15Z</time>
      </trkpt>
      <trkpt lat="47.23232" lon="6.03591">
        <ele>303</ele>
        <time>2013-06-19T09:04:17Z</time>
      </trkpt>
      <trkpt lat="47.23221" lon="6.03592">
        <ele>302</ele>
        <time>2013-06-19T09:04:19Z</time>
      </trkpt>
      <trkpt lat="47.23209" lon="6.03591">
        <ele>301</ele>
        <time>2013-06-19T09:04:21Z</time>
      </trkpt>
      <trkpt lat="47.23196" lon="6.03587">
        <ele>300</ele>
        <time>2013-06-19T09:04:24Z</time>
      </trkpt>
      <trkpt lat="47.23186" lon="6.03582">
        <ele>299</ele>
        <time>2013-06-19T09:04:26Z</time>
      </trkpt>
      <trkpt lat="47.23174" lon="6.03581">
        <ele>298</ele>
        <time>2013-06-19T09:04:29Z</time>
      </trkpt>
      <trkpt lat="47.23163" lon="6.03581">
        <ele>298</ele>
        <time>2013-06-19T09:04:31Z</time>
      </trkpt>
      <trkpt lat="47.23154" lon="6.0358">
        <ele>302</ele>
        <time>2013-06-19T09:04:35Z</time>
      </trkpt>
      <trkpt lat="47.23145" lon="6.03589">
        <ele>302</ele>
        <time>2013-06-19T09:04:39Z</time>
      </trkpt>
      <trkpt lat="47.23138" lon="6.03602">
        <ele>303</ele>
        <time>2013-06-19T09:04:43Z</time>
      </trkpt>
      <trkpt lat="47.23132" lon="6.0362">
        <ele>302</ele>
        <time>2013-06-19T09:04:45Z</time>
      </trkpt>
      <trkpt lat="47.23128" lon="6.03633">
        <ele>303</ele>
        <time>2013-06-19T09:04:46Z</time>
      </trkpt>
      <trkpt lat="47.23122" lon="6.03642">
        <ele>303</ele>
        <time>2013-06-19T09:04:48Z</time>
      </trkpt>
      <trkpt lat="47.23112" lon="6.03657">
        <ele>303</ele>
        <time>2013-06-19T09:04:49Z</time>
      </trkpt>
      <trkpt lat="47.23101" lon="6.03667">
        <ele>302</ele>
        <time>2013-06-19T09:04:51Z</time>
      </trkpt>
      <trkpt lat="47.2309" lon="6.03677">
        <ele>301</ele>
        <time>2013-06-19T09:04:53Z</time>
      </trkpt>
      <trkpt lat="47.23079" lon="6.03686">
        <ele>299</ele>
        <time>2013-06-19T09:04:55Z</time>
      </trkpt>
      <trkpt lat="47.23067" lon="6.03693">
        <ele>299</ele>
        <time>2013-06-19T09:04:57Z</time>
      </trkpt>
      <trkpt lat="47.23057" lon="6.03703">
        <ele>299</ele>
        <time>2013-06-19T09:04:59Z</time>
      </trkpt>
      <trkpt lat="47.23047" lon="6.03711">
        <ele>299</ele>
        <time>2013-06-19T09:05:02Z</time>
      </trkpt>
      <trkpt lat="47.23037" lon="6.0372">
        <ele>299</ele>
        <time>2013-06-19T09:05:03Z</time>
      </trkpt>
      <trkpt lat="47.23026" lon="6.03728">
        <ele>300</ele>
        <time>2013-06-19T09:05:05Z</time>
      </trkpt>
      <trkpt lat="47.23016" lon="6.03736">
        <ele>300</ele>
        <time>2013-06-19T09:05:07Z</time>
      </trkpt>
      <trkpt lat="47.23006" lon="6.03745">
        <ele>301</ele>
        <time>2013-06-19T09:05:09Z</time>
      </trkpt>
      <trkpt lat="47.22994" lon="6.03754">
        <ele>301</ele>
        <time>2013-06-19T09:05:11Z</time>
      </trkpt>
      <trkpt lat="47.22984" lon="6.03763">
        <ele>300</ele>
        <time>2013-06-19T09:05:13Z</time>
      </trkpt>
      <trkpt lat="47.22974" lon="6.03772">
        <ele>301</ele>
        <time>2013-06-19T09:05:15Z</time>
      </trkpt>
      <trkpt lat="47.22965" lon="6.03779">
        <ele>301</ele>
        <time>2013-06-19T09:05:17Z</time>
      </trkpt>
      <trkpt lat="47.22957" lon="6.03789">
        <ele>301</ele>
        <time>2013-06-19T09:05:19Z</time>
      </trkpt>
      <trkpt lat="47.22945" lon="6.03797">
        <ele>300</ele>
        <time>2013-06-19T09:05:21Z</time>
      </trkpt>
      <trkpt lat="47.22934" lon="6.03805">
        <ele>300</ele>
        <time>2013-06-19T09:05:24Z</time>
      </trkpt>
      <trkpt lat="47.22924" lon="6.03813">
        <ele>300</ele>
        <time>2013-06-19T09:05:26Z</time>
      </trkpt>
      <trkpt lat="47.22913" lon="6.03821">
        <ele>300</ele>
        <time>2013-06-19T09:05:28Z</time>
      </trkpt>
      <trkpt lat="47.22903" lon="6.03829">
        <ele>299</ele>
        <time>2013-06-19T09:05:30Z</time>
      </trkpt>
      <trkpt lat="47.22893" lon="6.03837">
        <ele>299</ele>
        <time>2013-06-19T09:05:32Z</time>
      </trkpt>
      <trkpt lat="47.22884" lon="6.03845">
        <ele>299</ele>
        <time>2013-06-19T09:05:34Z</time>
      </trkpt>
      <trkpt lat="47.22874" lon="6.03853">
        <ele>299</ele>
        <time>2013-06-19T09:05:36Z</time>
      </trkpt>
      <trkpt lat="47.22863" lon="6.0386">
        <ele>299</ele>
        <time>2013-06-19T09:05:38Z</time>
      </trkpt>
      <trkpt lat="47.22851" lon="6.03867">
        <ele>298</ele>
        <time>2013-06-19T09:05:40Z</time>
      </trkpt>
      <trkpt lat="47.22838" lon="6.0387">
        <ele>298</ele>
        <time>2013-06-19T09:05:42Z</time>
      </trkpt>
      <trkpt lat="47.22826" lon="6.03877">
        <ele>298</ele>
        <time>2013-06-19T09:05:44Z</time>
      </trkpt>
      <trkpt lat="47.22814" lon="6.03888">
        <ele>298</ele>
        <time>2013-06-19T09:05:46Z</time>
      </trkpt>
      <trkpt lat="47.22801" lon="6.03897">
        <ele>298</ele>
        <time>2013-06-19T09:05:48Z</time>
      </trkpt>
      <trkpt lat="47.22788" lon="6.03908">
        <ele>298</ele>
        <time>2013-06-19T09:05:50Z</time>
      </trkpt>
      <trkpt lat="47.22777" lon="6.03919">
        <ele>298</ele>
        <time>2013-06-19T09:05:52Z</time>
      </trkpt>
      <trkpt lat="47.22766" lon="6.03931">
        <ele>299</ele>
        <time>2013-06-19T09:05:54Z</time>
      </trkpt>
      <trkpt lat="47.22755" lon="6.03944">
        <ele>298</ele>
        <time>2013-06-19T09:05:56Z</time>
      </trkpt>
      <trkpt lat="47.22749" lon="6.03958">
        <ele>298</ele>
        <time>2013-06-19T09:05:57Z</time>
      </trkpt>
      <trkpt lat="47.22743" lon="6.03971">
        <ele>298</ele>
        <time>2013-06-19T09:05:59Z</time>
      </trkpt>
      <trkpt lat="47.22737" lon="6.03985">
        <ele>298</ele>
        <time>2013-06-19T09:06:01Z</time>
      </trkpt>
      <trkpt lat="47.22728" lon="6.04001">
        <ele>298</ele>
        <time>2013-06-19T09:06:03Z</time>
      </trkpt>
      <trkpt lat="47.22723" lon="6.04015">
        <ele>298</ele>
        <time>2013-06-19T09:06:05Z</time>
      </trkpt>
      <trkpt lat="47.22719" lon="6.04027">
        <ele>297</ele>
        <time>2013-06-19T09:06:07Z</time>
      </trkpt>
      <trkpt lat="47.22718" lon="6.04043">
        <ele>298</ele>
        <time>2013-06-19T09:06:10Z</time>
      </trkpt>
      <trkpt lat="47.2271" lon="6.04058">
        <ele>299</ele>
        <time>2013-06-19T09:06:12Z</time>
      </trkpt>
      <trkpt lat="47.22704" lon="6.04073">
        <ele>299</ele>
        <time>2013-06-19T09:06:14Z</time>
      </trkpt>
      <trkpt lat="47.22687" lon="6.04093">
        <ele>301</ele>
        <time>2013-06-19T09:06:16Z</time>
      </trkpt>
      <trkpt lat="47.22681" lon="6.04109">
        <ele>301</ele>
        <time>2013-06-19T09:06:18Z</time>
      </trkpt>
      <trkpt lat="47.22677" lon="6.04125">
        <ele>301</ele>
        <time>2013-06-19T09:06:20Z</time>
      </trkpt>
      <trkpt lat="47.22669" lon="6.04142">
        <ele>302</ele>
        <time>2013-06-19T09:06:22Z</time>
      </trkpt>
      <trkpt lat="47.2266" lon="6.04159">
        <ele>301</ele>
        <time>2013-06-19T09:06:24Z</time>
      </trkpt>
      <trkpt lat="47.22655" lon="6.04174">
        <ele>301</ele>
        <time>2013-06-19T09:06:26Z</time>
      </trkpt>
      <trkpt lat="47.22651" lon="6.0419">
        <ele>302</ele>
        <time>2013-06-19T09:06:28Z</time>
      </trkpt>
      <trkpt lat="47.22646" lon="6.04206">
        <ele>302</ele>
        <time>2013-06-19T09:06:31Z</time>
      </trkpt>
      <trkpt lat="47.22642" lon="6.04222">
        <ele>302</ele>
        <time>2013-06-19T09:06:33Z</time>
      </trkpt>
      <trkpt lat="47.22636" lon="6.04239">
        <ele>303</ele>
        <time>2013-06-19T09:06:35Z</time>
      </trkpt>
      <trkpt lat="47.22631" lon="6.04254">
        <ele>301</ele>
        <time>2013-06-19T09:06:37Z</time>
      </trkpt>
      <trkpt lat="47.22626" lon="6.04269">
        <ele>299</ele>
        <time>2013-06-19T09:06:39Z</time>
      </trkpt>
      <trkpt lat="47.22621" lon="6.04285">
        <ele>299</ele>
        <time>2013-06-19T09:06:41Z</time>
      </trkpt>
      <trkpt lat="47.22618" lon="6.04299">
        <ele>298</ele>
        <time>2013-06-19T09:06:43Z</time>
      </trkpt>
      <trkpt lat="47.22614" lon="6.04315">
        <ele>297</ele>
        <time>2013-06-19T09:06:45Z</time>
      </trkpt>
      <trkpt lat="47.22611" lon="6.04331">
        <ele>296</ele>
        <time>2013-06-19T09:06:47Z</time>
      </trkpt>
      <trkpt lat="47.22608" lon="6.04347">
        <ele>296</ele>
        <time>2013-06-19T09:06:49Z</time>
      </trkpt>
      <trkpt lat="47.22606" lon="6.04364">
        <ele>296</ele>
        <time>2013-06-19T09:06:51Z</time>
      </trkpt>
      <trkpt lat="47.22604" lon="6.04382">
        <ele>296</ele>
        <time>2013-06-19T09:06:53Z</time>
      </trkpt>
      <trkpt lat="47.22601" lon="6.04398">
        <ele>296</ele>
        <time>2013-06-19T09:06:55Z</time>
      </trkpt>
      <trkpt lat="47.22597" lon="6.04414">
        <ele>296</ele>
        <time>2013-06-19T09:06:57Z</time>
      </trkpt>
      <trkpt lat="47.22596" lon="6.04429">
        <ele>296</ele>
        <time>2013-06-19T09:06:59Z</time>
      </trkpt>
      <trkpt lat="47.22594" lon="6.04446">
        <ele>295</ele>
        <time>2013-06-19T09:07:01Z</time>
      </trkpt>
      <trkpt lat="47.22594" lon="6.04461">
        <ele>296</ele>
        <time>2013-06-19T09:07:02Z</time>
      </trkpt>
      <trkpt lat="47.22594" lon="6.04477">
        <ele>296</ele>
        <time>2013-06-19T09:07:04Z</time>
      </trkpt>
      <trkpt lat="47.22596" lon="6.04493">
        <ele>296</ele>
        <time>2013-06-19T09:07:06Z</time>
      </trkpt>
      <trkpt lat="47.22598" lon="6.04508">
        <ele>296</ele>
        <time>2013-06-19T09:07:08Z</time>
      </trkpt>
      <trkpt lat="47.22597" lon="6.04526">
        <ele>297</ele>
        <time>2013-06-19T09:07:10Z</time>
      </trkpt>
      <trkpt lat="47.22596" lon="6.04545">
        <ele>297</ele>
        <time>2013-06-19T09:07:12Z</time>
      </trkpt>
      <trkpt lat="47.22598" lon="6.04562">
        <ele>298</ele>
        <time>2013-06-19T09:07:14Z</time>
      </trkpt>
      <trkpt lat="47.22598" lon="6.04578">
        <ele>298</ele>
        <time>2013-06-19T09:07:16Z</time>
      </trkpt>
      <trkpt lat="47.22598" lon="6.04597">
        <ele>298</ele>
        <time>2013-06-19T09:07:18Z</time>
      </trkpt>
      <trkpt lat="47.226" lon="6.04614">
        <ele>298</ele>
        <time>2013-06-19T09:07:20Z</time>
      </trkpt>
      <trkpt lat="47.22601" lon="6.0463">
        <ele>299</ele>
        <time>2013-06-19T09:07:22Z</time>
      </trkpt>
      <trkpt lat="47.22603" lon="6.04662">
        <ele>298</ele>
        <time>2013-06-19T09:07:26Z</time>
      </trkpt>
      <trkpt lat="47.22602" lon="6.04678">
        <ele>298</ele>
        <time>2013-06-19T09:07:28Z</time>
      </trkpt>
      <trkpt lat="47.22605" lon="6.04695">
        <ele>298</ele>
        <time>2013-06-19T09:07:30Z</time>
      </trkpt>
      <trkpt lat="47.22605" lon="6.04713">
        <ele>298</ele>
        <time>2013-06-19T09:07:32Z</time>
      </trkpt>
      <trkpt lat="47.22604" lon="6.04733">
        <ele>298</ele>
        <time>2013-06-19T09:07:34Z</time>
      </trkpt>
      <trkpt lat="47.22606" lon="6.04751">
        <ele>298</ele>
        <time>2013-06-19T09:07:37Z</time>
      </trkpt>
      <trkpt lat="47.2261" lon="6.04766">
        <ele>298</ele>
        <time>2013-06-19T09:07:39Z</time>
      </trkpt>
      <trkpt lat="47.22609" lon="6.04783">
        <ele>298</ele>
        <time>2013-06-19T09:07:41Z</time>
      </trkpt>
      <trkpt lat="47.2261" lon="6.04798">
        <ele>298</ele>
        <time>2013-06-19T09:07:43Z</time>
      </trkpt>
      <trkpt lat="47.22614" lon="6.04813">
        <ele>298</ele>
        <time>2013-06-19T09:07:45Z</time>
      </trkpt>
      <trkpt lat="47.22614" lon="6.04835">
        <ele>299</ele>
        <time>2013-06-19T09:07:47Z</time>
      </trkpt>
      <trkpt lat="47.22618" lon="6.04852">
        <ele>299</ele>
        <time>2013-06-19T09:07:48Z</time>
      </trkpt>
      <trkpt lat="47.22619" lon="6.04871">
        <ele>298</ele>
        <time>2013-06-19T09:07:51Z</time>
      </trkpt>
      <trkpt lat="47.2262" lon="6.04886">
        <ele>298</ele>
        <time>2013-06-19T09:07:53Z</time>
      </trkpt>
      <trkpt lat="47.22625" lon="6.04901">
        <ele>298</ele>
        <time>2013-06-19T09:07:55Z</time>
      </trkpt>
      <trkpt lat="47.2263" lon="6.04918">
        <ele>299</ele>
        <time>2013-06-19T09:07:57Z</time>
      </trkpt>
      <trkpt lat="47.22634" lon="6.04933">
        <ele>298</ele>
        <time>2013-06-19T09:07:58Z</time>
      </trkpt>
      <trkpt lat="47.22637" lon="6.0495">
        <ele>299</ele>
        <time>2013-06-19T09:08:00Z</time>
      </trkpt>
      <trkpt lat="47.22639" lon="6.04966">
        <ele>298</ele>
        <time>2013-06-19T09:08:02Z</time>
      </trkpt>
      <trkpt lat="47.22645" lon="6.04981">
        <ele>298</ele>
        <time>2013-06-19T09:08:04Z</time>
      </trkpt>
      <trkpt lat="47.22649" lon="6.05">
        <ele>298</ele>
        <time>2013-06-19T09:08:06Z</time>
      </trkpt>
      <trkpt lat="47.22654" lon="6.05016">
        <ele>298</ele>
        <time>2013-06-19T09:08:08Z</time>
      </trkpt>
      <trkpt lat="47.22659" lon="6.05033">
        <ele>297</ele>
        <time>2013-06-19T09:08:10Z</time>
      </trkpt>
      <trkpt lat="47.22666" lon="6.0505">
        <ele>298</ele>
        <time>2013-06-19T09:08:12Z</time>
      </trkpt>
      <trkpt lat="47.22671" lon="6.05067">
        <ele>299</ele>
        <time>2013-06-19T09:08:14Z</time>
      </trkpt>
      <trkpt lat="47.22673" lon="6.05085">
        <ele>298</ele>
        <time>2013-06-19T09:08:16Z</time>
      </trkpt>
      <trkpt lat="47.22678" lon="6.05103">
        <ele>298</ele>
        <time>2013-06-19T09:08:18Z</time>
      </trkpt>
      <trkpt lat="47.2268" lon="6.05117">
        <ele>297</ele>
        <time>2013-06-19T09:08:20Z</time>
      </trkpt>
      <trkpt lat="47.22685" lon="6.0513">
        <ele>297</ele>
        <time>2013-06-19T09:08:22Z</time>
      </trkpt>
      <trkpt lat="47.22688" lon="6.05146">
        <ele>295</ele>
        <time>2013-06-19T09:08:24Z</time>
      </trkpt>
      <trkpt lat="47.22693" lon="6.05161">
        <ele>296</ele>
        <time>2013-06-19T09:08:26Z</time>
      </trkpt>
      <trkpt lat="47.22696" lon="6.05176">
        <ele>297</ele>
        <time>2013-06-19T09:08:28Z</time>
      </trkpt>
      <trkpt lat="47.22701" lon="6.05191">
        <ele>296</ele>
        <time>2013-06-19T09:08:30Z</time>
      </trkpt>
      <trkpt lat="47.22705" lon="6.05206">
        <ele>296</ele>
        <time>2013-06-19T09:08:32Z</time>
      </trkpt>
      <trkpt lat="47.22708" lon="6.05219">
        <ele>296</ele>
        <time>2013-06-19T09:08:34Z</time>
      </trkpt>
      <trkpt lat="47.22712" lon="6.05234">
        <ele>297</ele>
        <time>2013-06-19T09:08:36Z</time>
      </trkpt>
      <trkpt lat="47.22717" lon="6.05249">
        <ele>299</ele>
        <time>2013-06-19T09:08:38Z</time>
      </trkpt>
      <trkpt lat="47.22722" lon="6.05265">
        <ele>299</ele>
        <time>2013-06-19T09:08:40Z</time>
      </trkpt>
      <trkpt lat="47.22727" lon="6.05281">
        <ele>298</ele>
        <time>2013-06-19T09:08:42Z</time>
      </trkpt>
      <trkpt lat="47.22732" lon="6.05295">
        <ele>297</ele>
        <time>2013-06-19T09:08:44Z</time>
      </trkpt>
      <trkpt lat="47.22738" lon="6.05309">
        <ele>298</ele>
        <time>2013-06-19T09:08:46Z</time>
      </trkpt>
      <trkpt lat="47.22743" lon="6.05324">
        <ele>298</ele>
        <time>2013-06-19T09:08:48Z</time>
      </trkpt>
      <trkpt lat="47.22749" lon="6.0534">
        <ele>298</ele>
        <time>2013-06-19T09:08:50Z</time>
      </trkpt>
      <trkpt lat="47.22754" lon="6.05354">
        <ele>299</ele>
        <time>2013-06-19T09:08:52Z</time>
      </trkpt>
      <trkpt lat="47.22759" lon="6.05368">
        <ele>299</ele>
        <time>2013-06-19T09:08:54Z</time>
      </trkpt>
      <trkpt lat="47.22765" lon="6.05382">
        <ele>299</ele>
        <time>2013-06-19T09:08:56Z</time>
      </trkpt>
      <trkpt lat="47.2277" lon="6.05397">
        <ele>300</ele>
        <time>2013-06-19T09:08:58Z</time>
      </trkpt>
      <trkpt lat="47.22777" lon="6.05412">
        <ele>299</ele>
        <time>2013-06-19T09:09:00Z</time>
      </trkpt>
      <trkpt lat="47.22784" lon="6.05425">
        <ele>299</ele>
        <time>2013-06-19T09:09:02Z</time>
      </trkpt>
      <trkpt lat="47.22791" lon="6.05439">
        <ele>300</ele>
        <time>2013-06-19T09:09:04Z</time>
      </trkpt>
      <trkpt lat="47.22797" lon="6.05452">
        <ele>301</ele>
        <time>2013-06-19T09:09:06Z</time>
      </trkpt>
      <trkpt lat="47.22804" lon="6.05466">
        <ele>300</ele>
        <time>2013-06-19T09:09:08Z</time>
      </trkpt>
      <trkpt lat="47.22811" lon="6.05478">
        <ele>300</ele>
        <time>2013-06-19T09:09:10Z</time>
      </trkpt>
      <trkpt lat="47.22818" lon="6.05491">
        <ele>300</ele>
        <time>2013-06-19T09:09:12Z</time>
      </trkpt>
      <trkpt lat="47.22826" lon="6.05505">
        <ele>300</ele>
        <time>2013-06-19T09:09:14Z</time>
      </trkpt>
      <trkpt lat="47.22834" lon="6.05518">
        <ele>301</ele>
        <time>2013-06-19T09:09:16Z</time>
      </trkpt>
      <trkpt lat="47.22842" lon="6.0553">
        <ele>301</ele>
        <time>2013-06-19T09:09:18Z</time>
      </trkpt>
      <trkpt lat="47.22847" lon="6.0554">
        <ele>301</ele>
        <time>2013-06-19T09:09:20Z</time>
      </trkpt>
      <trkpt lat="47.22856" lon="6.05552">
        <ele>300</ele>
        <time>2013-06-19T09:09:22Z</time>
      </trkpt>
      <trkpt lat="47.22862" lon="6.05564">
        <ele>300</ele>
        <time>2013-06-19T09:09:24Z</time>
      </trkpt>
      <trkpt lat="47.2287" lon="6.05576">
        <ele>300</ele>
        <time>2013-06-19T09:09:26Z</time>
      </trkpt>
      <trkpt lat="47.22884" lon="6.05592">
        <ele>299</ele>
        <time>2013-06-19T09:09:28Z</time>
      </trkpt>
      <trkpt lat="47.22894" lon="6.05604">
        <ele>298</ele>
        <time>2013-06-19T09:09:30Z</time>
      </trkpt>
      <trkpt lat="47.22902" lon="6.05616">
        <ele>298</ele>
        <time>2013-06-19T09:09:32Z</time>
      </trkpt>
      <trkpt lat="47.2291" lon="6.05629">
        <ele>298</ele>
        <time>2013-06-19T09:09:34Z</time>
      </trkpt>
      <trkpt lat="47.22918" lon="6.0564">
        <ele>298</ele>
        <time>2013-06-19T09:09:36Z</time>
      </trkpt>
      <trkpt lat="47.22928" lon="6.05647">
        <ele>299</ele>
        <time>2013-06-19T09:09:39Z</time>
      </trkpt>
      <trkpt lat="47.22936" lon="6.05667">
        <ele>298</ele>
        <time>2013-06-19T09:09:41Z</time>
      </trkpt>
      <trkpt lat="47.22947" lon="6.05681">
        <ele>299</ele>
        <time>2013-06-19T09:09:44Z</time>
      </trkpt>
      <trkpt lat="47.22956" lon="6.0569">
        <ele>299</ele>
        <time>2013-06-19T09:09:46Z</time>
      </trkpt>
      <trkpt lat="47.22966" lon="6.05699">
        <ele>299</ele>
        <time>2013-06-19T09:09:48Z</time>
      </trkpt>
      <trkpt lat="47.22976" lon="6.05712">
        <ele>299</ele>
        <time>2013-06-19T09:09:50Z</time>
      </trkpt>
      <trkpt lat="47.22984" lon="6.05729">
        <ele>298</ele>
        <time>2013-06-19T09:09:52Z</time>
      </trkpt>
      <trkpt lat="47.22995" lon="6.0574">
        <ele>299</ele>
        <time>2013-06-19T09:09:54Z</time>
      </trkpt>
      <trkpt lat="47.23005" lon="6.0575">
        <ele>299</ele>
        <time>2013-06-19T09:09:56Z</time>
      </trkpt>
      <trkpt lat="47.23016" lon="6.05759">
        <ele>299</ele>
        <time>2013-06-19T09:09:58Z</time>
      </trkpt>
      <trkpt lat="47.23026" lon="6.05768">
        <ele>298</ele>
        <time>2013-06-19T09:10:00Z</time>
      </trkpt>
      <trkpt lat="47.23035" lon="6.05776">
        <ele>299</ele>
        <time>2013-06-19T09:10:02Z</time>
      </trkpt>
      <trkpt lat="47.23048" lon="6.05796">
        <ele>300</ele>
        <time>2013-06-19T09:10:04Z</time>
      </trkpt>
      <trkpt lat="47.23054" lon="6.0581">
        <ele>300</ele>
        <time>2013-06-19T09:10:07Z</time>
      </trkpt>
      <trkpt lat="47.23055" lon="6.05826">
        <ele>300</ele>
        <time>2013-06-19T09:10:12Z</time>
      </trkpt>
      <trkpt lat="47.2306" lon="6.05837">
        <ele>304</ele>
        <time>2013-06-19T09:10:18Z</time>
      </trkpt>
      <trkpt lat="47.2307" lon="6.05845">
        <ele>304</ele>
        <time>2013-06-19T09:10:21Z</time>
      </trkpt>
      <trkpt lat="47.2308" lon="6.05855">
        <ele>306</ele>
        <time>2013-06-19T09:10:24Z</time>
      </trkpt>
      <trkpt lat="47.23089" lon="6.05866">
        <ele>306</ele>
        <time>2013-06-19T09:10:26Z</time>
      </trkpt>
      <trkpt lat="47.23098" lon="6.05874">
        <ele>306</ele>
        <time>2013-06-19T09:10:28Z</time>
      </trkpt>
      <trkpt lat="47.23108" lon="6.05883">
        <ele>305</ele>
        <time>2013-06-19T09:10:30Z</time>
      </trkpt>
      <trkpt lat="47.23118" lon="6.05894">
        <ele>305</ele>
        <time>2013-06-19T09:10:31Z</time>
      </trkpt>
      <trkpt lat="47.23127" lon="6.05906">
        <ele>305</ele>
        <time>2013-06-19T09:10:34Z</time>
      </trkpt>
      <trkpt lat="47.23137" lon="6.05919">
        <ele>304</ele>
        <time>2013-06-19T09:10:35Z</time>
      </trkpt>
      <trkpt lat="47.23146" lon="6.05931">
        <ele>305</ele>
        <time>2013-06-19T09:10:38Z</time>
      </trkpt>
      <trkpt lat="47.23156" lon="6.05944">
        <ele>306</ele>
        <time>2013-06-19T09:10:39Z</time>
      </trkpt>
      <trkpt lat="47.23163" lon="6.05953">
        <ele>308</ele>
        <time>2013-06-19T09:10:41Z</time>
      </trkpt>
      <trkpt lat="47.23172" lon="6.05966">
        <ele>306</ele>
        <time>2013-06-19T09:10:44Z</time>
      </trkpt>
      <trkpt lat="47.2318" lon="6.0598">
        <ele>309</ele>
        <time>2013-06-19T09:10:47Z</time>
      </trkpt>
      <trkpt lat="47.2319" lon="6.05988">
        <ele>307</ele>
        <time>2013-06-19T09:10:50Z</time>
      </trkpt>
      <trkpt lat="47.23197" lon="6.06001">
        <ele>307</ele>
        <time>2013-06-19T09:10:55Z</time>
      </trkpt>
      <trkpt lat="47.23203" lon="6.06017">
        <ele>307</ele>
        <time>2013-06-19T09:10:57Z</time>
      </trkpt>
      <trkpt lat="47.23208" lon="6.06031">
        <ele>306</ele>
        <time>2013-06-19T09:11:00Z</time>
      </trkpt>
      <trkpt lat="47.23213" lon="6.06042">
        <ele>305</ele>
        <time>2013-06-19T09:11:14Z</time>
      </trkpt>
      <trkpt lat="47.23222" lon="6.06044">
        <ele>304</ele>
        <time>2013-06-19T09:13:27Z</time>
      </trkpt>
      <trkpt lat="47.2323" lon="6.06055">
        <ele>302</ele>
        <time>2013-06-19T09:13:33Z</time>
      </trkpt>
      <trkpt lat="47.23238" lon="6.06063">
        <ele>300</ele>
        <time>2013-06-19T09:13:38Z</time>
      </trkpt>
      <trkpt lat="47.23248" lon="6.06067">
        <ele>304</ele>
        <time>2013-06-19T09:13:44Z</time>
      </trkpt>
      <trkpt lat="47.23256" lon="6.06073">
        <ele>304</ele>
        <time>2013-06-19T09:13:49Z</time>
      </trkpt>
      <trkpt lat="47.23262" lon="6.06089">
        <ele>303</ele>
        <time>2013-06-19T09:13:55Z</time>
      </trkpt>
      <trkpt lat="47.23269" lon="6.06099">
        <ele>302</ele>
        <time>2013-06-19T09:13:57Z</time>
      </trkpt>
      <trkpt lat="47.23289" lon="6.06117">
        <ele>302</ele>
        <time>2013-06-19T09:13:58Z</time>
      </trkpt>
      <trkpt lat="47.23314" lon="6.06127">
        <ele>302</ele>
        <time>2013-06-19T09:13:59Z</time>
      </trkpt>
      <trkpt lat="47.23298" lon="6.06115">
        <ele>302</ele>
        <time>2013-06-19T09:14:07Z</time>
      </trkpt>
      <trkpt lat="47.2329" lon="6.06107">
        <ele>303</ele>
        <time>2013-06-19T09:14:08Z</time>
      </trkpt>
      <trkpt lat="47.2328" lon="6.06099">
        <ele>304</ele>
        <time>2013-06-19T09:14:09Z</time>
      </trkpt>
      <trkpt lat="47.2327" lon="6.06086">
        <ele>304</ele>
        <time>2013-06-19T09:14:11Z</time>
      </trkpt>
      <trkpt lat="47.23272" lon="6.06072">
        <ele>301</ele>
        <time>2013-06-19T09:14:24Z</time>
      </trkpt>
      <trkpt lat="47.23269" lon="6.06091">
        <ele>265</ele>
        <time>2013-06-19T09:15:06Z</time>
      </trkpt>
      <trkpt lat="47.23267" lon="6.06078">
        <ele>282</ele>
        <time>2013-06-19T09:15:11Z</time>
      </trkpt>
      <trkpt lat="47.23273" lon="6.06067">
        <ele>292</ele>
        <time>2013-06-19T09:16:40Z</time>
      </trkpt>
      <trkpt lat="47.23283" lon="6.06059">
        <ele>299</ele>
        <time>2013-06-19T09:17:31Z</time>
      </trkpt>
      <trkpt lat="47.2327" lon="6.06075">
        <ele>292</ele>
        <time>2013-06-19T09:18:10Z</time>
      </trkpt>
      <trkpt lat="47.23279" lon="6.06084">
        <ele>301</ele>
        <time>2013-06-19T09:23:03Z</time>
      </trkpt>
      <trkpt lat="47.23288" lon="6.06089">
        <ele>301</ele>
        <time>2013-06-19T09:23:07Z</time>
      </trkpt>
      <trkpt lat="47.23297" lon="6.06094">
        <ele>305</ele>
        <time>2013-06-19T09:23:12Z</time>
      </trkpt>
      <trkpt lat="47.23308" lon="6.06099">
        <ele>305</ele>
        <time>2013-06-19T09:23:13Z</time>
      </trkpt>
      <trkpt lat="47.23319" lon="6.06107">
        <ele>301</ele>
        <time>2013-06-19T09:23:16Z</time>
      </trkpt>
      <trkpt lat="47.2333" lon="6.06114">
        <ele>301</ele>
        <time>2013-06-19T09:23:19Z</time>
      </trkpt>
      <trkpt lat="47.2334" lon="6.06118">
        <ele>300</ele>
        <time>2013-06-19T09:23:21Z</time>
      </trkpt>
      <trkpt lat="47.23352" lon="6.06121">
        <ele>299</ele>
        <time>2013-06-19T09:23:25Z</time>
      </trkpt>
      <trkpt lat="47.23364" lon="6.06128">
        <ele>297</ele>
        <time>2013-06-19T09:23:28Z</time>
      </trkpt>
      <trkpt lat="47.23372" lon="6.06134">
        <ele>295</ele>
        <time>2013-06-19T09:23:30Z</time>
      </trkpt>
      <trkpt lat="47.23381" lon="6.06134">
        <ele>295</ele>
        <time>2013-06-19T09:23:34Z</time>
      </trkpt>
      <trkpt lat="47.23386" lon="6.06121">
        <ele>295</ele>
        <time>2013-06-19T09:23:36Z</time>
      </trkpt>
      <trkpt lat="47.23386" lon="6.06107">
        <ele>294</ele>
        <time>2013-06-19T09:23:38Z</time>
      </trkpt>
      <trkpt lat="47.23388" lon="6.06092">
        <ele>291</ele>
        <time>2013-06-19T09:23:41Z</time>
      </trkpt>
      <trkpt lat="47.23395" lon="6.06082">
        <ele>291</ele>
        <time>2013-06-19T09:23:44Z</time>
      </trkpt>
      <trkpt lat="47.23405" lon="6.06086">
        <ele>293</ele>
        <time>2013-06-19T09:23:47Z</time>
      </trkpt>
      <trkpt lat="47.23414" lon="6.06091">
        <ele>294</ele>
        <time>2013-06-19T09:23:49Z</time>
      </trkpt>
      <trkpt lat="47.23427" lon="6.06096">
        <ele>295</ele>
        <time>2013-06-19T09:23:52Z</time>
      </trkpt>
      <trkpt lat="47.23439" lon="6.06096">
        <ele>293</ele>
        <time>2013-06-19T09:23:55Z</time>
      </trkpt>
      <trkpt lat="47.23451" lon="6.06099">
        <ele>289</ele>
        <time>2013-06-19T09:23:57Z</time>
      </trkpt>
      <trkpt lat="47.23463" lon="6.06103">
        <ele>292</ele>
        <time>2013-06-19T09:23:59Z</time>
      </trkpt>
      <trkpt lat="47.23475" lon="6.06105">
        <ele>292</ele>
        <time>2013-06-19T09:24:02Z</time>
      </trkpt>
      <trkpt lat="47.23487" lon="6.06109">
        <ele>291</ele>
        <time>2013-06-19T09:24:04Z</time>
      </trkpt>
      <trkpt lat="47.23497" lon="6.0611">
        <ele>291</ele>
        <time>2013-06-19T09:24:05Z</time>
      </trkpt>
      <trkpt lat="47.23506" lon="6.06113">
        <ele>293</ele>
        <time>2013-06-19T09:24:07Z</time>
      </trkpt>
      <trkpt lat="47.2352" lon="6.06117">
        <ele>291</ele>
        <time>2013-06-19T09:24:12Z</time>
      </trkpt>
      <trkpt lat="47.23534" lon="6.06121">
        <ele>293</ele>
        <time>2013-06-19T09:24:14Z</time>
      </trkpt>
      <trkpt lat="47.23546" lon="6.06124">
        <ele>294</ele>
        <time>2013-06-19T09:24:16Z</time>
      </trkpt>
      <trkpt lat="47.23558" lon="6.06127">
        <ele>295</ele>
        <time>2013-06-19T09:24:18Z</time>
      </trkpt>
      <trkpt lat="47.2357" lon="6.06131">
        <ele>294</ele>
        <time>2013-06-19T09:24:20Z</time>
      </trkpt>
      <trkpt lat="47.23583" lon="6.06137">
        <ele>295</ele>
        <time>2013-06-19T09:24:22Z</time>
      </trkpt>
      <trkpt lat="47.23595" lon="6.06141">
        <ele>297</ele>
        <time>2013-06-19T09:24:23Z</time>
      </trkpt>
      <trkpt lat="47.23611" lon="6.06147">
        <ele>297</ele>
        <time>2013-06-19T09:24:25Z</time>
      </trkpt>
      <trkpt lat="47.23622" lon="6.06149">
        <ele>296</ele>
        <time>2013-06-19T09:24:27Z</time>
      </trkpt>
      <trkpt lat="47.23632" lon="6.06152">
        <ele>298</ele>
        <time>2013-06-19T09:24:29Z</time>
      </trkpt>
      <trkpt lat="47.23643" lon="6.06154">
        <ele>298</ele>
        <time>2013-06-19T09:24:31Z</time>
      </trkpt>
      <trkpt lat="47.23655" lon="6.06155">
        <ele>295</ele>
        <time>2013-06-19T09:24:34Z</time>
      </trkpt>
      <trkpt lat="47.23668" lon="6.06165">
        <ele>294</ele>
        <time>2013-06-19T09:24:35Z</time>
      </trkpt>
      <trkpt lat="47.23679" lon="6.0617">
        <ele>298</ele>
        <time>2013-06-19T09:24:37Z</time>
      </trkpt>
      <trkpt lat="47.23691" lon="6.06178">
        <ele>298</ele>
        <time>2013-06-19T09:24:39Z</time>
      </trkpt>
      <trkpt lat="47.23703" lon="6.06186">
        <ele>297</ele>
        <time>2013-06-19T09:24:41Z</time>
      </trkpt>
      <trkpt lat="47.23715" lon="6.06194">
        <ele>298</ele>
        <time>2013-06-19T09:24:43Z</time>
      </trkpt>
      <trkpt lat="47.23726" lon="6.06201">
        <ele>299</ele>
        <time>2013-06-19T09:24:45Z</time>
      </trkpt>
      <trkpt lat="47.23739" lon="6.06209">
        <ele>301</ele>
        <time>2013-06-19T09:24:47Z</time>
      </trkpt>
      <trkpt lat="47.23751" lon="6.06216">
        <ele>300</ele>
        <time>2013-06-19T09:24:49Z</time>
      </trkpt>
      <trkpt lat="47.23763" lon="6.06223">
        <ele>301</ele>
        <time>2013-06-19T09:24:51Z</time>
      </trkpt>
      <trkpt lat="47.23773" lon="6.0623">
        <ele>301</ele>
        <time>2013-06-19T09:24:53Z</time>
      </trkpt>
      <trkpt lat="47.23785" lon="6.06238">
        <ele>302</ele>
        <time>2013-06-19T09:24:56Z</time>
      </trkpt>
      <trkpt lat="47.23797" lon="6.06246">
        <ele>301</ele>
        <time>2013-06-19T09:24:57Z</time>
      </trkpt>
      <trkpt lat="47.23808" lon="6.06254">
        <ele>302</ele>
        <time>2013-06-19T09:24:59Z</time>
      </trkpt>
      <trkpt lat="47.23817" lon="6.06264">
        <ele>303</ele>
        <time>2013-06-19T09:25:01Z</time>
      </trkpt>
      <trkpt lat="47.23826" lon="6.06271">
        <ele>305</ele>
        <time>2013-06-19T09:25:03Z</time>
      </trkpt>
      <trkpt lat="47.23833" lon="6.0628">
        <ele>306</ele>
        <time>2013-06-19T09:25:05Z</time>
      </trkpt>
      <trkpt lat="47.23842" lon="6.0629">
        <ele>305</ele>
        <time>2013-06-19T09:25:07Z</time>
      </trkpt>
      <trkpt lat="47.2385" lon="6.06301">
        <ele>306</ele>
        <time>2013-06-19T09:25:09Z</time>
      </trkpt>
      <trkpt lat="47.23858" lon="6.06309">
        <ele>308</ele>
        <time>2013-06-19T09:25:11Z</time>
      </trkpt>
      <trkpt lat="47.23868" lon="6.06322">
        <ele>308</ele>
        <time>2013-06-19T09:25:13Z</time>
      </trkpt>
      <trkpt lat="47.23879" lon="6.06334">
        <ele>306</ele>
        <time>2013-06-19T09:25:15Z</time>
      </trkpt>
      <trkpt lat="47.23889" lon="6.06347">
        <ele>305</ele>
        <time>2013-06-19T09:25:18Z</time>
      </trkpt>
      <trkpt lat="47.23899" lon="6.0636">
        <ele>305</ele>
        <time>2013-06-19T09:25:19Z</time>
      </trkpt>
      <trkpt lat="47.23907" lon="6.06372">
        <ele>306</ele>
        <time>2013-06-19T09:25:21Z</time>
      </trkpt>
      <trkpt lat="47.23919" lon="6.06388">
        <ele>303</ele>
        <time>2013-06-19T09:25:23Z</time>
      </trkpt>
      <trkpt lat="47.23927" lon="6.064">
        <ele>304</ele>
        <time>2013-06-19T09:25:25Z</time>
      </trkpt>
      <trkpt lat="47.23935" lon="6.06411">
        <ele>304</ele>
        <time>2013-06-19T09:25:27Z</time>
      </trkpt>
      <trkpt lat="47.23943" lon="6.06423">
        <ele>304</ele>
        <time>2013-06-19T09:25:29Z</time>
      </trkpt>
      <trkpt lat="47.23954" lon="6.06436">
        <ele>303</ele>
        <time>2013-06-19T09:25:31Z</time>
      </trkpt>
      <trkpt lat="47.23964" lon="6.0645">
        <ele>303</ele>
        <time>2013-06-19T09:25:33Z</time>
      </trkpt>
      <trkpt lat="47.23974" lon="6.06461">
        <ele>304</ele>
        <time>2013-06-19T09:25:35Z</time>
      </trkpt>
      <trkpt lat="47.23984" lon="6.06473">
        <ele>302</ele>
        <time>2013-06-19T09:25:37Z</time>
      </trkpt>
      <trkpt lat="47.23994" lon="6.06483">
        <ele>301</ele>
        <time>2013-06-19T09:25:40Z</time>
      </trkpt>
      <trkpt lat="47.24004" lon="6.06492">
        <ele>301</ele>
        <time>2013-06-19T09:25:41Z</time>
      </trkpt>
      <trkpt lat="47.24013" lon="6.06505">
        <ele>301</ele>
        <time>2013-06-19T09:25:43Z</time>
      </trkpt>
      <trkpt lat="47.2402" lon="6.06514">
        <ele>302</ele>
        <time>2013-06-19T09:25:46Z</time>
      </trkpt>
      <trkpt lat="47.2403" lon="6.06522">
        <ele>302</ele>
        <time>2013-06-19T09:25:47Z</time>
      </trkpt>
      <trkpt lat="47.24038" lon="6.06529">
        <ele>302</ele>
        <time>2013-06-19T09:25:52Z</time>
      </trkpt>
      <trkpt lat="47.24048" lon="6.0654">
        <ele>298</ele>
        <time>2013-06-19T09:25:52Z</time>
      </trkpt>
      <trkpt lat="47.24059" lon="6.06551">
        <ele>296</ele>
        <time>2013-06-19T09:25:54Z</time>
      </trkpt>
      <trkpt lat="47.24067" lon="6.06564">
        <ele>296</ele>
        <time>2013-06-19T09:25:56Z</time>
      </trkpt>
      <trkpt lat="47.24075" lon="6.06575">
        <ele>297</ele>
        <time>2013-06-19T09:25:58Z</time>
      </trkpt>
      <trkpt lat="47.24081" lon="6.06585">
        <ele>297</ele>
        <time>2013-06-19T09:26:00Z</time>
      </trkpt>
      <trkpt lat="47.24091" lon="6.066">
        <ele>297</ele>
        <time>2013-06-19T09:26:03Z</time>
      </trkpt>
      <trkpt lat="47.241" lon="6.06608">
        <ele>297</ele>
        <time>2013-06-19T09:26:05Z</time>
      </trkpt>
      <trkpt lat="47.24108" lon="6.06617">
        <ele>296</ele>
        <time>2013-06-19T09:26:08Z</time>
      </trkpt>
      <trkpt lat="47.24116" lon="6.06623">
        <ele>296</ele>
        <time>2013-06-19T09:26:10Z</time>
      </trkpt>
      <trkpt lat="47.24129" lon="6.06632">
        <ele>297</ele>
        <time>2013-06-19T09:26:12Z</time>
      </trkpt>
      <trkpt lat="47.24139" lon="6.06646">
        <ele>296</ele>
        <time>2013-06-19T09:26:15Z</time>
      </trkpt>
      <trkpt lat="47.24149" lon="6.06653">
        <ele>298</ele>
        <time>2013-06-19T09:26:17Z</time>
      </trkpt>
      <trkpt lat="47.24157" lon="6.06665">
        <ele>296</ele>
        <time>2013-06-19T09:26:19Z</time>
      </trkpt>
      <trkpt lat="47.24164" lon="6.06674">
        <ele>295</ele>
        <time>2013-06-19T09:26:22Z</time>
      </trkpt>
      <trkpt lat="47.24171" lon="6.06686">
        <ele>295</ele>
        <time>2013-06-19T09:26:24Z</time>
      </trkpt>
      <trkpt lat="47.24182" lon="6.06693">
        <ele>296</ele>
        <time>2013-06-19T09:26:26Z</time>
      </trkpt>
      <trkpt lat="47.24192" lon="6.06696">
        <ele>294</ele>
        <time>2013-06-19T09:26:29Z</time>
      </trkpt>
      <trkpt lat="47.24203" lon="6.06703">
        <ele>295</ele>
        <time>2013-06-19T09:26:31Z</time>
      </trkpt>
      <trkpt lat="47.24213" lon="6.0671">
        <ele>295</ele>
        <time>2013-06-19T09:26:33Z</time>
      </trkpt>
      <trkpt lat="47.24226" lon="6.06715">
        <ele>296</ele>
        <time>2013-06-19T09:26:35Z</time>
      </trkpt>
      <trkpt lat="47.24236" lon="6.06719">
        <ele>293</ele>
        <time>2013-06-19T09:26:37Z</time>
      </trkpt>
      <trkpt lat="47.24249" lon="6.06727">
        <ele>293</ele>
        <time>2013-06-19T09:26:39Z</time>
      </trkpt>
      <trkpt lat="47.24258" lon="6.06727">
        <ele>292</ele>
        <time>2013-06-19T09:26:41Z</time>
      </trkpt>
      <trkpt lat="47.2427" lon="6.0673">
        <ele>291</ele>
        <time>2013-06-19T09:26:43Z</time>
      </trkpt>
      <trkpt lat="47.24282" lon="6.06737">
        <ele>291</ele>
        <time>2013-06-19T09:26:45Z</time>
      </trkpt>
      <trkpt lat="47.24302" lon="6.06741">
        <ele>290</ele>
        <time>2013-06-19T09:26:47Z</time>
      </trkpt>
      <trkpt lat="47.24315" lon="6.06739">
        <ele>291</ele>
        <time>2013-06-19T09:26:48Z</time>
      </trkpt>
      <trkpt lat="47.24326" lon="6.06745">
        <ele>288</ele>
        <time>2013-06-19T09:26:51Z</time>
      </trkpt>
      <trkpt lat="47.24342" lon="6.06751">
        <ele>289</ele>
        <time>2013-06-19T09:26:53Z</time>
      </trkpt>
      <trkpt lat="47.24351" lon="6.06755">
        <ele>290</ele>
        <time>2013-06-19T09:26:55Z</time>
      </trkpt>
      <trkpt lat="47.24363" lon="6.06758">
        <ele>290</ele>
        <time>2013-06-19T09:26:57Z</time>
      </trkpt>
      <trkpt lat="47.24382" lon="6.06748">
        <ele>291</ele>
        <time>2013-06-19T09:27:05Z</time>
      </trkpt>
      <trkpt lat="47.24387" lon="6.06735">
        <ele>291</ele>
        <time>2013-06-19T09:27:06Z</time>
      </trkpt>
      <trkpt lat="47.24386" lon="6.06712">
        <ele>291</ele>
        <time>2013-06-19T09:27:07Z</time>
      </trkpt>
      <trkpt lat="47.24381" lon="6.06701">
        <ele>291</ele>
        <time>2013-06-19T09:27:08Z</time>
      </trkpt>
      <trkpt lat="47.244" lon="6.06738">
        <ele>293</ele>
        <time>2013-06-19T09:27:10Z</time>
      </trkpt>
      <trkpt lat="47.24421" lon="6.06758">
        <ele>292</ele>
        <time>2013-06-19T09:27:12Z</time>
      </trkpt>
      <trkpt lat="47.24437" lon="6.06776">
        <ele>292</ele>
        <time>2013-06-19T09:27:13Z</time>
      </trkpt>
      <trkpt lat="47.24448" lon="6.06787">
        <ele>293</ele>
        <time>2013-06-19T09:27:14Z</time>
      </trkpt>
      <trkpt lat="47.24464" lon="6.06798">
        <ele>293</ele>
        <time>2013-06-19T09:27:16Z</time>
      </trkpt>
      <trkpt lat="47.24481" lon="6.06811">
        <ele>293</ele>
        <time>2013-06-19T09:27:18Z</time>
      </trkpt>
      <trkpt lat="47.24494" lon="6.06818">
        <ele>294</ele>
        <time>2013-06-19T09:27:20Z</time>
      </trkpt>
      <trkpt lat="47.24506" lon="6.06826">
        <ele>295</ele>
        <time>2013-06-19T09:27:22Z</time>
      </trkpt>
      <trkpt lat="47.24517" lon="6.06828">
        <ele>296</ele>
        <time>2013-06-19T09:27:25Z</time>
      </trkpt>
      <trkpt lat="47.24528" lon="6.06837">
        <ele>298</ele>
        <time>2013-06-19T09:27:26Z</time>
      </trkpt>
      <trkpt lat="47.2454" lon="6.06845">
        <ele>299</ele>
        <time>2013-06-19T09:27:29Z</time>
      </trkpt>
      <trkpt lat="47.2455" lon="6.06855">
        <ele>299</ele>
        <time>2013-06-19T09:27:30Z</time>
      </trkpt>
      <trkpt lat="47.24557" lon="6.06864">
        <ele>300</ele>
        <time>2013-06-19T09:27:32Z</time>
      </trkpt>
      <trkpt lat="47.24575" lon="6.0687">
        <ele>299</ele>
        <time>2013-06-19T09:27:36Z</time>
      </trkpt>
      <trkpt lat="47.24584" lon="6.06878">
        <ele>298</ele>
        <time>2013-06-19T09:27:37Z</time>
      </trkpt>
      <trkpt lat="47.24595" lon="6.06895">
        <ele>300</ele>
        <time>2013-06-19T09:27:39Z</time>
      </trkpt>
      <trkpt lat="47.24607" lon="6.06917">
        <ele>301</ele>
        <time>2013-06-19T09:27:41Z</time>
      </trkpt>
      <trkpt lat="47.24614" lon="6.06928">
        <ele>302</ele>
        <time>2013-06-19T09:27:42Z</time>
      </trkpt>
      <trkpt lat="47.24624" lon="6.06942">
        <ele>302</ele>
        <time>2013-06-19T09:27:44Z</time>
      </trkpt>
      <trkpt lat="47.24634" lon="6.06959">
        <ele>299</ele>
        <time>2013-06-19T09:27:47Z</time>
      </trkpt>
      <trkpt lat="47.24645" lon="6.06972">
        <ele>298</ele>
        <time>2013-06-19T09:27:48Z</time>
      </trkpt>
      <trkpt lat="47.24653" lon="6.06983">
        <ele>300</ele>
        <time>2013-06-19T09:27:50Z</time>
      </trkpt>
      <trkpt lat="47.24664" lon="6.06999">
        <ele>298</ele>
        <time>2013-06-19T09:27:52Z</time>
      </trkpt>
      <trkpt lat="47.24674" lon="6.07012">
        <ele>298</ele>
        <time>2013-06-19T09:27:53Z</time>
      </trkpt>
      <trkpt lat="47.24682" lon="6.07028">
        <ele>297</ele>
        <time>2013-06-19T09:27:55Z</time>
      </trkpt>
      <trkpt lat="47.2469" lon="6.07038">
        <ele>299</ele>
        <time>2013-06-19T09:27:57Z</time>
      </trkpt>
      <trkpt lat="47.24698" lon="6.07052">
        <ele>300</ele>
        <time>2013-06-19T09:28:00Z</time>
      </trkpt>
      <trkpt lat="47.24709" lon="6.07066">
        <ele>301</ele>
        <time>2013-06-19T09:28:01Z</time>
      </trkpt>
      <trkpt lat="47.24716" lon="6.07079">
        <ele>301</ele>
        <time>2013-06-19T09:28:05Z</time>
      </trkpt>
      <trkpt lat="47.24724" lon="6.07092">
        <ele>301</ele>
        <time>2013-06-19T09:28:05Z</time>
      </trkpt>
      <trkpt lat="47.24733" lon="6.07107">
        <ele>300</ele>
        <time>2013-06-19T09:28:07Z</time>
      </trkpt>
      <trkpt lat="47.24743" lon="6.07121">
        <ele>299</ele>
        <time>2013-06-19T09:28:09Z</time>
      </trkpt>
      <trkpt lat="47.24751" lon="6.07136">
        <ele>299</ele>
        <time>2013-06-19T09:28:11Z</time>
      </trkpt>
      <trkpt lat="47.24759" lon="6.07152">
        <ele>297</ele>
        <time>2013-06-19T09:28:13Z</time>
      </trkpt>
      <trkpt lat="47.24768" lon="6.07167">
        <ele>297</ele>
        <time>2013-06-19T09:28:15Z</time>
      </trkpt>
      <trkpt lat="47.24778" lon="6.0718">
        <ele>297</ele>
        <time>2013-06-19T09:28:17Z</time>
      </trkpt>
      <trkpt lat="47.24786" lon="6.07193">
        <ele>298</ele>
        <time>2013-06-19T09:28:19Z</time>
      </trkpt>
      <trkpt lat="47.24794" lon="6.07208">
        <ele>298</ele>
        <time>2013-06-19T09:28:21Z</time>
      </trkpt>
      <trkpt lat="47.24801" lon="6.0722">
        <ele>295</ele>
        <time>2013-06-19T09:28:23Z</time>
      </trkpt>
      <trkpt lat="47.2481" lon="6.07232">
        <ele>294</ele>
        <time>2013-06-19T09:28:25Z</time>
      </trkpt>
      <trkpt lat="47.2482" lon="6.07246">
        <ele>295</ele>
        <time>2013-06-19T09:28:27Z</time>
      </trkpt>
      <trkpt lat="47.24829" lon="6.07259">
        <ele>295</ele>
        <time>2013-06-19T09:28:29Z</time>
      </trkpt>
      <trkpt lat="47.24839" lon="6.07271">
        <ele>294</ele>
        <time>2013-06-19T09:28:32Z</time>
      </trkpt>
      <trkpt lat="47.24849" lon="6.07285">
        <ele>294</ele>
        <time>2013-06-19T09:28:34Z</time>
      </trkpt>
      <trkpt lat="47.24859" lon="6.07297">
        <ele>294</ele>
        <time>2013-06-19T09:28:36Z</time>
      </trkpt>
      <trkpt lat="47.24869" lon="6.07308">
        <ele>294</ele>
        <time>2013-06-19T09:28:38Z</time>
      </trkpt>
      <trkpt lat="47.24882" lon="6.07319">
        <ele>294</ele>
        <time>2013-06-19T09:28:40Z</time>
      </trkpt>
      <trkpt lat="47.24893" lon="6.07328">
        <ele>294</ele>
        <time>2013-06-19T09:28:42Z</time>
      </trkpt>
      <trkpt lat="47.24903" lon="6.07336">
        <ele>294</ele>
        <time>2013-06-19T09:28:43Z</time>
      </trkpt>
      <trkpt lat="47.24915" lon="6.07346">
        <ele>294</ele>
        <time>2013-06-19T09:28:45Z</time>
      </trkpt>
      <trkpt lat="47.24926" lon="6.07354">
        <ele>293</ele>
        <time>2013-06-19T09:28:48Z</time>
      </trkpt>
      <trkpt lat="47.24938" lon="6.07363">
        <ele>293</ele>
        <time>2013-06-19T09:28:51Z</time>
      </trkpt>
      <trkpt lat="47.2495" lon="6.07371">
        <ele>293</ele>
        <time>2013-06-19T09:28:52Z</time>
      </trkpt>
      <trkpt lat="47.24959" lon="6.07378">
        <ele>294</ele>
        <time>2013-06-19T09:28:54Z</time>
      </trkpt>
      <trkpt lat="47.24971" lon="6.07389">
        <ele>295</ele>
        <time>2013-06-19T09:28:56Z</time>
      </trkpt>
      <trkpt lat="47.24981" lon="6.07398">
        <ele>296</ele>
        <time>2013-06-19T09:28:58Z</time>
      </trkpt>
      <trkpt lat="47.24992" lon="6.07408">
        <ele>296</ele>
        <time>2013-06-19T09:29:00Z</time>
      </trkpt>
      <trkpt lat="47.25002" lon="6.07418">
        <ele>295</ele>
        <time>2013-06-19T09:29:02Z</time>
      </trkpt>
      <trkpt lat="47.25013" lon="6.07425">
        <ele>297</ele>
        <time>2013-06-19T09:29:04Z</time>
      </trkpt>
      <trkpt lat="47.25025" lon="6.07435">
        <ele>297</ele>
        <time>2013-06-19T09:29:06Z</time>
      </trkpt>
      <trkpt lat="47.25037" lon="6.07445">
        <ele>296</ele>
        <time>2013-06-19T09:29:08Z</time>
      </trkpt>
      <trkpt lat="47.25047" lon="6.07454">
        <ele>295</ele>
        <time>2013-06-19T09:29:10Z</time>
      </trkpt>
      <trkpt lat="47.25058" lon="6.07466">
        <ele>295</ele>
        <time>2013-06-19T09:29:12Z</time>
      </trkpt>
      <trkpt lat="47.25069" lon="6.07477">
        <ele>295</ele>
        <time>2013-06-19T09:29:14Z</time>
      </trkpt>
      <trkpt lat="47.2508" lon="6.07488">
        <ele>296</ele>
        <time>2013-06-19T09:29:16Z</time>
      </trkpt>
      <trkpt lat="47.2509" lon="6.075">
        <ele>296</ele>
        <time>2013-06-19T09:29:17Z</time>
      </trkpt>
      <trkpt lat="47.25101" lon="6.0751">
        <ele>296</ele>
        <time>2013-06-19T09:29:19Z</time>
      </trkpt>
      <trkpt lat="47.25112" lon="6.0752">
        <ele>295</ele>
        <time>2013-06-19T09:29:21Z</time>
      </trkpt>
      <trkpt lat="47.2512" lon="6.07531">
        <ele>296</ele>
        <time>2013-06-19T09:29:24Z</time>
      </trkpt>
      <trkpt lat="47.25129" lon="6.07541">
        <ele>297</ele>
        <time>2013-06-19T09:29:25Z</time>
      </trkpt>
      <trkpt lat="47.25135" lon="6.07553">
        <ele>297</ele>
        <time>2013-06-19T09:29:27Z</time>
      </trkpt>
      <trkpt lat="47.25146" lon="6.07566">
        <ele>295</ele>
        <time>2013-06-19T09:29:29Z</time>
      </trkpt>
      <trkpt lat="47.25154" lon="6.07576">
        <ele>298</ele>
        <time>2013-06-19T09:29:31Z</time>
      </trkpt>
      <trkpt lat="47.25163" lon="6.07591">
        <ele>297</ele>
        <time>2013-06-19T09:29:33Z</time>
      </trkpt>
      <trkpt lat="47.25171" lon="6.07602">
        <ele>297</ele>
        <time>2013-06-19T09:29:35Z</time>
      </trkpt>
      <trkpt lat="47.25179" lon="6.07616">
        <ele>296</ele>
        <time>2013-06-19T09:29:38Z</time>
      </trkpt>
      <trkpt lat="47.25186" lon="6.07628">
        <ele>297</ele>
        <time>2013-06-19T09:29:39Z</time>
      </trkpt>
      <trkpt lat="47.25192" lon="6.07642">
        <ele>297</ele>
        <time>2013-06-19T09:29:41Z</time>
      </trkpt>
      <trkpt lat="47.252" lon="6.07657">
        <ele>296</ele>
        <time>2013-06-19T09:29:43Z</time>
      </trkpt>
      <trkpt lat="47.25206" lon="6.07672">
        <ele>297</ele>
        <time>2013-06-19T09:29:45Z</time>
      </trkpt>
      <trkpt lat="47.25213" lon="6.07688">
        <ele>297</ele>
        <time>2013-06-19T09:29:47Z</time>
      </trkpt>
      <trkpt lat="47.25217" lon="6.07703">
        <ele>297</ele>
        <time>2013-06-19T09:29:51Z</time>
      </trkpt>
      <trkpt lat="47.25223" lon="6.0772">
        <ele>296</ele>
        <time>2013-06-19T09:29:52Z</time>
      </trkpt>
      <trkpt lat="47.2523" lon="6.07737">
        <ele>297</ele>
        <time>2013-06-19T09:29:54Z</time>
      </trkpt>
      <trkpt lat="47.25235" lon="6.07755">
        <ele>296</ele>
        <time>2013-06-19T09:29:56Z</time>
      </trkpt>
      <trkpt lat="47.2524" lon="6.07769">
        <ele>299</ele>
        <time>2013-06-19T09:29:58Z</time>
      </trkpt>
      <trkpt lat="47.25246" lon="6.07786">
        <ele>300</ele>
        <time>2013-06-19T09:30:00Z</time>
      </trkpt>
      <trkpt lat="47.25248" lon="6.07804">
        <ele>301</ele>
        <time>2013-06-19T09:30:02Z</time>
      </trkpt>
      <trkpt lat="47.25253" lon="6.07822">
        <ele>301</ele>
        <time>2013-06-19T09:30:03Z</time>
      </trkpt>
      <trkpt lat="47.25255" lon="6.07842">
        <ele>299</ele>
        <time>2013-06-19T09:30:05Z</time>
      </trkpt>
      <trkpt lat="47.25257" lon="6.07857">
        <ele>299</ele>
        <time>2013-06-19T09:30:07Z</time>
      </trkpt>
      <trkpt lat="47.25261" lon="6.07874">
        <ele>299</ele>
        <time>2013-06-19T09:30:09Z</time>
      </trkpt>
      <trkpt lat="47.25264" lon="6.0789">
        <ele>300</ele>
        <time>2013-06-19T09:30:11Z</time>
      </trkpt>
      <trkpt lat="47.25269" lon="6.07906">
        <ele>299</ele>
        <time>2013-06-19T09:30:13Z</time>
      </trkpt>
      <trkpt lat="47.25272" lon="6.07922">
        <ele>299</ele>
        <time>2013-06-19T09:30:15Z</time>
      </trkpt>
      <trkpt lat="47.25277" lon="6.07938">
        <ele>300</ele>
        <time>2013-06-19T09:30:17Z</time>
      </trkpt>
      <trkpt lat="47.25282" lon="6.07952">
        <ele>300</ele>
        <time>2013-06-19T09:30:19Z</time>
      </trkpt>
      <trkpt lat="47.25288" lon="6.07966">
        <ele>300</ele>
        <time>2013-06-19T09:30:21Z</time>
      </trkpt>
      <trkpt lat="47.25292" lon="6.07982">
        <ele>299</ele>
        <time>2013-06-19T09:30:24Z</time>
      </trkpt>
      <trkpt lat="47.25297" lon="6.07994">
        <ele>299</ele>
        <time>2013-06-19T09:30:24Z</time>
      </trkpt>
      <trkpt lat="47.25299" lon="6.08011">
        <ele>299</ele>
        <time>2013-06-19T09:30:27Z</time>
      </trkpt>
      <trkpt lat="47.25303" lon="6.08025">
        <ele>300</ele>
        <time>2013-06-19T09:30:31Z</time>
      </trkpt>
      <trkpt lat="47.25312" lon="6.08037">
        <ele>299</ele>
        <time>2013-06-19T09:30:33Z</time>
      </trkpt>
      <trkpt lat="47.25321" lon="6.08047">
        <ele>299</ele>
        <time>2013-06-19T09:30:35Z</time>
      </trkpt>
      <trkpt lat="47.25332" lon="6.08056">
        <ele>299</ele>
        <time>2013-06-19T09:30:37Z</time>
      </trkpt>
      <trkpt lat="47.25341" lon="6.08063">
        <ele>299</ele>
        <time>2013-06-19T09:30:39Z</time>
      </trkpt>
      <trkpt lat="47.25352" lon="6.08072">
        <ele>298</ele>
        <time>2013-06-19T09:30:41Z</time>
      </trkpt>
      <trkpt lat="47.2536" lon="6.08082">
        <ele>299</ele>
        <time>2013-06-19T09:30:43Z</time>
      </trkpt>
      <trkpt lat="47.25369" lon="6.0809">
        <ele>299</ele>
        <time>2013-06-19T09:30:46Z</time>
      </trkpt>
      <trkpt lat="47.25379" lon="6.08101">
        <ele>298</ele>
        <time>2013-06-19T09:30:47Z</time>
      </trkpt>
      <trkpt lat="47.2539" lon="6.08109">
        <ele>300</ele>
        <time>2013-06-19T09:30:50Z</time>
      </trkpt>
      <trkpt lat="47.254" lon="6.08118">
        <ele>299</ele>
        <time>2013-06-19T09:30:51Z</time>
      </trkpt>
      <trkpt lat="47.2541" lon="6.08127">
        <ele>299</ele>
        <time>2013-06-19T09:30:53Z</time>
      </trkpt>
      <trkpt lat="47.2542" lon="6.08135">
        <ele>299</ele>
        <time>2013-06-19T09:30:56Z</time>
      </trkpt>
      <trkpt lat="47.25435" lon="6.08142">
        <ele>297</ele>
        <time>2013-06-19T09:30:58Z</time>
      </trkpt>
      <trkpt lat="47.25446" lon="6.08152">
        <ele>296</ele>
        <time>2013-06-19T09:31:01Z</time>
      </trkpt>
      <trkpt lat="47.25459" lon="6.08164">
        <ele>296</ele>
        <time>2013-06-19T09:31:02Z</time>
      </trkpt>
      <trkpt lat="47.2547" lon="6.08168">
        <ele>299</ele>
        <time>2013-06-19T09:31:04Z</time>
      </trkpt>
      <trkpt lat="47.25479" lon="6.08181">
        <ele>298</ele>
        <time>2013-06-19T09:31:06Z</time>
      </trkpt>
      <trkpt lat="47.2549" lon="6.08186">
        <ele>297</ele>
        <time>2013-06-19T09:31:08Z</time>
      </trkpt>
      <trkpt lat="47.25502" lon="6.08195">
        <ele>294</ele>
        <time>2013-06-19T09:31:10Z</time>
      </trkpt>
      <trkpt lat="47.25511" lon="6.08201">
        <ele>295</ele>
        <time>2013-06-19T09:31:12Z</time>
      </trkpt>
      <trkpt lat="47.25521" lon="6.08203">
        <ele>296</ele>
        <time>2013-06-19T09:31:14Z</time>
      </trkpt>
      <trkpt lat="47.25534" lon="6.08212">
        <ele>296</ele>
        <time>2013-06-19T09:31:16Z</time>
      </trkpt>
      <trkpt lat="47.25546" lon="6.08221">
        <ele>297</ele>
        <time>2013-06-19T09:31:18Z</time>
      </trkpt>
      <trkpt lat="47.25557" lon="6.08227">
        <ele>297</ele>
        <time>2013-06-19T09:31:20Z</time>
      </trkpt>
      <trkpt lat="47.25568" lon="6.08234">
        <ele>297</ele>
        <time>2013-06-19T09:31:23Z</time>
      </trkpt>
      <trkpt lat="47.2558" lon="6.0824">
        <ele>297</ele>
        <time>2013-06-19T09:31:25Z</time>
      </trkpt>
      <trkpt lat="47.25591" lon="6.08246">
        <ele>297</ele>
        <time>2013-06-19T09:31:27Z</time>
      </trkpt>
      <trkpt lat="47.25602" lon="6.08253">
        <ele>298</ele>
        <time>2013-06-19T09:31:28Z</time>
      </trkpt>
      <trkpt lat="47.25614" lon="6.0826">
        <ele>297</ele>
        <time>2013-06-19T09:31:31Z</time>
      </trkpt>
      <trkpt lat="47.25625" lon="6.08268">
        <ele>298</ele>
        <time>2013-06-19T09:31:32Z</time>
      </trkpt>
      <trkpt lat="47.25636" lon="6.08274">
        <ele>298</ele>
        <time>2013-06-19T09:31:34Z</time>
      </trkpt>
      <trkpt lat="47.25647" lon="6.08279">
        <ele>297</ele>
        <time>2013-06-19T09:31:36Z</time>
      </trkpt>
      <trkpt lat="47.25658" lon="6.08287">
        <ele>297</ele>
        <time>2013-06-19T09:31:38Z</time>
      </trkpt>
      <trkpt lat="47.25668" lon="6.08296">
        <ele>296</ele>
        <time>2013-06-19T09:31:40Z</time>
      </trkpt>
      <trkpt lat="47.25678" lon="6.08303">
        <ele>296</ele>
        <time>2013-06-19T09:31:42Z</time>
      </trkpt>
      <trkpt lat="47.25691" lon="6.08309">
        <ele>298</ele>
        <time>2013-06-19T09:31:45Z</time>
      </trkpt>
      <trkpt lat="47.25701" lon="6.08315">
        <ele>297</ele>
        <time>2013-06-19T09:31:46Z</time>
      </trkpt>
      <trkpt lat="47.25712" lon="6.08322">
        <ele>297</ele>
        <time>2013-06-19T09:31:48Z</time>
      </trkpt>
      <trkpt lat="47.25723" lon="6.0833">
        <ele>296</ele>
        <time>2013-06-19T09:31:50Z</time>
      </trkpt>
      <trkpt lat="47.25734" lon="6.08335">
        <ele>298</ele>
        <time>2013-06-19T09:31:52Z</time>
      </trkpt>
      <trkpt lat="47.25745" lon="6.08339">
        <ele>301</ele>
        <time>2013-06-19T09:31:54Z</time>
      </trkpt>
      <trkpt lat="47.25757" lon="6.08345">
        <ele>301</ele>
        <time>2013-06-19T09:31:56Z</time>
      </trkpt>
      <trkpt lat="47.25766" lon="6.08351">
        <ele>300</ele>
        <time>2013-06-19T09:31:58Z</time>
      </trkpt>
      <trkpt lat="47.25779" lon="6.08356">
        <ele>302</ele>
        <time>2013-06-19T09:32:00Z</time>
      </trkpt>
      <trkpt lat="47.25789" lon="6.08364">
        <ele>302</ele>
        <time>2013-06-19T09:32:02Z</time>
      </trkpt>
      <trkpt lat="47.258" lon="6.08371">
        <ele>301</ele>
        <time>2013-06-19T09:32:04Z</time>
      </trkpt>
      <trkpt lat="47.25811" lon="6.08379">
        <ele>301</ele>
        <time>2013-06-19T09:32:06Z</time>
      </trkpt>
      <trkpt lat="47.25823" lon="6.08387">
        <ele>301</ele>
        <time>2013-06-19T09:32:08Z</time>
      </trkpt>
      <trkpt lat="47.25834" lon="6.08395">
        <ele>301</ele>
        <time>2013-06-19T09:32:10Z</time>
      </trkpt>
      <trkpt lat="47.25847" lon="6.08404">
        <ele>301</ele>
        <time>2013-06-19T09:32:12Z</time>
      </trkpt>
      <trkpt lat="47.25858" lon="6.08413">
        <ele>301</ele>
        <time>2013-06-19T09:32:14Z</time>
      </trkpt>
      <trkpt lat="47.2587" lon="6.08421">
        <ele>300</ele>
        <time>2013-06-19T09:32:18Z</time>
      </trkpt>
      <trkpt lat="47.25882" lon="6.08428">
        <ele>296</ele>
        <time>2013-06-19T09:32:18Z</time>
      </trkpt>
      <trkpt lat="47.25895" lon="6.08434">
        <ele>296</ele>
        <time>2013-06-19T09:32:20Z</time>
      </trkpt>
      <trkpt lat="47.25904" lon="6.08443">
        <ele>290</ele>
        <time>2013-06-19T09:32:22Z</time>
      </trkpt>
      <trkpt lat="47.25916" lon="6.08451">
        <ele>291</ele>
        <time>2013-06-19T09:32:24Z</time>
      </trkpt>
      <trkpt lat="47.25928" lon="6.08456">
        <ele>291</ele>
        <time>2013-06-19T09:32:26Z</time>
      </trkpt>
      <trkpt lat="47.2594" lon="6.08462">
        <ele>292</ele>
        <time>2013-06-19T09:32:28Z</time>
      </trkpt>
      <trkpt lat="47.25952" lon="6.08466">
        <ele>293</ele>
        <time>2013-06-19T09:32:30Z</time>
      </trkpt>
      <trkpt lat="47.25962" lon="6.0847">
        <ele>292</ele>
        <time>2013-06-19T09:32:32Z</time>
      </trkpt>
      <trkpt lat="47.25973" lon="6.08477">
        <ele>292</ele>
        <time>2013-06-19T09:32:34Z</time>
      </trkpt>
      <trkpt lat="47.25983" lon="6.08482">
        <ele>291</ele>
        <time>2013-06-19T09:32:36Z</time>
      </trkpt>
      <trkpt lat="47.25992" lon="6.08491">
        <ele>291</ele>
        <time>2013-06-19T09:32:38Z</time>
      </trkpt>
      <trkpt lat="47.26006" lon="6.08503">
        <ele>291</ele>
        <time>2013-06-19T09:32:41Z</time>
      </trkpt>
      <trkpt lat="47.26014" lon="6.0851">
        <ele>291</ele>
        <time>2013-06-19T09:32:42Z</time>
      </trkpt>
      <trkpt lat="47.26025" lon="6.08517">
        <ele>291</ele>
        <time>2013-06-19T09:32:44Z</time>
      </trkpt>
      <trkpt lat="47.26037" lon="6.08523">
        <ele>291</ele>
        <time>2013-06-19T09:32:46Z</time>
      </trkpt>
      <trkpt lat="47.26047" lon="6.08529">
        <ele>291</ele>
        <time>2013-06-19T09:32:48Z</time>
      </trkpt>
      <trkpt lat="47.26059" lon="6.08533">
        <ele>290</ele>
        <time>2013-06-19T09:32:50Z</time>
      </trkpt>
      <trkpt lat="47.2607" lon="6.08541">
        <ele>292</ele>
        <time>2013-06-19T09:32:52Z</time>
      </trkpt>
      <trkpt lat="47.26081" lon="6.08548">
        <ele>292</ele>
        <time>2013-06-19T09:32:55Z</time>
      </trkpt>
      <trkpt lat="47.26092" lon="6.08553">
        <ele>292</ele>
        <time>2013-06-19T09:32:56Z</time>
      </trkpt>
      <trkpt lat="47.26106" lon="6.08567">
        <ele>292</ele>
        <time>2013-06-19T09:32:59Z</time>
      </trkpt>
      <trkpt lat="47.26119" lon="6.08577">
        <ele>291</ele>
        <time>2013-06-19T09:33:01Z</time>
      </trkpt>
      <trkpt lat="47.26128" lon="6.08589">
        <ele>292</ele>
        <time>2013-06-19T09:33:03Z</time>
      </trkpt>
      <trkpt lat="47.26138" lon="6.08597">
        <ele>292</ele>
        <time>2013-06-19T09:33:06Z</time>
      </trkpt>
      <trkpt lat="47.26151" lon="6.08604">
        <ele>293</ele>
        <time>2013-06-19T09:33:08Z</time>
      </trkpt>
      <trkpt lat="47.26162" lon="6.0861">
        <ele>292</ele>
        <time>2013-06-19T09:33:09Z</time>
      </trkpt>
      <trkpt lat="47.26172" lon="6.08617">
        <ele>293</ele>
        <time>2013-06-19T09:33:11Z</time>
      </trkpt>
      <trkpt lat="47.26183" lon="6.08623">
        <ele>293</ele>
        <time>2013-06-19T09:33:14Z</time>
      </trkpt>
      <trkpt lat="47.26194" lon="6.08632">
        <ele>293</ele>
        <time>2013-06-19T09:33:15Z</time>
      </trkpt>
      <trkpt lat="47.26203" lon="6.08641">
        <ele>294</ele>
        <time>2013-06-19T09:33:17Z</time>
      </trkpt>
      <trkpt lat="47.26213" lon="6.08651">
        <ele>293</ele>
        <time>2013-06-19T09:33:19Z</time>
      </trkpt>
      <trkpt lat="47.26224" lon="6.08661">
        <ele>291</ele>
        <time>2013-06-19T09:33:21Z</time>
      </trkpt>
      <trkpt lat="47.26235" lon="6.08668">
        <ele>292</ele>
        <time>2013-06-19T09:33:23Z</time>
      </trkpt>
      <trkpt lat="47.26247" lon="6.08675">
        <ele>291</ele>
        <time>2013-06-19T09:33:25Z</time>
      </trkpt>
      <trkpt lat="47.26259" lon="6.08682">
        <ele>290</ele>
        <time>2013-06-19T09:33:27Z</time>
      </trkpt>
      <trkpt lat="47.26271" lon="6.08687">
        <ele>291</ele>
        <time>2013-06-19T09:33:29Z</time>
      </trkpt>
      <trkpt lat="47.26282" lon="6.08691">
        <ele>291</ele>
        <time>2013-06-19T09:33:31Z</time>
      </trkpt>
      <trkpt lat="47.26294" lon="6.08695">
        <ele>294</ele>
        <time>2013-06-19T09:33:33Z</time>
      </trkpt>
      <trkpt lat="47.26304" lon="6.08701">
        <ele>294</ele>
        <time>2013-06-19T09:33:36Z</time>
      </trkpt>
      <trkpt lat="47.26314" lon="6.08707">
        <ele>294</ele>
        <time>2013-06-19T09:33:37Z</time>
      </trkpt>
      <trkpt lat="47.26325" lon="6.08711">
        <ele>293</ele>
        <time>2013-06-19T09:33:39Z</time>
      </trkpt>
      <trkpt lat="47.26335" lon="6.08715">
        <ele>292</ele>
        <time>2013-06-19T09:33:42Z</time>
      </trkpt>
      <trkpt lat="47.26346" lon="6.08719">
        <ele>292</ele>
        <time>2013-06-19T09:33:44Z</time>
      </trkpt>
      <trkpt lat="47.26357" lon="6.08723">
        <ele>291</ele>
        <time>2013-06-19T09:33:46Z</time>
      </trkpt>
      <trkpt lat="47.26369" lon="6.08727">
        <ele>292</ele>
        <time>2013-06-19T09:33:47Z</time>
      </trkpt>
      <trkpt lat="47.26379" lon="6.08731">
        <ele>293</ele>
        <time>2013-06-19T09:33:49Z</time>
      </trkpt>
      <trkpt lat="47.26391" lon="6.08733">
        <ele>293</ele>
        <time>2013-06-19T09:33:51Z</time>
      </trkpt>
      <trkpt lat="47.26403" lon="6.08738">
        <ele>294</ele>
        <time>2013-06-19T09:33:53Z</time>
      </trkpt>
      <trkpt lat="47.26414" lon="6.08744">
        <ele>294</ele>
        <time>2013-06-19T09:33:55Z</time>
      </trkpt>
      <trkpt lat="47.26426" lon="6.08748">
        <ele>295</ele>
        <time>2013-06-19T09:33:57Z</time>
      </trkpt>
      <trkpt lat="47.26438" lon="6.08754">
        <ele>295</ele>
        <time>2013-06-19T09:33:59Z</time>
      </trkpt>
      <trkpt lat="47.26449" lon="6.0876">
        <ele>295</ele>
        <time>2013-06-19T09:34:02Z</time>
      </trkpt>
      <trkpt lat="47.2646" lon="6.08765">
        <ele>295</ele>
        <time>2013-06-19T09:34:03Z</time>
      </trkpt>
      <trkpt lat="47.26474" lon="6.08772">
        <ele>295</ele>
        <time>2013-06-19T09:34:06Z</time>
      </trkpt>
      <trkpt lat="47.26485" lon="6.08774">
        <ele>296</ele>
        <time>2013-06-19T09:34:08Z</time>
      </trkpt>
      <trkpt lat="47.26498" lon="6.08782">
        <ele>297</ele>
        <time>2013-06-19T09:34:10Z</time>
      </trkpt>
      <trkpt lat="47.26507" lon="6.08789">
        <ele>298</ele>
        <time>2013-06-19T09:34:12Z</time>
      </trkpt>
      <trkpt lat="47.26524" lon="6.08802">
        <ele>296</ele>
        <time>2013-06-19T09:34:15Z</time>
      </trkpt>
      <trkpt lat="47.26533" lon="6.08809">
        <ele>296</ele>
        <time>2013-06-19T09:34:17Z</time>
      </trkpt>
      <trkpt lat="47.26543" lon="6.08814">
        <ele>295</ele>
        <time>2013-06-19T09:34:19Z</time>
      </trkpt>
      <trkpt lat="47.26554" lon="6.08821">
        <ele>296</ele>
        <time>2013-06-19T09:34:21Z</time>
      </trkpt>
      <trkpt lat="47.26567" lon="6.08825">
        <ele>295</ele>
        <time>2013-06-19T09:34:23Z</time>
      </trkpt>
      <trkpt lat="47.26576" lon="6.08832">
        <ele>295</ele>
        <time>2013-06-19T09:34:25Z</time>
      </trkpt>
      <trkpt lat="47.26587" lon="6.08839">
        <ele>294</ele>
        <time>2013-06-19T09:34:27Z</time>
      </trkpt>
      <trkpt lat="47.26598" lon="6.08842">
        <ele>297</ele>
        <time>2013-06-19T09:34:30Z</time>
      </trkpt>
      <trkpt lat="47.26588" lon="6.08837">
        <ele>295</ele>
        <time>2013-06-19T09:34:46Z</time>
      </trkpt>
      <trkpt lat="47.26579" lon="6.08833">
        <ele>295</ele>
        <time>2013-06-19T09:34:50Z</time>
      </trkpt>
      <trkpt lat="47.26581" lon="6.08785">
        <ele>296</ele>
        <time>2013-06-19T09:34:54Z</time>
      </trkpt>
      <trkpt lat="47.26595" lon="6.08741">
        <ele>296</ele>
        <time>2013-06-19T09:34:55Z</time>
      </trkpt>
      <trkpt lat="47.26597" lon="6.08721">
        <ele>297</ele>
        <time>2013-06-19T09:34:57Z</time>
      </trkpt>
      <trkpt lat="47.26577" lon="6.08723">
        <ele>299</ele>
        <time>2013-06-19T09:34:58Z</time>
      </trkpt>
      <trkpt lat="47.26568" lon="6.08741">
        <ele>299</ele>
        <time>2013-06-19T09:34:59Z</time>
      </trkpt>
      <trkpt lat="47.2658" lon="6.08791">
        <ele>298</ele>
        <time>2013-06-19T09:35:00Z</time>
      </trkpt>
      <trkpt lat="47.26585" lon="6.08816">
        <ele>299</ele>
        <time>2013-06-19T09:35:02Z</time>
      </trkpt>
      <trkpt lat="47.26589" lon="6.0883">
        <ele>302</ele>
        <time>2013-06-19T09:35:04Z</time>
      </trkpt>
      <trkpt lat="47.26599" lon="6.08834">
        <ele>301</ele>
        <time>2013-06-19T09:35:07Z</time>
      </trkpt>
      <trkpt lat="47.26608" lon="6.08835">
        <ele>302</ele>
        <time>2013-06-19T09:35:10Z</time>
      </trkpt>
      <trkpt lat="47.26617" lon="6.08838">
        <ele>302</ele>
        <time>2013-06-19T09:35:13Z</time>
      </trkpt>
      <trkpt lat="47.26625" lon="6.08842">
        <ele>301</ele>
        <time>2013-06-19T09:35:15Z</time>
      </trkpt>
      <trkpt lat="47.26636" lon="6.08845">
        <ele>300</ele>
        <time>2013-06-19T09:35:17Z</time>
      </trkpt>
      <trkpt lat="47.26646" lon="6.08847">
        <ele>299</ele>
        <time>2013-06-19T09:35:19Z</time>
      </trkpt>
      <trkpt lat="47.26655" lon="6.08851">
        <ele>298</ele>
        <time>2013-06-19T09:35:22Z</time>
      </trkpt>
      <trkpt lat="47.26664" lon="6.08856">
        <ele>299</ele>
        <time>2013-06-19T09:35:23Z</time>
      </trkpt>
      <trkpt lat="47.26674" lon="6.08861">
        <ele>301</ele>
        <time>2013-06-19T09:35:25Z</time>
      </trkpt>
      <trkpt lat="47.26685" lon="6.08867">
        <ele>303</ele>
        <time>2013-06-19T09:35:27Z</time>
      </trkpt>
      <trkpt lat="47.26694" lon="6.08872">
        <ele>304</ele>
        <time>2013-06-19T09:35:29Z</time>
      </trkpt>
      <trkpt lat="47.26703" lon="6.08876">
        <ele>304</ele>
        <time>2013-06-19T09:35:31Z</time>
      </trkpt>
      <trkpt lat="47.26713" lon="6.08877">
        <ele>306</ele>
        <time>2013-06-19T09:35:33Z</time>
      </trkpt>
      <trkpt lat="47.26722" lon="6.08879">
        <ele>307</ele>
        <time>2013-06-19T09:35:35Z</time>
      </trkpt>
      <trkpt lat="47.26733" lon="6.08882">
        <ele>307</ele>
        <time>2013-06-19T09:35:38Z</time>
      </trkpt>
      <trkpt lat="47.26742" lon="6.08882">
        <ele>307</ele>
        <time>2013-06-19T09:35:43Z</time>
      </trkpt>
      <trkpt lat="47.26756" lon="6.08869">
        <ele>301</ele>
        <time>2013-06-19T09:35:47Z</time>
      </trkpt>
      <trkpt lat="47.26764" lon="6.08864">
        <ele>301</ele>
        <time>2013-06-19T09:35:49Z</time>
      </trkpt>
      <trkpt lat="47.26771" lon="6.08855">
        <ele>299</ele>
        <time>2013-06-19T09:35:51Z</time>
      </trkpt>
      <trkpt lat="47.26781" lon="6.08844">
        <ele>298</ele>
        <time>2013-06-19T09:35:54Z</time>
      </trkpt>
      <trkpt lat="47.26789" lon="6.08834">
        <ele>297</ele>
        <time>2013-06-19T09:35:56Z</time>
      </trkpt>
      <trkpt lat="47.26796" lon="6.08825">
        <ele>299</ele>
        <time>2013-06-19T09:35:58Z</time>
      </trkpt>
      <trkpt lat="47.26804" lon="6.08815">
        <ele>299</ele>
        <time>2013-06-19T09:36:00Z</time>
      </trkpt>
      <trkpt lat="47.26813" lon="6.08806">
        <ele>299</ele>
        <time>2013-06-19T09:36:02Z</time>
      </trkpt>
      <trkpt lat="47.26822" lon="6.088">
        <ele>301</ele>
        <time>2013-06-19T09:36:04Z</time>
      </trkpt>
      <trkpt lat="47.26831" lon="6.08793">
        <ele>301</ele>
        <time>2013-06-19T09:36:06Z</time>
      </trkpt>
      <trkpt lat="47.26839" lon="6.08786">
        <ele>300</ele>
        <time>2013-06-19T09:36:08Z</time>
      </trkpt>
      <trkpt lat="47.26844" lon="6.08774">
        <ele>300</ele>
        <time>2013-06-19T09:36:10Z</time>
      </trkpt>
      <trkpt lat="47.26846" lon="6.08754">
        <ele>300</ele>
        <time>2013-06-19T09:36:13Z</time>
      </trkpt>
      <trkpt lat="47.26843" lon="6.08735">
        <ele>300</ele>
        <time>2013-06-19T09:36:15Z</time>
      </trkpt>
      <trkpt lat="47.26839" lon="6.08719">
        <ele>300</ele>
        <time>2013-06-19T09:36:17Z</time>
      </trkpt>
      <trkpt lat="47.26838" lon="6.08704">
        <ele>300</ele>
        <time>2013-06-19T09:36:19Z</time>
      </trkpt>
      <trkpt lat="47.26837" lon="6.08688">
        <ele>301</ele>
        <time>2013-06-19T09:36:21Z</time>
      </trkpt>
      <trkpt lat="47.26836" lon="6.08671">
        <ele>301</ele>
        <time>2013-06-19T09:36:23Z</time>
      </trkpt>
      <trkpt lat="47.26835" lon="6.08655">
        <ele>298</ele>
        <time>2013-06-19T09:36:25Z</time>
      </trkpt>
      <trkpt lat="47.26835" lon="6.08639">
        <ele>299</ele>
        <time>2013-06-19T09:36:27Z</time>
      </trkpt>
      <trkpt lat="47.26837" lon="6.08623">
        <ele>299</ele>
        <time>2013-06-19T09:36:29Z</time>
      </trkpt>
      <trkpt lat="47.26839" lon="6.08608">
        <ele>299</ele>
        <time>2013-06-19T09:36:31Z</time>
      </trkpt>
      <trkpt lat="47.26843" lon="6.08594">
        <ele>299</ele>
        <time>2013-06-19T09:36:33Z</time>
      </trkpt>
      <trkpt lat="47.26848" lon="6.0858">
        <ele>299</ele>
        <time>2013-06-19T09:36:35Z</time>
      </trkpt>
      <trkpt lat="47.26854" lon="6.08568">
        <ele>300</ele>
        <time>2013-06-19T09:36:37Z</time>
      </trkpt>
      <trkpt lat="47.2686" lon="6.08559">
        <ele>300</ele>
        <time>2013-06-19T09:36:39Z</time>
      </trkpt>
      <trkpt lat="47.26869" lon="6.08548">
        <ele>301</ele>
        <time>2013-06-19T09:36:41Z</time>
      </trkpt>
      <trkpt lat="47.26876" lon="6.08539">
        <ele>299</ele>
        <time>2013-06-19T09:36:43Z</time>
      </trkpt>
      <trkpt lat="47.26885" lon="6.08531">
        <ele>299</ele>
        <time>2013-06-19T09:36:45Z</time>
      </trkpt>
      <trkpt lat="47.26896" lon="6.08525">
        <ele>299</ele>
        <time>2013-06-19T09:36:47Z</time>
      </trkpt>
      <trkpt lat="47.26905" lon="6.0852">
        <ele>298</ele>
        <time>2013-06-19T09:36:49Z</time>
      </trkpt>
      <trkpt lat="47.26915" lon="6.08517">
        <ele>298</ele>
        <time>2013-06-19T09:36:51Z</time>
      </trkpt>
      <trkpt lat="47.26924" lon="6.08513">
        <ele>298</ele>
        <time>2013-06-19T09:36:53Z</time>
      </trkpt>
      <trkpt lat="47.26934" lon="6.08511">
        <ele>298</ele>
        <time>2013-06-19T09:36:55Z</time>
      </trkpt>
      <trkpt lat="47.26944" lon="6.08508">
        <ele>298</ele>
        <time>2013-06-19T09:36:56Z</time>
      </trkpt>
      <trkpt lat="47.26953" lon="6.08507">
        <ele>299</ele>
        <time>2013-06-19T09:36:58Z</time>
      </trkpt>
      <trkpt lat="47.26963" lon="6.08505">
        <ele>301</ele>
        <time>2013-06-19T09:37:00Z</time>
      </trkpt>
      <trkpt lat="47.26973" lon="6.08505">
        <ele>300</ele>
        <time>2013-06-19T09:37:02Z</time>
      </trkpt>
      <trkpt lat="47.26985" lon="6.08505">
        <ele>300</ele>
        <time>2013-06-19T09:37:05Z</time>
      </trkpt>
      <trkpt lat="47.26999" lon="6.08501">
        <ele>300</ele>
        <time>2013-06-19T09:37:08Z</time>
      </trkpt>
      <trkpt lat="47.27007" lon="6.08498">
        <ele>300</ele>
        <time>2013-06-19T09:37:10Z</time>
      </trkpt>
      <trkpt lat="47.27017" lon="6.08499">
        <ele>299</ele>
        <time>2013-06-19T09:37:12Z</time>
      </trkpt>
      <trkpt lat="47.27026" lon="6.08496">
        <ele>298</ele>
        <time>2013-06-19T09:37:14Z</time>
      </trkpt>
      <trkpt lat="47.27035" lon="6.08493">
        <ele>298</ele>
        <time>2013-06-19T09:37:16Z</time>
      </trkpt>
      <trkpt lat="47.27046" lon="6.08493">
        <ele>296</ele>
        <time>2013-06-19T09:37:18Z</time>
      </trkpt>
      <trkpt lat="47.27057" lon="6.08489">
        <ele>297</ele>
        <time>2013-06-19T09:37:20Z</time>
      </trkpt>
      <trkpt lat="47.27069" lon="6.08486">
        <ele>296</ele>
        <time>2013-06-19T09:37:22Z</time>
      </trkpt>
      <trkpt lat="47.27081" lon="6.08485">
        <ele>296</ele>
        <time>2013-06-19T09:37:26Z</time>
      </trkpt>
      <trkpt lat="47.27085" lon="6.08504">
        <ele>297</ele>
        <time>2013-06-19T09:37:30Z</time>
      </trkpt>
      <trkpt lat="47.27087" lon="6.08523">
        <ele>296</ele>
        <time>2013-06-19T09:37:33Z</time>
      </trkpt>
      <trkpt lat="47.27089" lon="6.08542">
        <ele>297</ele>
        <time>2013-06-19T09:37:35Z</time>
      </trkpt>
      <trkpt lat="47.27091" lon="6.08556">
        <ele>297</ele>
        <time>2013-06-19T09:37:38Z</time>
      </trkpt>
      <trkpt lat="47.27094" lon="6.08573">
        <ele>297</ele>
        <time>2013-06-19T09:37:40Z</time>
      </trkpt>
      <trkpt lat="47.27095" lon="6.08586">
        <ele>297</ele>
        <time>2013-06-19T09:37:41Z</time>
      </trkpt>
      <trkpt lat="47.27094" lon="6.08603">
        <ele>296</ele>
        <time>2013-06-19T09:37:43Z</time>
      </trkpt>
      <trkpt lat="47.27095" lon="6.08634">
        <ele>299</ele>
        <time>2013-06-19T09:37:48Z</time>
      </trkpt>
      <trkpt lat="47.27091" lon="6.08655">
        <ele>302</ele>
        <time>2013-06-19T09:37:50Z</time>
      </trkpt>
      <trkpt lat="47.27091" lon="6.0867">
        <ele>303</ele>
        <time>2013-06-19T09:37:52Z</time>
      </trkpt>
      <trkpt lat="47.27089" lon="6.0869">
        <ele>303</ele>
        <time>2013-06-19T09:37:55Z</time>
      </trkpt>
      <trkpt lat="47.27088" lon="6.08706">
        <ele>304</ele>
        <time>2013-06-19T09:37:57Z</time>
      </trkpt>
      <trkpt lat="47.27086" lon="6.08722">
        <ele>304</ele>
        <time>2013-06-19T09:37:59Z</time>
      </trkpt>
      <trkpt lat="47.27085" lon="6.08739">
        <ele>303</ele>
        <time>2013-06-19T09:38:02Z</time>
      </trkpt>
      <trkpt lat="47.27082" lon="6.08756">
        <ele>303</ele>
        <time>2013-06-19T09:38:04Z</time>
      </trkpt>
      <trkpt lat="47.27079" lon="6.08773">
        <ele>303</ele>
        <time>2013-06-19T09:38:05Z</time>
      </trkpt>
      <trkpt lat="47.27078" lon="6.08789">
        <ele>302</ele>
        <time>2013-06-19T09:38:07Z</time>
      </trkpt>
      <trkpt lat="47.27076" lon="6.08807">
        <ele>303</ele>
        <time>2013-06-19T09:38:09Z</time>
      </trkpt>
      <trkpt lat="47.27073" lon="6.08823">
        <ele>302</ele>
        <time>2013-06-19T09:38:11Z</time>
      </trkpt>
      <trkpt lat="47.2707" lon="6.08837">
        <ele>302</ele>
        <time>2013-06-19T09:38:13Z</time>
      </trkpt>
      <trkpt lat="47.27067" lon="6.08858">
        <ele>300</ele>
        <time>2013-06-19T09:38:15Z</time>
      </trkpt>
      <trkpt lat="47.27064" lon="6.08877">
        <ele>300</ele>
        <time>2013-06-19T09:38:19Z</time>
      </trkpt>
      <trkpt lat="47.2706" lon="6.08896">
        <ele>299</ele>
        <time>2013-06-19T09:38:20Z</time>
      </trkpt>
      <trkpt lat="47.27058" lon="6.08914">
        <ele>300</ele>
        <time>2013-06-19T09:38:21Z</time>
      </trkpt>
      <trkpt lat="47.27058" lon="6.08936">
        <ele>299</ele>
        <time>2013-06-19T09:38:23Z</time>
      </trkpt>
      <trkpt lat="47.27057" lon="6.08953">
        <ele>299</ele>
        <time>2013-06-19T09:38:25Z</time>
      </trkpt>
      <trkpt lat="47.27054" lon="6.08973">
        <ele>299</ele>
        <time>2013-06-19T09:38:27Z</time>
      </trkpt>
      <trkpt lat="47.27051" lon="6.08993">
        <ele>299</ele>
        <time>2013-06-19T09:38:30Z</time>
      </trkpt>
      <trkpt lat="47.27048" lon="6.09012">
        <ele>300</ele>
        <time>2013-06-19T09:38:31Z</time>
      </trkpt>
      <trkpt lat="47.27044" lon="6.09031">
        <ele>302</ele>
        <time>2013-06-19T09:38:33Z</time>
      </trkpt>
      <trkpt lat="47.27042" lon="6.09048">
        <ele>304</ele>
        <time>2013-06-19T09:38:35Z</time>
      </trkpt>
      <trkpt lat="47.27039" lon="6.09067">
        <ele>304</ele>
        <time>2013-06-19T09:38:37Z</time>
      </trkpt>
      <trkpt lat="47.27037" lon="6.09086">
        <ele>304</ele>
        <time>2013-06-19T09:38:39Z</time>
      </trkpt>
      <trkpt lat="47.27033" lon="6.09112">
        <ele>303</ele>
        <time>2013-06-19T09:38:42Z</time>
      </trkpt>
      <trkpt lat="47.27031" lon="6.09129">
        <ele>304</ele>
        <time>2013-06-19T09:38:44Z</time>
      </trkpt>
      <trkpt lat="47.27025" lon="6.09146">
        <ele>303</ele>
        <time>2013-06-19T09:38:46Z</time>
      </trkpt>
      <trkpt lat="47.27024" lon="6.09169">
        <ele>303</ele>
        <time>2013-06-19T09:38:48Z</time>
      </trkpt>
      <trkpt lat="47.27024" lon="6.09187">
        <ele>304</ele>
        <time>2013-06-19T09:38:50Z</time>
      </trkpt>
      <trkpt lat="47.27022" lon="6.09205">
        <ele>304</ele>
        <time>2013-06-19T09:38:52Z</time>
      </trkpt>
      <trkpt lat="47.27018" lon="6.09224">
        <ele>304</ele>
        <time>2013-06-19T09:38:54Z</time>
      </trkpt>
      <trkpt lat="47.27016" lon="6.09243">
        <ele>304</ele>
        <time>2013-06-19T09:38:56Z</time>
      </trkpt>
      <trkpt lat="47.27012" lon="6.09261">
        <ele>304</ele>
        <time>2013-06-19T09:38:58Z</time>
      </trkpt>
      <trkpt lat="47.27009" lon="6.0928">
        <ele>304</ele>
        <time>2013-06-19T09:39:00Z</time>
      </trkpt>
      <trkpt lat="47.27006" lon="6.09299">
        <ele>303</ele>
        <time>2013-06-19T09:39:02Z</time>
      </trkpt>
      <trkpt lat="47.27003" lon="6.09313">
        <ele>307</ele>
        <time>2013-06-19T09:39:04Z</time>
      </trkpt>
      <trkpt lat="47.27003" lon="6.09329">
        <ele>307</ele>
        <time>2013-06-19T09:39:06Z</time>
      </trkpt>
      <trkpt lat="47.27002" lon="6.09346">
        <ele>308</ele>
        <time>2013-06-19T09:39:08Z</time>
      </trkpt>
      <trkpt lat="47.26999" lon="6.09364">
        <ele>308</ele>
        <time>2013-06-19T09:39:10Z</time>
      </trkpt>
      <trkpt lat="47.26995" lon="6.09383">
        <ele>309</ele>
        <time>2013-06-19T09:39:12Z</time>
      </trkpt>
      <trkpt lat="47.26996" lon="6.09405">
        <ele>309</ele>
        <time>2013-06-19T09:39:14Z</time>
      </trkpt>
      <trkpt lat="47.26994" lon="6.09426">
        <ele>308</ele>
        <time>2013-06-19T09:39:16Z</time>
      </trkpt>
      <trkpt lat="47.26992" lon="6.09444">
        <ele>307</ele>
        <time>2013-06-19T09:39:18Z</time>
      </trkpt>
      <trkpt lat="47.26992" lon="6.09463">
        <ele>307</ele>
        <time>2013-06-19T09:39:20Z</time>
      </trkpt>
      <trkpt lat="47.26988" lon="6.09484">
        <ele>308</ele>
        <time>2013-06-19T09:39:22Z</time>
      </trkpt>
      <trkpt lat="47.26986" lon="6.09504">
        <ele>308</ele>
        <time>2013-06-19T09:39:24Z</time>
      </trkpt>
      <trkpt lat="47.26985" lon="6.09524">
        <ele>309</ele>
        <time>2013-06-19T09:39:26Z</time>
      </trkpt>
      <trkpt lat="47.26987" lon="6.09543">
        <ele>309</ele>
        <time>2013-06-19T09:39:28Z</time>
      </trkpt>
      <trkpt lat="47.26987" lon="6.09564">
        <ele>309</ele>
        <time>2013-06-19T09:39:30Z</time>
      </trkpt>
      <trkpt lat="47.26986" lon="6.09583">
        <ele>309</ele>
        <time>2013-06-19T09:39:32Z</time>
      </trkpt>
      <trkpt lat="47.26986" lon="6.09601">
        <ele>308</ele>
        <time>2013-06-19T09:39:34Z</time>
      </trkpt>
      <trkpt lat="47.26985" lon="6.09619">
        <ele>307</ele>
        <time>2013-06-19T09:39:36Z</time>
      </trkpt>
      <trkpt lat="47.26986" lon="6.09644">
        <ele>311</ele>
        <time>2013-06-19T09:39:39Z</time>
      </trkpt>
      <trkpt lat="47.26986" lon="6.09664">
        <ele>310</ele>
        <time>2013-06-19T09:39:42Z</time>
      </trkpt>
      <trkpt lat="47.26991" lon="6.0968">
        <ele>314</ele>
        <time>2013-06-19T09:39:43Z</time>
      </trkpt>
      <trkpt lat="47.26991" lon="6.09696">
        <ele>313</ele>
        <time>2013-06-19T09:39:45Z</time>
      </trkpt>
      <trkpt lat="47.26991" lon="6.09717">
        <ele>311</ele>
        <time>2013-06-19T09:39:47Z</time>
      </trkpt>
      <trkpt lat="47.26991" lon="6.09738">
        <ele>309</ele>
        <time>2013-06-19T09:39:50Z</time>
      </trkpt>
      <trkpt lat="47.26994" lon="6.09759">
        <ele>310</ele>
        <time>2013-06-19T09:39:51Z</time>
      </trkpt>
      <trkpt lat="47.26992" lon="6.09778">
        <ele>307</ele>
        <time>2013-06-19T09:39:53Z</time>
      </trkpt>
      <trkpt lat="47.26994" lon="6.09794">
        <ele>309</ele>
        <time>2013-06-19T09:39:55Z</time>
      </trkpt>
      <trkpt lat="47.26994" lon="6.09812">
        <ele>310</ele>
        <time>2013-06-19T09:39:58Z</time>
      </trkpt>
      <trkpt lat="47.26996" lon="6.09832">
        <ele>311</ele>
        <time>2013-06-19T09:39:59Z</time>
      </trkpt>
      <trkpt lat="47.26997" lon="6.09846">
        <ele>310</ele>
        <time>2013-06-19T09:40:01Z</time>
      </trkpt>
      <trkpt lat="47.26997" lon="6.09866">
        <ele>310</ele>
        <time>2013-06-19T09:40:02Z</time>
      </trkpt>
      <trkpt lat="47.26998" lon="6.09882">
        <ele>309</ele>
        <time>2013-06-19T09:40:04Z</time>
      </trkpt>
      <trkpt lat="47.26998" lon="6.09901">
        <ele>310</ele>
        <time>2013-06-19T09:40:06Z</time>
      </trkpt>
      <trkpt lat="47.27" lon="6.09918">
        <ele>312</ele>
        <time>2013-06-19T09:40:08Z</time>
      </trkpt>
      <trkpt lat="47.27" lon="6.09937">
        <ele>312</ele>
        <time>2013-06-19T09:40:10Z</time>
      </trkpt>
      <trkpt lat="47.26997" lon="6.09957">
        <ele>311</ele>
        <time>2013-06-19T09:40:12Z</time>
      </trkpt>
      <trkpt lat="47.26994" lon="6.09975">
        <ele>311</ele>
        <time>2013-06-19T09:40:14Z</time>
      </trkpt>
      <trkpt lat="47.26992" lon="6.09995">
        <ele>309</ele>
        <time>2013-06-19T09:40:16Z</time>
      </trkpt>
      <trkpt lat="47.2699" lon="6.10013">
        <ele>308</ele>
        <time>2013-06-19T09:40:18Z</time>
      </trkpt>
      <trkpt lat="47.26986" lon="6.10033">
        <ele>309</ele>
        <time>2013-06-19T09:40:20Z</time>
      </trkpt>
      <trkpt lat="47.26983" lon="6.10052">
        <ele>310</ele>
        <time>2013-06-19T09:40:23Z</time>
      </trkpt>
      <trkpt lat="47.2698" lon="6.10073">
        <ele>312</ele>
        <time>2013-06-19T09:40:25Z</time>
      </trkpt>
      <trkpt lat="47.26978" lon="6.10092">
        <ele>312</ele>
        <time>2013-06-19T09:40:27Z</time>
      </trkpt>
      <trkpt lat="47.26976" lon="6.10109">
        <ele>310</ele>
        <time>2013-06-19T09:40:29Z</time>
      </trkpt>
      <trkpt lat="47.26973" lon="6.10127">
        <ele>308</ele>
        <time>2013-06-19T09:40:31Z</time>
      </trkpt>
      <trkpt lat="47.26968" lon="6.10145">
        <ele>305</ele>
        <time>2013-06-19T09:40:34Z</time>
      </trkpt>
      <trkpt lat="47.26964" lon="6.10166">
        <ele>303</ele>
        <time>2013-06-19T09:40:36Z</time>
      </trkpt>
      <trkpt lat="47.26959" lon="6.10185">
        <ele>302</ele>
        <time>2013-06-19T09:40:37Z</time>
      </trkpt>
      <trkpt lat="47.26955" lon="6.10204">
        <ele>301</ele>
        <time>2013-06-19T09:40:39Z</time>
      </trkpt>
      <trkpt lat="47.26954" lon="6.10222">
        <ele>302</ele>
        <time>2013-06-19T09:40:41Z</time>
      </trkpt>
      <trkpt lat="47.26951" lon="6.1024">
        <ele>302</ele>
        <time>2013-06-19T09:40:43Z</time>
      </trkpt>
      <trkpt lat="47.26946" lon="6.10259">
        <ele>302</ele>
        <time>2013-06-19T09:40:45Z</time>
      </trkpt>
      <trkpt lat="47.26943" lon="6.10277">
        <ele>303</ele>
        <time>2013-06-19T09:40:47Z</time>
      </trkpt>
      <trkpt lat="47.26938" lon="6.10295">
        <ele>304</ele>
        <time>2013-06-19T09:40:49Z</time>
      </trkpt>
      <trkpt lat="47.26935" lon="6.10312">
        <ele>305</ele>
        <time>2013-06-19T09:40:51Z</time>
      </trkpt>
      <trkpt lat="47.26933" lon="6.10331">
        <ele>307</ele>
        <time>2013-06-19T09:40:53Z</time>
      </trkpt>
      <trkpt lat="47.2693" lon="6.10351">
        <ele>307</ele>
        <time>2013-06-19T09:40:56Z</time>
      </trkpt>
      <trkpt lat="47.26927" lon="6.1037">
        <ele>306</ele>
        <time>2013-06-19T09:40:57Z</time>
      </trkpt>
      <trkpt lat="47.26924" lon="6.10386">
        <ele>304</ele>
        <time>2013-06-19T09:40:59Z</time>
      </trkpt>
      <trkpt lat="47.2692" lon="6.10406">
        <ele>305</ele>
        <time>2013-06-19T09:41:01Z</time>
      </trkpt>
      <trkpt lat="47.26919" lon="6.10423">
        <ele>307</ele>
        <time>2013-06-19T09:41:03Z</time>
      </trkpt>
      <trkpt lat="47.26917" lon="6.10444">
        <ele>306</ele>
        <time>2013-06-19T09:41:06Z</time>
      </trkpt>
      <trkpt lat="47.26914" lon="6.10461">
        <ele>306</ele>
        <time>2013-06-19T09:41:08Z</time>
      </trkpt>
      <trkpt lat="47.26912" lon="6.1048">
        <ele>310</ele>
        <time>2013-06-19T09:41:09Z</time>
      </trkpt>
      <trkpt lat="47.26911" lon="6.10498">
        <ele>311</ele>
        <time>2013-06-19T09:41:11Z</time>
      </trkpt>
      <trkpt lat="47.26912" lon="6.10517">
        <ele>312</ele>
        <time>2013-06-19T09:41:13Z</time>
      </trkpt>
      <trkpt lat="47.2691" lon="6.10534">
        <ele>311</ele>
        <time>2013-06-19T09:41:15Z</time>
      </trkpt>
      <trkpt lat="47.26911" lon="6.10554">
        <ele>311</ele>
        <time>2013-06-19T09:41:18Z</time>
      </trkpt>
      <trkpt lat="47.26909" lon="6.10577">
        <ele>313</ele>
        <time>2013-06-19T09:41:19Z</time>
      </trkpt>
      <trkpt lat="47.26908" lon="6.10596">
        <ele>313</ele>
        <time>2013-06-19T09:41:21Z</time>
      </trkpt>
      <trkpt lat="47.26908" lon="6.10616">
        <ele>313</ele>
        <time>2013-06-19T09:41:23Z</time>
      </trkpt>
      <trkpt lat="47.26909" lon="6.10639">
        <ele>312</ele>
        <time>2013-06-19T09:41:25Z</time>
      </trkpt>
      <trkpt lat="47.2691" lon="6.1066">
        <ele>312</ele>
        <time>2013-06-19T09:41:27Z</time>
      </trkpt>
      <trkpt lat="47.26908" lon="6.10675">
        <ele>311</ele>
        <time>2013-06-19T09:41:29Z</time>
      </trkpt>
      <trkpt lat="47.26905" lon="6.10693">
        <ele>308</ele>
        <time>2013-06-19T09:41:31Z</time>
      </trkpt>
      <trkpt lat="47.26905" lon="6.10711">
        <ele>307</ele>
        <time>2013-06-19T09:41:33Z</time>
      </trkpt>
      <trkpt lat="47.26907" lon="6.1073">
        <ele>306</ele>
        <time>2013-06-19T09:41:35Z</time>
      </trkpt>
      <trkpt lat="47.26905" lon="6.10749">
        <ele>304</ele>
        <time>2013-06-19T09:41:37Z</time>
      </trkpt>
      <trkpt lat="47.26908" lon="6.10768">
        <ele>306</ele>
        <time>2013-06-19T09:41:40Z</time>
      </trkpt>
      <trkpt lat="47.2691" lon="6.10788">
        <ele>305</ele>
        <time>2013-06-19T09:41:41Z</time>
      </trkpt>
      <trkpt lat="47.2691" lon="6.10807">
        <ele>305</ele>
        <time>2013-06-19T09:41:43Z</time>
      </trkpt>
      <trkpt lat="47.26913" lon="6.10825">
        <ele>307</ele>
        <time>2013-06-19T09:41:45Z</time>
      </trkpt>
      <trkpt lat="47.26915" lon="6.10844">
        <ele>307</ele>
        <time>2013-06-19T09:41:47Z</time>
      </trkpt>
      <trkpt lat="47.26917" lon="6.10861">
        <ele>308</ele>
        <time>2013-06-19T09:41:49Z</time>
      </trkpt>
      <trkpt lat="47.2692" lon="6.10879">
        <ele>307</ele>
        <time>2013-06-19T09:41:51Z</time>
      </trkpt>
      <trkpt lat="47.26922" lon="6.10896">
        <ele>308</ele>
        <time>2013-06-19T09:41:53Z</time>
      </trkpt>
      <trkpt lat="47.26925" lon="6.10915">
        <ele>306</ele>
        <time>2013-06-19T09:41:55Z</time>
      </trkpt>
      <trkpt lat="47.26926" lon="6.10934">
        <ele>305</ele>
        <time>2013-06-19T09:41:57Z</time>
      </trkpt>
      <trkpt lat="47.26928" lon="6.10949">
        <ele>307</ele>
        <time>2013-06-19T09:41:59Z</time>
      </trkpt>
      <trkpt lat="47.26931" lon="6.10968">
        <ele>307</ele>
        <time>2013-06-19T09:42:02Z</time>
      </trkpt>
      <trkpt lat="47.26935" lon="6.10987">
        <ele>307</ele>
        <time>2013-06-19T09:42:03Z</time>
      </trkpt>
      <trkpt lat="47.26938" lon="6.11006">
        <ele>308</ele>
        <time>2013-06-19T09:42:05Z</time>
      </trkpt>
      <trkpt lat="47.26941" lon="6.11024">
        <ele>307</ele>
        <time>2013-06-19T09:42:07Z</time>
      </trkpt>
      <trkpt lat="47.26944" lon="6.11041">
        <ele>309</ele>
        <time>2013-06-19T09:42:09Z</time>
      </trkpt>
      <trkpt lat="47.26949" lon="6.11062">
        <ele>307</ele>
        <time>2013-06-19T09:42:11Z</time>
      </trkpt>
      <trkpt lat="47.26952" lon="6.11079">
        <ele>307</ele>
        <time>2013-06-19T09:42:13Z</time>
      </trkpt>
      <trkpt lat="47.26955" lon="6.11096">
        <ele>307</ele>
        <time>2013-06-19T09:42:15Z</time>
      </trkpt>
      <trkpt lat="47.26962" lon="6.11112">
        <ele>307</ele>
        <time>2013-06-19T09:42:17Z</time>
      </trkpt>
      <trkpt lat="47.26967" lon="6.11129">
        <ele>308</ele>
        <time>2013-06-19T09:42:19Z</time>
      </trkpt>
      <trkpt lat="47.26971" lon="6.11145">
        <ele>307</ele>
        <time>2013-06-19T09:42:21Z</time>
      </trkpt>
      <trkpt lat="47.26977" lon="6.11163">
        <ele>307</ele>
        <time>2013-06-19T09:42:23Z</time>
      </trkpt>
      <trkpt lat="47.26982" lon="6.11179">
        <ele>308</ele>
        <time>2013-06-19T09:42:25Z</time>
      </trkpt>
      <trkpt lat="47.26992" lon="6.11203">
        <ele>307</ele>
        <time>2013-06-19T09:42:28Z</time>
      </trkpt>
      <trkpt lat="47.26998" lon="6.1122">
        <ele>306</ele>
        <time>2013-06-19T09:42:30Z</time>
      </trkpt>
      <trkpt lat="47.27003" lon="6.11236">
        <ele>307</ele>
        <time>2013-06-19T09:42:32Z</time>
      </trkpt>
      <trkpt lat="47.2701" lon="6.11252">
        <ele>306</ele>
        <time>2013-06-19T09:42:34Z</time>
      </trkpt>
      <trkpt lat="47.27016" lon="6.1127">
        <ele>305</ele>
        <time>2013-06-19T09:42:36Z</time>
      </trkpt>
      <trkpt lat="47.27022" lon="6.11288">
        <ele>305</ele>
        <time>2013-06-19T09:42:38Z</time>
      </trkpt>
      <trkpt lat="47.27029" lon="6.11305">
        <ele>304</ele>
        <time>2013-06-19T09:42:40Z</time>
      </trkpt>
      <trkpt lat="47.27039" lon="6.1132">
        <ele>303</ele>
        <time>2013-06-19T09:42:42Z</time>
      </trkpt>
      <trkpt lat="47.27047" lon="6.11335">
        <ele>304</ele>
        <time>2013-06-19T09:42:44Z</time>
      </trkpt>
      <trkpt lat="47.27056" lon="6.11352">
        <ele>305</ele>
        <time>2013-06-19T09:42:46Z</time>
      </trkpt>
      <trkpt lat="47.27064" lon="6.11368">
        <ele>305</ele>
        <time>2013-06-19T09:42:48Z</time>
      </trkpt>
      <trkpt lat="47.27075" lon="6.11382">
        <ele>304</ele>
        <time>2013-06-19T09:42:50Z</time>
      </trkpt>
      <trkpt lat="47.27084" lon="6.11398">
        <ele>305</ele>
        <time>2013-06-19T09:42:52Z</time>
      </trkpt>
      <trkpt lat="47.27093" lon="6.11413">
        <ele>304</ele>
        <time>2013-06-19T09:42:54Z</time>
      </trkpt>
      <trkpt lat="47.27104" lon="6.11423">
        <ele>307</ele>
        <time>2013-06-19T09:42:56Z</time>
      </trkpt>
      <trkpt lat="47.27112" lon="6.11434">
        <ele>307</ele>
        <time>2013-06-19T09:42:58Z</time>
      </trkpt>
      <trkpt lat="47.27121" lon="6.11447">
        <ele>307</ele>
        <time>2013-06-19T09:43:01Z</time>
      </trkpt>
      <trkpt lat="47.27131" lon="6.11458">
        <ele>306</ele>
        <time>2013-06-19T09:43:02Z</time>
      </trkpt>
      <trkpt lat="47.2714" lon="6.11469">
        <ele>307</ele>
        <time>2013-06-19T09:43:04Z</time>
      </trkpt>
      <trkpt lat="47.2715" lon="6.11478">
        <ele>305</ele>
        <time>2013-06-19T09:43:06Z</time>
      </trkpt>
      <trkpt lat="47.2716" lon="6.1149">
        <ele>304</ele>
        <time>2013-06-19T09:43:08Z</time>
      </trkpt>
      <trkpt lat="47.27171" lon="6.115">
        <ele>305</ele>
        <time>2013-06-19T09:43:10Z</time>
      </trkpt>
      <trkpt lat="47.27181" lon="6.1151">
        <ele>307</ele>
        <time>2013-06-19T09:43:13Z</time>
      </trkpt>
      <trkpt lat="47.27191" lon="6.1152">
        <ele>308</ele>
        <time>2013-06-19T09:43:14Z</time>
      </trkpt>
      <trkpt lat="47.27202" lon="6.1153">
        <ele>307</ele>
        <time>2013-06-19T09:43:16Z</time>
      </trkpt>
      <trkpt lat="47.27214" lon="6.1154">
        <ele>307</ele>
        <time>2013-06-19T09:43:18Z</time>
      </trkpt>
      <trkpt lat="47.27225" lon="6.1155">
        <ele>307</ele>
        <time>2013-06-19T09:43:20Z</time>
      </trkpt>
      <trkpt lat="47.27237" lon="6.11559">
        <ele>305</ele>
        <time>2013-06-19T09:43:24Z</time>
      </trkpt>
      <trkpt lat="47.27248" lon="6.11573">
        <ele>305</ele>
        <time>2013-06-19T09:43:24Z</time>
      </trkpt>
      <trkpt lat="47.27258" lon="6.11585">
        <ele>305</ele>
        <time>2013-06-19T09:43:26Z</time>
      </trkpt>
      <trkpt lat="47.27268" lon="6.11594">
        <ele>305</ele>
        <time>2013-06-19T09:43:28Z</time>
      </trkpt>
      <trkpt lat="47.27276" lon="6.11605">
        <ele>303</ele>
        <time>2013-06-19T09:43:30Z</time>
      </trkpt>
      <trkpt lat="47.27288" lon="6.11615">
        <ele>303</ele>
        <time>2013-06-19T09:43:32Z</time>
      </trkpt>
      <trkpt lat="47.273" lon="6.11627">
        <ele>304</ele>
        <time>2013-06-19T09:43:35Z</time>
      </trkpt>
      <trkpt lat="47.27313" lon="6.11638">
        <ele>305</ele>
        <time>2013-06-19T09:43:36Z</time>
      </trkpt>
      <trkpt lat="47.27324" lon="6.11647">
        <ele>305</ele>
        <time>2013-06-19T09:43:38Z</time>
      </trkpt>
      <trkpt lat="47.27332" lon="6.11659">
        <ele>305</ele>
        <time>2013-06-19T09:43:40Z</time>
      </trkpt>
      <trkpt lat="47.27342" lon="6.1168">
        <ele>305</ele>
        <time>2013-06-19T09:43:42Z</time>
      </trkpt>
      <trkpt lat="47.27355" lon="6.11686">
        <ele>303</ele>
        <time>2013-06-19T09:43:45Z</time>
      </trkpt>
      <trkpt lat="47.2736" lon="6.11699">
        <ele>303</ele>
        <time>2013-06-19T09:43:46Z</time>
      </trkpt>
      <trkpt lat="47.27372" lon="6.11712">
        <ele>304</ele>
        <time>2013-06-19T09:43:48Z</time>
      </trkpt>
      <trkpt lat="47.27383" lon="6.11719">
        <ele>306</ele>
        <time>2013-06-19T09:43:50Z</time>
      </trkpt>
      <trkpt lat="47.27396" lon="6.11733">
        <ele>305</ele>
        <time>2013-06-19T09:43:52Z</time>
      </trkpt>
      <trkpt lat="47.27408" lon="6.11746">
        <ele>307</ele>
        <time>2013-06-19T09:43:54Z</time>
      </trkpt>
      <trkpt lat="47.27422" lon="6.11749">
        <ele>308</ele>
        <time>2013-06-19T09:43:56Z</time>
      </trkpt>
      <trkpt lat="47.27437" lon="6.1175">
        <ele>303</ele>
        <time>2013-06-19T09:43:59Z</time>
      </trkpt>
      <trkpt lat="47.27449" lon="6.11762">
        <ele>303</ele>
        <time>2013-06-19T09:44:00Z</time>
      </trkpt>
      <trkpt lat="47.27461" lon="6.11773">
        <ele>303</ele>
        <time>2013-06-19T09:44:02Z</time>
      </trkpt>
      <trkpt lat="47.2747" lon="6.11783">
        <ele>302</ele>
        <time>2013-06-19T09:44:04Z</time>
      </trkpt>
      <trkpt lat="47.27481" lon="6.11791">
        <ele>303</ele>
        <time>2013-06-19T09:44:07Z</time>
      </trkpt>
      <trkpt lat="47.27493" lon="6.11803">
        <ele>302</ele>
        <time>2013-06-19T09:44:09Z</time>
      </trkpt>
      <trkpt lat="47.27502" lon="6.11815">
        <ele>302</ele>
        <time>2013-06-19T09:44:11Z</time>
      </trkpt>
      <trkpt lat="47.27514" lon="6.11826">
        <ele>301</ele>
        <time>2013-06-19T09:44:12Z</time>
      </trkpt>
      <trkpt lat="47.27527" lon="6.1184">
        <ele>303</ele>
        <time>2013-06-19T09:44:14Z</time>
      </trkpt>
      <trkpt lat="47.27536" lon="6.11855">
        <ele>299</ele>
        <time>2013-06-19T09:44:17Z</time>
      </trkpt>
      <trkpt lat="47.27547" lon="6.11868">
        <ele>300</ele>
        <time>2013-06-19T09:44:19Z</time>
      </trkpt>
      <trkpt lat="47.27557" lon="6.11884">
        <ele>299</ele>
        <time>2013-06-19T09:44:21Z</time>
      </trkpt>
      <trkpt lat="47.27567" lon="6.11898">
        <ele>297</ele>
        <time>2013-06-19T09:44:22Z</time>
      </trkpt>
      <trkpt lat="47.27578" lon="6.11909">
        <ele>299</ele>
        <time>2013-06-19T09:44:24Z</time>
      </trkpt>
      <trkpt lat="47.27588" lon="6.11922">
        <ele>299</ele>
        <time>2013-06-19T09:44:26Z</time>
      </trkpt>
      <trkpt lat="47.27599" lon="6.11935">
        <ele>298</ele>
        <time>2013-06-19T09:44:28Z</time>
      </trkpt>
      <trkpt lat="47.2761" lon="6.11949">
        <ele>298</ele>
        <time>2013-06-19T09:44:30Z</time>
      </trkpt>
      <trkpt lat="47.2762" lon="6.11962">
        <ele>299</ele>
        <time>2013-06-19T09:44:32Z</time>
      </trkpt>
      <trkpt lat="47.27629" lon="6.11975">
        <ele>299</ele>
        <time>2013-06-19T09:44:34Z</time>
      </trkpt>
      <trkpt lat="47.2764" lon="6.11989">
        <ele>299</ele>
        <time>2013-06-19T09:44:36Z</time>
      </trkpt>
      <trkpt lat="47.27651" lon="6.12001">
        <ele>299</ele>
        <time>2013-06-19T09:44:38Z</time>
      </trkpt>
      <trkpt lat="47.27662" lon="6.12011">
        <ele>299</ele>
        <time>2013-06-19T09:44:40Z</time>
      </trkpt>
      <trkpt lat="47.27673" lon="6.12024">
        <ele>296</ele>
        <time>2013-06-19T09:44:43Z</time>
      </trkpt>
      <trkpt lat="47.27684" lon="6.12037">
        <ele>295</ele>
        <time>2013-06-19T09:44:44Z</time>
      </trkpt>
      <trkpt lat="47.27694" lon="6.12048">
        <ele>293</ele>
        <time>2013-06-19T09:44:46Z</time>
      </trkpt>
      <trkpt lat="47.27705" lon="6.12061">
        <ele>293</ele>
        <time>2013-06-19T09:44:49Z</time>
      </trkpt>
      <trkpt lat="47.27714" lon="6.12069">
        <ele>293</ele>
        <time>2013-06-19T09:44:50Z</time>
      </trkpt>
      <trkpt lat="47.27724" lon="6.12079">
        <ele>293</ele>
        <time>2013-06-19T09:44:52Z</time>
      </trkpt>
      <trkpt lat="47.27736" lon="6.12089">
        <ele>293</ele>
        <time>2013-06-19T09:44:55Z</time>
      </trkpt>
      <trkpt lat="47.27748" lon="6.12099">
        <ele>294</ele>
        <time>2013-06-19T09:44:57Z</time>
      </trkpt>
      <trkpt lat="47.2776" lon="6.1211">
        <ele>295</ele>
        <time>2013-06-19T09:44:59Z</time>
      </trkpt>
      <trkpt lat="47.27773" lon="6.12119">
        <ele>295</ele>
        <time>2013-06-19T09:45:01Z</time>
      </trkpt>
      <trkpt lat="47.27782" lon="6.1213">
        <ele>295</ele>
        <time>2013-06-19T09:45:03Z</time>
      </trkpt>
      <trkpt lat="47.27791" lon="6.12137">
        <ele>293</ele>
        <time>2013-06-19T09:45:06Z</time>
      </trkpt>
      <trkpt lat="47.27799" lon="6.12148">
        <ele>293</ele>
        <time>2013-06-19T09:45:07Z</time>
      </trkpt>
      <trkpt lat="47.27811" lon="6.12162">
        <ele>294</ele>
        <time>2013-06-19T09:45:10Z</time>
      </trkpt>
      <trkpt lat="47.2782" lon="6.12174">
        <ele>294</ele>
        <time>2013-06-19T09:45:11Z</time>
      </trkpt>
      <trkpt lat="47.27832" lon="6.12187">
        <ele>296</ele>
        <time>2013-06-19T09:45:13Z</time>
      </trkpt>
      <trkpt lat="47.27841" lon="6.12202">
        <ele>295</ele>
        <time>2013-06-19T09:45:15Z</time>
      </trkpt>
      <trkpt lat="47.27848" lon="6.12215">
        <ele>295</ele>
        <time>2013-06-19T09:45:17Z</time>
      </trkpt>
      <trkpt lat="47.27856" lon="6.12228">
        <ele>295</ele>
        <time>2013-06-19T09:45:19Z</time>
      </trkpt>
      <trkpt lat="47.27866" lon="6.1224">
        <ele>295</ele>
        <time>2013-06-19T09:45:21Z</time>
      </trkpt>
      <trkpt lat="47.27877" lon="6.12255">
        <ele>295</ele>
        <time>2013-06-19T09:45:23Z</time>
      </trkpt>
      <trkpt lat="47.27887" lon="6.12269">
        <ele>295</ele>
        <time>2013-06-19T09:45:25Z</time>
      </trkpt>
      <trkpt lat="47.27894" lon="6.12281">
        <ele>298</ele>
        <time>2013-06-19T09:45:27Z</time>
      </trkpt>
      <trkpt lat="47.27905" lon="6.12295">
        <ele>297</ele>
        <time>2013-06-19T09:45:29Z</time>
      </trkpt>
      <trkpt lat="47.27914" lon="6.12308">
        <ele>299</ele>
        <time>2013-06-19T09:45:31Z</time>
      </trkpt>
      <trkpt lat="47.27923" lon="6.12323">
        <ele>300</ele>
        <time>2013-06-19T09:45:33Z</time>
      </trkpt>
      <trkpt lat="47.27932" lon="6.1234">
        <ele>300</ele>
        <time>2013-06-19T09:45:35Z</time>
      </trkpt>
      <trkpt lat="47.27941" lon="6.12354">
        <ele>299</ele>
        <time>2013-06-19T09:45:37Z</time>
      </trkpt>
      <trkpt lat="47.27948" lon="6.12373">
        <ele>299</ele>
        <time>2013-06-19T09:45:39Z</time>
      </trkpt>
      <trkpt lat="47.27959" lon="6.12384">
        <ele>298</ele>
        <time>2013-06-19T09:45:41Z</time>
      </trkpt>
      <trkpt lat="47.27969" lon="6.12401">
        <ele>298</ele>
        <time>2013-06-19T09:45:43Z</time>
      </trkpt>
      <trkpt lat="47.27979" lon="6.12416">
        <ele>296</ele>
        <time>2013-06-19T09:45:45Z</time>
      </trkpt>
      <trkpt lat="47.27987" lon="6.12431">
        <ele>299</ele>
        <time>2013-06-19T09:45:47Z</time>
      </trkpt>
      <trkpt lat="47.27996" lon="6.12448">
        <ele>301</ele>
        <time>2013-06-19T09:45:49Z</time>
      </trkpt>
      <trkpt lat="47.28004" lon="6.12463">
        <ele>303</ele>
        <time>2013-06-19T09:45:51Z</time>
      </trkpt>
      <trkpt lat="47.28012" lon="6.1248">
        <ele>305</ele>
        <time>2013-06-19T09:45:53Z</time>
      </trkpt>
      <trkpt lat="47.2802" lon="6.12495">
        <ele>306</ele>
        <time>2013-06-19T09:45:55Z</time>
      </trkpt>
      <trkpt lat="47.28028" lon="6.12511">
        <ele>306</ele>
        <time>2013-06-19T09:45:57Z</time>
      </trkpt>
      <trkpt lat="47.28035" lon="6.12525">
        <ele>305</ele>
        <time>2013-06-19T09:45:59Z</time>
      </trkpt>
      <trkpt lat="47.28044" lon="6.1254">
        <ele>305</ele>
        <time>2013-06-19T09:46:01Z</time>
      </trkpt>
      <trkpt lat="47.28052" lon="6.12552">
        <ele>305</ele>
        <time>2013-06-19T09:46:03Z</time>
      </trkpt>
      <trkpt lat="47.28056" lon="6.12567">
        <ele>305</ele>
        <time>2013-06-19T09:46:04Z</time>
      </trkpt>
      <trkpt lat="47.28062" lon="6.12586">
        <ele>304</ele>
        <time>2013-06-19T09:46:06Z</time>
      </trkpt>
      <trkpt lat="47.28062" lon="6.12604">
        <ele>303</ele>
        <time>2013-06-19T09:46:08Z</time>
      </trkpt>
      <trkpt lat="47.28066" lon="6.12622">
        <ele>303</ele>
        <time>2013-06-19T09:46:10Z</time>
      </trkpt>
      <trkpt lat="47.28071" lon="6.12637">
        <ele>303</ele>
        <time>2013-06-19T09:46:12Z</time>
      </trkpt>
      <trkpt lat="47.28072" lon="6.12652">
        <ele>304</ele>
        <time>2013-06-19T09:46:15Z</time>
      </trkpt>
      <trkpt lat="47.28073" lon="6.12667">
        <ele>304</ele>
        <time>2013-06-19T09:46:18Z</time>
      </trkpt>
      <trkpt lat="47.28076" lon="6.1269">
        <ele>305</ele>
        <time>2013-06-19T09:46:20Z</time>
      </trkpt>
      <trkpt lat="47.28082" lon="6.12702">
        <ele>305</ele>
        <time>2013-06-19T09:46:21Z</time>
      </trkpt>
      <trkpt lat="47.28085" lon="6.12731">
        <ele>303</ele>
        <time>2013-06-19T09:46:23Z</time>
      </trkpt>
      <trkpt lat="47.28086" lon="6.12751">
        <ele>301</ele>
        <time>2013-06-19T09:46:25Z</time>
      </trkpt>
      <trkpt lat="47.28089" lon="6.12771">
        <ele>301</ele>
        <time>2013-06-19T09:46:27Z</time>
      </trkpt>
      <trkpt lat="47.28095" lon="6.12789">
        <ele>304</ele>
        <time>2013-06-19T09:46:30Z</time>
      </trkpt>
      <trkpt lat="47.28097" lon="6.12808">
        <ele>304</ele>
        <time>2013-06-19T09:46:31Z</time>
      </trkpt>
      <trkpt lat="47.28099" lon="6.1283">
        <ele>302</ele>
        <time>2013-06-19T09:46:33Z</time>
      </trkpt>
      <trkpt lat="47.28101" lon="6.12849">
        <ele>303</ele>
        <time>2013-06-19T09:46:35Z</time>
      </trkpt>
      <trkpt lat="47.28103" lon="6.12868">
        <ele>303</ele>
        <time>2013-06-19T09:46:37Z</time>
      </trkpt>
      <trkpt lat="47.28104" lon="6.12886">
        <ele>302</ele>
        <time>2013-06-19T09:46:39Z</time>
      </trkpt>
      <trkpt lat="47.28104" lon="6.12903">
        <ele>303</ele>
        <time>2013-06-19T09:46:41Z</time>
      </trkpt>
      <trkpt lat="47.28107" lon="6.1292">
        <ele>303</ele>
        <time>2013-06-19T09:46:43Z</time>
      </trkpt>
      <trkpt lat="47.28112" lon="6.1294">
        <ele>302</ele>
        <time>2013-06-19T09:46:45Z</time>
      </trkpt>
      <trkpt lat="47.28111" lon="6.12954">
        <ele>303</ele>
        <time>2013-06-19T09:46:47Z</time>
      </trkpt>
      <trkpt lat="47.28111" lon="6.12976">
        <ele>306</ele>
        <time>2013-06-19T09:46:48Z</time>
      </trkpt>
      <trkpt lat="47.28113" lon="6.12995">
        <ele>303</ele>
        <time>2013-06-19T09:46:50Z</time>
      </trkpt>
      <trkpt lat="47.28113" lon="6.13017">
        <ele>301</ele>
        <time>2013-06-19T09:46:52Z</time>
      </trkpt>
      <trkpt lat="47.28114" lon="6.13033">
        <ele>304</ele>
        <time>2013-06-19T09:46:54Z</time>
      </trkpt>
      <trkpt lat="47.28117" lon="6.13052">
        <ele>304</ele>
        <time>2013-06-19T09:46:56Z</time>
      </trkpt>
      <trkpt lat="47.28119" lon="6.1307">
        <ele>305</ele>
        <time>2013-06-19T09:46:59Z</time>
      </trkpt>
      <trkpt lat="47.28122" lon="6.1309">
        <ele>306</ele>
        <time>2013-06-19T09:47:00Z</time>
      </trkpt>
      <trkpt lat="47.28128" lon="6.13108">
        <ele>308</ele>
        <time>2013-06-19T09:47:02Z</time>
      </trkpt>
      <trkpt lat="47.2813" lon="6.13127">
        <ele>307</ele>
        <time>2013-06-19T09:47:04Z</time>
      </trkpt>
      <trkpt lat="47.28133" lon="6.13145">
        <ele>307</ele>
        <time>2013-06-19T09:47:06Z</time>
      </trkpt>
      <trkpt lat="47.28136" lon="6.13162">
        <ele>306</ele>
        <time>2013-06-19T09:47:08Z</time>
      </trkpt>
      <trkpt lat="47.28138" lon="6.13182">
        <ele>307</ele>
        <time>2013-06-19T09:47:10Z</time>
      </trkpt>
      <trkpt lat="47.28141" lon="6.132">
        <ele>307</ele>
        <time>2013-06-19T09:47:12Z</time>
      </trkpt>
      <trkpt lat="47.28145" lon="6.13213">
        <ele>307</ele>
        <time>2013-06-19T09:47:14Z</time>
      </trkpt>
      <trkpt lat="47.28148" lon="6.1323">
        <ele>308</ele>
        <time>2013-06-19T09:47:16Z</time>
      </trkpt>
      <trkpt lat="47.28151" lon="6.13247">
        <ele>308</ele>
        <time>2013-06-19T09:47:18Z</time>
      </trkpt>
      <trkpt lat="47.28153" lon="6.13267">
        <ele>307</ele>
        <time>2013-06-19T09:47:21Z</time>
      </trkpt>
      <trkpt lat="47.28156" lon="6.13288">
        <ele>307</ele>
        <time>2013-06-19T09:47:22Z</time>
      </trkpt>
      <trkpt lat="47.28163" lon="6.13301">
        <ele>307</ele>
        <time>2013-06-19T09:47:24Z</time>
      </trkpt>
      <trkpt lat="47.28169" lon="6.13312">
        <ele>307</ele>
        <time>2013-06-19T09:47:25Z</time>
      </trkpt>
      <trkpt lat="47.28167" lon="6.13327">
        <ele>308</ele>
        <time>2013-06-19T09:47:26Z</time>
      </trkpt>
      <trkpt lat="47.28168" lon="6.13349">
        <ele>308</ele>
        <time>2013-06-19T09:47:28Z</time>
      </trkpt>
      <trkpt lat="47.28171" lon="6.13365">
        <ele>309</ele>
        <time>2013-06-19T09:47:30Z</time>
      </trkpt>
      <trkpt lat="47.28171" lon="6.1338">
        <ele>309</ele>
        <time>2013-06-19T09:47:32Z</time>
      </trkpt>
      <trkpt lat="47.28174" lon="6.13399">
        <ele>309</ele>
        <time>2013-06-19T09:47:35Z</time>
      </trkpt>
      <trkpt lat="47.28179" lon="6.13416">
        <ele>308</ele>
        <time>2013-06-19T09:47:36Z</time>
      </trkpt>
      <trkpt lat="47.28182" lon="6.13437">
        <ele>309</ele>
        <time>2013-06-19T09:47:39Z</time>
      </trkpt>
      <trkpt lat="47.28184" lon="6.13454">
        <ele>308</ele>
        <time>2013-06-19T09:47:41Z</time>
      </trkpt>
      <trkpt lat="47.28185" lon="6.13472">
        <ele>307</ele>
        <time>2013-06-19T09:47:43Z</time>
      </trkpt>
      <trkpt lat="47.28188" lon="6.13488">
        <ele>306</ele>
        <time>2013-06-19T09:47:45Z</time>
      </trkpt>
      <trkpt lat="47.28191" lon="6.13503">
        <ele>305</ele>
        <time>2013-06-19T09:47:47Z</time>
      </trkpt>
      <trkpt lat="47.28196" lon="6.1352">
        <ele>305</ele>
        <time>2013-06-19T09:47:49Z</time>
      </trkpt>
      <trkpt lat="47.28201" lon="6.13536">
        <ele>305</ele>
        <time>2013-06-19T09:47:51Z</time>
      </trkpt>
      <trkpt lat="47.28208" lon="6.13553">
        <ele>304</ele>
        <time>2013-06-19T09:47:53Z</time>
      </trkpt>
      <trkpt lat="47.28214" lon="6.13569">
        <ele>303</ele>
        <time>2013-06-19T09:47:56Z</time>
      </trkpt>
      <trkpt lat="47.2822" lon="6.13581">
        <ele>303</ele>
        <time>2013-06-19T09:47:57Z</time>
      </trkpt>
      <trkpt lat="47.28227" lon="6.13595">
        <ele>302</ele>
        <time>2013-06-19T09:47:59Z</time>
      </trkpt>
      <trkpt lat="47.28234" lon="6.13611">
        <ele>299</ele>
        <time>2013-06-19T09:48:01Z</time>
      </trkpt>
      <trkpt lat="47.28241" lon="6.13623">
        <ele>300</ele>
        <time>2013-06-19T09:48:03Z</time>
      </trkpt>
      <trkpt lat="47.28249" lon="6.13634">
        <ele>301</ele>
        <time>2013-06-19T09:48:05Z</time>
      </trkpt>
      <trkpt lat="47.28259" lon="6.13645">
        <ele>301</ele>
        <time>2013-06-19T09:48:07Z</time>
      </trkpt>
      <trkpt lat="47.28268" lon="6.13658">
        <ele>303</ele>
        <time>2013-06-19T09:48:09Z</time>
      </trkpt>
      <trkpt lat="47.28277" lon="6.1367">
        <ele>303</ele>
        <time>2013-06-19T09:48:11Z</time>
      </trkpt>
      <trkpt lat="47.28286" lon="6.13681">
        <ele>304</ele>
        <time>2013-06-19T09:48:13Z</time>
      </trkpt>
      <trkpt lat="47.28294" lon="6.13692">
        <ele>308</ele>
        <time>2013-06-19T09:48:15Z</time>
      </trkpt>
      <trkpt lat="47.28302" lon="6.13704">
        <ele>307</ele>
        <time>2013-06-19T09:48:17Z</time>
      </trkpt>
      <trkpt lat="47.2831" lon="6.13719">
        <ele>305</ele>
        <time>2013-06-19T09:48:19Z</time>
      </trkpt>
      <trkpt lat="47.28317" lon="6.13732">
        <ele>306</ele>
        <time>2013-06-19T09:48:21Z</time>
      </trkpt>
      <trkpt lat="47.28326" lon="6.13743">
        <ele>306</ele>
        <time>2013-06-19T09:48:23Z</time>
      </trkpt>
      <trkpt lat="47.28333" lon="6.13757">
        <ele>304</ele>
        <time>2013-06-19T09:48:25Z</time>
      </trkpt>
      <trkpt lat="47.28342" lon="6.13771">
        <ele>304</ele>
        <time>2013-06-19T09:48:27Z</time>
      </trkpt>
      <trkpt lat="47.28351" lon="6.13783">
        <ele>304</ele>
        <time>2013-06-19T09:48:29Z</time>
      </trkpt>
      <trkpt lat="47.2836" lon="6.13796">
        <ele>304</ele>
        <time>2013-06-19T09:48:31Z</time>
      </trkpt>
      <trkpt lat="47.28369" lon="6.1381">
        <ele>303</ele>
        <time>2013-06-19T09:48:33Z</time>
      </trkpt>
      <trkpt lat="47.28378" lon="6.13823">
        <ele>303</ele>
        <time>2013-06-19T09:48:35Z</time>
      </trkpt>
      <trkpt lat="47.28387" lon="6.13835">
        <ele>303</ele>
        <time>2013-06-19T09:48:37Z</time>
      </trkpt>
      <trkpt lat="47.28395" lon="6.13848">
        <ele>303</ele>
        <time>2013-06-19T09:48:40Z</time>
      </trkpt>
      <trkpt lat="47.28404" lon="6.13861">
        <ele>303</ele>
        <time>2013-06-19T09:48:41Z</time>
      </trkpt>
      <trkpt lat="47.28412" lon="6.13874">
        <ele>302</ele>
        <time>2013-06-19T09:48:43Z</time>
      </trkpt>
      <trkpt lat="47.28422" lon="6.13887">
        <ele>303</ele>
        <time>2013-06-19T09:48:45Z</time>
      </trkpt>
      <trkpt lat="47.28429" lon="6.13902">
        <ele>303</ele>
        <time>2013-06-19T09:48:47Z</time>
      </trkpt>
      <trkpt lat="47.28436" lon="6.13917">
        <ele>303</ele>
        <time>2013-06-19T09:48:49Z</time>
      </trkpt>
      <trkpt lat="47.28442" lon="6.13934">
        <ele>303</ele>
        <time>2013-06-19T09:48:51Z</time>
      </trkpt>
      <trkpt lat="47.2845" lon="6.13953">
        <ele>303</ele>
        <time>2013-06-19T09:48:53Z</time>
      </trkpt>
      <trkpt lat="47.28451" lon="6.13974">
        <ele>305</ele>
        <time>2013-06-19T09:48:55Z</time>
      </trkpt>
      <trkpt lat="47.28455" lon="6.13997">
        <ele>305</ele>
        <time>2013-06-19T09:48:57Z</time>
      </trkpt>
      <trkpt lat="47.28458" lon="6.14019">
        <ele>303</ele>
        <time>2013-06-19T09:48:59Z</time>
      </trkpt>
      <trkpt lat="47.28459" lon="6.1404">
        <ele>303</ele>
        <time>2013-06-19T09:49:02Z</time>
      </trkpt>
      <trkpt lat="47.2846" lon="6.14061">
        <ele>303</ele>
        <time>2013-06-19T09:49:04Z</time>
      </trkpt>
      <trkpt lat="47.28462" lon="6.14101">
        <ele>303</ele>
        <time>2013-06-19T09:49:07Z</time>
      </trkpt>
      <trkpt lat="47.28464" lon="6.14121">
        <ele>302</ele>
        <time>2013-06-19T09:49:09Z</time>
      </trkpt>
      <trkpt lat="47.28465" lon="6.14141">
        <ele>302</ele>
        <time>2013-06-19T09:49:11Z</time>
      </trkpt>
      <trkpt lat="47.28468" lon="6.14169">
        <ele>303</ele>
        <time>2013-06-19T09:49:14Z</time>
      </trkpt>
      <trkpt lat="47.28471" lon="6.14188">
        <ele>304</ele>
        <time>2013-06-19T09:49:16Z</time>
      </trkpt>
      <trkpt lat="47.28473" lon="6.14208">
        <ele>304</ele>
        <time>2013-06-19T09:49:18Z</time>
      </trkpt>
      <trkpt lat="47.28474" lon="6.14229">
        <ele>301</ele>
        <time>2013-06-19T09:49:20Z</time>
      </trkpt>
      <trkpt lat="47.28477" lon="6.14251">
        <ele>299</ele>
        <time>2013-06-19T09:49:22Z</time>
      </trkpt>
      <trkpt lat="47.28478" lon="6.1427">
        <ele>299</ele>
        <time>2013-06-19T09:49:24Z</time>
      </trkpt>
      <trkpt lat="47.28479" lon="6.1429">
        <ele>298</ele>
        <time>2013-06-19T09:49:26Z</time>
      </trkpt>
      <trkpt lat="47.2848" lon="6.1431">
        <ele>298</ele>
        <time>2013-06-19T09:49:28Z</time>
      </trkpt>
      <trkpt lat="47.28482" lon="6.14332">
        <ele>298</ele>
        <time>2013-06-19T09:49:30Z</time>
      </trkpt>
      <trkpt lat="47.28482" lon="6.14351">
        <ele>298</ele>
        <time>2013-06-19T09:49:32Z</time>
      </trkpt>
      <trkpt lat="47.28484" lon="6.1437">
        <ele>298</ele>
        <time>2013-06-19T09:49:34Z</time>
      </trkpt>
      <trkpt lat="47.28486" lon="6.14383">
        <ele>298</ele>
        <time>2013-06-19T09:49:35Z</time>
      </trkpt>
      <trkpt lat="47.28486" lon="6.144">
        <ele>297</ele>
        <time>2013-06-19T09:49:37Z</time>
      </trkpt>
      <trkpt lat="47.28487" lon="6.1442">
        <ele>298</ele>
        <time>2013-06-19T09:49:39Z</time>
      </trkpt>
      <trkpt lat="47.2849" lon="6.14437">
        <ele>301</ele>
        <time>2013-06-19T09:49:42Z</time>
      </trkpt>
      <trkpt lat="47.28492" lon="6.14455">
        <ele>302</ele>
        <time>2013-06-19T09:49:43Z</time>
      </trkpt>
      <trkpt lat="47.28495" lon="6.14477">
        <ele>300</ele>
        <time>2013-06-19T09:49:45Z</time>
      </trkpt>
      <trkpt lat="47.28496" lon="6.14497">
        <ele>301</ele>
        <time>2013-06-19T09:49:49Z</time>
      </trkpt>
      <trkpt lat="47.28499" lon="6.14512">
        <ele>301</ele>
        <time>2013-06-19T09:49:50Z</time>
      </trkpt>
      <trkpt lat="47.28501" lon="6.14531">
        <ele>301</ele>
        <time>2013-06-19T09:49:51Z</time>
      </trkpt>
      <trkpt lat="47.28503" lon="6.14547">
        <ele>302</ele>
        <time>2013-06-19T09:49:53Z</time>
      </trkpt>
      <trkpt lat="47.28506" lon="6.14564">
        <ele>302</ele>
        <time>2013-06-19T09:49:55Z</time>
      </trkpt>
      <trkpt lat="47.2851" lon="6.14587">
        <ele>298</ele>
        <time>2013-06-19T09:49:57Z</time>
      </trkpt>
      <trkpt lat="47.28513" lon="6.14603">
        <ele>299</ele>
        <time>2013-06-19T09:50:00Z</time>
      </trkpt>
      <trkpt lat="47.28516" lon="6.14621">
        <ele>297</ele>
        <time>2013-06-19T09:50:01Z</time>
      </trkpt>
      <trkpt lat="47.2852" lon="6.14639">
        <ele>296</ele>
        <time>2013-06-19T09:50:03Z</time>
      </trkpt>
      <trkpt lat="47.28522" lon="6.14654">
        <ele>297</ele>
        <time>2013-06-19T09:50:05Z</time>
      </trkpt>
      <trkpt lat="47.28526" lon="6.14671">
        <ele>298</ele>
        <time>2013-06-19T09:50:07Z</time>
      </trkpt>
      <trkpt lat="47.2853" lon="6.14688">
        <ele>298</ele>
        <time>2013-06-19T09:50:09Z</time>
      </trkpt>
      <trkpt lat="47.28536" lon="6.14712">
        <ele>299</ele>
        <time>2013-06-19T09:50:12Z</time>
      </trkpt>
      <trkpt lat="47.28542" lon="6.14727">
        <ele>301</ele>
        <time>2013-06-19T09:50:14Z</time>
      </trkpt>
      <trkpt lat="47.28546" lon="6.1474">
        <ele>303</ele>
        <time>2013-06-19T09:50:16Z</time>
      </trkpt>
      <trkpt lat="47.28551" lon="6.14755">
        <ele>304</ele>
        <time>2013-06-19T09:50:18Z</time>
      </trkpt>
      <trkpt lat="47.28556" lon="6.14768">
        <ele>305</ele>
        <time>2013-06-19T09:50:20Z</time>
      </trkpt>
      <trkpt lat="47.28562" lon="6.1478">
        <ele>307</ele>
        <time>2013-06-19T09:50:23Z</time>
      </trkpt>
      <trkpt lat="47.28568" lon="6.14797">
        <ele>308</ele>
        <time>2013-06-19T09:50:25Z</time>
      </trkpt>
      <trkpt lat="47.28573" lon="6.14811">
        <ele>307</ele>
        <time>2013-06-19T09:50:27Z</time>
      </trkpt>
      <trkpt lat="47.28576" lon="6.14825">
        <ele>309</ele>
        <time>2013-06-19T09:50:29Z</time>
      </trkpt>
      <trkpt lat="47.28582" lon="6.14841">
        <ele>312</ele>
        <time>2013-06-19T09:50:32Z</time>
      </trkpt>
      <trkpt lat="47.28587" lon="6.14855">
        <ele>311</ele>
        <time>2013-06-19T09:50:34Z</time>
      </trkpt>
      <trkpt lat="47.28595" lon="6.14868">
        <ele>314</ele>
        <time>2013-06-19T09:50:37Z</time>
      </trkpt>
      <trkpt lat="47.28602" lon="6.14883">
        <ele>314</ele>
        <time>2013-06-19T09:50:40Z</time>
      </trkpt>
      <trkpt lat="47.28608" lon="6.14907">
        <ele>308</ele>
        <time>2013-06-19T09:50:42Z</time>
      </trkpt>
      <trkpt lat="47.28613" lon="6.1492">
        <ele>306</ele>
        <time>2013-06-19T09:50:44Z</time>
      </trkpt>
      <trkpt lat="47.2862" lon="6.14933">
        <ele>305</ele>
        <time>2013-06-19T09:50:46Z</time>
      </trkpt>
      <trkpt lat="47.28624" lon="6.14946">
        <ele>305</ele>
        <time>2013-06-19T09:50:48Z</time>
      </trkpt>
      <trkpt lat="47.28635" lon="6.14955">
        <ele>304</ele>
        <time>2013-06-19T09:50:50Z</time>
      </trkpt>
      <trkpt lat="47.28643" lon="6.14975">
        <ele>305</ele>
        <time>2013-06-19T09:50:52Z</time>
      </trkpt>
      <trkpt lat="47.28652" lon="6.1499">
        <ele>305</ele>
        <time>2013-06-19T09:50:54Z</time>
      </trkpt>
      <trkpt lat="47.28661" lon="6.15004">
        <ele>305</ele>
        <time>2013-06-19T09:50:57Z</time>
      </trkpt>
      <trkpt lat="47.2867" lon="6.15019">
        <ele>305</ele>
        <time>2013-06-19T09:50:58Z</time>
      </trkpt>
      <trkpt lat="47.28676" lon="6.15037">
        <ele>305</ele>
        <time>2013-06-19T09:51:01Z</time>
      </trkpt>
      <trkpt lat="47.28682" lon="6.15048">
        <ele>305</ele>
        <time>2013-06-19T09:51:02Z</time>
      </trkpt>
      <trkpt lat="47.28676" lon="6.15112">
        <ele>304</ele>
        <time>2013-06-19T09:51:04Z</time>
      </trkpt>
      <trkpt lat="47.28679" lon="6.15125">
        <ele>304</ele>
        <time>2013-06-19T09:51:07Z</time>
      </trkpt>
      <trkpt lat="47.2868" lon="6.15139">
        <ele>304</ele>
        <time>2013-06-19T09:51:08Z</time>
      </trkpt>
      <trkpt lat="47.28681" lon="6.15179">
        <ele>304</ele>
        <time>2013-06-19T09:51:12Z</time>
      </trkpt>
      <trkpt lat="47.2869" lon="6.15195">
        <ele>304</ele>
        <time>2013-06-19T09:51:15Z</time>
      </trkpt>
      <trkpt lat="47.28703" lon="6.15202">
        <ele>303</ele>
        <time>2013-06-19T09:51:16Z</time>
      </trkpt>
      <trkpt lat="47.28714" lon="6.15206">
        <ele>301</ele>
        <time>2013-06-19T09:51:18Z</time>
      </trkpt>
      <trkpt lat="47.28716" lon="6.15222">
        <ele>300</ele>
        <time>2013-06-19T09:51:20Z</time>
      </trkpt>
      <trkpt lat="47.28721" lon="6.15241">
        <ele>298</ele>
        <time>2013-06-19T09:51:22Z</time>
      </trkpt>
      <trkpt lat="47.28723" lon="6.15258">
        <ele>297</ele>
        <time>2013-06-19T09:51:25Z</time>
      </trkpt>
      <trkpt lat="47.28725" lon="6.15274">
        <ele>297</ele>
        <time>2013-06-19T09:51:26Z</time>
      </trkpt>
      <trkpt lat="47.28728" lon="6.15289">
        <ele>297</ele>
        <time>2013-06-19T09:51:28Z</time>
      </trkpt>
      <trkpt lat="47.28731" lon="6.15305">
        <ele>298</ele>
        <time>2013-06-19T09:51:30Z</time>
      </trkpt>
      <trkpt lat="47.28733" lon="6.15322">
        <ele>296</ele>
        <time>2013-06-19T09:51:32Z</time>
      </trkpt>
      <trkpt lat="47.28738" lon="6.15339">
        <ele>297</ele>
        <time>2013-06-19T09:51:35Z</time>
      </trkpt>
      <trkpt lat="47.28742" lon="6.15355">
        <ele>298</ele>
        <time>2013-06-19T09:51:36Z</time>
      </trkpt>
      <trkpt lat="47.28747" lon="6.15375">
        <ele>296</ele>
        <time>2013-06-19T09:51:38Z</time>
      </trkpt>
      <trkpt lat="47.28754" lon="6.15393">
        <ele>298</ele>
        <time>2013-06-19T09:51:40Z</time>
      </trkpt>
      <trkpt lat="47.28756" lon="6.15409">
        <ele>299</ele>
        <time>2013-06-19T09:51:42Z</time>
      </trkpt>
      <trkpt lat="47.28758" lon="6.15427">
        <ele>298</ele>
        <time>2013-06-19T09:51:45Z</time>
      </trkpt>
      <trkpt lat="47.28761" lon="6.15443">
        <ele>298</ele>
        <time>2013-06-19T09:51:46Z</time>
      </trkpt>
      <trkpt lat="47.28764" lon="6.15459">
        <ele>297</ele>
        <time>2013-06-19T09:51:48Z</time>
      </trkpt>
      <trkpt lat="47.28766" lon="6.15477">
        <ele>298</ele>
        <time>2013-06-19T09:51:50Z</time>
      </trkpt>
      <trkpt lat="47.28772" lon="6.15499">
        <ele>299</ele>
        <time>2013-06-19T09:51:52Z</time>
      </trkpt>
      <trkpt lat="47.28778" lon="6.15515">
        <ele>302</ele>
        <time>2013-06-19T09:51:54Z</time>
      </trkpt>
      <trkpt lat="47.2878" lon="6.15533">
        <ele>302</ele>
        <time>2013-06-19T09:51:56Z</time>
      </trkpt>
      <trkpt lat="47.28783" lon="6.15551">
        <ele>302</ele>
        <time>2013-06-19T09:51:58Z</time>
      </trkpt>
      <trkpt lat="47.28788" lon="6.15568">
        <ele>303</ele>
        <time>2013-06-19T09:52:00Z</time>
      </trkpt>
      <trkpt lat="47.28791" lon="6.15586">
        <ele>302</ele>
        <time>2013-06-19T09:52:02Z</time>
      </trkpt>
      <trkpt lat="47.28794" lon="6.15604">
        <ele>302</ele>
        <time>2013-06-19T09:52:05Z</time>
      </trkpt>
      <trkpt lat="47.28798" lon="6.15622">
        <ele>302</ele>
        <time>2013-06-19T09:52:06Z</time>
      </trkpt>
      <trkpt lat="47.28801" lon="6.15642">
        <ele>302</ele>
        <time>2013-06-19T09:52:08Z</time>
      </trkpt>
      <trkpt lat="47.28804" lon="6.15659">
        <ele>304</ele>
        <time>2013-06-19T09:52:10Z</time>
      </trkpt>
      <trkpt lat="47.28808" lon="6.15678">
        <ele>305</ele>
        <time>2013-06-19T09:52:12Z</time>
      </trkpt>
      <trkpt lat="47.28811" lon="6.15696">
        <ele>304</ele>
        <time>2013-06-19T09:52:14Z</time>
      </trkpt>
      <trkpt lat="47.28814" lon="6.15715">
        <ele>303</ele>
        <time>2013-06-19T09:52:16Z</time>
      </trkpt>
      <trkpt lat="47.28816" lon="6.15734">
        <ele>302</ele>
        <time>2013-06-19T09:52:19Z</time>
      </trkpt>
      <trkpt lat="47.28819" lon="6.15754">
        <ele>305</ele>
        <time>2013-06-19T09:52:20Z</time>
      </trkpt>
      <trkpt lat="47.28822" lon="6.15773">
        <ele>305</ele>
        <time>2013-06-19T09:52:22Z</time>
      </trkpt>
      <trkpt lat="47.28824" lon="6.15793">
        <ele>304</ele>
        <time>2013-06-19T09:52:24Z</time>
      </trkpt>
      <trkpt lat="47.28827" lon="6.15813">
        <ele>304</ele>
        <time>2013-06-19T09:52:26Z</time>
      </trkpt>
      <trkpt lat="47.2883" lon="6.15831">
        <ele>306</ele>
        <time>2013-06-19T09:52:28Z</time>
      </trkpt>
      <trkpt lat="47.28834" lon="6.1585">
        <ele>307</ele>
        <time>2013-06-19T09:52:30Z</time>
      </trkpt>
      <trkpt lat="47.28836" lon="6.15867">
        <ele>307</ele>
        <time>2013-06-19T09:52:33Z</time>
      </trkpt>
      <trkpt lat="47.2884" lon="6.15886">
        <ele>309</ele>
        <time>2013-06-19T09:52:34Z</time>
      </trkpt>
      <trkpt lat="47.28843" lon="6.15903">
        <ele>307</ele>
        <time>2013-06-19T09:52:36Z</time>
      </trkpt>
      <trkpt lat="47.28846" lon="6.15922">
        <ele>308</ele>
        <time>2013-06-19T09:52:38Z</time>
      </trkpt>
      <trkpt lat="47.28849" lon="6.1594">
        <ele>307</ele>
        <time>2013-06-19T09:52:40Z</time>
      </trkpt>
      <trkpt lat="47.28851" lon="6.15959">
        <ele>307</ele>
        <time>2013-06-19T09:52:42Z</time>
      </trkpt>
      <trkpt lat="47.28853" lon="6.15974">
        <ele>306</ele>
        <time>2013-06-19T09:52:44Z</time>
      </trkpt>
      <trkpt lat="47.28854" lon="6.15991">
        <ele>304</ele>
        <time>2013-06-19T09:52:46Z</time>
      </trkpt>
      <trkpt lat="47.28855" lon="6.16008">
        <ele>304</ele>
        <time>2013-06-19T09:52:48Z</time>
      </trkpt>
      <trkpt lat="47.28856" lon="6.16026">
        <ele>303</ele>
        <time>2013-06-19T09:52:50Z</time>
      </trkpt>
      <trkpt lat="47.28858" lon="6.16043">
        <ele>303</ele>
        <time>2013-06-19T09:52:52Z</time>
      </trkpt>
      <trkpt lat="47.2886" lon="6.16061">
        <ele>302</ele>
        <time>2013-06-19T09:52:54Z</time>
      </trkpt>
      <trkpt lat="47.28862" lon="6.1608">
        <ele>302</ele>
        <time>2013-06-19T09:52:56Z</time>
      </trkpt>
      <trkpt lat="47.28864" lon="6.16099">
        <ele>301</ele>
        <time>2013-06-19T09:53:01Z</time>
      </trkpt>
      <trkpt lat="47.28865" lon="6.16118">
        <ele>302</ele>
        <time>2013-06-19T09:53:01Z</time>
      </trkpt>
      <trkpt lat="47.28867" lon="6.16135">
        <ele>302</ele>
        <time>2013-06-19T09:53:03Z</time>
      </trkpt>
      <trkpt lat="47.2887" lon="6.16154">
        <ele>302</ele>
        <time>2013-06-19T09:53:05Z</time>
      </trkpt>
      <trkpt lat="47.28873" lon="6.16172">
        <ele>304</ele>
        <time>2013-06-19T09:53:07Z</time>
      </trkpt>
      <trkpt lat="47.28877" lon="6.1619">
        <ele>306</ele>
        <time>2013-06-19T09:53:09Z</time>
      </trkpt>
      <trkpt lat="47.28878" lon="6.1621">
        <ele>303</ele>
        <time>2013-06-19T09:53:11Z</time>
      </trkpt>
      <trkpt lat="47.28881" lon="6.16229">
        <ele>303</ele>
        <time>2013-06-19T09:53:13Z</time>
      </trkpt>
      <trkpt lat="47.28879" lon="6.16248">
        <ele>300</ele>
        <time>2013-06-19T09:53:15Z</time>
      </trkpt>
      <trkpt lat="47.28882" lon="6.16266">
        <ele>299</ele>
        <time>2013-06-19T09:53:17Z</time>
      </trkpt>
      <trkpt lat="47.28884" lon="6.16285">
        <ele>298</ele>
        <time>2013-06-19T09:53:19Z</time>
      </trkpt>
      <trkpt lat="47.28887" lon="6.16304">
        <ele>298</ele>
        <time>2013-06-19T09:53:21Z</time>
      </trkpt>
      <trkpt lat="47.2889" lon="6.16322">
        <ele>298</ele>
        <time>2013-06-19T09:53:23Z</time>
      </trkpt>
      <trkpt lat="47.28892" lon="6.16339">
        <ele>297</ele>
        <time>2013-06-19T09:53:25Z</time>
      </trkpt>
      <trkpt lat="47.28894" lon="6.16357">
        <ele>297</ele>
        <time>2013-06-19T09:53:27Z</time>
      </trkpt>
      <trkpt lat="47.28897" lon="6.16374">
        <ele>297</ele>
        <time>2013-06-19T09:53:29Z</time>
      </trkpt>
      <trkpt lat="47.28898" lon="6.16393">
        <ele>296</ele>
        <time>2013-06-19T09:53:31Z</time>
      </trkpt>
      <trkpt lat="47.289" lon="6.16411">
        <ele>297</ele>
        <time>2013-06-19T09:53:33Z</time>
      </trkpt>
      <trkpt lat="47.28901" lon="6.16437">
        <ele>298</ele>
        <time>2013-06-19T09:53:36Z</time>
      </trkpt>
      <trkpt lat="47.28903" lon="6.16455">
        <ele>298</ele>
        <time>2013-06-19T09:53:38Z</time>
      </trkpt>
      <trkpt lat="47.28905" lon="6.16474">
        <ele>298</ele>
        <time>2013-06-19T09:53:40Z</time>
      </trkpt>
      <trkpt lat="47.28908" lon="6.16492">
        <ele>298</ele>
        <time>2013-06-19T09:53:42Z</time>
      </trkpt>
      <trkpt lat="47.28909" lon="6.1651">
        <ele>299</ele>
        <time>2013-06-19T09:53:44Z</time>
      </trkpt>
      <trkpt lat="47.2891" lon="6.16528">
        <ele>299</ele>
        <time>2013-06-19T09:53:46Z</time>
      </trkpt>
      <trkpt lat="47.2891" lon="6.16547">
        <ele>300</ele>
        <time>2013-06-19T09:53:47Z</time>
      </trkpt>
      <trkpt lat="47.28912" lon="6.16565">
        <ele>300</ele>
        <time>2013-06-19T09:53:49Z</time>
      </trkpt>
      <trkpt lat="47.28913" lon="6.16583">
        <ele>298</ele>
        <time>2013-06-19T09:53:52Z</time>
      </trkpt>
      <trkpt lat="47.28915" lon="6.16601">
        <ele>301</ele>
        <time>2013-06-19T09:53:53Z</time>
      </trkpt>
      <trkpt lat="47.28917" lon="6.16618">
        <ele>302</ele>
        <time>2013-06-19T09:53:55Z</time>
      </trkpt>
      <trkpt lat="47.28918" lon="6.16636">
        <ele>303</ele>
        <time>2013-06-19T09:53:57Z</time>
      </trkpt>
      <trkpt lat="47.28919" lon="6.16654">
        <ele>302</ele>
        <time>2013-06-19T09:53:59Z</time>
      </trkpt>
      <trkpt lat="47.28918" lon="6.16672">
        <ele>302</ele>
        <time>2013-06-19T09:54:01Z</time>
      </trkpt>
      <trkpt lat="47.28919" lon="6.1669">
        <ele>300</ele>
        <time>2013-06-19T09:54:03Z</time>
      </trkpt>
      <trkpt lat="47.28919" lon="6.16709">
        <ele>300</ele>
        <time>2013-06-19T09:54:05Z</time>
      </trkpt>
      <trkpt lat="47.2892" lon="6.16727">
        <ele>301</ele>
        <time>2013-06-19T09:54:09Z</time>
      </trkpt>
      <trkpt lat="47.2892" lon="6.16745">
        <ele>301</ele>
        <time>2013-06-19T09:54:10Z</time>
      </trkpt>
      <trkpt lat="47.28921" lon="6.16763">
        <ele>300</ele>
        <time>2013-06-19T09:54:12Z</time>
      </trkpt>
      <trkpt lat="47.28921" lon="6.16783">
        <ele>300</ele>
        <time>2013-06-19T09:54:14Z</time>
      </trkpt>
      <trkpt lat="47.28922" lon="6.16799">
        <ele>301</ele>
        <time>2013-06-19T09:54:16Z</time>
      </trkpt>
      <trkpt lat="47.28923" lon="6.16816">
        <ele>301</ele>
        <time>2013-06-19T09:54:18Z</time>
      </trkpt>
      <trkpt lat="47.28925" lon="6.16832">
        <ele>300</ele>
        <time>2013-06-19T09:54:20Z</time>
      </trkpt>
      <trkpt lat="47.28927" lon="6.16849">
        <ele>301</ele>
        <time>2013-06-19T09:54:22Z</time>
      </trkpt>
      <trkpt lat="47.28927" lon="6.16866">
        <ele>301</ele>
        <time>2013-06-19T09:54:24Z</time>
      </trkpt>
      <trkpt lat="47.28928" lon="6.16884">
        <ele>301</ele>
        <time>2013-06-19T09:54:26Z</time>
      </trkpt>
      <trkpt lat="47.28929" lon="6.16901">
        <ele>301</ele>
        <time>2013-06-19T09:54:28Z</time>
      </trkpt>
      <trkpt lat="47.2893" lon="6.16918">
        <ele>301</ele>
        <time>2013-06-19T09:54:31Z</time>
      </trkpt>
      <trkpt lat="47.2893" lon="6.16936">
        <ele>300</ele>
        <time>2013-06-19T09:54:32Z</time>
      </trkpt>
      <trkpt lat="47.28931" lon="6.16953">
        <ele>300</ele>
        <time>2013-06-19T09:54:34Z</time>
      </trkpt>
      <trkpt lat="47.28934" lon="6.1697">
        <ele>300</ele>
        <time>2013-06-19T09:54:36Z</time>
      </trkpt>
      <trkpt lat="47.28935" lon="6.16988">
        <ele>302</ele>
        <time>2013-06-19T09:54:38Z</time>
      </trkpt>
      <trkpt lat="47.28937" lon="6.17007">
        <ele>301</ele>
        <time>2013-06-19T09:54:40Z</time>
      </trkpt>
      <trkpt lat="47.28938" lon="6.17024">
        <ele>301</ele>
        <time>2013-06-19T09:54:42Z</time>
      </trkpt>
      <trkpt lat="47.28942" lon="6.17041">
        <ele>302</ele>
        <time>2013-06-19T09:54:44Z</time>
      </trkpt>
      <trkpt lat="47.28943" lon="6.17063">
        <ele>300</ele>
        <time>2013-06-19T09:54:46Z</time>
      </trkpt>
      <trkpt lat="47.28944" lon="6.17081">
        <ele>300</ele>
        <time>2013-06-19T09:54:48Z</time>
      </trkpt>
      <trkpt lat="47.28946" lon="6.17099">
        <ele>299</ele>
        <time>2013-06-19T09:54:50Z</time>
      </trkpt>
      <trkpt lat="47.28947" lon="6.17116">
        <ele>299</ele>
        <time>2013-06-19T09:54:53Z</time>
      </trkpt>
      <trkpt lat="47.28951" lon="6.17144">
        <ele>299</ele>
        <time>2013-06-19T09:54:54Z</time>
      </trkpt>
      <trkpt lat="47.28952" lon="6.17162">
        <ele>299</ele>
        <time>2013-06-19T09:54:56Z</time>
      </trkpt>
      <trkpt lat="47.28954" lon="6.17181">
        <ele>299</ele>
        <time>2013-06-19T09:54:58Z</time>
      </trkpt>
      <trkpt lat="47.28955" lon="6.17199">
        <ele>300</ele>
        <time>2013-06-19T09:55:00Z</time>
      </trkpt>
      <trkpt lat="47.28955" lon="6.17216">
        <ele>300</ele>
        <time>2013-06-19T09:55:02Z</time>
      </trkpt>
      <trkpt lat="47.28956" lon="6.17252">
        <ele>299</ele>
        <time>2013-06-19T09:55:07Z</time>
      </trkpt>
      <trkpt lat="47.28958" lon="6.1727">
        <ele>298</ele>
        <time>2013-06-19T09:55:09Z</time>
      </trkpt>
      <trkpt lat="47.28958" lon="6.17288">
        <ele>297</ele>
        <time>2013-06-19T09:55:11Z</time>
      </trkpt>
      <trkpt lat="47.28959" lon="6.17307">
        <ele>297</ele>
        <time>2013-06-19T09:55:13Z</time>
      </trkpt>
      <trkpt lat="47.2896" lon="6.17324">
        <ele>296</ele>
        <time>2013-06-19T09:55:15Z</time>
      </trkpt>
      <trkpt lat="47.2896" lon="6.17339">
        <ele>296</ele>
        <time>2013-06-19T09:55:17Z</time>
      </trkpt>
      <trkpt lat="47.28961" lon="6.17357">
        <ele>295</ele>
        <time>2013-06-19T09:55:19Z</time>
      </trkpt>
      <trkpt lat="47.28962" lon="6.17374">
        <ele>295</ele>
        <time>2013-06-19T09:55:21Z</time>
      </trkpt>
      <trkpt lat="47.28961" lon="6.17392">
        <ele>295</ele>
        <time>2013-06-19T09:55:23Z</time>
      </trkpt>
      <trkpt lat="47.28964" lon="6.17407">
        <ele>294</ele>
        <time>2013-06-19T09:55:25Z</time>
      </trkpt>
      <trkpt lat="47.28967" lon="6.17424">
        <ele>295</ele>
        <time>2013-06-19T09:55:27Z</time>
      </trkpt>
      <trkpt lat="47.2897" lon="6.17446">
        <ele>296</ele>
        <time>2013-06-19T09:55:30Z</time>
      </trkpt>
      <trkpt lat="47.28972" lon="6.17462">
        <ele>296</ele>
        <time>2013-06-19T09:55:32Z</time>
      </trkpt>
      <trkpt lat="47.28975" lon="6.17478">
        <ele>297</ele>
        <time>2013-06-19T09:55:34Z</time>
      </trkpt>
      <trkpt lat="47.28978" lon="6.17492">
        <ele>297</ele>
        <time>2013-06-19T09:55:36Z</time>
      </trkpt>
      <trkpt lat="47.28986" lon="6.175">
        <ele>297</ele>
        <time>2013-06-19T09:55:38Z</time>
      </trkpt>
      <trkpt lat="47.28993" lon="6.17517">
        <ele>297</ele>
        <time>2013-06-19T09:55:40Z</time>
      </trkpt>
      <trkpt lat="47.29001" lon="6.17528">
        <ele>296</ele>
        <time>2013-06-19T09:55:42Z</time>
      </trkpt>
      <trkpt lat="47.29009" lon="6.17539">
        <ele>296</ele>
        <time>2013-06-19T09:55:44Z</time>
      </trkpt>
      <trkpt lat="47.29015" lon="6.17553">
        <ele>299</ele>
        <time>2013-06-19T09:55:47Z</time>
      </trkpt>
      <trkpt lat="47.29015" lon="6.17569">
        <ele>297</ele>
        <time>2013-06-19T09:55:51Z</time>
      </trkpt>
      <trkpt lat="47.29008" lon="6.17577">
        <ele>302</ele>
        <time>2013-06-19T09:55:56Z</time>
      </trkpt>
      <trkpt lat="47.29005" lon="6.17591">
        <ele>301</ele>
        <time>2013-06-19T09:56:00Z</time>
      </trkpt>
      <trkpt lat="47.2901" lon="6.17609">
        <ele>302</ele>
        <time>2013-06-19T09:56:03Z</time>
      </trkpt>
      <trkpt lat="47.29017" lon="6.17624">
        <ele>302</ele>
        <time>2013-06-19T09:56:06Z</time>
      </trkpt>
      <trkpt lat="47.29025" lon="6.17639">
        <ele>303</ele>
        <time>2013-06-19T09:56:09Z</time>
      </trkpt>
      <trkpt lat="47.2903" lon="6.17653">
        <ele>302</ele>
        <time>2013-06-19T09:56:12Z</time>
      </trkpt>
      <trkpt lat="47.29034" lon="6.17668">
        <ele>302</ele>
        <time>2013-06-19T09:56:16Z</time>
      </trkpt>
      <trkpt lat="47.29036" lon="6.17685">
        <ele>304</ele>
        <time>2013-06-19T09:56:20Z</time>
      </trkpt>
      <trkpt lat="47.29041" lon="6.17701">
        <ele>304</ele>
        <time>2013-06-19T09:56:23Z</time>
      </trkpt>
      <trkpt lat="47.29046" lon="6.17714">
        <ele>305</ele>
        <time>2013-06-19T09:56:25Z</time>
      </trkpt>
      <trkpt lat="47.29048" lon="6.17733">
        <ele>305</ele>
        <time>2013-06-19T09:56:28Z</time>
      </trkpt>
      <trkpt lat="47.29051" lon="6.17746">
        <ele>304</ele>
        <time>2013-06-19T09:56:30Z</time>
      </trkpt>
      <trkpt lat="47.29054" lon="6.1776">
        <ele>303</ele>
        <time>2013-06-19T09:56:32Z</time>
      </trkpt>
      <trkpt lat="47.29056" lon="6.17777">
        <ele>306</ele>
        <time>2013-06-19T09:56:35Z</time>
      </trkpt>
      <trkpt lat="47.29057" lon="6.1779">
        <ele>308</ele>
        <time>2013-06-19T09:56:37Z</time>
      </trkpt>
      <trkpt lat="47.29059" lon="6.1781">
        <ele>307</ele>
        <time>2013-06-19T09:56:39Z</time>
      </trkpt>
      <trkpt lat="47.29062" lon="6.17826">
        <ele>306</ele>
        <time>2013-06-19T09:56:41Z</time>
      </trkpt>
      <trkpt lat="47.29063" lon="6.1784">
        <ele>306</ele>
        <time>2013-06-19T09:56:43Z</time>
      </trkpt>
      <trkpt lat="47.29066" lon="6.17858">
        <ele>307</ele>
        <time>2013-06-19T09:56:45Z</time>
      </trkpt>
      <trkpt lat="47.29068" lon="6.17876">
        <ele>306</ele>
        <time>2013-06-19T09:56:47Z</time>
      </trkpt>
      <trkpt lat="47.29071" lon="6.17895">
        <ele>308</ele>
        <time>2013-06-19T09:56:50Z</time>
      </trkpt>
      <trkpt lat="47.29075" lon="6.17913">
        <ele>308</ele>
        <time>2013-06-19T09:56:52Z</time>
      </trkpt>
      <trkpt lat="47.29077" lon="6.17932">
        <ele>307</ele>
        <time>2013-06-19T09:56:55Z</time>
      </trkpt>
      <trkpt lat="47.29079" lon="6.17952">
        <ele>305</ele>
        <time>2013-06-19T09:56:56Z</time>
      </trkpt>
      <trkpt lat="47.29078" lon="6.17969">
        <ele>305</ele>
        <time>2013-06-19T09:56:58Z</time>
      </trkpt>
      <trkpt lat="47.29081" lon="6.17988">
        <ele>305</ele>
        <time>2013-06-19T09:57:00Z</time>
      </trkpt>
      <trkpt lat="47.29084" lon="6.18004">
        <ele>305</ele>
        <time>2013-06-19T09:57:02Z</time>
      </trkpt>
      <trkpt lat="47.29088" lon="6.1802">
        <ele>305</ele>
        <time>2013-06-19T09:57:04Z</time>
      </trkpt>
      <trkpt lat="47.29091" lon="6.18035">
        <ele>306</ele>
        <time>2013-06-19T09:57:06Z</time>
      </trkpt>
      <trkpt lat="47.29093" lon="6.1805">
        <ele>306</ele>
        <time>2013-06-19T09:57:08Z</time>
      </trkpt>
      <trkpt lat="47.29094" lon="6.18068">
        <ele>305</ele>
        <time>2013-06-19T09:57:11Z</time>
      </trkpt>
      <trkpt lat="47.29091" lon="6.18086">
        <ele>306</ele>
        <time>2013-06-19T09:57:12Z</time>
      </trkpt>
      <trkpt lat="47.29089" lon="6.18105">
        <ele>307</ele>
        <time>2013-06-19T09:57:14Z</time>
      </trkpt>
      <trkpt lat="47.29085" lon="6.18125">
        <ele>307</ele>
        <time>2013-06-19T09:57:16Z</time>
      </trkpt>
      <trkpt lat="47.29081" lon="6.18143">
        <ele>306</ele>
        <time>2013-06-19T09:57:18Z</time>
      </trkpt>
      <trkpt lat="47.29078" lon="6.18157">
        <ele>306</ele>
        <time>2013-06-19T09:57:20Z</time>
      </trkpt>
      <trkpt lat="47.29078" lon="6.18174">
        <ele>306</ele>
        <time>2013-06-19T09:57:22Z</time>
      </trkpt>
      <trkpt lat="47.29076" lon="6.18189">
        <ele>304</ele>
        <time>2013-06-19T09:57:24Z</time>
      </trkpt>
      <trkpt lat="47.29075" lon="6.18203">
        <ele>304</ele>
        <time>2013-06-19T09:57:26Z</time>
      </trkpt>
      <trkpt lat="47.29072" lon="6.18218">
        <ele>304</ele>
        <time>2013-06-19T09:57:28Z</time>
      </trkpt>
      <trkpt lat="47.29071" lon="6.18234">
        <ele>304</ele>
        <time>2013-06-19T09:57:30Z</time>
      </trkpt>
      <trkpt lat="47.29068" lon="6.18248">
        <ele>304</ele>
        <time>2013-06-19T09:57:32Z</time>
      </trkpt>
      <trkpt lat="47.29059" lon="6.18265">
        <ele>303</ele>
        <time>2013-06-19T09:57:34Z</time>
      </trkpt>
      <trkpt lat="47.29055" lon="6.18278">
        <ele>304</ele>
        <time>2013-06-19T09:57:36Z</time>
      </trkpt>
      <trkpt lat="47.29051" lon="6.18291">
        <ele>304</ele>
        <time>2013-06-19T09:57:38Z</time>
      </trkpt>
      <trkpt lat="47.29046" lon="6.18306">
        <ele>303</ele>
        <time>2013-06-19T09:57:40Z</time>
      </trkpt>
      <trkpt lat="47.29042" lon="6.18322">
        <ele>303</ele>
        <time>2013-06-19T09:57:42Z</time>
      </trkpt>
      <trkpt lat="47.29038" lon="6.1834">
        <ele>302</ele>
        <time>2013-06-19T09:57:45Z</time>
      </trkpt>
      <trkpt lat="47.29031" lon="6.18356">
        <ele>301</ele>
        <time>2013-06-19T09:57:46Z</time>
      </trkpt>
      <trkpt lat="47.29027" lon="6.18372">
        <ele>302</ele>
        <time>2013-06-19T09:57:48Z</time>
      </trkpt>
      <trkpt lat="47.29023" lon="6.18388">
        <ele>301</ele>
        <time>2013-06-19T09:57:50Z</time>
      </trkpt>
      <trkpt lat="47.29017" lon="6.18402">
        <ele>301</ele>
        <time>2013-06-19T09:57:52Z</time>
      </trkpt>
      <trkpt lat="47.29012" lon="6.18418">
        <ele>302</ele>
        <time>2013-06-19T09:57:54Z</time>
      </trkpt>
      <trkpt lat="47.29009" lon="6.18435">
        <ele>302</ele>
        <time>2013-06-19T09:57:56Z</time>
      </trkpt>
      <trkpt lat="47.29004" lon="6.18452">
        <ele>302</ele>
        <time>2013-06-19T09:57:58Z</time>
      </trkpt>
      <trkpt lat="47.28997" lon="6.18469">
        <ele>302</ele>
        <time>2013-06-19T09:58:00Z</time>
      </trkpt>
      <trkpt lat="47.28994" lon="6.18487">
        <ele>303</ele>
        <time>2013-06-19T09:58:02Z</time>
      </trkpt>
      <trkpt lat="47.28989" lon="6.18502">
        <ele>304</ele>
        <time>2013-06-19T09:58:04Z</time>
      </trkpt>
      <trkpt lat="47.28985" lon="6.1852">
        <ele>303</ele>
        <time>2013-06-19T09:58:06Z</time>
      </trkpt>
      <trkpt lat="47.28979" lon="6.18537">
        <ele>304</ele>
        <time>2013-06-19T09:58:08Z</time>
      </trkpt>
      <trkpt lat="47.28975" lon="6.18556">
        <ele>304</ele>
        <time>2013-06-19T09:58:10Z</time>
      </trkpt>
      <trkpt lat="47.2897" lon="6.18573">
        <ele>304</ele>
        <time>2013-06-19T09:58:13Z</time>
      </trkpt>
      <trkpt lat="47.28964" lon="6.18592">
        <ele>304</ele>
        <time>2013-06-19T09:58:14Z</time>
      </trkpt>
      <trkpt lat="47.28961" lon="6.18609">
        <ele>304</ele>
        <time>2013-06-19T09:58:16Z</time>
      </trkpt>
      <trkpt lat="47.28956" lon="6.18627">
        <ele>304</ele>
        <time>2013-06-19T09:58:18Z</time>
      </trkpt>
      <trkpt lat="47.28952" lon="6.18643">
        <ele>304</ele>
        <time>2013-06-19T09:58:20Z</time>
      </trkpt>
      <trkpt lat="47.28944" lon="6.18661">
        <ele>302</ele>
        <time>2013-06-19T09:58:22Z</time>
      </trkpt>
      <trkpt lat="47.28944" lon="6.18679">
        <ele>301</ele>
        <time>2013-06-19T09:58:24Z</time>
      </trkpt>
      <trkpt lat="47.2894" lon="6.18697">
        <ele>300</ele>
        <time>2013-06-19T09:58:26Z</time>
      </trkpt>
      <trkpt lat="47.28938" lon="6.18716">
        <ele>303</ele>
        <time>2013-06-19T09:58:28Z</time>
      </trkpt>
      <trkpt lat="47.28933" lon="6.18733">
        <ele>302</ele>
        <time>2013-06-19T09:58:30Z</time>
      </trkpt>
      <trkpt lat="47.28929" lon="6.18751">
        <ele>301</ele>
        <time>2013-06-19T09:58:32Z</time>
      </trkpt>
      <trkpt lat="47.28924" lon="6.18768">
        <ele>302</ele>
        <time>2013-06-19T09:58:34Z</time>
      </trkpt>
      <trkpt lat="47.28919" lon="6.18786">
        <ele>302</ele>
        <time>2013-06-19T09:58:36Z</time>
      </trkpt>
      <trkpt lat="47.28913" lon="6.18805">
        <ele>301</ele>
        <time>2013-06-19T09:58:38Z</time>
      </trkpt>
      <trkpt lat="47.2891" lon="6.18824">
        <ele>300</ele>
        <time>2013-06-19T09:58:40Z</time>
      </trkpt>
      <trkpt lat="47.28907" lon="6.1884">
        <ele>300</ele>
        <time>2013-06-19T09:58:42Z</time>
      </trkpt>
      <trkpt lat="47.28904" lon="6.18857">
        <ele>301</ele>
        <time>2013-06-19T09:58:44Z</time>
      </trkpt>
      <trkpt lat="47.28899" lon="6.18872">
        <ele>300</ele>
        <time>2013-06-19T09:58:46Z</time>
      </trkpt>
      <trkpt lat="47.28894" lon="6.18887">
        <ele>299</ele>
        <time>2013-06-19T09:58:48Z</time>
      </trkpt>
      <trkpt lat="47.28894" lon="6.18904">
        <ele>300</ele>
        <time>2013-06-19T09:58:50Z</time>
      </trkpt>
      <trkpt lat="47.28893" lon="6.18919">
        <ele>300</ele>
        <time>2013-06-19T09:58:52Z</time>
      </trkpt>
      <trkpt lat="47.2889" lon="6.18937">
        <ele>300</ele>
        <time>2013-06-19T09:58:54Z</time>
      </trkpt>
      <trkpt lat="47.28888" lon="6.18954">
        <ele>301</ele>
        <time>2013-06-19T09:58:56Z</time>
      </trkpt>
      <trkpt lat="47.28888" lon="6.18971">
        <ele>300</ele>
        <time>2013-06-19T09:58:58Z</time>
      </trkpt>
      <trkpt lat="47.28886" lon="6.18985">
        <ele>300</ele>
        <time>2013-06-19T09:59:00Z</time>
      </trkpt>
      <trkpt lat="47.28886" lon="6.19004">
        <ele>299</ele>
        <time>2013-06-19T09:59:02Z</time>
      </trkpt>
      <trkpt lat="47.28884" lon="6.19022">
        <ele>298</ele>
        <time>2013-06-19T09:59:03Z</time>
      </trkpt>
      <trkpt lat="47.28882" lon="6.1904">
        <ele>299</ele>
        <time>2013-06-19T09:59:05Z</time>
      </trkpt>
      <trkpt lat="47.2888" lon="6.19058">
        <ele>298</ele>
        <time>2013-06-19T09:59:07Z</time>
      </trkpt>
      <trkpt lat="47.28881" lon="6.19075">
        <ele>298</ele>
        <time>2013-06-19T09:59:09Z</time>
      </trkpt>
      <trkpt lat="47.2888" lon="6.19092">
        <ele>297</ele>
        <time>2013-06-19T09:59:11Z</time>
      </trkpt>
      <trkpt lat="47.28879" lon="6.19109">
        <ele>297</ele>
        <time>2013-06-19T09:59:13Z</time>
      </trkpt>
      <trkpt lat="47.28878" lon="6.19125">
        <ele>298</ele>
        <time>2013-06-19T09:59:15Z</time>
      </trkpt>
      <trkpt lat="47.28871" lon="6.19141">
        <ele>296</ele>
        <time>2013-06-19T09:59:17Z</time>
      </trkpt>
      <trkpt lat="47.28876" lon="6.19159">
        <ele>299</ele>
        <time>2013-06-19T09:59:19Z</time>
      </trkpt>
      <trkpt lat="47.28876" lon="6.19175">
        <ele>299</ele>
        <time>2013-06-19T09:59:21Z</time>
      </trkpt>
      <trkpt lat="47.28877" lon="6.19193">
        <ele>300</ele>
        <time>2013-06-19T09:59:24Z</time>
      </trkpt>
      <trkpt lat="47.28876" lon="6.19211">
        <ele>300</ele>
        <time>2013-06-19T09:59:25Z</time>
      </trkpt>
      <trkpt lat="47.28877" lon="6.19227">
        <ele>300</ele>
        <time>2013-06-19T09:59:27Z</time>
      </trkpt>
      <trkpt lat="47.28881" lon="6.19245">
        <ele>301</ele>
        <time>2013-06-19T09:59:29Z</time>
      </trkpt>
      <trkpt lat="47.28882" lon="6.19261">
        <ele>301</ele>
        <time>2013-06-19T09:59:31Z</time>
      </trkpt>
      <trkpt lat="47.28882" lon="6.1928">
        <ele>301</ele>
        <time>2013-06-19T09:59:33Z</time>
      </trkpt>
      <trkpt lat="47.28886" lon="6.19309">
        <ele>301</ele>
        <time>2013-06-19T09:59:36Z</time>
      </trkpt>
      <trkpt lat="47.28888" lon="6.19329">
        <ele>300</ele>
        <time>2013-06-19T09:59:38Z</time>
      </trkpt>
      <trkpt lat="47.28889" lon="6.19348">
        <ele>300</ele>
        <time>2013-06-19T09:59:40Z</time>
      </trkpt>
      <trkpt lat="47.28889" lon="6.19366">
        <ele>299</ele>
        <time>2013-06-19T09:59:42Z</time>
      </trkpt>
      <trkpt lat="47.28893" lon="6.19384">
        <ele>299</ele>
        <time>2013-06-19T09:59:44Z</time>
      </trkpt>
      <trkpt lat="47.28896" lon="6.19401">
        <ele>300</ele>
        <time>2013-06-19T09:59:47Z</time>
      </trkpt>
      <trkpt lat="47.28896" lon="6.1942">
        <ele>300</ele>
        <time>2013-06-19T09:59:49Z</time>
      </trkpt>
      <trkpt lat="47.28897" lon="6.19437">
        <ele>300</ele>
        <time>2013-06-19T09:59:51Z</time>
      </trkpt>
      <trkpt lat="47.289" lon="6.19453">
        <ele>301</ele>
        <time>2013-06-19T09:59:53Z</time>
      </trkpt>
      <trkpt lat="47.289" lon="6.1947">
        <ele>301</ele>
        <time>2013-06-19T09:59:55Z</time>
      </trkpt>
      <trkpt lat="47.28902" lon="6.19485">
        <ele>301</ele>
        <time>2013-06-19T09:59:57Z</time>
      </trkpt>
      <trkpt lat="47.28903" lon="6.19499">
        <ele>301</ele>
        <time>2013-06-19T09:59:59Z</time>
      </trkpt>
      <trkpt lat="47.28907" lon="6.19517">
        <ele>302</ele>
        <time>2013-06-19T10:00:01Z</time>
      </trkpt>
      <trkpt lat="47.2891" lon="6.19534">
        <ele>301</ele>
        <time>2013-06-19T10:00:03Z</time>
      </trkpt>
      <trkpt lat="47.28916" lon="6.19552">
        <ele>301</ele>
        <time>2013-06-19T10:00:05Z</time>
      </trkpt>
      <trkpt lat="47.28911" lon="6.19571">
        <ele>300</ele>
        <time>2013-06-19T10:00:07Z</time>
      </trkpt>
      <trkpt lat="47.28912" lon="6.19587">
        <ele>300</ele>
        <time>2013-06-19T10:00:10Z</time>
      </trkpt>
      <trkpt lat="47.28908" lon="6.19603">
        <ele>299</ele>
        <time>2013-06-19T10:00:11Z</time>
      </trkpt>
      <trkpt lat="47.28911" lon="6.19624">
        <ele>298</ele>
        <time>2013-06-19T10:00:13Z</time>
      </trkpt>
      <trkpt lat="47.28914" lon="6.19638">
        <ele>299</ele>
        <time>2013-06-19T10:00:15Z</time>
      </trkpt>
      <trkpt lat="47.28916" lon="6.19657">
        <ele>298</ele>
        <time>2013-06-19T10:00:17Z</time>
      </trkpt>
      <trkpt lat="47.28919" lon="6.19676">
        <ele>298</ele>
        <time>2013-06-19T10:00:19Z</time>
      </trkpt>
      <trkpt lat="47.28916" lon="6.19693">
        <ele>297</ele>
        <time>2013-06-19T10:00:21Z</time>
      </trkpt>
      <trkpt lat="47.28926" lon="6.1971">
        <ele>299</ele>
        <time>2013-06-19T10:00:22Z</time>
      </trkpt>
      <trkpt lat="47.28932" lon="6.19726">
        <ele>300</ele>
        <time>2013-06-19T10:00:24Z</time>
      </trkpt>
      <trkpt lat="47.28937" lon="6.1974">
        <ele>300</ele>
        <time>2013-06-19T10:00:26Z</time>
      </trkpt>
      <trkpt lat="47.28936" lon="6.19758">
        <ele>300</ele>
        <time>2013-06-19T10:00:28Z</time>
      </trkpt>
      <trkpt lat="47.28938" lon="6.19778">
        <ele>299</ele>
        <time>2013-06-19T10:00:33Z</time>
      </trkpt>
      <trkpt lat="47.2894" lon="6.19796">
        <ele>299</ele>
        <time>2013-06-19T10:00:33Z</time>
      </trkpt>
      <trkpt lat="47.28943" lon="6.19814">
        <ele>300</ele>
        <time>2013-06-19T10:00:35Z</time>
      </trkpt>
      <trkpt lat="47.28946" lon="6.1983">
        <ele>299</ele>
        <time>2013-06-19T10:00:37Z</time>
      </trkpt>
      <trkpt lat="47.28949" lon="6.19845">
        <ele>299</ele>
        <time>2013-06-19T10:00:39Z</time>
      </trkpt>
      <trkpt lat="47.28954" lon="6.19861">
        <ele>299</ele>
        <time>2013-06-19T10:00:41Z</time>
      </trkpt>
      <trkpt lat="47.28959" lon="6.19881">
        <ele>299</ele>
        <time>2013-06-19T10:00:43Z</time>
      </trkpt>
      <trkpt lat="47.28958" lon="6.19905">
        <ele>299</ele>
        <time>2013-06-19T10:00:45Z</time>
      </trkpt>
      <trkpt lat="47.28959" lon="6.19918">
        <ele>298</ele>
        <time>2013-06-19T10:00:46Z</time>
      </trkpt>
      <trkpt lat="47.28961" lon="6.19932">
        <ele>299</ele>
        <time>2013-06-19T10:00:48Z</time>
      </trkpt>
      <trkpt lat="47.28963" lon="6.19946">
        <ele>298</ele>
        <time>2013-06-19T10:00:50Z</time>
      </trkpt>
      <trkpt lat="47.2897" lon="6.1996">
        <ele>299</ele>
        <time>2013-06-19T10:00:52Z</time>
      </trkpt>
      <trkpt lat="47.28973" lon="6.19972">
        <ele>302</ele>
        <time>2013-06-19T10:00:56Z</time>
      </trkpt>
      <trkpt lat="47.28978" lon="6.19987">
        <ele>303</ele>
        <time>2013-06-19T10:00:58Z</time>
      </trkpt>
      <trkpt lat="47.28987" lon="6.19999">
        <ele>302</ele>
        <time>2013-06-19T10:01:01Z</time>
      </trkpt>
      <trkpt lat="47.28993" lon="6.20018">
        <ele>302</ele>
        <time>2013-06-19T10:01:03Z</time>
      </trkpt>
      <trkpt lat="47.28999" lon="6.2003">
        <ele>302</ele>
        <time>2013-06-19T10:01:05Z</time>
      </trkpt>
      <trkpt lat="47.29007" lon="6.20061">
        <ele>298</ele>
        <time>2013-06-19T10:01:07Z</time>
      </trkpt>
      <trkpt lat="47.29007" lon="6.20075">
        <ele>298</ele>
        <time>2013-06-19T10:01:09Z</time>
      </trkpt>
      <trkpt lat="47.2901" lon="6.20094">
        <ele>301</ele>
        <time>2013-06-19T10:01:12Z</time>
      </trkpt>
      <trkpt lat="47.29016" lon="6.20109">
        <ele>305</ele>
        <time>2013-06-19T10:01:14Z</time>
      </trkpt>
      <trkpt lat="47.2902" lon="6.20123">
        <ele>302</ele>
        <time>2013-06-19T10:01:16Z</time>
      </trkpt>
      <trkpt lat="47.29029" lon="6.20137">
        <ele>302</ele>
        <time>2013-06-19T10:01:18Z</time>
      </trkpt>
      <trkpt lat="47.29033" lon="6.20152">
        <ele>303</ele>
        <time>2013-06-19T10:01:20Z</time>
      </trkpt>
      <trkpt lat="47.29038" lon="6.20168">
        <ele>304</ele>
        <time>2013-06-19T10:01:22Z</time>
      </trkpt>
      <trkpt lat="47.29045" lon="6.20182">
        <ele>303</ele>
        <time>2013-06-19T10:01:24Z</time>
      </trkpt>
      <trkpt lat="47.29052" lon="6.20199">
        <ele>305</ele>
        <time>2013-06-19T10:01:26Z</time>
      </trkpt>
      <trkpt lat="47.29058" lon="6.20213">
        <ele>305</ele>
        <time>2013-06-19T10:01:29Z</time>
      </trkpt>
      <trkpt lat="47.29067" lon="6.2023">
        <ele>305</ele>
        <time>2013-06-19T10:01:31Z</time>
      </trkpt>
      <trkpt lat="47.29074" lon="6.20241">
        <ele>306</ele>
        <time>2013-06-19T10:01:33Z</time>
      </trkpt>
      <trkpt lat="47.29083" lon="6.20255">
        <ele>306</ele>
        <time>2013-06-19T10:01:35Z</time>
      </trkpt>
      <trkpt lat="47.29092" lon="6.20265">
        <ele>303</ele>
        <time>2013-06-19T10:01:37Z</time>
      </trkpt>
      <trkpt lat="47.29105" lon="6.20262">
        <ele>303</ele>
        <time>2013-06-19T10:01:40Z</time>
      </trkpt>
      <trkpt lat="47.29118" lon="6.20261">
        <ele>303</ele>
        <time>2013-06-19T10:01:41Z</time>
      </trkpt>
      <trkpt lat="47.29128" lon="6.20259">
        <ele>303</ele>
        <time>2013-06-19T10:01:43Z</time>
      </trkpt>
      <trkpt lat="47.29141" lon="6.20255">
        <ele>304</ele>
        <time>2013-06-19T10:01:46Z</time>
      </trkpt>
      <trkpt lat="47.29152" lon="6.20259">
        <ele>304</ele>
        <time>2013-06-19T10:01:48Z</time>
      </trkpt>
      <trkpt lat="47.29161" lon="6.20264">
        <ele>305</ele>
        <time>2013-06-19T10:01:51Z</time>
      </trkpt>
      <trkpt lat="47.2917" lon="6.2027">
        <ele>306</ele>
        <time>2013-06-19T10:01:52Z</time>
      </trkpt>
      <trkpt lat="47.29178" lon="6.20278">
        <ele>306</ele>
        <time>2013-06-19T10:01:54Z</time>
      </trkpt>
      <trkpt lat="47.29188" lon="6.20285">
        <ele>307</ele>
        <time>2013-06-19T10:01:56Z</time>
      </trkpt>
      <trkpt lat="47.29198" lon="6.20292">
        <ele>308</ele>
        <time>2013-06-19T10:01:58Z</time>
      </trkpt>
      <trkpt lat="47.29209" lon="6.20298">
        <ele>307</ele>
        <time>2013-06-19T10:02:00Z</time>
      </trkpt>
      <trkpt lat="47.29217" lon="6.20306">
        <ele>308</ele>
        <time>2013-06-19T10:02:02Z</time>
      </trkpt>
      <trkpt lat="47.29228" lon="6.20313">
        <ele>306</ele>
        <time>2013-06-19T10:02:04Z</time>
      </trkpt>
      <trkpt lat="47.29239" lon="6.20315">
        <ele>307</ele>
        <time>2013-06-19T10:02:08Z</time>
      </trkpt>
      <trkpt lat="47.29247" lon="6.20301">
        <ele>309</ele>
        <time>2013-06-19T10:02:13Z</time>
      </trkpt>
      <trkpt lat="47.29259" lon="6.20293">
        <ele>308</ele>
        <time>2013-06-19T10:02:16Z</time>
      </trkpt>
      <trkpt lat="47.29273" lon="6.20296">
        <ele>308</ele>
        <time>2013-06-19T10:02:19Z</time>
      </trkpt>
      <trkpt lat="47.29287" lon="6.20303">
        <ele>309</ele>
        <time>2013-06-19T10:02:21Z</time>
      </trkpt>
      <trkpt lat="47.29302" lon="6.20315">
        <ele>310</ele>
        <time>2013-06-19T10:02:23Z</time>
      </trkpt>
      <trkpt lat="47.29315" lon="6.2032">
        <ele>309</ele>
        <time>2013-06-19T10:02:26Z</time>
      </trkpt>
      <trkpt lat="47.29326" lon="6.20328">
        <ele>309</ele>
        <time>2013-06-19T10:02:27Z</time>
      </trkpt>
      <trkpt lat="47.29339" lon="6.20334">
        <ele>310</ele>
        <time>2013-06-19T10:02:29Z</time>
      </trkpt>
      <trkpt lat="47.29349" lon="6.20342">
        <ele>309</ele>
        <time>2013-06-19T10:02:31Z</time>
      </trkpt>
      <trkpt lat="47.29361" lon="6.20346">
        <ele>309</ele>
        <time>2013-06-19T10:02:33Z</time>
      </trkpt>
      <trkpt lat="47.29372" lon="6.20352">
        <ele>309</ele>
        <time>2013-06-19T10:02:35Z</time>
      </trkpt>
      <trkpt lat="47.29383" lon="6.2036">
        <ele>307</ele>
        <time>2013-06-19T10:02:38Z</time>
      </trkpt>
      <trkpt lat="47.29394" lon="6.20365">
        <ele>308</ele>
        <time>2013-06-19T10:02:39Z</time>
      </trkpt>
      <trkpt lat="47.29407" lon="6.2037">
        <ele>307</ele>
        <time>2013-06-19T10:02:41Z</time>
      </trkpt>
      <trkpt lat="47.2942" lon="6.20374">
        <ele>307</ele>
        <time>2013-06-19T10:02:43Z</time>
      </trkpt>
      <trkpt lat="47.29432" lon="6.20378">
        <ele>308</ele>
        <time>2013-06-19T10:02:45Z</time>
      </trkpt>
      <trkpt lat="47.29444" lon="6.20384">
        <ele>307</ele>
        <time>2013-06-19T10:02:47Z</time>
      </trkpt>
      <trkpt lat="47.29456" lon="6.2039">
        <ele>307</ele>
        <time>2013-06-19T10:02:49Z</time>
      </trkpt>
      <trkpt lat="47.29468" lon="6.20394">
        <ele>307</ele>
        <time>2013-06-19T10:02:50Z</time>
      </trkpt>
      <trkpt lat="47.29479" lon="6.20397">
        <ele>308</ele>
        <time>2013-06-19T10:02:52Z</time>
      </trkpt>
      <trkpt lat="47.29491" lon="6.20402">
        <ele>306</ele>
        <time>2013-06-19T10:02:54Z</time>
      </trkpt>
      <trkpt lat="47.29504" lon="6.20407">
        <ele>306</ele>
        <time>2013-06-19T10:02:56Z</time>
      </trkpt>
      <trkpt lat="47.29516" lon="6.20412">
        <ele>305</ele>
        <time>2013-06-19T10:02:59Z</time>
      </trkpt>
      <trkpt lat="47.29528" lon="6.20414">
        <ele>306</ele>
        <time>2013-06-19T10:03:00Z</time>
      </trkpt>
      <trkpt lat="47.29539" lon="6.20418">
        <ele>306</ele>
        <time>2013-06-19T10:03:02Z</time>
      </trkpt>
      <trkpt lat="47.2955" lon="6.20419">
        <ele>305</ele>
        <time>2013-06-19T10:03:05Z</time>
      </trkpt>
      <trkpt lat="47.2956" lon="6.20423">
        <ele>308</ele>
        <time>2013-06-19T10:03:07Z</time>
      </trkpt>
      <trkpt lat="47.2957" lon="6.20425">
        <ele>308</ele>
        <time>2013-06-19T10:03:09Z</time>
      </trkpt>
      <trkpt lat="47.29581" lon="6.20429">
        <ele>308</ele>
        <time>2013-06-19T10:03:11Z</time>
      </trkpt>
      <trkpt lat="47.2959" lon="6.20438">
        <ele>306</ele>
        <time>2013-06-19T10:03:13Z</time>
      </trkpt>
      <trkpt lat="47.29601" lon="6.20439">
        <ele>306</ele>
        <time>2013-06-19T10:03:15Z</time>
      </trkpt>
      <trkpt lat="47.2961" lon="6.2044">
        <ele>305</ele>
        <time>2013-06-19T10:03:17Z</time>
      </trkpt>
      <trkpt lat="47.29622" lon="6.20437">
        <ele>305</ele>
        <time>2013-06-19T10:03:20Z</time>
      </trkpt>
      <trkpt lat="47.29631" lon="6.20438">
        <ele>306</ele>
        <time>2013-06-19T10:03:22Z</time>
      </trkpt>
      <trkpt lat="47.29642" lon="6.20443">
        <ele>305</ele>
        <time>2013-06-19T10:03:25Z</time>
      </trkpt>
      <trkpt lat="47.29655" lon="6.2045">
        <ele>305</ele>
        <time>2013-06-19T10:03:28Z</time>
      </trkpt>
      <trkpt lat="47.29666" lon="6.20452">
        <ele>304</ele>
        <time>2013-06-19T10:03:30Z</time>
      </trkpt>
      <trkpt lat="47.29675" lon="6.20454">
        <ele>305</ele>
        <time>2013-06-19T10:03:32Z</time>
      </trkpt>
      <trkpt lat="47.29688" lon="6.20458">
        <ele>305</ele>
        <time>2013-06-19T10:03:35Z</time>
      </trkpt>
      <trkpt lat="47.29703" lon="6.2046">
        <ele>305</ele>
        <time>2013-06-19T10:03:37Z</time>
      </trkpt>
      <trkpt lat="47.29715" lon="6.20464">
        <ele>306</ele>
        <time>2013-06-19T10:03:40Z</time>
      </trkpt>
      <trkpt lat="47.29726" lon="6.20465">
        <ele>306</ele>
        <time>2013-06-19T10:03:41Z</time>
      </trkpt>
      <trkpt lat="47.29736" lon="6.20465">
        <ele>306</ele>
        <time>2013-06-19T10:03:43Z</time>
      </trkpt>
      <trkpt lat="47.29746" lon="6.20467">
        <ele>306</ele>
        <time>2013-06-19T10:03:45Z</time>
      </trkpt>
      <trkpt lat="47.29759" lon="6.20472">
        <ele>306</ele>
        <time>2013-06-19T10:03:48Z</time>
      </trkpt>
      <trkpt lat="47.29771" lon="6.20471">
        <ele>308</ele>
        <time>2013-06-19T10:03:51Z</time>
      </trkpt>
      <trkpt lat="47.29783" lon="6.20473">
        <ele>311</ele>
        <time>2013-06-19T10:03:54Z</time>
      </trkpt>
      <trkpt lat="47.29802" lon="6.20484">
        <ele>315</ele>
        <time>2013-06-19T10:03:57Z</time>
      </trkpt>
      <trkpt lat="47.29813" lon="6.2049">
        <ele>316</ele>
        <time>2013-06-19T10:03:59Z</time>
      </trkpt>
      <trkpt lat="47.29823" lon="6.20498">
        <ele>317</ele>
        <time>2013-06-19T10:04:01Z</time>
      </trkpt>
      <trkpt lat="47.29836" lon="6.20501">
        <ele>319</ele>
        <time>2013-06-19T10:04:04Z</time>
      </trkpt>
      <trkpt lat="47.29848" lon="6.20509">
        <ele>320</ele>
        <time>2013-06-19T10:04:06Z</time>
      </trkpt>
      <trkpt lat="47.29859" lon="6.20516">
        <ele>322</ele>
        <time>2013-06-19T10:04:08Z</time>
      </trkpt>
      <trkpt lat="47.2987" lon="6.2052">
        <ele>321</ele>
        <time>2013-06-19T10:04:11Z</time>
      </trkpt>
      <trkpt lat="47.29882" lon="6.20525">
        <ele>320</ele>
        <time>2013-06-19T10:04:12Z</time>
      </trkpt>
      <trkpt lat="47.29893" lon="6.20529">
        <ele>321</ele>
        <time>2013-06-19T10:04:14Z</time>
      </trkpt>
      <trkpt lat="47.29907" lon="6.20536">
        <ele>320</ele>
        <time>2013-06-19T10:04:16Z</time>
      </trkpt>
      <trkpt lat="47.29918" lon="6.20541">
        <ele>321</ele>
        <time>2013-06-19T10:04:18Z</time>
      </trkpt>
      <trkpt lat="47.2993" lon="6.20546">
        <ele>321</ele>
        <time>2013-06-19T10:04:20Z</time>
      </trkpt>
      <trkpt lat="47.29941" lon="6.20548">
        <ele>321</ele>
        <time>2013-06-19T10:04:22Z</time>
      </trkpt>
      <trkpt lat="47.29952" lon="6.20552">
        <ele>318</ele>
        <time>2013-06-19T10:04:24Z</time>
      </trkpt>
      <trkpt lat="47.29963" lon="6.20554">
        <ele>316</ele>
        <time>2013-06-19T10:04:26Z</time>
      </trkpt>
      <trkpt lat="47.29974" lon="6.20558">
        <ele>316</ele>
        <time>2013-06-19T10:04:28Z</time>
      </trkpt>
      <trkpt lat="47.29982" lon="6.20562">
        <ele>318</ele>
        <time>2013-06-19T10:04:30Z</time>
      </trkpt>
      <trkpt lat="47.29993" lon="6.20566">
        <ele>318</ele>
        <time>2013-06-19T10:04:32Z</time>
      </trkpt>
      <trkpt lat="47.30005" lon="6.2057">
        <ele>321</ele>
        <time>2013-06-19T10:04:35Z</time>
      </trkpt>
      <trkpt lat="47.30016" lon="6.20573">
        <ele>321</ele>
        <time>2013-06-19T10:04:36Z</time>
      </trkpt>
      <trkpt lat="47.30026" lon="6.20577">
        <ele>320</ele>
        <time>2013-06-19T10:04:38Z</time>
      </trkpt>
      <trkpt lat="47.30042" lon="6.20581">
        <ele>317</ele>
        <time>2013-06-19T10:04:41Z</time>
      </trkpt>
      <trkpt lat="47.30053" lon="6.20587">
        <ele>318</ele>
        <time>2013-06-19T10:04:43Z</time>
      </trkpt>
      <trkpt lat="47.30065" lon="6.20591">
        <ele>316</ele>
        <time>2013-06-19T10:04:46Z</time>
      </trkpt>
      <trkpt lat="47.30076" lon="6.20596">
        <ele>316</ele>
        <time>2013-06-19T10:04:47Z</time>
      </trkpt>
      <trkpt lat="47.30087" lon="6.20601">
        <ele>317</ele>
        <time>2013-06-19T10:04:49Z</time>
      </trkpt>
      <trkpt lat="47.30096" lon="6.20605">
        <ele>316</ele>
        <time>2013-06-19T10:04:51Z</time>
      </trkpt>
      <trkpt lat="47.30108" lon="6.2061">
        <ele>316</ele>
        <time>2013-06-19T10:04:53Z</time>
      </trkpt>
      <trkpt lat="47.3012" lon="6.20611">
        <ele>317</ele>
        <time>2013-06-19T10:04:55Z</time>
      </trkpt>
      <trkpt lat="47.3013" lon="6.20611">
        <ele>314</ele>
        <time>2013-06-19T10:04:57Z</time>
      </trkpt>
      <trkpt lat="47.30141" lon="6.20618">
        <ele>315</ele>
        <time>2013-06-19T10:04:59Z</time>
      </trkpt>
      <trkpt lat="47.30153" lon="6.20625">
        <ele>317</ele>
        <time>2013-06-19T10:05:02Z</time>
      </trkpt>
      <trkpt lat="47.30162" lon="6.20629">
        <ele>317</ele>
        <time>2013-06-19T10:05:04Z</time>
      </trkpt>
      <trkpt lat="47.30172" lon="6.20632">
        <ele>318</ele>
        <time>2013-06-19T10:05:07Z</time>
      </trkpt>
      <trkpt lat="47.3018" lon="6.20639">
        <ele>319</ele>
        <time>2013-06-19T10:05:10Z</time>
      </trkpt>
      <trkpt lat="47.3019" lon="6.20649">
        <ele>317</ele>
        <time>2013-06-19T10:05:13Z</time>
      </trkpt>
      <trkpt lat="47.30198" lon="6.20659">
        <ele>320</ele>
        <time>2013-06-19T10:05:16Z</time>
      </trkpt>
      <trkpt lat="47.30207" lon="6.20666">
        <ele>321</ele>
        <time>2013-06-19T10:05:19Z</time>
      </trkpt>
      <trkpt lat="47.30219" lon="6.20674">
        <ele>320</ele>
        <time>2013-06-19T10:05:22Z</time>
      </trkpt>
      <trkpt lat="47.30227" lon="6.20679">
        <ele>319</ele>
        <time>2013-06-19T10:05:24Z</time>
      </trkpt>
      <trkpt lat="47.3024" lon="6.20687">
        <ele>320</ele>
        <time>2013-06-19T10:05:27Z</time>
      </trkpt>
      <trkpt lat="47.30251" lon="6.20694">
        <ele>321</ele>
        <time>2013-06-19T10:05:29Z</time>
      </trkpt>
      <trkpt lat="47.30259" lon="6.20703">
        <ele>322</ele>
        <time>2013-06-19T10:05:31Z</time>
      </trkpt>
      <trkpt lat="47.3027" lon="6.20714">
        <ele>321</ele>
        <time>2013-06-19T10:05:32Z</time>
      </trkpt>
      <trkpt lat="47.30281" lon="6.20723">
        <ele>320</ele>
        <time>2013-06-19T10:05:34Z</time>
      </trkpt>
      <trkpt lat="47.30293" lon="6.20735">
        <ele>321</ele>
        <time>2013-06-19T10:05:36Z</time>
      </trkpt>
      <trkpt lat="47.30302" lon="6.20746">
        <ele>323</ele>
        <time>2013-06-19T10:05:39Z</time>
      </trkpt>
      <trkpt lat="47.30314" lon="6.20756">
        <ele>324</ele>
        <time>2013-06-19T10:05:40Z</time>
      </trkpt>
      <trkpt lat="47.30323" lon="6.20773">
        <ele>324</ele>
        <time>2013-06-19T10:05:43Z</time>
      </trkpt>
      <trkpt lat="47.30335" lon="6.20789">
        <ele>322</ele>
        <time>2013-06-19T10:05:45Z</time>
      </trkpt>
      <trkpt lat="47.3034" lon="6.20802">
        <ele>323</ele>
        <time>2013-06-19T10:05:46Z</time>
      </trkpt>
      <trkpt lat="47.30346" lon="6.20814">
        <ele>320</ele>
        <time>2013-06-19T10:05:47Z</time>
      </trkpt>
      <trkpt lat="47.30354" lon="6.20834">
        <ele>320</ele>
        <time>2013-06-19T10:05:49Z</time>
      </trkpt>
      <trkpt lat="47.3036" lon="6.20845">
        <ele>316</ele>
        <time>2013-06-19T10:05:50Z</time>
      </trkpt>
      <trkpt lat="47.30366" lon="6.20862">
        <ele>312</ele>
        <time>2013-06-19T10:05:52Z</time>
      </trkpt>
      <trkpt lat="47.3037" lon="6.20875">
        <ele>312</ele>
        <time>2013-06-19T10:05:53Z</time>
      </trkpt>
      <trkpt lat="47.30378" lon="6.20893">
        <ele>308</ele>
        <time>2013-06-19T10:05:55Z</time>
      </trkpt>
      <trkpt lat="47.30383" lon="6.20911">
        <ele>307</ele>
        <time>2013-06-19T10:05:57Z</time>
      </trkpt>
      <trkpt lat="47.30388" lon="6.20929">
        <ele>306</ele>
        <time>2013-06-19T10:05:59Z</time>
      </trkpt>
      <trkpt lat="47.30391" lon="6.20945">
        <ele>305</ele>
        <time>2013-06-19T10:06:01Z</time>
      </trkpt>
      <trkpt lat="47.30394" lon="6.20963">
        <ele>303</ele>
        <time>2013-06-19T10:06:03Z</time>
      </trkpt>
      <trkpt lat="47.30394" lon="6.20982">
        <ele>303</ele>
        <time>2013-06-19T10:06:05Z</time>
      </trkpt>
      <trkpt lat="47.30394" lon="6.20998">
        <ele>303</ele>
        <time>2013-06-19T10:06:07Z</time>
      </trkpt>
      <trkpt lat="47.30395" lon="6.21015">
        <ele>303</ele>
        <time>2013-06-19T10:06:09Z</time>
      </trkpt>
      <trkpt lat="47.30394" lon="6.21033">
        <ele>304</ele>
        <time>2013-06-19T10:06:11Z</time>
      </trkpt>
      <trkpt lat="47.30395" lon="6.21053">
        <ele>304</ele>
        <time>2013-06-19T10:06:13Z</time>
      </trkpt>
      <trkpt lat="47.30396" lon="6.21069">
        <ele>304</ele>
        <time>2013-06-19T10:06:15Z</time>
      </trkpt>
      <trkpt lat="47.30394" lon="6.21087">
        <ele>305</ele>
        <time>2013-06-19T10:06:17Z</time>
      </trkpt>
      <trkpt lat="47.30391" lon="6.21105">
        <ele>306</ele>
        <time>2013-06-19T10:06:19Z</time>
      </trkpt>
      <trkpt lat="47.30389" lon="6.21123">
        <ele>307</ele>
        <time>2013-06-19T10:06:21Z</time>
      </trkpt>
      <trkpt lat="47.30386" lon="6.2114">
        <ele>307</ele>
        <time>2013-06-19T10:06:23Z</time>
      </trkpt>
      <trkpt lat="47.30382" lon="6.21158">
        <ele>305</ele>
        <time>2013-06-19T10:06:25Z</time>
      </trkpt>
      <trkpt lat="47.30379" lon="6.21175">
        <ele>304</ele>
        <time>2013-06-19T10:06:28Z</time>
      </trkpt>
      <trkpt lat="47.30376" lon="6.21192">
        <ele>303</ele>
        <time>2013-06-19T10:06:29Z</time>
      </trkpt>
      <trkpt lat="47.30372" lon="6.21208">
        <ele>303</ele>
        <time>2013-06-19T10:06:31Z</time>
      </trkpt>
      <trkpt lat="47.30367" lon="6.21222">
        <ele>303</ele>
        <time>2013-06-19T10:06:33Z</time>
      </trkpt>
      <trkpt lat="47.30364" lon="6.21239">
        <ele>305</ele>
        <time>2013-06-19T10:06:35Z</time>
      </trkpt>
      <trkpt lat="47.30359" lon="6.21257">
        <ele>304</ele>
        <time>2013-06-19T10:06:37Z</time>
      </trkpt>
      <trkpt lat="47.30354" lon="6.21277">
        <ele>304</ele>
        <time>2013-06-19T10:06:39Z</time>
      </trkpt>
      <trkpt lat="47.30353" lon="6.21295">
        <ele>304</ele>
        <time>2013-06-19T10:06:42Z</time>
      </trkpt>
      <trkpt lat="47.3035" lon="6.21312">
        <ele>304</ele>
        <time>2013-06-19T10:06:43Z</time>
      </trkpt>
      <trkpt lat="47.30349" lon="6.21335">
        <ele>303</ele>
        <time>2013-06-19T10:06:45Z</time>
      </trkpt>
      <trkpt lat="47.30347" lon="6.21353">
        <ele>302</ele>
        <time>2013-06-19T10:06:47Z</time>
      </trkpt>
      <trkpt lat="47.30346" lon="6.21372">
        <ele>303</ele>
        <time>2013-06-19T10:06:51Z</time>
      </trkpt>
      <trkpt lat="47.30344" lon="6.21386">
        <ele>304</ele>
        <time>2013-06-19T10:06:51Z</time>
      </trkpt>
      <trkpt lat="47.30341" lon="6.214">
        <ele>305</ele>
        <time>2013-06-19T10:06:53Z</time>
      </trkpt>
      <trkpt lat="47.30335" lon="6.21416">
        <ele>304</ele>
        <time>2013-06-19T10:06:55Z</time>
      </trkpt>
      <trkpt lat="47.30331" lon="6.21431">
        <ele>305</ele>
        <time>2013-06-19T10:06:57Z</time>
      </trkpt>
      <trkpt lat="47.30323" lon="6.21439">
        <ele>305</ele>
        <time>2013-06-19T10:06:58Z</time>
      </trkpt>
      <trkpt lat="47.30319" lon="6.21451">
        <ele>304</ele>
        <time>2013-06-19T10:06:59Z</time>
      </trkpt>
      <trkpt lat="47.30307" lon="6.21463">
        <ele>304</ele>
        <time>2013-06-19T10:07:01Z</time>
      </trkpt>
      <trkpt lat="47.30299" lon="6.21475">
        <ele>305</ele>
        <time>2013-06-19T10:07:02Z</time>
      </trkpt>
      <trkpt lat="47.30291" lon="6.21484">
        <ele>305</ele>
        <time>2013-06-19T10:07:04Z</time>
      </trkpt>
      <trkpt lat="47.30288" lon="6.21499">
        <ele>305</ele>
        <time>2013-06-19T10:07:06Z</time>
      </trkpt>
      <trkpt lat="47.30282" lon="6.21514">
        <ele>305</ele>
        <time>2013-06-19T10:07:08Z</time>
      </trkpt>
      <trkpt lat="47.30277" lon="6.21526">
        <ele>305</ele>
        <time>2013-06-19T10:07:10Z</time>
      </trkpt>
      <trkpt lat="47.3027" lon="6.21541">
        <ele>305</ele>
        <time>2013-06-19T10:07:13Z</time>
      </trkpt>
      <trkpt lat="47.30261" lon="6.21554">
        <ele>306</ele>
        <time>2013-06-19T10:07:15Z</time>
      </trkpt>
      <trkpt lat="47.30254" lon="6.21568">
        <ele>307</ele>
        <time>2013-06-19T10:07:17Z</time>
      </trkpt>
      <trkpt lat="47.30246" lon="6.21582">
        <ele>308</ele>
        <time>2013-06-19T10:07:19Z</time>
      </trkpt>
      <trkpt lat="47.30238" lon="6.21593">
        <ele>307</ele>
        <time>2013-06-19T10:07:21Z</time>
      </trkpt>
      <trkpt lat="47.3023" lon="6.21602">
        <ele>308</ele>
        <time>2013-06-19T10:07:23Z</time>
      </trkpt>
      <trkpt lat="47.30222" lon="6.21613">
        <ele>308</ele>
        <time>2013-06-19T10:07:24Z</time>
      </trkpt>
      <trkpt lat="47.30214" lon="6.21625">
        <ele>310</ele>
        <time>2013-06-19T10:07:26Z</time>
      </trkpt>
      <trkpt lat="47.30207" lon="6.21637">
        <ele>308</ele>
        <time>2013-06-19T10:07:28Z</time>
      </trkpt>
      <trkpt lat="47.30195" lon="6.21654">
        <ele>306</ele>
        <time>2013-06-19T10:07:32Z</time>
      </trkpt>
      <trkpt lat="47.30188" lon="6.21665">
        <ele>306</ele>
        <time>2013-06-19T10:07:34Z</time>
      </trkpt>
      <trkpt lat="47.30182" lon="6.2168">
        <ele>306</ele>
        <time>2013-06-19T10:07:35Z</time>
      </trkpt>
      <trkpt lat="47.30172" lon="6.21692">
        <ele>306</ele>
        <time>2013-06-19T10:07:37Z</time>
      </trkpt>
      <trkpt lat="47.30164" lon="6.21702">
        <ele>307</ele>
        <time>2013-06-19T10:07:40Z</time>
      </trkpt>
      <trkpt lat="47.30157" lon="6.21712">
        <ele>306</ele>
        <time>2013-06-19T10:07:41Z</time>
      </trkpt>
      <trkpt lat="47.3015" lon="6.21729">
        <ele>307</ele>
        <time>2013-06-19T10:07:44Z</time>
      </trkpt>
      <trkpt lat="47.30143" lon="6.2174">
        <ele>306</ele>
        <time>2013-06-19T10:07:46Z</time>
      </trkpt>
      <trkpt lat="47.30135" lon="6.2175">
        <ele>306</ele>
        <time>2013-06-19T10:07:48Z</time>
      </trkpt>
      <trkpt lat="47.30127" lon="6.21762">
        <ele>307</ele>
        <time>2013-06-19T10:07:50Z</time>
      </trkpt>
      <trkpt lat="47.30121" lon="6.21778">
        <ele>306</ele>
        <time>2013-06-19T10:07:52Z</time>
      </trkpt>
      <trkpt lat="47.30112" lon="6.21793">
        <ele>307</ele>
        <time>2013-06-19T10:07:54Z</time>
      </trkpt>
      <trkpt lat="47.30101" lon="6.21808">
        <ele>307</ele>
        <time>2013-06-19T10:07:57Z</time>
      </trkpt>
      <trkpt lat="47.30094" lon="6.21822">
        <ele>308</ele>
        <time>2013-06-19T10:07:58Z</time>
      </trkpt>
      <trkpt lat="47.30086" lon="6.21836">
        <ele>307</ele>
        <time>2013-06-19T10:08:00Z</time>
      </trkpt>
      <trkpt lat="47.30077" lon="6.21849">
        <ele>308</ele>
        <time>2013-06-19T10:08:02Z</time>
      </trkpt>
      <trkpt lat="47.30072" lon="6.21862">
        <ele>307</ele>
        <time>2013-06-19T10:08:04Z</time>
      </trkpt>
      <trkpt lat="47.30063" lon="6.21876">
        <ele>306</ele>
        <time>2013-06-19T10:08:06Z</time>
      </trkpt>
      <trkpt lat="47.30055" lon="6.21889">
        <ele>307</ele>
        <time>2013-06-19T10:08:08Z</time>
      </trkpt>
      <trkpt lat="47.30046" lon="6.21904">
        <ele>307</ele>
        <time>2013-06-19T10:08:10Z</time>
      </trkpt>
      <trkpt lat="47.30039" lon="6.21916">
        <ele>307</ele>
        <time>2013-06-19T10:08:12Z</time>
      </trkpt>
      <trkpt lat="47.3003" lon="6.2193">
        <ele>307</ele>
        <time>2013-06-19T10:08:14Z</time>
      </trkpt>
      <trkpt lat="47.30021" lon="6.21947">
        <ele>308</ele>
        <time>2013-06-19T10:08:16Z</time>
      </trkpt>
      <trkpt lat="47.30012" lon="6.2196">
        <ele>308</ele>
        <time>2013-06-19T10:08:18Z</time>
      </trkpt>
      <trkpt lat="47.30004" lon="6.21975">
        <ele>308</ele>
        <time>2013-06-19T10:08:20Z</time>
      </trkpt>
      <trkpt lat="47.29995" lon="6.21988">
        <ele>309</ele>
        <time>2013-06-19T10:08:21Z</time>
      </trkpt>
      <trkpt lat="47.29981" lon="6.21993">
        <ele>307</ele>
        <time>2013-06-19T10:08:23Z</time>
      </trkpt>
      <trkpt lat="47.29974" lon="6.22006">
        <ele>308</ele>
        <time>2013-06-19T10:08:25Z</time>
      </trkpt>
      <trkpt lat="47.29966" lon="6.22019">
        <ele>309</ele>
        <time>2013-06-19T10:08:27Z</time>
      </trkpt>
      <trkpt lat="47.29959" lon="6.22031">
        <ele>308</ele>
        <time>2013-06-19T10:08:30Z</time>
      </trkpt>
      <trkpt lat="47.29952" lon="6.22043">
        <ele>309</ele>
        <time>2013-06-19T10:08:31Z</time>
      </trkpt>
      <trkpt lat="47.29944" lon="6.22055">
        <ele>309</ele>
        <time>2013-06-19T10:08:34Z</time>
      </trkpt>
      <trkpt lat="47.29936" lon="6.22068">
        <ele>307</ele>
        <time>2013-06-19T10:08:35Z</time>
      </trkpt>
      <trkpt lat="47.29931" lon="6.2208">
        <ele>308</ele>
        <time>2013-06-19T10:08:38Z</time>
      </trkpt>
      <trkpt lat="47.29925" lon="6.22096">
        <ele>307</ele>
        <time>2013-06-19T10:08:40Z</time>
      </trkpt>
      <trkpt lat="47.29917" lon="6.22107">
        <ele>305</ele>
        <time>2013-06-19T10:08:41Z</time>
      </trkpt>
      <trkpt lat="47.2991" lon="6.22122">
        <ele>305</ele>
        <time>2013-06-19T10:08:44Z</time>
      </trkpt>
      <trkpt lat="47.2991" lon="6.2214">
        <ele>305</ele>
        <time>2013-06-19T10:08:46Z</time>
      </trkpt>
      <trkpt lat="47.299" lon="6.22149">
        <ele>304</ele>
        <time>2013-06-19T10:08:48Z</time>
      </trkpt>
      <trkpt lat="47.29891" lon="6.22156">
        <ele>303</ele>
        <time>2013-06-19T10:08:50Z</time>
      </trkpt>
      <trkpt lat="47.29883" lon="6.2217">
        <ele>303</ele>
        <time>2013-06-19T10:08:52Z</time>
      </trkpt>
      <trkpt lat="47.29878" lon="6.22184">
        <ele>303</ele>
        <time>2013-06-19T10:08:54Z</time>
      </trkpt>
      <trkpt lat="47.29874" lon="6.222">
        <ele>301</ele>
        <time>2013-06-19T10:08:56Z</time>
      </trkpt>
      <trkpt lat="47.29869" lon="6.22213">
        <ele>301</ele>
        <time>2013-06-19T10:08:58Z</time>
      </trkpt>
      <trkpt lat="47.29866" lon="6.22227">
        <ele>302</ele>
        <time>2013-06-19T10:09:01Z</time>
      </trkpt>
      <trkpt lat="47.29862" lon="6.22243">
        <ele>303</ele>
        <time>2013-06-19T10:09:03Z</time>
      </trkpt>
      <trkpt lat="47.29858" lon="6.22259">
        <ele>304</ele>
        <time>2013-06-19T10:09:04Z</time>
      </trkpt>
      <trkpt lat="47.29853" lon="6.22275">
        <ele>304</ele>
        <time>2013-06-19T10:09:06Z</time>
      </trkpt>
      <trkpt lat="47.29849" lon="6.2229">
        <ele>305</ele>
        <time>2013-06-19T10:09:08Z</time>
      </trkpt>
      <trkpt lat="47.29845" lon="6.22306">
        <ele>303</ele>
        <time>2013-06-19T10:09:10Z</time>
      </trkpt>
      <trkpt lat="47.29842" lon="6.22323">
        <ele>302</ele>
        <time>2013-06-19T10:09:12Z</time>
      </trkpt>
      <trkpt lat="47.29837" lon="6.2234">
        <ele>301</ele>
        <time>2013-06-19T10:09:14Z</time>
      </trkpt>
      <trkpt lat="47.29834" lon="6.22357">
        <ele>303</ele>
        <time>2013-06-19T10:09:18Z</time>
      </trkpt>
      <trkpt lat="47.2983" lon="6.22374">
        <ele>303</ele>
        <time>2013-06-19T10:09:19Z</time>
      </trkpt>
      <trkpt lat="47.29825" lon="6.2239">
        <ele>302</ele>
        <time>2013-06-19T10:09:21Z</time>
      </trkpt>
      <trkpt lat="47.29822" lon="6.22406">
        <ele>304</ele>
        <time>2013-06-19T10:09:23Z</time>
      </trkpt>
      <trkpt lat="47.29818" lon="6.2242">
        <ele>304</ele>
        <time>2013-06-19T10:09:25Z</time>
      </trkpt>
      <trkpt lat="47.29815" lon="6.22434">
        <ele>304</ele>
        <time>2013-06-19T10:09:27Z</time>
      </trkpt>
      <trkpt lat="47.2981" lon="6.2245">
        <ele>304</ele>
        <time>2013-06-19T10:09:30Z</time>
      </trkpt>
      <trkpt lat="47.29806" lon="6.22468">
        <ele>302</ele>
        <time>2013-06-19T10:09:31Z</time>
      </trkpt>
      <trkpt lat="47.29799" lon="6.2249">
        <ele>303</ele>
        <time>2013-06-19T10:09:34Z</time>
      </trkpt>
      <trkpt lat="47.29796" lon="6.22505">
        <ele>303</ele>
        <time>2013-06-19T10:09:36Z</time>
      </trkpt>
      <trkpt lat="47.29792" lon="6.2252">
        <ele>305</ele>
        <time>2013-06-19T10:09:38Z</time>
      </trkpt>
      <trkpt lat="47.29786" lon="6.22536">
        <ele>307</ele>
        <time>2013-06-19T10:09:40Z</time>
      </trkpt>
      <trkpt lat="47.29781" lon="6.22558">
        <ele>307</ele>
        <time>2013-06-19T10:09:42Z</time>
      </trkpt>
      <trkpt lat="47.29778" lon="6.22574">
        <ele>308</ele>
        <time>2013-06-19T10:09:44Z</time>
      </trkpt>
      <trkpt lat="47.29775" lon="6.22587">
        <ele>308</ele>
        <time>2013-06-19T10:09:46Z</time>
      </trkpt>
      <trkpt lat="47.29768" lon="6.22604">
        <ele>308</ele>
        <time>2013-06-19T10:09:48Z</time>
      </trkpt>
      <trkpt lat="47.29762" lon="6.2262">
        <ele>308</ele>
        <time>2013-06-19T10:09:50Z</time>
      </trkpt>
      <trkpt lat="47.29755" lon="6.22636">
        <ele>308</ele>
        <time>2013-06-19T10:09:54Z</time>
      </trkpt>
      <trkpt lat="47.29749" lon="6.22653">
        <ele>308</ele>
        <time>2013-06-19T10:09:55Z</time>
      </trkpt>
      <trkpt lat="47.29741" lon="6.22666">
        <ele>309</ele>
        <time>2013-06-19T10:09:57Z</time>
      </trkpt>
      <trkpt lat="47.29734" lon="6.22681">
        <ele>308</ele>
        <time>2013-06-19T10:09:59Z</time>
      </trkpt>
      <trkpt lat="47.29728" lon="6.22695">
        <ele>309</ele>
        <time>2013-06-19T10:10:01Z</time>
      </trkpt>
      <trkpt lat="47.29722" lon="6.2271">
        <ele>310</ele>
        <time>2013-06-19T10:10:03Z</time>
      </trkpt>
      <trkpt lat="47.29715" lon="6.22726">
        <ele>311</ele>
        <time>2013-06-19T10:10:05Z</time>
      </trkpt>
      <trkpt lat="47.29708" lon="6.22741">
        <ele>310</ele>
        <time>2013-06-19T10:10:07Z</time>
      </trkpt>
      <trkpt lat="47.29701" lon="6.22759">
        <ele>309</ele>
        <time>2013-06-19T10:10:09Z</time>
      </trkpt>
      <trkpt lat="47.29691" lon="6.22772">
        <ele>308</ele>
        <time>2013-06-19T10:10:11Z</time>
      </trkpt>
      <trkpt lat="47.29684" lon="6.22789">
        <ele>309</ele>
        <time>2013-06-19T10:10:13Z</time>
      </trkpt>
      <trkpt lat="47.29678" lon="6.22805">
        <ele>308</ele>
        <time>2013-06-19T10:10:15Z</time>
      </trkpt>
      <trkpt lat="47.2967" lon="6.22821">
        <ele>307</ele>
        <time>2013-06-19T10:10:17Z</time>
      </trkpt>
      <trkpt lat="47.2966" lon="6.22839">
        <ele>307</ele>
        <time>2013-06-19T10:10:18Z</time>
      </trkpt>
      <trkpt lat="47.29654" lon="6.22854">
        <ele>306</ele>
        <time>2013-06-19T10:10:20Z</time>
      </trkpt>
      <trkpt lat="47.29647" lon="6.22869">
        <ele>304</ele>
        <time>2013-06-19T10:10:22Z</time>
      </trkpt>
      <trkpt lat="47.29641" lon="6.22882">
        <ele>304</ele>
        <time>2013-06-19T10:10:24Z</time>
      </trkpt>
      <trkpt lat="47.29635" lon="6.22898">
        <ele>304</ele>
        <time>2013-06-19T10:10:27Z</time>
      </trkpt>
      <trkpt lat="47.2963" lon="6.22914">
        <ele>305</ele>
        <time>2013-06-19T10:10:28Z</time>
      </trkpt>
      <trkpt lat="47.29626" lon="6.2293">
        <ele>306</ele>
        <time>2013-06-19T10:10:30Z</time>
      </trkpt>
      <trkpt lat="47.29622" lon="6.22946">
        <ele>307</ele>
        <time>2013-06-19T10:10:32Z</time>
      </trkpt>
      <trkpt lat="47.29619" lon="6.22965">
        <ele>305</ele>
        <time>2013-06-19T10:10:34Z</time>
      </trkpt>
      <trkpt lat="47.29615" lon="6.22985">
        <ele>306</ele>
        <time>2013-06-19T10:10:36Z</time>
      </trkpt>
      <trkpt lat="47.29612" lon="6.23007">
        <ele>305</ele>
        <time>2013-06-19T10:10:38Z</time>
      </trkpt>
      <trkpt lat="47.29608" lon="6.2303">
        <ele>306</ele>
        <time>2013-06-19T10:10:40Z</time>
      </trkpt>
      <trkpt lat="47.29606" lon="6.23051">
        <ele>305</ele>
        <time>2013-06-19T10:10:42Z</time>
      </trkpt>
      <trkpt lat="47.29605" lon="6.23068">
        <ele>305</ele>
        <time>2013-06-19T10:10:44Z</time>
      </trkpt>
      <trkpt lat="47.29604" lon="6.23088">
        <ele>305</ele>
        <time>2013-06-19T10:10:46Z</time>
      </trkpt>
      <trkpt lat="47.29603" lon="6.23106">
        <ele>306</ele>
        <time>2013-06-19T10:10:48Z</time>
      </trkpt>
      <trkpt lat="47.29602" lon="6.23124">
        <ele>306</ele>
        <time>2013-06-19T10:10:50Z</time>
      </trkpt>
      <trkpt lat="47.296" lon="6.2314">
        <ele>306</ele>
        <time>2013-06-19T10:10:52Z</time>
      </trkpt>
      <trkpt lat="47.29599" lon="6.23156">
        <ele>306</ele>
        <time>2013-06-19T10:10:54Z</time>
      </trkpt>
      <trkpt lat="47.29601" lon="6.23176">
        <ele>306</ele>
        <time>2013-06-19T10:10:57Z</time>
      </trkpt>
      <trkpt lat="47.29599" lon="6.23194">
        <ele>305</ele>
        <time>2013-06-19T10:11:00Z</time>
      </trkpt>
      <trkpt lat="47.29602" lon="6.23213">
        <ele>306</ele>
        <time>2013-06-19T10:11:03Z</time>
      </trkpt>
      <trkpt lat="47.29605" lon="6.23227">
        <ele>306</ele>
        <time>2013-06-19T10:11:06Z</time>
      </trkpt>
      <trkpt lat="47.29607" lon="6.23241">
        <ele>309</ele>
        <time>2013-06-19T10:11:09Z</time>
      </trkpt>
      <trkpt lat="47.29609" lon="6.23257">
        <ele>307</ele>
        <time>2013-06-19T10:11:13Z</time>
      </trkpt>
      <trkpt lat="47.29613" lon="6.23276">
        <ele>308</ele>
        <time>2013-06-19T10:11:16Z</time>
      </trkpt>
      <trkpt lat="47.29617" lon="6.23292">
        <ele>309</ele>
        <time>2013-06-19T10:11:18Z</time>
      </trkpt>
      <trkpt lat="47.29622" lon="6.23306">
        <ele>308</ele>
        <time>2013-06-19T10:11:20Z</time>
      </trkpt>
      <trkpt lat="47.29627" lon="6.23318">
        <ele>308</ele>
        <time>2013-06-19T10:11:22Z</time>
      </trkpt>
      <trkpt lat="47.29632" lon="6.23329">
        <ele>308</ele>
        <time>2013-06-19T10:11:24Z</time>
      </trkpt>
      <trkpt lat="47.29639" lon="6.2334">
        <ele>309</ele>
        <time>2013-06-19T10:11:26Z</time>
      </trkpt>
      <trkpt lat="47.29649" lon="6.23342">
        <ele>309</ele>
        <time>2013-06-19T10:11:28Z</time>
      </trkpt>
      <trkpt lat="47.29658" lon="6.2334">
        <ele>308</ele>
        <time>2013-06-19T10:11:30Z</time>
      </trkpt>
      <trkpt lat="47.29666" lon="6.23332">
        <ele>310</ele>
        <time>2013-06-19T10:11:32Z</time>
      </trkpt>
      <trkpt lat="47.29677" lon="6.23327">
        <ele>308</ele>
        <time>2013-06-19T10:11:35Z</time>
      </trkpt>
      <trkpt lat="47.29685" lon="6.23321">
        <ele>307</ele>
        <time>2013-06-19T10:11:39Z</time>
      </trkpt>
      <trkpt lat="47.29694" lon="6.23314">
        <ele>311</ele>
        <time>2013-06-19T10:11:44Z</time>
      </trkpt>
      <trkpt lat="47.29705" lon="6.23312">
        <ele>314</ele>
        <time>2013-06-19T10:11:48Z</time>
      </trkpt>
      <trkpt lat="47.29713" lon="6.23305">
        <ele>315</ele>
        <time>2013-06-19T10:11:52Z</time>
      </trkpt>
      <trkpt lat="47.29725" lon="6.23299">
        <ele>317</ele>
        <time>2013-06-19T10:11:56Z</time>
      </trkpt>
      <trkpt lat="47.29735" lon="6.23306">
        <ele>316</ele>
        <time>2013-06-19T10:12:00Z</time>
      </trkpt>
      <trkpt lat="47.29741" lon="6.2332">
        <ele>317</ele>
        <time>2013-06-19T10:12:03Z</time>
      </trkpt>
      <trkpt lat="47.29747" lon="6.23335">
        <ele>317</ele>
        <time>2013-06-19T10:12:05Z</time>
      </trkpt>
      <trkpt lat="47.29755" lon="6.23351">
        <ele>317</ele>
        <time>2013-06-19T10:12:08Z</time>
      </trkpt>
      <trkpt lat="47.29765" lon="6.23368">
        <ele>315</ele>
        <time>2013-06-19T10:12:11Z</time>
      </trkpt>
      <trkpt lat="47.29773" lon="6.23379">
        <ele>315</ele>
        <time>2013-06-19T10:12:13Z</time>
      </trkpt>
      <trkpt lat="47.29782" lon="6.23393">
        <ele>318</ele>
        <time>2013-06-19T10:12:16Z</time>
      </trkpt>
      <trkpt lat="47.29791" lon="6.23404">
        <ele>317</ele>
        <time>2013-06-19T10:12:18Z</time>
      </trkpt>
      <trkpt lat="47.29799" lon="6.23413">
        <ele>317</ele>
        <time>2013-06-19T10:12:20Z</time>
      </trkpt>
      <trkpt lat="47.2981" lon="6.23421">
        <ele>318</ele>
        <time>2013-06-19T10:12:22Z</time>
      </trkpt>
      <trkpt lat="47.2982" lon="6.23422">
        <ele>319</ele>
        <time>2013-06-19T10:12:24Z</time>
      </trkpt>
      <trkpt lat="47.29832" lon="6.23418">
        <ele>321</ele>
        <time>2013-06-19T10:12:27Z</time>
      </trkpt>
      <trkpt lat="47.29843" lon="6.23419">
        <ele>322</ele>
        <time>2013-06-19T10:12:31Z</time>
      </trkpt>
      <trkpt lat="47.29855" lon="6.23417">
        <ele>322</ele>
        <time>2013-06-19T10:12:35Z</time>
      </trkpt>
      <trkpt lat="47.29864" lon="6.23413">
        <ele>324</ele>
        <time>2013-06-19T10:12:39Z</time>
      </trkpt>
      <trkpt lat="47.29873" lon="6.2341">
        <ele>326</ele>
        <time>2013-06-19T10:12:45Z</time>
      </trkpt>
      <trkpt lat="47.29876" lon="6.23426">
        <ele>324</ele>
        <time>2013-06-19T10:12:50Z</time>
      </trkpt>
      <trkpt lat="47.29869" lon="6.23439">
        <ele>323</ele>
        <time>2013-06-19T10:12:50Z</time>
      </trkpt>
      <trkpt lat="47.29865" lon="6.23453">
        <ele>321</ele>
        <time>2013-06-19T10:12:53Z</time>
      </trkpt>
      <trkpt lat="47.2986" lon="6.23465">
        <ele>322</ele>
        <time>2013-06-19T10:12:55Z</time>
      </trkpt>
      <trkpt lat="47.29855" lon="6.23478">
        <ele>325</ele>
        <time>2013-06-19T10:12:57Z</time>
      </trkpt>
      <trkpt lat="47.29852" lon="6.23493">
        <ele>323</ele>
        <time>2013-06-19T10:12:59Z</time>
      </trkpt>
      <trkpt lat="47.2985" lon="6.23508">
        <ele>324</ele>
        <time>2013-06-19T10:13:01Z</time>
      </trkpt>
      <trkpt lat="47.29849" lon="6.23525">
        <ele>323</ele>
        <time>2013-06-19T10:13:03Z</time>
      </trkpt>
      <trkpt lat="47.29845" lon="6.23539">
        <ele>323</ele>
        <time>2013-06-19T10:13:05Z</time>
      </trkpt>
      <trkpt lat="47.29844" lon="6.23552">
        <ele>322</ele>
        <time>2013-06-19T10:13:06Z</time>
      </trkpt>
      <trkpt lat="47.2984" lon="6.2357">
        <ele>323</ele>
        <time>2013-06-19T10:13:10Z</time>
      </trkpt>
      <trkpt lat="47.29837" lon="6.23583">
        <ele>324</ele>
        <time>2013-06-19T10:13:12Z</time>
      </trkpt>
      <trkpt lat="47.29836" lon="6.23597">
        <ele>323</ele>
        <time>2013-06-19T10:13:14Z</time>
      </trkpt>
      <trkpt lat="47.29834" lon="6.2361">
        <ele>323</ele>
        <time>2013-06-19T10:13:15Z</time>
      </trkpt>
      <trkpt lat="47.29832" lon="6.23624">
        <ele>322</ele>
        <time>2013-06-19T10:13:18Z</time>
      </trkpt>
      <trkpt lat="47.2983" lon="6.23639">
        <ele>322</ele>
        <time>2013-06-19T10:13:20Z</time>
      </trkpt>
      <trkpt lat="47.29828" lon="6.23653">
        <ele>322</ele>
        <time>2013-06-19T10:13:21Z</time>
      </trkpt>
      <trkpt lat="47.29826" lon="6.23666">
        <ele>323</ele>
        <time>2013-06-19T10:13:23Z</time>
      </trkpt>
      <trkpt lat="47.29823" lon="6.2368">
        <ele>322</ele>
        <time>2013-06-19T10:13:25Z</time>
      </trkpt>
      <trkpt lat="47.29822" lon="6.23693">
        <ele>322</ele>
        <time>2013-06-19T10:13:27Z</time>
      </trkpt>
      <trkpt lat="47.29825" lon="6.23724">
        <ele>326</ele>
        <time>2013-06-19T10:13:35Z</time>
      </trkpt>
      <trkpt lat="47.2983" lon="6.23738">
        <ele>325</ele>
        <time>2013-06-19T10:13:37Z</time>
      </trkpt>
      <trkpt lat="47.29836" lon="6.2375">
        <ele>326</ele>
        <time>2013-06-19T10:13:41Z</time>
      </trkpt>
      <trkpt lat="47.29845" lon="6.23755">
        <ele>327</ele>
        <time>2013-06-19T10:13:45Z</time>
      </trkpt>
      <trkpt lat="47.29855" lon="6.23758">
        <ele>328</ele>
        <time>2013-06-19T10:13:48Z</time>
      </trkpt>
      <trkpt lat="47.29866" lon="6.23759">
        <ele>329</ele>
        <time>2013-06-19T10:13:51Z</time>
      </trkpt>
      <trkpt lat="47.29876" lon="6.2376">
        <ele>329</ele>
        <time>2013-06-19T10:13:54Z</time>
      </trkpt>
      <trkpt lat="47.29885" lon="6.23764">
        <ele>330</ele>
        <time>2013-06-19T10:13:56Z</time>
      </trkpt>
      <trkpt lat="47.29897" lon="6.23768">
        <ele>331</ele>
        <time>2013-06-19T10:13:59Z</time>
      </trkpt>
      <trkpt lat="47.29907" lon="6.23772">
        <ele>332</ele>
        <time>2013-06-19T10:14:02Z</time>
      </trkpt>
      <trkpt lat="47.29917" lon="6.23776">
        <ele>333</ele>
        <time>2013-06-19T10:14:05Z</time>
      </trkpt>
      <trkpt lat="47.29926" lon="6.2378">
        <ele>334</ele>
        <time>2013-06-19T10:14:08Z</time>
      </trkpt>
      <trkpt lat="47.29936" lon="6.23781">
        <ele>336</ele>
        <time>2013-06-19T10:14:12Z</time>
      </trkpt>
      <trkpt lat="47.29947" lon="6.23786">
        <ele>334</ele>
        <time>2013-06-19T10:14:14Z</time>
      </trkpt>
      <trkpt lat="47.29956" lon="6.23789">
        <ele>340</ele>
        <time>2013-06-19T10:14:17Z</time>
      </trkpt>
      <trkpt lat="47.29967" lon="6.23793">
        <ele>338</ele>
        <time>2013-06-19T10:14:20Z</time>
      </trkpt>
      <trkpt lat="47.29977" lon="6.23797">
        <ele>334</ele>
        <time>2013-06-19T10:14:23Z</time>
      </trkpt>
      <trkpt lat="47.29989" lon="6.23799">
        <ele>333</ele>
        <time>2013-06-19T10:14:26Z</time>
      </trkpt>
      <trkpt lat="47.29999" lon="6.238">
        <ele>333</ele>
        <time>2013-06-19T10:14:29Z</time>
      </trkpt>
      <trkpt lat="47.30009" lon="6.23802">
        <ele>333</ele>
        <time>2013-06-19T10:14:32Z</time>
      </trkpt>
      <trkpt lat="47.30018" lon="6.23801">
        <ele>335</ele>
        <time>2013-06-19T10:14:35Z</time>
      </trkpt>
      <trkpt lat="47.30027" lon="6.23796">
        <ele>337</ele>
        <time>2013-06-19T10:14:40Z</time>
      </trkpt>
      <trkpt lat="47.30036" lon="6.23788">
        <ele>337</ele>
        <time>2013-06-19T10:14:43Z</time>
      </trkpt>
      <trkpt lat="47.30053" lon="6.23846">
        <ele>345</ele>
        <time>2013-06-19T10:14:47Z</time>
      </trkpt>
      <trkpt lat="47.30056" lon="6.23865">
        <ele>318</ele>
        <time>2013-06-19T10:14:48Z</time>
      </trkpt>
      <trkpt lat="47.30067" lon="6.23866">
        <ele>321</ele>
        <time>2013-06-19T10:14:56Z</time>
      </trkpt>
      <trkpt lat="47.30078" lon="6.23868">
        <ele>327</ele>
        <time>2013-06-19T10:15:00Z</time>
      </trkpt>
      <trkpt lat="47.30087" lon="6.23862">
        <ele>328</ele>
        <time>2013-06-19T10:15:04Z</time>
      </trkpt>
      <trkpt lat="47.30097" lon="6.23854">
        <ele>328</ele>
        <time>2013-06-19T10:15:08Z</time>
      </trkpt>
      <trkpt lat="47.30104" lon="6.23844">
        <ele>332</ele>
        <time>2013-06-19T10:15:12Z</time>
      </trkpt>
      <trkpt lat="47.30111" lon="6.23834">
        <ele>332</ele>
        <time>2013-06-19T10:15:15Z</time>
      </trkpt>
      <trkpt lat="47.30119" lon="6.23824">
        <ele>334</ele>
        <time>2013-06-19T10:15:19Z</time>
      </trkpt>
      <trkpt lat="47.30129" lon="6.23816">
        <ele>336</ele>
        <time>2013-06-19T10:15:23Z</time>
      </trkpt>
      <trkpt lat="47.30139" lon="6.23811">
        <ele>337</ele>
        <time>2013-06-19T10:15:26Z</time>
      </trkpt>
      <trkpt lat="47.3015" lon="6.2381">
        <ele>341</ele>
        <time>2013-06-19T10:15:29Z</time>
      </trkpt>
      <trkpt lat="47.30159" lon="6.23809">
        <ele>343</ele>
        <time>2013-06-19T10:15:32Z</time>
      </trkpt>
      <trkpt lat="47.30169" lon="6.23807">
        <ele>343</ele>
        <time>2013-06-19T10:15:35Z</time>
      </trkpt>
      <trkpt lat="47.30178" lon="6.23805">
        <ele>344</ele>
        <time>2013-06-19T10:15:38Z</time>
      </trkpt>
      <trkpt lat="47.30188" lon="6.238">
        <ele>346</ele>
        <time>2013-06-19T10:15:42Z</time>
      </trkpt>
      <trkpt lat="47.30198" lon="6.23793">
        <ele>345</ele>
        <time>2013-06-19T10:15:45Z</time>
      </trkpt>
      <trkpt lat="47.30211" lon="6.23789">
        <ele>345</ele>
        <time>2013-06-19T10:15:49Z</time>
      </trkpt>
      <trkpt lat="47.3022" lon="6.23788">
        <ele>345</ele>
        <time>2013-06-19T10:15:52Z</time>
      </trkpt>
      <trkpt lat="47.3023" lon="6.23786">
        <ele>347</ele>
        <time>2013-06-19T10:15:56Z</time>
      </trkpt>
      <trkpt lat="47.30241" lon="6.23784">
        <ele>347</ele>
        <time>2013-06-19T10:16:01Z</time>
      </trkpt>
      <trkpt lat="47.30253" lon="6.23784">
        <ele>349</ele>
        <time>2013-06-19T10:16:05Z</time>
      </trkpt>
      <trkpt lat="47.30264" lon="6.23782">
        <ele>350</ele>
        <time>2013-06-19T10:16:09Z</time>
      </trkpt>
      <trkpt lat="47.30274" lon="6.23783">
        <ele>350</ele>
        <time>2013-06-19T10:16:12Z</time>
      </trkpt>
      <trkpt lat="47.30284" lon="6.23785">
        <ele>352</ele>
        <time>2013-06-19T10:16:16Z</time>
      </trkpt>
      <trkpt lat="47.30294" lon="6.23787">
        <ele>352</ele>
        <time>2013-06-19T10:16:19Z</time>
      </trkpt>
      <trkpt lat="47.30303" lon="6.2379">
        <ele>354</ele>
        <time>2013-06-19T10:16:23Z</time>
      </trkpt>
      <trkpt lat="47.30313" lon="6.23796">
        <ele>360</ele>
        <time>2013-06-19T10:16:27Z</time>
      </trkpt>
      <trkpt lat="47.30323" lon="6.23802">
        <ele>365</ele>
        <time>2013-06-19T10:16:31Z</time>
      </trkpt>
      <trkpt lat="47.30333" lon="6.23807">
        <ele>369</ele>
        <time>2013-06-19T10:16:35Z</time>
      </trkpt>
      <trkpt lat="47.30341" lon="6.23815">
        <ele>367</ele>
        <time>2013-06-19T10:16:38Z</time>
      </trkpt>
      <trkpt lat="47.3035" lon="6.23824">
        <ele>370</ele>
        <time>2013-06-19T10:16:44Z</time>
      </trkpt>
      <trkpt lat="47.30358" lon="6.2383">
        <ele>370</ele>
        <time>2013-06-19T10:16:47Z</time>
      </trkpt>
      <trkpt lat="47.30367" lon="6.23845">
        <ele>371</ele>
        <time>2013-06-19T10:16:51Z</time>
      </trkpt>
      <trkpt lat="47.30375" lon="6.23857">
        <ele>372</ele>
        <time>2013-06-19T10:16:55Z</time>
      </trkpt>
      <trkpt lat="47.30384" lon="6.23867">
        <ele>373</ele>
        <time>2013-06-19T10:16:59Z</time>
      </trkpt>
      <trkpt lat="47.30391" lon="6.23876">
        <ele>376</ele>
        <time>2013-06-19T10:17:02Z</time>
      </trkpt>
      <trkpt lat="47.30399" lon="6.23886">
        <ele>379</ele>
        <time>2013-06-19T10:17:06Z</time>
      </trkpt>
      <trkpt lat="47.30405" lon="6.23896">
        <ele>379</ele>
        <time>2013-06-19T10:17:09Z</time>
      </trkpt>
      <trkpt lat="47.30413" lon="6.23908">
        <ele>381</ele>
        <time>2013-06-19T10:17:13Z</time>
      </trkpt>
      <trkpt lat="47.30421" lon="6.23918">
        <ele>383</ele>
        <time>2013-06-19T10:17:17Z</time>
      </trkpt>
      <trkpt lat="47.30428" lon="6.23931">
        <ele>382</ele>
        <time>2013-06-19T10:17:21Z</time>
      </trkpt>
      <trkpt lat="47.30433" lon="6.23943">
        <ele>381</ele>
        <time>2013-06-19T10:17:24Z</time>
      </trkpt>
      <trkpt lat="47.30438" lon="6.23959">
        <ele>381</ele>
        <time>2013-06-19T10:17:28Z</time>
      </trkpt>
      <trkpt lat="47.30443" lon="6.23971">
        <ele>379</ele>
        <time>2013-06-19T10:17:31Z</time>
      </trkpt>
      <trkpt lat="47.30449" lon="6.23986">
        <ele>379</ele>
        <time>2013-06-19T10:17:34Z</time>
      </trkpt>
      <trkpt lat="47.30453" lon="6.24002">
        <ele>377</ele>
        <time>2013-06-19T10:17:37Z</time>
      </trkpt>
      <trkpt lat="47.30459" lon="6.24014">
        <ele>376</ele>
        <time>2013-06-19T10:17:40Z</time>
      </trkpt>
      <trkpt lat="47.30463" lon="6.24026">
        <ele>376</ele>
        <time>2013-06-19T10:17:43Z</time>
      </trkpt>
      <trkpt lat="47.30468" lon="6.24039">
        <ele>376</ele>
        <time>2013-06-19T10:17:47Z</time>
      </trkpt>
      <trkpt lat="47.30473" lon="6.24054">
        <ele>370</ele>
        <time>2013-06-19T10:17:50Z</time>
      </trkpt>
      <trkpt lat="47.30476" lon="6.24069">
        <ele>370</ele>
        <time>2013-06-19T10:17:53Z</time>
      </trkpt>
      <trkpt lat="47.30478" lon="6.24085">
        <ele>369</ele>
        <time>2013-06-19T10:17:56Z</time>
      </trkpt>
      <trkpt lat="47.30481" lon="6.241">
        <ele>369</ele>
        <time>2013-06-19T10:18:00Z</time>
      </trkpt>
      <trkpt lat="47.30483" lon="6.24115">
        <ele>369</ele>
        <time>2013-06-19T10:18:04Z</time>
      </trkpt>
      <trkpt lat="47.30486" lon="6.2413">
        <ele>370</ele>
        <time>2013-06-19T10:18:07Z</time>
      </trkpt>
      <trkpt lat="47.30491" lon="6.24142">
        <ele>370</ele>
        <time>2013-06-19T10:18:10Z</time>
      </trkpt>
      <trkpt lat="47.30495" lon="6.24156">
        <ele>371</ele>
        <time>2013-06-19T10:18:14Z</time>
      </trkpt>
      <trkpt lat="47.30494" lon="6.24169">
        <ele>370</ele>
        <time>2013-06-19T10:18:15Z</time>
      </trkpt>
      <trkpt lat="47.30491" lon="6.24184">
        <ele>371</ele>
        <time>2013-06-19T10:18:19Z</time>
      </trkpt>
      <trkpt lat="47.30486" lon="6.24199">
        <ele>371</ele>
        <time>2013-06-19T10:18:23Z</time>
      </trkpt>
      <trkpt lat="47.30474" lon="6.2421">
        <ele>371</ele>
        <time>2013-06-19T10:18:26Z</time>
      </trkpt>
      <trkpt lat="47.30456" lon="6.24213">
        <ele>371</ele>
        <time>2013-06-19T10:18:27Z</time>
      </trkpt>
      <trkpt lat="47.30447" lon="6.24202">
        <ele>372</ele>
        <time>2013-06-19T10:18:28Z</time>
      </trkpt>
      <trkpt lat="47.30436" lon="6.24196">
        <ele>374</ele>
        <time>2013-06-19T10:18:30Z</time>
      </trkpt>
      <trkpt lat="47.30457" lon="6.24219">
        <ele>372</ele>
        <time>2013-06-19T10:18:31Z</time>
      </trkpt>
      <trkpt lat="47.30451" lon="6.24236">
        <ele>370</ele>
        <time>2013-06-19T10:18:33Z</time>
      </trkpt>
      <trkpt lat="47.3046" lon="6.24249">
        <ele>369</ele>
        <time>2013-06-19T10:18:35Z</time>
      </trkpt>
      <trkpt lat="47.3047" lon="6.24262">
        <ele>366</ele>
        <time>2013-06-19T10:18:37Z</time>
      </trkpt>
      <trkpt lat="47.30475" lon="6.24275">
        <ele>367</ele>
        <time>2013-06-19T10:18:41Z</time>
      </trkpt>
      <trkpt lat="47.30477" lon="6.24288">
        <ele>367</ele>
        <time>2013-06-19T10:18:44Z</time>
      </trkpt>
      <trkpt lat="47.30478" lon="6.24304">
        <ele>366</ele>
        <time>2013-06-19T10:18:47Z</time>
      </trkpt>
      <trkpt lat="47.30483" lon="6.24319">
        <ele>366</ele>
        <time>2013-06-19T10:18:50Z</time>
      </trkpt>
      <trkpt lat="47.30492" lon="6.24333">
        <ele>365</ele>
        <time>2013-06-19T10:18:53Z</time>
      </trkpt>
      <trkpt lat="47.30501" lon="6.24349">
        <ele>366</ele>
        <time>2013-06-19T10:18:56Z</time>
      </trkpt>
      <trkpt lat="47.30506" lon="6.24364">
        <ele>367</ele>
        <time>2013-06-19T10:18:59Z</time>
      </trkpt>
      <trkpt lat="47.3051" lon="6.24377">
        <ele>369</ele>
        <time>2013-06-19T10:19:04Z</time>
      </trkpt>
      <trkpt lat="47.30494" lon="6.24323">
        <ele>373</ele>
        <time>2013-06-19T10:19:22Z</time>
      </trkpt>
      <trkpt lat="47.30496" lon="6.24306">
        <ele>371</ele>
        <time>2013-06-19T10:19:25Z</time>
      </trkpt>
      <trkpt lat="47.30498" lon="6.2429">
        <ele>378</ele>
        <time>2013-06-19T10:19:28Z</time>
      </trkpt>
      <trkpt lat="47.30497" lon="6.24276">
        <ele>379</ele>
        <time>2013-06-19T10:19:31Z</time>
      </trkpt>
      <trkpt lat="47.30495" lon="6.24262">
        <ele>381</ele>
        <time>2013-06-19T10:19:34Z</time>
      </trkpt>
      <trkpt lat="47.30491" lon="6.24249">
        <ele>383</ele>
        <time>2013-06-19T10:19:38Z</time>
      </trkpt>
      <trkpt lat="47.30484" lon="6.24239">
        <ele>387</ele>
        <time>2013-06-19T10:19:42Z</time>
      </trkpt>
      <trkpt lat="47.30481" lon="6.24222">
        <ele>388</ele>
        <time>2013-06-19T10:19:45Z</time>
      </trkpt>
      <trkpt lat="47.30477" lon="6.24208">
        <ele>389</ele>
        <time>2013-06-19T10:19:48Z</time>
      </trkpt>
      <trkpt lat="47.30471" lon="6.24197">
        <ele>389</ele>
        <time>2013-06-19T10:19:51Z</time>
      </trkpt>
      <trkpt lat="47.30465" lon="6.24186">
        <ele>389</ele>
        <time>2013-06-19T10:19:54Z</time>
      </trkpt>
      <trkpt lat="47.30461" lon="6.24171">
        <ele>391</ele>
        <time>2013-06-19T10:19:58Z</time>
      </trkpt>
      <trkpt lat="47.30459" lon="6.24157">
        <ele>391</ele>
        <time>2013-06-19T10:20:01Z</time>
      </trkpt>
      <trkpt lat="47.30453" lon="6.24143">
        <ele>392</ele>
        <time>2013-06-19T10:20:05Z</time>
      </trkpt>
      <trkpt lat="47.30449" lon="6.24131">
        <ele>393</ele>
        <time>2013-06-19T10:20:08Z</time>
      </trkpt>
      <trkpt lat="47.30444" lon="6.24118">
        <ele>398</ele>
        <time>2013-06-19T10:20:11Z</time>
      </trkpt>
      <trkpt lat="47.3044" lon="6.24102">
        <ele>401</ele>
        <time>2013-06-19T10:20:15Z</time>
      </trkpt>
      <trkpt lat="47.30434" lon="6.24087">
        <ele>405</ele>
        <time>2013-06-19T10:20:20Z</time>
      </trkpt>
      <trkpt lat="47.30426" lon="6.24074">
        <ele>407</ele>
        <time>2013-06-19T10:20:23Z</time>
      </trkpt>
      <trkpt lat="47.30419" lon="6.24063">
        <ele>407</ele>
        <time>2013-06-19T10:20:27Z</time>
      </trkpt>
      <trkpt lat="47.30412" lon="6.2405">
        <ele>409</ele>
        <time>2013-06-19T10:20:30Z</time>
      </trkpt>
      <trkpt lat="47.30409" lon="6.24034">
        <ele>411</ele>
        <time>2013-06-19T10:20:34Z</time>
      </trkpt>
      <trkpt lat="47.30402" lon="6.24023">
        <ele>411</ele>
        <time>2013-06-19T10:20:37Z</time>
      </trkpt>
      <trkpt lat="47.30395" lon="6.24012">
        <ele>410</ele>
        <time>2013-06-19T10:20:40Z</time>
      </trkpt>
      <trkpt lat="47.30386" lon="6.24001">
        <ele>409</ele>
        <time>2013-06-19T10:20:44Z</time>
      </trkpt>
      <trkpt lat="47.30379" lon="6.23992">
        <ele>408</ele>
        <time>2013-06-19T10:20:46Z</time>
      </trkpt>
      <trkpt lat="47.30369" lon="6.23982">
        <ele>409</ele>
        <time>2013-06-19T10:20:49Z</time>
      </trkpt>
      <trkpt lat="47.3036" lon="6.23972">
        <ele>406</ele>
        <time>2013-06-19T10:20:52Z</time>
      </trkpt>
      <trkpt lat="47.30354" lon="6.23961">
        <ele>404</ele>
        <time>2013-06-19T10:20:55Z</time>
      </trkpt>
      <trkpt lat="47.30347" lon="6.2395">
        <ele>403</ele>
        <time>2013-06-19T10:20:58Z</time>
      </trkpt>
      <trkpt lat="47.30341" lon="6.2394">
        <ele>403</ele>
        <time>2013-06-19T10:21:01Z</time>
      </trkpt>
      <trkpt lat="47.30331" lon="6.23932">
        <ele>401</ele>
        <time>2013-06-19T10:21:05Z</time>
      </trkpt>
      <trkpt lat="47.30322" lon="6.23927">
        <ele>400</ele>
        <time>2013-06-19T10:21:10Z</time>
      </trkpt>
      <trkpt lat="47.30311" lon="6.23929">
        <ele>401</ele>
        <time>2013-06-19T10:21:17Z</time>
      </trkpt>
      <trkpt lat="47.30302" lon="6.23931">
        <ele>402</ele>
        <time>2013-06-19T10:21:22Z</time>
      </trkpt>
      <trkpt lat="47.30293" lon="6.23939">
        <ele>399</ele>
        <time>2013-06-19T10:21:28Z</time>
      </trkpt>
      <trkpt lat="47.30279" lon="6.23949">
        <ele>399</ele>
        <time>2013-06-19T10:21:32Z</time>
      </trkpt>
      <trkpt lat="47.30267" lon="6.23955">
        <ele>399</ele>
        <time>2013-06-19T10:21:35Z</time>
      </trkpt>
      <trkpt lat="47.30259" lon="6.2396">
        <ele>398</ele>
        <time>2013-06-19T10:21:39Z</time>
      </trkpt>
      <trkpt lat="47.30251" lon="6.23968">
        <ele>397</ele>
        <time>2013-06-19T10:21:42Z</time>
      </trkpt>
      <trkpt lat="47.30244" lon="6.23981">
        <ele>400</ele>
        <time>2013-06-19T10:21:46Z</time>
      </trkpt>
      <trkpt lat="47.30239" lon="6.23993">
        <ele>401</ele>
        <time>2013-06-19T10:21:50Z</time>
      </trkpt>
      <trkpt lat="47.30236" lon="6.24006">
        <ele>401</ele>
        <time>2013-06-19T10:21:52Z</time>
      </trkpt>
      <trkpt lat="47.30235" lon="6.2402">
        <ele>401</ele>
        <time>2013-06-19T10:21:55Z</time>
      </trkpt>
      <trkpt lat="47.30232" lon="6.24036">
        <ele>400</ele>
        <time>2013-06-19T10:21:59Z</time>
      </trkpt>
      <trkpt lat="47.30232" lon="6.2405">
        <ele>403</ele>
        <time>2013-06-19T10:22:03Z</time>
      </trkpt>
      <trkpt lat="47.30233" lon="6.24066">
        <ele>406</ele>
        <time>2013-06-19T10:22:07Z</time>
      </trkpt>
      <trkpt lat="47.30233" lon="6.24079">
        <ele>405</ele>
        <time>2013-06-19T10:22:10Z</time>
      </trkpt>
      <trkpt lat="47.30235" lon="6.24094">
        <ele>404</ele>
        <time>2013-06-19T10:22:14Z</time>
      </trkpt>
      <trkpt lat="47.3023" lon="6.2411">
        <ele>406</ele>
        <time>2013-06-19T10:22:19Z</time>
      </trkpt>
      <trkpt lat="47.30224" lon="6.24119">
        <ele>409</ele>
        <time>2013-06-19T10:22:22Z</time>
      </trkpt>
      <trkpt lat="47.30215" lon="6.2413">
        <ele>410</ele>
        <time>2013-06-19T10:22:26Z</time>
      </trkpt>
      <trkpt lat="47.30206" lon="6.24135">
        <ele>412</ele>
        <time>2013-06-19T10:22:29Z</time>
      </trkpt>
      <trkpt lat="47.30197" lon="6.24139">
        <ele>411</ele>
        <time>2013-06-19T10:22:32Z</time>
      </trkpt>
      <trkpt lat="47.30188" lon="6.2414">
        <ele>410</ele>
        <time>2013-06-19T10:22:36Z</time>
      </trkpt>
      <trkpt lat="47.30179" lon="6.24135">
        <ele>412</ele>
        <time>2013-06-19T10:22:39Z</time>
      </trkpt>
      <trkpt lat="47.30169" lon="6.24127">
        <ele>412</ele>
        <time>2013-06-19T10:22:41Z</time>
      </trkpt>
      <trkpt lat="47.3016" lon="6.24121">
        <ele>415</ele>
        <time>2013-06-19T10:22:45Z</time>
      </trkpt>
      <trkpt lat="47.30151" lon="6.24116">
        <ele>415</ele>
        <time>2013-06-19T10:22:48Z</time>
      </trkpt>
      <trkpt lat="47.3014" lon="6.24115">
        <ele>415</ele>
        <time>2013-06-19T10:22:52Z</time>
      </trkpt>
      <trkpt lat="47.30127" lon="6.24116">
        <ele>416</ele>
        <time>2013-06-19T10:22:56Z</time>
      </trkpt>
      <trkpt lat="47.30117" lon="6.24116">
        <ele>418</ele>
        <time>2013-06-19T10:22:59Z</time>
      </trkpt>
      <trkpt lat="47.30108" lon="6.24115">
        <ele>418</ele>
        <time>2013-06-19T10:23:02Z</time>
      </trkpt>
      <trkpt lat="47.30098" lon="6.24115">
        <ele>417</ele>
        <time>2013-06-19T10:23:05Z</time>
      </trkpt>
      <trkpt lat="47.30089" lon="6.24122">
        <ele>416</ele>
        <time>2013-06-19T10:23:09Z</time>
      </trkpt>
      <trkpt lat="47.30083" lon="6.24133">
        <ele>416</ele>
        <time>2013-06-19T10:23:12Z</time>
      </trkpt>
      <trkpt lat="47.30077" lon="6.24144">
        <ele>417</ele>
        <time>2013-06-19T10:23:15Z</time>
      </trkpt>
      <trkpt lat="47.30069" lon="6.24154">
        <ele>416</ele>
        <time>2013-06-19T10:23:18Z</time>
      </trkpt>
      <trkpt lat="47.30063" lon="6.24164">
        <ele>418</ele>
        <time>2013-06-19T10:23:21Z</time>
      </trkpt>
      <trkpt lat="47.30053" lon="6.24171">
        <ele>417</ele>
        <time>2013-06-19T10:23:24Z</time>
      </trkpt>
      <trkpt lat="47.30043" lon="6.24174">
        <ele>416</ele>
        <time>2013-06-19T10:23:27Z</time>
      </trkpt>
      <trkpt lat="47.30033" lon="6.24171">
        <ele>420</ele>
        <time>2013-06-19T10:23:31Z</time>
      </trkpt>
      <trkpt lat="47.30024" lon="6.24166">
        <ele>419</ele>
        <time>2013-06-19T10:23:34Z</time>
      </trkpt>
      <trkpt lat="47.30014" lon="6.2416">
        <ele>420</ele>
        <time>2013-06-19T10:23:38Z</time>
      </trkpt>
      <trkpt lat="47.30002" lon="6.24154">
        <ele>419</ele>
        <time>2013-06-19T10:23:42Z</time>
      </trkpt>
      <trkpt lat="47.29991" lon="6.24152">
        <ele>418</ele>
        <time>2013-06-19T10:23:46Z</time>
      </trkpt>
      <trkpt lat="47.29981" lon="6.24152">
        <ele>422</ele>
        <time>2013-06-19T10:23:54Z</time>
      </trkpt>
      <trkpt lat="47.2997" lon="6.24152">
        <ele>424</ele>
        <time>2013-06-19T10:23:57Z</time>
      </trkpt>
      <trkpt lat="47.29958" lon="6.24152">
        <ele>424</ele>
        <time>2013-06-19T10:24:01Z</time>
      </trkpt>
      <trkpt lat="47.29947" lon="6.24153">
        <ele>425</ele>
        <time>2013-06-19T10:24:04Z</time>
      </trkpt>
      <trkpt lat="47.29937" lon="6.24153">
        <ele>426</ele>
        <time>2013-06-19T10:24:07Z</time>
      </trkpt>
      <trkpt lat="47.29927" lon="6.24151">
        <ele>426</ele>
        <time>2013-06-19T10:24:08Z</time>
      </trkpt>
      <trkpt lat="47.29919" lon="6.24149">
        <ele>427</ele>
        <time>2013-06-19T10:24:10Z</time>
      </trkpt>
      <trkpt lat="47.29909" lon="6.24147">
        <ele>428</ele>
        <time>2013-06-19T10:24:13Z</time>
      </trkpt>
      <trkpt lat="47.29898" lon="6.24146">
        <ele>428</ele>
        <time>2013-06-19T10:24:16Z</time>
      </trkpt>
      <trkpt lat="47.29888" lon="6.24141">
        <ele>428</ele>
        <time>2013-06-19T10:24:20Z</time>
      </trkpt>
      <trkpt lat="47.2988" lon="6.24135">
        <ele>428</ele>
        <time>2013-06-19T10:24:22Z</time>
      </trkpt>
      <trkpt lat="47.29871" lon="6.24127">
        <ele>429</ele>
        <time>2013-06-19T10:24:27Z</time>
      </trkpt>
      <trkpt lat="47.29866" lon="6.24116">
        <ele>434</ele>
        <time>2013-06-19T10:24:36Z</time>
      </trkpt>
      <trkpt lat="47.29858" lon="6.24107">
        <ele>436</ele>
        <time>2013-06-19T10:24:43Z</time>
      </trkpt>
      <trkpt lat="47.29849" lon="6.24098">
        <ele>438</ele>
        <time>2013-06-19T10:24:47Z</time>
      </trkpt>
      <trkpt lat="47.29841" lon="6.2409">
        <ele>441</ele>
        <time>2013-06-19T10:24:52Z</time>
      </trkpt>
      <trkpt lat="47.29833" lon="6.2408">
        <ele>440</ele>
        <time>2013-06-19T10:24:57Z</time>
      </trkpt>
      <trkpt lat="47.29823" lon="6.24073">
        <ele>440</ele>
        <time>2013-06-19T10:25:01Z</time>
      </trkpt>
      <trkpt lat="47.29813" lon="6.24067">
        <ele>442</ele>
        <time>2013-06-19T10:25:04Z</time>
      </trkpt>
      <trkpt lat="47.29804" lon="6.24061">
        <ele>443</ele>
        <time>2013-06-19T10:25:08Z</time>
      </trkpt>
      <trkpt lat="47.29796" lon="6.24051">
        <ele>446</ele>
        <time>2013-06-19T10:25:12Z</time>
      </trkpt>
      <trkpt lat="47.29788" lon="6.24042">
        <ele>445</ele>
        <time>2013-06-19T10:25:16Z</time>
      </trkpt>
      <trkpt lat="47.29778" lon="6.24035">
        <ele>450</ele>
        <time>2013-06-19T10:25:19Z</time>
      </trkpt>
      <trkpt lat="47.29767" lon="6.24028">
        <ele>448</ele>
        <time>2013-06-19T10:25:22Z</time>
      </trkpt>
      <trkpt lat="47.29758" lon="6.24022">
        <ele>448</ele>
        <time>2013-06-19T10:25:25Z</time>
      </trkpt>
      <trkpt lat="47.29749" lon="6.24017">
        <ele>450</ele>
        <time>2013-06-19T10:25:28Z</time>
      </trkpt>
      <trkpt lat="47.29738" lon="6.24012">
        <ele>449</ele>
        <time>2013-06-19T10:25:32Z</time>
      </trkpt>
      <trkpt lat="47.29729" lon="6.24008">
        <ele>449</ele>
        <time>2013-06-19T10:25:35Z</time>
      </trkpt>
      <trkpt lat="47.29718" lon="6.24">
        <ele>448</ele>
        <time>2013-06-19T10:25:38Z</time>
      </trkpt>
      <trkpt lat="47.29709" lon="6.23993">
        <ele>449</ele>
        <time>2013-06-19T10:25:42Z</time>
      </trkpt>
      <trkpt lat="47.297" lon="6.23986">
        <ele>454</ele>
        <time>2013-06-19T10:25:46Z</time>
      </trkpt>
      <trkpt lat="47.29691" lon="6.23979">
        <ele>455</ele>
        <time>2013-06-19T10:25:49Z</time>
      </trkpt>
      <trkpt lat="47.29681" lon="6.23973">
        <ele>458</ele>
        <time>2013-06-19T10:25:52Z</time>
      </trkpt>
      <trkpt lat="47.29671" lon="6.23971">
        <ele>455</ele>
        <time>2013-06-19T10:25:55Z</time>
      </trkpt>
      <trkpt lat="47.29661" lon="6.23969">
        <ele>453</ele>
        <time>2013-06-19T10:25:58Z</time>
      </trkpt>
      <trkpt lat="47.29651" lon="6.23966">
        <ele>452</ele>
        <time>2013-06-19T10:26:02Z</time>
      </trkpt>
      <trkpt lat="47.29642" lon="6.23965">
        <ele>450</ele>
        <time>2013-06-19T10:26:07Z</time>
      </trkpt>
      <trkpt lat="47.29631" lon="6.23961">
        <ele>447</ele>
        <time>2013-06-19T10:26:13Z</time>
      </trkpt>
      <trkpt lat="47.29622" lon="6.23959">
        <ele>449</ele>
        <time>2013-06-19T10:26:17Z</time>
      </trkpt>
      <trkpt lat="47.29611" lon="6.23955">
        <ele>450</ele>
        <time>2013-06-19T10:26:21Z</time>
      </trkpt>
      <trkpt lat="47.29601" lon="6.23951">
        <ele>453</ele>
        <time>2013-06-19T10:26:26Z</time>
      </trkpt>
      <trkpt lat="47.29594" lon="6.23941">
        <ele>452</ele>
        <time>2013-06-19T10:26:32Z</time>
      </trkpt>
      <trkpt lat="47.29586" lon="6.23932">
        <ele>453</ele>
        <time>2013-06-19T10:26:37Z</time>
      </trkpt>
      <trkpt lat="47.29576" lon="6.23925">
        <ele>457</ele>
        <time>2013-06-19T10:26:39Z</time>
      </trkpt>
      <trkpt lat="47.29565" lon="6.23921">
        <ele>459</ele>
        <time>2013-06-19T10:26:41Z</time>
      </trkpt>
      <trkpt lat="47.29556" lon="6.23916">
        <ele>461</ele>
        <time>2013-06-19T10:26:44Z</time>
      </trkpt>
      <trkpt lat="47.29547" lon="6.23908">
        <ele>463</ele>
        <time>2013-06-19T10:26:49Z</time>
      </trkpt>
      <trkpt lat="47.29538" lon="6.23898">
        <ele>462</ele>
        <time>2013-06-19T10:26:53Z</time>
      </trkpt>
      <trkpt lat="47.29528" lon="6.23888">
        <ele>460</ele>
        <time>2013-06-19T10:26:56Z</time>
      </trkpt>
      <trkpt lat="47.29519" lon="6.2388">
        <ele>461</ele>
        <time>2013-06-19T10:26:59Z</time>
      </trkpt>
      <trkpt lat="47.29512" lon="6.23869">
        <ele>462</ele>
        <time>2013-06-19T10:27:04Z</time>
      </trkpt>
      <trkpt lat="47.29508" lon="6.23856">
        <ele>464</ele>
        <time>2013-06-19T10:27:08Z</time>
      </trkpt>
      <trkpt lat="47.29503" lon="6.23842">
        <ele>464</ele>
        <time>2013-06-19T10:27:12Z</time>
      </trkpt>
      <trkpt lat="47.29499" lon="6.23829">
        <ele>469</ele>
        <time>2013-06-19T10:27:16Z</time>
      </trkpt>
      <trkpt lat="47.29493" lon="6.23817">
        <ele>470</ele>
        <time>2013-06-19T10:27:21Z</time>
      </trkpt>
      <trkpt lat="47.29483" lon="6.23806">
        <ele>468</ele>
        <time>2013-06-19T10:27:24Z</time>
      </trkpt>
      <trkpt lat="47.29475" lon="6.23798">
        <ele>464</ele>
        <time>2013-06-19T10:27:29Z</time>
      </trkpt>
      <trkpt lat="47.29466" lon="6.23796">
        <ele>463</ele>
        <time>2013-06-19T10:27:39Z</time>
      </trkpt>
      <trkpt lat="47.29456" lon="6.23798">
        <ele>463</ele>
        <time>2013-06-19T10:27:45Z</time>
      </trkpt>
      <trkpt lat="47.29147" lon="6.23938">
        <ele>464</ele>
        <time>2013-06-19T10:29:52Z</time>
      </trkpt>
      <trkpt lat="47.2914" lon="6.23947">
        <ele>465</ele>
        <time>2013-06-19T10:29:57Z</time>
      </trkpt>
      <trkpt lat="47.29131" lon="6.23952">
        <ele>466</ele>
        <time>2013-06-19T10:30:00Z</time>
      </trkpt>
      <trkpt lat="47.29121" lon="6.23956">
        <ele>465</ele>
        <time>2013-06-19T10:30:05Z</time>
      </trkpt>
      <trkpt lat="47.29112" lon="6.23959">
        <ele>475</ele>
        <time>2013-06-19T10:31:43Z</time>
      </trkpt>
      <trkpt lat="47.29117" lon="6.23947">
        <ele>472</ele>
        <time>2013-06-19T10:32:39Z</time>
      </trkpt>
      <trkpt lat="47.29126" lon="6.23941">
        <ele>472</ele>
        <time>2013-06-19T10:34:38Z</time>
      </trkpt>
      <trkpt lat="47.29136" lon="6.2394">
        <ele>474</ele>
        <time>2013-06-19T10:34:44Z</time>
      </trkpt>
      <trkpt lat="47.29145" lon="6.23937">
        <ele>474</ele>
        <time>2013-06-19T10:34:51Z</time>
      </trkpt>
      <trkpt lat="47.29152" lon="6.23928">
        <ele>474</ele>
        <time>2013-06-19T10:35:01Z</time>
      </trkpt>
      <trkpt lat="47.29499" lon="6.23817">
        <ele>462</ele>
        <time>2013-06-19T10:35:37Z</time>
      </trkpt>
      <trkpt lat="47.29494" lon="6.23837">
        <ele>454</ele>
        <time>2013-06-19T10:35:39Z</time>
      </trkpt>
      <trkpt lat="47.295" lon="6.23847">
        <ele>453</ele>
        <time>2013-06-19T10:35:41Z</time>
      </trkpt>
      <trkpt lat="47.29507" lon="6.23863">
        <ele>454</ele>
        <time>2013-06-19T10:35:42Z</time>
      </trkpt>
      <trkpt lat="47.29519" lon="6.23877">
        <ele>453</ele>
        <time>2013-06-19T10:35:45Z</time>
      </trkpt>
      <trkpt lat="47.29529" lon="6.2389">
        <ele>452</ele>
        <time>2013-06-19T10:35:46Z</time>
      </trkpt>
      <trkpt lat="47.29544" lon="6.23902">
        <ele>452</ele>
        <time>2013-06-19T10:35:48Z</time>
      </trkpt>
      <trkpt lat="47.29554" lon="6.23912">
        <ele>451</ele>
        <time>2013-06-19T10:35:49Z</time>
      </trkpt>
      <trkpt lat="47.29569" lon="6.23923">
        <ele>451</ele>
        <time>2013-06-19T10:35:51Z</time>
      </trkpt>
      <trkpt lat="47.29586" lon="6.2393">
        <ele>450</ele>
        <time>2013-06-19T10:35:53Z</time>
      </trkpt>
      <trkpt lat="47.29596" lon="6.23932">
        <ele>451</ele>
        <time>2013-06-19T10:35:54Z</time>
      </trkpt>
      <trkpt lat="47.2961" lon="6.23937">
        <ele>450</ele>
        <time>2013-06-19T10:35:55Z</time>
      </trkpt>
      <trkpt lat="47.29619" lon="6.2394">
        <ele>449</ele>
        <time>2013-06-19T10:35:56Z</time>
      </trkpt>
      <trkpt lat="47.2963" lon="6.23945">
        <ele>448</ele>
        <time>2013-06-19T10:35:57Z</time>
      </trkpt>
      <trkpt lat="47.29641" lon="6.23947">
        <ele>447</ele>
        <time>2013-06-19T10:35:58Z</time>
      </trkpt>
      <trkpt lat="47.29653" lon="6.23949">
        <ele>446</ele>
        <time>2013-06-19T10:35:59Z</time>
      </trkpt>
      <trkpt lat="47.29664" lon="6.23954">
        <ele>445</ele>
        <time>2013-06-19T10:36:00Z</time>
      </trkpt>
      <trkpt lat="47.29676" lon="6.23958">
        <ele>445</ele>
        <time>2013-06-19T10:36:01Z</time>
      </trkpt>
      <trkpt lat="47.29686" lon="6.23966">
        <ele>443</ele>
        <time>2013-06-19T10:36:02Z</time>
      </trkpt>
      <trkpt lat="47.29696" lon="6.23972">
        <ele>443</ele>
        <time>2013-06-19T10:36:03Z</time>
      </trkpt>
      <trkpt lat="47.29705" lon="6.23978">
        <ele>442</ele>
        <time>2013-06-19T10:36:04Z</time>
      </trkpt>
      <trkpt lat="47.29715" lon="6.23985">
        <ele>443</ele>
        <time>2013-06-19T10:36:05Z</time>
      </trkpt>
      <trkpt lat="47.29725" lon="6.23991">
        <ele>443</ele>
        <time>2013-06-19T10:36:06Z</time>
      </trkpt>
      <trkpt lat="47.29736" lon="6.23994">
        <ele>443</ele>
        <time>2013-06-19T10:36:07Z</time>
      </trkpt>
      <trkpt lat="47.29756" lon="6.24008">
        <ele>443</ele>
        <time>2013-06-19T10:36:09Z</time>
      </trkpt>
      <trkpt lat="47.29764" lon="6.24013">
        <ele>443</ele>
        <time>2013-06-19T10:36:10Z</time>
      </trkpt>
      <trkpt lat="47.29775" lon="6.2402">
        <ele>443</ele>
        <time>2013-06-19T10:36:11Z</time>
      </trkpt>
      <trkpt lat="47.29784" lon="6.24026">
        <ele>443</ele>
        <time>2013-06-19T10:36:12Z</time>
      </trkpt>
      <trkpt lat="47.29794" lon="6.24033">
        <ele>444</ele>
        <time>2013-06-19T10:36:13Z</time>
      </trkpt>
      <trkpt lat="47.29804" lon="6.2404">
        <ele>444</ele>
        <time>2013-06-19T10:36:14Z</time>
      </trkpt>
      <trkpt lat="47.29815" lon="6.24049">
        <ele>444</ele>
        <time>2013-06-19T10:36:15Z</time>
      </trkpt>
      <trkpt lat="47.29825" lon="6.24059">
        <ele>444</ele>
        <time>2013-06-19T10:36:16Z</time>
      </trkpt>
      <trkpt lat="47.29836" lon="6.24069">
        <ele>445</ele>
        <time>2013-06-19T10:36:17Z</time>
      </trkpt>
      <trkpt lat="47.29847" lon="6.24078">
        <ele>445</ele>
        <time>2013-06-19T10:36:18Z</time>
      </trkpt>
      <trkpt lat="47.29856" lon="6.24086">
        <ele>444</ele>
        <time>2013-06-19T10:36:19Z</time>
      </trkpt>
      <trkpt lat="47.29867" lon="6.24097">
        <ele>444</ele>
        <time>2013-06-19T10:36:20Z</time>
      </trkpt>
      <trkpt lat="47.29881" lon="6.24106">
        <ele>444</ele>
        <time>2013-06-19T10:36:21Z</time>
      </trkpt>
      <trkpt lat="47.29891" lon="6.24114">
        <ele>445</ele>
        <time>2013-06-19T10:36:22Z</time>
      </trkpt>
      <trkpt lat="47.29902" lon="6.24118">
        <ele>446</ele>
        <time>2013-06-19T10:36:23Z</time>
      </trkpt>
      <trkpt lat="47.29915" lon="6.24125">
        <ele>446</ele>
        <time>2013-06-19T10:36:24Z</time>
      </trkpt>
      <trkpt lat="47.29929" lon="6.24129">
        <ele>446</ele>
        <time>2013-06-19T10:36:25Z</time>
      </trkpt>
      <trkpt lat="47.29939" lon="6.24131">
        <ele>446</ele>
        <time>2013-06-19T10:36:26Z</time>
      </trkpt>
      <trkpt lat="47.29951" lon="6.2413">
        <ele>446</ele>
        <time>2013-06-19T10:36:27Z</time>
      </trkpt>
      <trkpt lat="47.29963" lon="6.24135">
        <ele>446</ele>
        <time>2013-06-19T10:36:28Z</time>
      </trkpt>
      <trkpt lat="47.29975" lon="6.24134">
        <ele>446</ele>
        <time>2013-06-19T10:36:29Z</time>
      </trkpt>
      <trkpt lat="47.29986" lon="6.24137">
        <ele>445</ele>
        <time>2013-06-19T10:36:31Z</time>
      </trkpt>
      <trkpt lat="47.29995" lon="6.24139">
        <ele>445</ele>
        <time>2013-06-19T10:36:32Z</time>
      </trkpt>
      <trkpt lat="47.30004" lon="6.24146">
        <ele>445</ele>
        <time>2013-06-19T10:36:32Z</time>
      </trkpt>
      <trkpt lat="47.30013" lon="6.2415">
        <ele>446</ele>
        <time>2013-06-19T10:36:33Z</time>
      </trkpt>
      <trkpt lat="47.30022" lon="6.24152">
        <ele>446</ele>
        <time>2013-06-19T10:36:34Z</time>
      </trkpt>
      <trkpt lat="47.30031" lon="6.24149">
        <ele>445</ele>
        <time>2013-06-19T10:36:35Z</time>
      </trkpt>
      <trkpt lat="47.30049" lon="6.24147">
        <ele>445</ele>
        <time>2013-06-19T10:36:37Z</time>
      </trkpt>
      <trkpt lat="47.30059" lon="6.2413">
        <ele>445</ele>
        <time>2013-06-19T10:36:39Z</time>
      </trkpt>
      <trkpt lat="47.30066" lon="6.24118">
        <ele>445</ele>
        <time>2013-06-19T10:36:40Z</time>
      </trkpt>
      <trkpt lat="47.30074" lon="6.24106">
        <ele>444</ele>
        <time>2013-06-19T10:36:41Z</time>
      </trkpt>
      <trkpt lat="47.30086" lon="6.24088">
        <ele>442</ele>
        <time>2013-06-19T10:36:43Z</time>
      </trkpt>
      <trkpt lat="47.30095" lon="6.2408">
        <ele>440</ele>
        <time>2013-06-19T10:36:44Z</time>
      </trkpt>
      <trkpt lat="47.30108" lon="6.24079">
        <ele>440</ele>
        <time>2013-06-19T10:36:45Z</time>
      </trkpt>
      <trkpt lat="47.30117" lon="6.24082">
        <ele>440</ele>
        <time>2013-06-19T10:36:46Z</time>
      </trkpt>
      <trkpt lat="47.3013" lon="6.2408">
        <ele>440</ele>
        <time>2013-06-19T10:36:47Z</time>
      </trkpt>
      <trkpt lat="47.30141" lon="6.24083">
        <ele>440</ele>
        <time>2013-06-19T10:36:48Z</time>
      </trkpt>
      <trkpt lat="47.30148" lon="6.24093">
        <ele>439</ele>
        <time>2013-06-19T10:36:49Z</time>
      </trkpt>
      <trkpt lat="47.30154" lon="6.24106">
        <ele>437</ele>
        <time>2013-06-19T10:36:50Z</time>
      </trkpt>
      <trkpt lat="47.30162" lon="6.24115">
        <ele>435</ele>
        <time>2013-06-19T10:36:51Z</time>
      </trkpt>
      <trkpt lat="47.30178" lon="6.24122">
        <ele>433</ele>
        <time>2013-06-19T10:36:53Z</time>
      </trkpt>
      <trkpt lat="47.30191" lon="6.24119">
        <ele>433</ele>
        <time>2013-06-19T10:36:55Z</time>
      </trkpt>
      <trkpt lat="47.30204" lon="6.24108">
        <ele>431</ele>
        <time>2013-06-19T10:36:57Z</time>
      </trkpt>
      <trkpt lat="47.30214" lon="6.24093">
        <ele>429</ele>
        <time>2013-06-19T10:36:59Z</time>
      </trkpt>
      <trkpt lat="47.30219" lon="6.2408">
        <ele>426</ele>
        <time>2013-06-19T10:37:01Z</time>
      </trkpt>
      <trkpt lat="47.30217" lon="6.24055">
        <ele>424</ele>
        <time>2013-06-19T10:37:03Z</time>
      </trkpt>
      <trkpt lat="47.30219" lon="6.24042">
        <ele>424</ele>
        <time>2013-06-19T10:37:04Z</time>
      </trkpt>
      <trkpt lat="47.30219" lon="6.24026">
        <ele>425</ele>
        <time>2013-06-19T10:37:05Z</time>
      </trkpt>
      <trkpt lat="47.30221" lon="6.24011">
        <ele>425</ele>
        <time>2013-06-19T10:37:06Z</time>
      </trkpt>
      <trkpt lat="47.3022" lon="6.23996">
        <ele>426</ele>
        <time>2013-06-19T10:37:07Z</time>
      </trkpt>
      <trkpt lat="47.30226" lon="6.23976">
        <ele>422</ele>
        <time>2013-06-19T10:37:09Z</time>
      </trkpt>
      <trkpt lat="47.30233" lon="6.23963">
        <ele>420</ele>
        <time>2013-06-19T10:37:10Z</time>
      </trkpt>
      <trkpt lat="47.30241" lon="6.23951">
        <ele>420</ele>
        <time>2013-06-19T10:37:11Z</time>
      </trkpt>
      <trkpt lat="47.30256" lon="6.23939">
        <ele>419</ele>
        <time>2013-06-19T10:37:28Z</time>
      </trkpt>
      <trkpt lat="47.30264" lon="6.23932">
        <ele>420</ele>
        <time>2013-06-19T10:37:29Z</time>
      </trkpt>
      <trkpt lat="47.30271" lon="6.23924">
        <ele>419</ele>
        <time>2013-06-19T10:37:30Z</time>
      </trkpt>
      <trkpt lat="47.30281" lon="6.23917">
        <ele>418</ele>
        <time>2013-06-19T10:37:31Z</time>
      </trkpt>
      <trkpt lat="47.303" lon="6.23907">
        <ele>417</ele>
        <time>2013-06-19T10:37:33Z</time>
      </trkpt>
      <trkpt lat="47.30311" lon="6.23911">
        <ele>413</ele>
        <time>2013-06-19T10:37:34Z</time>
      </trkpt>
      <trkpt lat="47.30321" lon="6.2391">
        <ele>413</ele>
        <time>2013-06-19T10:37:35Z</time>
      </trkpt>
      <trkpt lat="47.30338" lon="6.23912">
        <ele>411</ele>
        <time>2013-06-19T10:37:37Z</time>
      </trkpt>
      <trkpt lat="47.30348" lon="6.23918">
        <ele>411</ele>
        <time>2013-06-19T10:37:38Z</time>
      </trkpt>
      <trkpt lat="47.30358" lon="6.23922">
        <ele>411</ele>
        <time>2013-06-19T10:37:39Z</time>
      </trkpt>
      <trkpt lat="47.30367" lon="6.23925">
        <ele>411</ele>
        <time>2013-06-19T10:37:40Z</time>
      </trkpt>
      <trkpt lat="47.30383" lon="6.23929">
        <ele>410</ele>
        <time>2013-06-19T10:37:42Z</time>
      </trkpt>
      <trkpt lat="47.30393" lon="6.23944">
        <ele>410</ele>
        <time>2013-06-19T10:37:43Z</time>
      </trkpt>
      <trkpt lat="47.30411" lon="6.23948">
        <ele>410</ele>
        <time>2013-06-19T10:37:45Z</time>
      </trkpt>
      <trkpt lat="47.3042" lon="6.2398">
        <ele>410</ele>
        <time>2013-06-19T10:37:47Z</time>
      </trkpt>
      <trkpt lat="47.30432" lon="6.24012">
        <ele>410</ele>
        <time>2013-06-19T10:37:48Z</time>
      </trkpt>
      <trkpt lat="47.30436" lon="6.24035">
        <ele>411</ele>
        <time>2013-06-19T10:37:49Z</time>
      </trkpt>
      <trkpt lat="47.30474" lon="6.2399">
        <ele>410</ele>
        <time>2013-06-19T10:37:51Z</time>
      </trkpt>
      <trkpt lat="47.30498" lon="6.23968">
        <ele>410</ele>
        <time>2013-06-19T10:37:52Z</time>
      </trkpt>
      <trkpt lat="47.30465" lon="6.24037">
        <ele>411</ele>
        <time>2013-06-19T10:37:53Z</time>
      </trkpt>
      <trkpt lat="47.30465" lon="6.24105">
        <ele>413</ele>
        <time>2013-06-19T10:37:54Z</time>
      </trkpt>
      <trkpt lat="47.30466" lon="6.24122">
        <ele>413</ele>
        <time>2013-06-19T10:37:55Z</time>
      </trkpt>
      <trkpt lat="47.3047" lon="6.24137">
        <ele>413</ele>
        <time>2013-06-19T10:37:56Z</time>
      </trkpt>
      <trkpt lat="47.30474" lon="6.24152">
        <ele>412</ele>
        <time>2013-06-19T10:37:57Z</time>
      </trkpt>
      <trkpt lat="47.30481" lon="6.24166">
        <ele>411</ele>
        <time>2013-06-19T10:37:57Z</time>
      </trkpt>
      <trkpt lat="47.30482" lon="6.24185">
        <ele>409</ele>
        <time>2013-06-19T10:37:58Z</time>
      </trkpt>
      <trkpt lat="47.30486" lon="6.24201">
        <ele>409</ele>
        <time>2013-06-19T10:37:59Z</time>
      </trkpt>
      <trkpt lat="47.30492" lon="6.24222">
        <ele>403</ele>
        <time>2013-06-19T10:38:00Z</time>
      </trkpt>
      <trkpt lat="47.30498" lon="6.24239">
        <ele>399</ele>
        <time>2013-06-19T10:38:01Z</time>
      </trkpt>
      <trkpt lat="47.30502" lon="6.24253">
        <ele>397</ele>
        <time>2013-06-19T10:38:02Z</time>
      </trkpt>
      <trkpt lat="47.30503" lon="6.24267">
        <ele>396</ele>
        <time>2013-06-19T10:38:03Z</time>
      </trkpt>
      <trkpt lat="47.30505" lon="6.24293">
        <ele>394</ele>
        <time>2013-06-19T10:38:05Z</time>
      </trkpt>
      <trkpt lat="47.30508" lon="6.24316">
        <ele>394</ele>
        <time>2013-06-19T10:38:07Z</time>
      </trkpt>
      <trkpt lat="47.30517" lon="6.24338">
        <ele>392</ele>
        <time>2013-06-19T10:38:18Z</time>
      </trkpt>
      <trkpt lat="47.30514" lon="6.24323">
        <ele>389</ele>
        <time>2013-06-19T10:38:21Z</time>
      </trkpt>
      <trkpt lat="47.30516" lon="6.24303">
        <ele>388</ele>
        <time>2013-06-19T10:38:22Z</time>
      </trkpt>
      <trkpt lat="47.30516" lon="6.2428">
        <ele>386</ele>
        <time>2013-06-19T10:38:24Z</time>
      </trkpt>
      <trkpt lat="47.30514" lon="6.24256">
        <ele>383</ele>
        <time>2013-06-19T10:38:26Z</time>
      </trkpt>
      <trkpt lat="47.3051" lon="6.24232">
        <ele>382</ele>
        <time>2013-06-19T10:38:28Z</time>
      </trkpt>
      <trkpt lat="47.30506" lon="6.24206">
        <ele>382</ele>
        <time>2013-06-19T10:38:30Z</time>
      </trkpt>
      <trkpt lat="47.30503" lon="6.24192">
        <ele>380</ele>
        <time>2013-06-19T10:38:32Z</time>
      </trkpt>
      <trkpt lat="47.305" lon="6.24179">
        <ele>379</ele>
        <time>2013-06-19T10:38:32Z</time>
      </trkpt>
      <trkpt lat="47.30497" lon="6.24165">
        <ele>379</ele>
        <time>2013-06-19T10:38:33Z</time>
      </trkpt>
      <trkpt lat="47.30494" lon="6.24151">
        <ele>378</ele>
        <time>2013-06-19T10:38:34Z</time>
      </trkpt>
      <trkpt lat="47.3049" lon="6.24135">
        <ele>377</ele>
        <time>2013-06-19T10:38:35Z</time>
      </trkpt>
      <trkpt lat="47.30486" lon="6.24122">
        <ele>376</ele>
        <time>2013-06-19T10:38:36Z</time>
      </trkpt>
      <trkpt lat="47.30483" lon="6.24108">
        <ele>376</ele>
        <time>2013-06-19T10:38:37Z</time>
      </trkpt>
      <trkpt lat="47.30479" lon="6.24092">
        <ele>375</ele>
        <time>2013-06-19T10:38:38Z</time>
      </trkpt>
      <trkpt lat="47.30474" lon="6.24078">
        <ele>374</ele>
        <time>2013-06-19T10:38:39Z</time>
      </trkpt>
      <trkpt lat="47.30469" lon="6.24065">
        <ele>372</ele>
        <time>2013-06-19T10:38:40Z</time>
      </trkpt>
      <trkpt lat="47.30464" lon="6.2405">
        <ele>371</ele>
        <time>2013-06-19T10:38:41Z</time>
      </trkpt>
      <trkpt lat="47.30459" lon="6.24037">
        <ele>370</ele>
        <time>2013-06-19T10:38:42Z</time>
      </trkpt>
      <trkpt lat="47.30453" lon="6.24022">
        <ele>370</ele>
        <time>2013-06-19T10:38:43Z</time>
      </trkpt>
      <trkpt lat="47.30447" lon="6.24008">
        <ele>370</ele>
        <time>2013-06-19T10:38:44Z</time>
      </trkpt>
      <trkpt lat="47.30442" lon="6.23996">
        <ele>368</ele>
        <time>2013-06-19T10:38:45Z</time>
      </trkpt>
      <trkpt lat="47.30435" lon="6.23982">
        <ele>368</ele>
        <time>2013-06-19T10:38:46Z</time>
      </trkpt>
      <trkpt lat="47.30429" lon="6.23968">
        <ele>367</ele>
        <time>2013-06-19T10:38:47Z</time>
      </trkpt>
      <trkpt lat="47.30424" lon="6.23954">
        <ele>367</ele>
        <time>2013-06-19T10:38:48Z</time>
      </trkpt>
      <trkpt lat="47.30415" lon="6.23943">
        <ele>367</ele>
        <time>2013-06-19T10:38:49Z</time>
      </trkpt>
      <trkpt lat="47.30407" lon="6.23931">
        <ele>367</ele>
        <time>2013-06-19T10:38:50Z</time>
      </trkpt>
      <trkpt lat="47.304" lon="6.23915">
        <ele>366</ele>
        <time>2013-06-19T10:38:51Z</time>
      </trkpt>
      <trkpt lat="47.30393" lon="6.23902">
        <ele>366</ele>
        <time>2013-06-19T10:38:52Z</time>
      </trkpt>
      <trkpt lat="47.30386" lon="6.23888">
        <ele>366</ele>
        <time>2013-06-19T10:38:53Z</time>
      </trkpt>
      <trkpt lat="47.30376" lon="6.23877">
        <ele>365</ele>
        <time>2013-06-19T10:38:54Z</time>
      </trkpt>
      <trkpt lat="47.30366" lon="6.23866">
        <ele>363</ele>
        <time>2013-06-19T10:38:55Z</time>
      </trkpt>
      <trkpt lat="47.30359" lon="6.23852">
        <ele>361</ele>
        <time>2013-06-19T10:38:56Z</time>
      </trkpt>
      <trkpt lat="47.3035" lon="6.23839">
        <ele>360</ele>
        <time>2013-06-19T10:38:57Z</time>
      </trkpt>
      <trkpt lat="47.30338" lon="6.23831">
        <ele>359</ele>
        <time>2013-06-19T10:38:58Z</time>
      </trkpt>
      <trkpt lat="47.30328" lon="6.23822">
        <ele>358</ele>
        <time>2013-06-19T10:38:59Z</time>
      </trkpt>
      <trkpt lat="47.30312" lon="6.23806">
        <ele>356</ele>
        <time>2013-06-19T10:39:01Z</time>
      </trkpt>
      <trkpt lat="47.30296" lon="6.238">
        <ele>354</ele>
        <time>2013-06-19T10:39:02Z</time>
      </trkpt>
      <trkpt lat="47.30286" lon="6.23797">
        <ele>353</ele>
        <time>2013-06-19T10:39:03Z</time>
      </trkpt>
      <trkpt lat="47.30269" lon="6.23793">
        <ele>353</ele>
        <time>2013-06-19T10:39:05Z</time>
      </trkpt>
      <trkpt lat="47.30258" lon="6.23797">
        <ele>353</ele>
        <time>2013-06-19T10:39:06Z</time>
      </trkpt>
      <trkpt lat="47.30248" lon="6.23798">
        <ele>352</ele>
        <time>2013-06-19T10:39:07Z</time>
      </trkpt>
      <trkpt lat="47.30238" lon="6.23797">
        <ele>352</ele>
        <time>2013-06-19T10:39:08Z</time>
      </trkpt>
      <trkpt lat="47.3022" lon="6.23799">
        <ele>352</ele>
        <time>2013-06-19T10:39:10Z</time>
      </trkpt>
      <trkpt lat="47.30209" lon="6.23799">
        <ele>351</ele>
        <time>2013-06-19T10:39:11Z</time>
      </trkpt>
      <trkpt lat="47.30199" lon="6.23802">
        <ele>351</ele>
        <time>2013-06-19T10:39:12Z</time>
      </trkpt>
      <trkpt lat="47.30189" lon="6.23806">
        <ele>350</ele>
        <time>2013-06-19T10:39:13Z</time>
      </trkpt>
      <trkpt lat="47.30168" lon="6.23812">
        <ele>349</ele>
        <time>2013-06-19T10:39:15Z</time>
      </trkpt>
      <trkpt lat="47.30158" lon="6.23815">
        <ele>349</ele>
        <time>2013-06-19T10:39:16Z</time>
      </trkpt>
      <trkpt lat="47.30141" lon="6.23816">
        <ele>350</ele>
        <time>2013-06-19T10:39:18Z</time>
      </trkpt>
      <trkpt lat="47.30125" lon="6.23826">
        <ele>350</ele>
        <time>2013-06-19T10:39:20Z</time>
      </trkpt>
      <trkpt lat="47.3011" lon="6.23841">
        <ele>350</ele>
        <time>2013-06-19T10:39:22Z</time>
      </trkpt>
      <trkpt lat="47.30106" lon="6.23853">
        <ele>349</ele>
        <time>2013-06-19T10:39:23Z</time>
      </trkpt>
      <trkpt lat="47.30095" lon="6.23868">
        <ele>347</ele>
        <time>2013-06-19T10:39:25Z</time>
      </trkpt>
      <trkpt lat="47.30079" lon="6.23872">
        <ele>345</ele>
        <time>2013-06-19T10:39:27Z</time>
      </trkpt>
      <trkpt lat="47.30062" lon="6.23866">
        <ele>344</ele>
        <time>2013-06-19T10:39:29Z</time>
      </trkpt>
      <trkpt lat="47.30051" lon="6.23859">
        <ele>344</ele>
        <time>2013-06-19T10:39:30Z</time>
      </trkpt>
      <trkpt lat="47.30032" lon="6.2385">
        <ele>342</ele>
        <time>2013-06-19T10:39:32Z</time>
      </trkpt>
      <trkpt lat="47.30026" lon="6.23833">
        <ele>338</ele>
        <time>2013-06-19T10:39:33Z</time>
      </trkpt>
      <trkpt lat="47.30016" lon="6.23825">
        <ele>337</ele>
        <time>2013-06-19T10:39:34Z</time>
      </trkpt>
      <trkpt lat="47.3" lon="6.23814">
        <ele>336</ele>
        <time>2013-06-19T10:39:36Z</time>
      </trkpt>
      <trkpt lat="47.29984" lon="6.2381">
        <ele>336</ele>
        <time>2013-06-19T10:39:38Z</time>
      </trkpt>
      <trkpt lat="47.29971" lon="6.23811">
        <ele>336</ele>
        <time>2013-06-19T10:39:39Z</time>
      </trkpt>
      <trkpt lat="47.29961" lon="6.23812">
        <ele>335</ele>
        <time>2013-06-19T10:39:40Z</time>
      </trkpt>
      <trkpt lat="47.29951" lon="6.2381">
        <ele>334</ele>
        <time>2013-06-19T10:39:41Z</time>
      </trkpt>
      <trkpt lat="47.2994" lon="6.23807">
        <ele>334</ele>
        <time>2013-06-19T10:39:42Z</time>
      </trkpt>
      <trkpt lat="47.29929" lon="6.23801">
        <ele>331</ele>
        <time>2013-06-19T10:39:43Z</time>
      </trkpt>
      <trkpt lat="47.29918" lon="6.23794">
        <ele>328</ele>
        <time>2013-06-19T10:39:44Z</time>
      </trkpt>
      <trkpt lat="47.29908" lon="6.2379">
        <ele>328</ele>
        <time>2013-06-19T10:39:45Z</time>
      </trkpt>
      <trkpt lat="47.29897" lon="6.23784">
        <ele>326</ele>
        <time>2013-06-19T10:39:46Z</time>
      </trkpt>
      <trkpt lat="47.29886" lon="6.23779">
        <ele>325</ele>
        <time>2013-06-19T10:39:47Z</time>
      </trkpt>
      <trkpt lat="47.29874" lon="6.23775">
        <ele>324</ele>
        <time>2013-06-19T10:39:48Z</time>
      </trkpt>
      <trkpt lat="47.29862" lon="6.2377">
        <ele>324</ele>
        <time>2013-06-19T10:39:49Z</time>
      </trkpt>
      <trkpt lat="47.29851" lon="6.23765">
        <ele>324</ele>
        <time>2013-06-19T10:39:50Z</time>
      </trkpt>
      <trkpt lat="47.2984" lon="6.23766">
        <ele>324</ele>
        <time>2013-06-19T10:39:51Z</time>
      </trkpt>
      <trkpt lat="47.29831" lon="6.23748">
        <ele>323</ele>
        <time>2013-06-19T10:39:53Z</time>
      </trkpt>
      <trkpt lat="47.29819" lon="6.23735">
        <ele>321</ele>
        <time>2013-06-19T10:39:55Z</time>
      </trkpt>
      <trkpt lat="47.2982" lon="6.2372">
        <ele>318</ele>
        <time>2013-06-19T10:39:56Z</time>
      </trkpt>
      <trkpt lat="47.29821" lon="6.23694">
        <ele>316</ele>
        <time>2013-06-19T10:39:58Z</time>
      </trkpt>
      <trkpt lat="47.29826" lon="6.23669">
        <ele>316</ele>
        <time>2013-06-19T10:40:00Z</time>
      </trkpt>
      <trkpt lat="47.29831" lon="6.23645">
        <ele>317</ele>
        <time>2013-06-19T10:40:02Z</time>
      </trkpt>
      <trkpt lat="47.29834" lon="6.23624">
        <ele>316</ele>
        <time>2013-06-19T10:40:04Z</time>
      </trkpt>
      <trkpt lat="47.29837" lon="6.23603">
        <ele>316</ele>
        <time>2013-06-19T10:40:06Z</time>
      </trkpt>
      <trkpt lat="47.2984" lon="6.23583">
        <ele>315</ele>
        <time>2013-06-19T10:40:07Z</time>
      </trkpt>
      <trkpt lat="47.29842" lon="6.23562">
        <ele>315</ele>
        <time>2013-06-19T10:40:10Z</time>
      </trkpt>
      <trkpt lat="47.29845" lon="6.23542">
        <ele>316</ele>
        <time>2013-06-19T10:40:12Z</time>
      </trkpt>
      <trkpt lat="47.29848" lon="6.23523">
        <ele>317</ele>
        <time>2013-06-19T10:40:14Z</time>
      </trkpt>
      <trkpt lat="47.29852" lon="6.23505">
        <ele>317</ele>
        <time>2013-06-19T10:40:16Z</time>
      </trkpt>
      <trkpt lat="47.29856" lon="6.23488">
        <ele>317</ele>
        <time>2013-06-19T10:40:18Z</time>
      </trkpt>
      <trkpt lat="47.2986" lon="6.23474">
        <ele>318</ele>
        <time>2013-06-19T10:40:20Z</time>
      </trkpt>
      <trkpt lat="47.29865" lon="6.23459">
        <ele>319</ele>
        <time>2013-06-19T10:40:22Z</time>
      </trkpt>
      <trkpt lat="47.29869" lon="6.23444">
        <ele>319</ele>
        <time>2013-06-19T10:40:25Z</time>
      </trkpt>
      <trkpt lat="47.29874" lon="6.2343">
        <ele>316</ele>
        <time>2013-06-19T10:40:27Z</time>
      </trkpt>
      <trkpt lat="47.29866" lon="6.2341">
        <ele>317</ele>
        <time>2013-06-19T10:40:39Z</time>
      </trkpt>
      <trkpt lat="47.29856" lon="6.23417">
        <ele>316</ele>
        <time>2013-06-19T10:40:41Z</time>
      </trkpt>
      <trkpt lat="47.29844" lon="6.23421">
        <ele>314</ele>
        <time>2013-06-19T10:40:43Z</time>
      </trkpt>
      <trkpt lat="47.29828" lon="6.23426">
        <ele>311</ele>
        <time>2013-06-19T10:40:45Z</time>
      </trkpt>
      <trkpt lat="47.29811" lon="6.23427">
        <ele>309</ele>
        <time>2013-06-19T10:40:47Z</time>
      </trkpt>
      <trkpt lat="47.2979" lon="6.23414">
        <ele>308</ele>
        <time>2013-06-19T10:40:50Z</time>
      </trkpt>
      <trkpt lat="47.29779" lon="6.23398">
        <ele>307</ele>
        <time>2013-06-19T10:40:52Z</time>
      </trkpt>
      <trkpt lat="47.29771" lon="6.23382">
        <ele>307</ele>
        <time>2013-06-19T10:40:54Z</time>
      </trkpt>
      <trkpt lat="47.29762" lon="6.23369">
        <ele>308</ele>
        <time>2013-06-19T10:40:56Z</time>
      </trkpt>
      <trkpt lat="47.29754" lon="6.23356">
        <ele>308</ele>
        <time>2013-06-19T10:40:58Z</time>
      </trkpt>
      <trkpt lat="47.29748" lon="6.23345">
        <ele>308</ele>
        <time>2013-06-19T10:41:00Z</time>
      </trkpt>
      <trkpt lat="47.29741" lon="6.23334">
        <ele>307</ele>
        <time>2013-06-19T10:41:02Z</time>
      </trkpt>
      <trkpt lat="47.29736" lon="6.23324">
        <ele>307</ele>
        <time>2013-06-19T10:41:04Z</time>
      </trkpt>
      <trkpt lat="47.2973" lon="6.23313">
        <ele>307</ele>
        <time>2013-06-19T10:41:06Z</time>
      </trkpt>
      <trkpt lat="47.29722" lon="6.23304">
        <ele>307</ele>
        <time>2013-06-19T10:41:09Z</time>
      </trkpt>
      <trkpt lat="47.29711" lon="6.23312">
        <ele>305</ele>
        <time>2013-06-19T10:41:12Z</time>
      </trkpt>
      <trkpt lat="47.29697" lon="6.23322">
        <ele>303</ele>
        <time>2013-06-19T10:41:15Z</time>
      </trkpt>
      <trkpt lat="47.29688" lon="6.23327">
        <ele>304</ele>
        <time>2013-06-19T10:41:17Z</time>
      </trkpt>
      <trkpt lat="47.29679" lon="6.23331">
        <ele>303</ele>
        <time>2013-06-19T10:41:19Z</time>
      </trkpt>
      <trkpt lat="47.2967" lon="6.23332">
        <ele>303</ele>
        <time>2013-06-19T10:41:23Z</time>
      </trkpt>
      <trkpt lat="47.29662" lon="6.23339">
        <ele>302</ele>
        <time>2013-06-19T10:41:28Z</time>
      </trkpt>
      <trkpt lat="47.29651" lon="6.23342">
        <ele>301</ele>
        <time>2013-06-19T10:41:32Z</time>
      </trkpt>
      <trkpt lat="47.29641" lon="6.23343">
        <ele>300</ele>
        <time>2013-06-19T10:41:34Z</time>
      </trkpt>
      <trkpt lat="47.29631" lon="6.23334">
        <ele>300</ele>
        <time>2013-06-19T10:41:38Z</time>
      </trkpt>
      <trkpt lat="47.29626" lon="6.2332">
        <ele>300</ele>
        <time>2013-06-19T10:41:41Z</time>
      </trkpt>
      <trkpt lat="47.2962" lon="6.23304">
        <ele>300</ele>
        <time>2013-06-19T10:41:44Z</time>
      </trkpt>
      <trkpt lat="47.29615" lon="6.23292">
        <ele>299</ele>
        <time>2013-06-19T10:41:46Z</time>
      </trkpt>
      <trkpt lat="47.29609" lon="6.23275">
        <ele>299</ele>
        <time>2013-06-19T10:41:50Z</time>
      </trkpt>
      <trkpt lat="47.29604" lon="6.23257">
        <ele>299</ele>
        <time>2013-06-19T10:41:52Z</time>
      </trkpt>
      <trkpt lat="47.29601" lon="6.2324">
        <ele>298</ele>
        <time>2013-06-19T10:41:55Z</time>
      </trkpt>
      <trkpt lat="47.29598" lon="6.23223">
        <ele>297</ele>
        <time>2013-06-19T10:41:59Z</time>
      </trkpt>
      <trkpt lat="47.29595" lon="6.23206">
        <ele>298</ele>
        <time>2013-06-19T10:42:01Z</time>
      </trkpt>
      <trkpt lat="47.29594" lon="6.23193">
        <ele>298</ele>
        <time>2013-06-19T10:42:03Z</time>
      </trkpt>
      <trkpt lat="47.29594" lon="6.23179">
        <ele>298</ele>
        <time>2013-06-19T10:42:05Z</time>
      </trkpt>
      <trkpt lat="47.29594" lon="6.23166">
        <ele>299</ele>
        <time>2013-06-19T10:42:07Z</time>
      </trkpt>
      <trkpt lat="47.29594" lon="6.23152">
        <ele>298</ele>
        <time>2013-06-19T10:42:10Z</time>
      </trkpt>
      <trkpt lat="47.29598" lon="6.23132">
        <ele>298</ele>
        <time>2013-06-19T10:42:12Z</time>
      </trkpt>
      <trkpt lat="47.29599" lon="6.23118">
        <ele>299</ele>
        <time>2013-06-19T10:42:14Z</time>
      </trkpt>
      <trkpt lat="47.296" lon="6.23104">
        <ele>299</ele>
        <time>2013-06-19T10:42:16Z</time>
      </trkpt>
      <trkpt lat="47.29601" lon="6.23091">
        <ele>299</ele>
        <time>2013-06-19T10:42:18Z</time>
      </trkpt>
      <trkpt lat="47.29602" lon="6.23073">
        <ele>300</ele>
        <time>2013-06-19T10:42:21Z</time>
      </trkpt>
      <trkpt lat="47.29603" lon="6.23055">
        <ele>301</ele>
        <time>2013-06-19T10:42:24Z</time>
      </trkpt>
      <trkpt lat="47.29604" lon="6.23036">
        <ele>301</ele>
        <time>2013-06-19T10:42:27Z</time>
      </trkpt>
      <trkpt lat="47.29606" lon="6.23018">
        <ele>302</ele>
        <time>2013-06-19T10:42:30Z</time>
      </trkpt>
      <trkpt lat="47.29608" lon="6.23">
        <ele>301</ele>
        <time>2013-06-19T10:42:33Z</time>
      </trkpt>
      <trkpt lat="47.2961" lon="6.22983">
        <ele>301</ele>
        <time>2013-06-19T10:42:36Z</time>
      </trkpt>
      <trkpt lat="47.29613" lon="6.22966">
        <ele>302</ele>
        <time>2013-06-19T10:42:39Z</time>
      </trkpt>
      <trkpt lat="47.29616" lon="6.22952">
        <ele>302</ele>
        <time>2013-06-19T10:42:42Z</time>
      </trkpt>
      <trkpt lat="47.2962" lon="6.22938">
        <ele>302</ele>
        <time>2013-06-19T10:42:45Z</time>
      </trkpt>
      <trkpt lat="47.29625" lon="6.22922">
        <ele>303</ele>
        <time>2013-06-19T10:42:48Z</time>
      </trkpt>
      <trkpt lat="47.2963" lon="6.22905">
        <ele>303</ele>
        <time>2013-06-19T10:42:51Z</time>
      </trkpt>
      <trkpt lat="47.29636" lon="6.22893">
        <ele>302</ele>
        <time>2013-06-19T10:42:53Z</time>
      </trkpt>
      <trkpt lat="47.29642" lon="6.22882">
        <ele>302</ele>
        <time>2013-06-19T10:42:55Z</time>
      </trkpt>
      <trkpt lat="47.29647" lon="6.22872">
        <ele>302</ele>
        <time>2013-06-19T10:42:57Z</time>
      </trkpt>
      <trkpt lat="47.29654" lon="6.22856">
        <ele>304</ele>
        <time>2013-06-19T10:43:00Z</time>
      </trkpt>
      <trkpt lat="47.2966" lon="6.22843">
        <ele>300</ele>
        <time>2013-06-19T10:43:02Z</time>
      </trkpt>
      <trkpt lat="47.29666" lon="6.22832">
        <ele>301</ele>
        <time>2013-06-19T10:43:04Z</time>
      </trkpt>
      <trkpt lat="47.29673" lon="6.22816">
        <ele>301</ele>
        <time>2013-06-19T10:43:06Z</time>
      </trkpt>
      <trkpt lat="47.29679" lon="6.22805">
        <ele>300</ele>
        <time>2013-06-19T10:43:09Z</time>
      </trkpt>
      <trkpt lat="47.29684" lon="6.22791">
        <ele>302</ele>
        <time>2013-06-19T10:43:13Z</time>
      </trkpt>
      <trkpt lat="47.2969" lon="6.2278">
        <ele>300</ele>
        <time>2013-06-19T10:46:50Z</time>
      </trkpt>
      <trkpt lat="47.29695" lon="6.22768">
        <ele>305</ele>
        <time>2013-06-19T10:46:55Z</time>
      </trkpt>
      <trkpt lat="47.29702" lon="6.22756">
        <ele>304</ele>
        <time>2013-06-19T10:47:00Z</time>
      </trkpt>
      <trkpt lat="47.29707" lon="6.22743">
        <ele>307</ele>
        <time>2013-06-19T10:47:04Z</time>
      </trkpt>
      <trkpt lat="47.2971" lon="6.22728">
        <ele>307</ele>
        <time>2013-06-19T10:47:08Z</time>
      </trkpt>
      <trkpt lat="47.29716" lon="6.22715">
        <ele>308</ele>
        <time>2013-06-19T10:47:11Z</time>
      </trkpt>
      <trkpt lat="47.29722" lon="6.22701">
        <ele>307</ele>
        <time>2013-06-19T10:47:14Z</time>
      </trkpt>
      <trkpt lat="47.29727" lon="6.22687">
        <ele>304</ele>
        <time>2013-06-19T10:47:17Z</time>
      </trkpt>
      <trkpt lat="47.29733" lon="6.22673">
        <ele>305</ele>
        <time>2013-06-19T10:47:20Z</time>
      </trkpt>
      <trkpt lat="47.29739" lon="6.22659">
        <ele>304</ele>
        <time>2013-06-19T10:47:23Z</time>
      </trkpt>
      <trkpt lat="47.29746" lon="6.22643">
        <ele>304</ele>
        <time>2013-06-19T10:47:26Z</time>
      </trkpt>
      <trkpt lat="47.29754" lon="6.22626">
        <ele>304</ele>
        <time>2013-06-19T10:47:29Z</time>
      </trkpt>
      <trkpt lat="47.29759" lon="6.22611">
        <ele>305</ele>
        <time>2013-06-19T10:47:31Z</time>
      </trkpt>
      <trkpt lat="47.29763" lon="6.22599">
        <ele>306</ele>
        <time>2013-06-19T10:47:33Z</time>
      </trkpt>
      <trkpt lat="47.2977" lon="6.22582">
        <ele>306</ele>
        <time>2013-06-19T10:47:36Z</time>
      </trkpt>
      <trkpt lat="47.29777" lon="6.22567">
        <ele>305</ele>
        <time>2013-06-19T10:47:39Z</time>
      </trkpt>
      <trkpt lat="47.29782" lon="6.2255">
        <ele>304</ele>
        <time>2013-06-19T10:47:42Z</time>
      </trkpt>
      <trkpt lat="47.29786" lon="6.22537">
        <ele>304</ele>
        <time>2013-06-19T10:47:44Z</time>
      </trkpt>
      <trkpt lat="47.29791" lon="6.2252">
        <ele>304</ele>
        <time>2013-06-19T10:47:47Z</time>
      </trkpt>
      <trkpt lat="47.29794" lon="6.22506">
        <ele>303</ele>
        <time>2013-06-19T10:47:48Z</time>
      </trkpt>
      <trkpt lat="47.29799" lon="6.22493">
        <ele>302</ele>
        <time>2013-06-19T10:47:50Z</time>
      </trkpt>
      <trkpt lat="47.29802" lon="6.2248">
        <ele>303</ele>
        <time>2013-06-19T10:47:52Z</time>
      </trkpt>
      <trkpt lat="47.29807" lon="6.22461">
        <ele>303</ele>
        <time>2013-06-19T10:47:55Z</time>
      </trkpt>
      <trkpt lat="47.2981" lon="6.22446">
        <ele>301</ele>
        <time>2013-06-19T10:47:57Z</time>
      </trkpt>
      <trkpt lat="47.29814" lon="6.22433">
        <ele>301</ele>
        <time>2013-06-19T10:47:59Z</time>
      </trkpt>
      <trkpt lat="47.29817" lon="6.2242">
        <ele>301</ele>
        <time>2013-06-19T10:48:01Z</time>
      </trkpt>
      <trkpt lat="47.29823" lon="6.224">
        <ele>303</ele>
        <time>2013-06-19T10:48:04Z</time>
      </trkpt>
      <trkpt lat="47.29825" lon="6.22386">
        <ele>303</ele>
        <time>2013-06-19T10:48:06Z</time>
      </trkpt>
      <trkpt lat="47.29828" lon="6.22372">
        <ele>304</ele>
        <time>2013-06-19T10:48:08Z</time>
      </trkpt>
      <trkpt lat="47.29831" lon="6.22358">
        <ele>304</ele>
        <time>2013-06-19T10:48:10Z</time>
      </trkpt>
      <trkpt lat="47.29835" lon="6.22344">
        <ele>303</ele>
        <time>2013-06-19T10:48:12Z</time>
      </trkpt>
      <trkpt lat="47.29839" lon="6.22326">
        <ele>305</ele>
        <time>2013-06-19T10:48:15Z</time>
      </trkpt>
      <trkpt lat="47.29843" lon="6.22314">
        <ele>305</ele>
        <time>2013-06-19T10:48:17Z</time>
      </trkpt>
      <trkpt lat="47.29842" lon="6.223">
        <ele>305</ele>
        <time>2013-06-19T10:48:19Z</time>
      </trkpt>
      <trkpt lat="47.29846" lon="6.22287">
        <ele>306</ele>
        <time>2013-06-19T10:48:21Z</time>
      </trkpt>
      <trkpt lat="47.29848" lon="6.22272">
        <ele>306</ele>
        <time>2013-06-19T10:48:23Z</time>
      </trkpt>
      <trkpt lat="47.29849" lon="6.22258">
        <ele>306</ele>
        <time>2013-06-19T10:48:25Z</time>
      </trkpt>
      <trkpt lat="47.2985" lon="6.22243">
        <ele>306</ele>
        <time>2013-06-19T10:48:27Z</time>
      </trkpt>
      <trkpt lat="47.29851" lon="6.22228">
        <ele>306</ele>
        <time>2013-06-19T10:48:29Z</time>
      </trkpt>
      <trkpt lat="47.29855" lon="6.22208">
        <ele>306</ele>
        <time>2013-06-19T10:48:32Z</time>
      </trkpt>
      <trkpt lat="47.29871" lon="6.22181">
        <ele>306</ele>
        <time>2013-06-19T10:48:34Z</time>
      </trkpt>
      <trkpt lat="47.29878" lon="6.22162">
        <ele>305</ele>
        <time>2013-06-19T10:48:37Z</time>
      </trkpt>
      <trkpt lat="47.29887" lon="6.22148">
        <ele>305</ele>
        <time>2013-06-19T10:48:40Z</time>
      </trkpt>
      <trkpt lat="47.29896" lon="6.22143">
        <ele>306</ele>
        <time>2013-06-19T10:48:42Z</time>
      </trkpt>
      <trkpt lat="47.29901" lon="6.22128">
        <ele>301</ele>
        <time>2013-06-19T10:48:46Z</time>
      </trkpt>
      <trkpt lat="47.29908" lon="6.22113">
        <ele>301</ele>
        <time>2013-06-19T10:48:49Z</time>
      </trkpt>
      <trkpt lat="47.29916" lon="6.22099">
        <ele>303</ele>
        <time>2013-06-19T10:48:52Z</time>
      </trkpt>
      <trkpt lat="47.29923" lon="6.22085">
        <ele>307</ele>
        <time>2013-06-19T10:48:55Z</time>
      </trkpt>
      <trkpt lat="47.29931" lon="6.22069">
        <ele>307</ele>
        <time>2013-06-19T10:48:58Z</time>
      </trkpt>
      <trkpt lat="47.29938" lon="6.22058">
        <ele>306</ele>
        <time>2013-06-19T10:49:00Z</time>
      </trkpt>
      <trkpt lat="47.29943" lon="6.22047">
        <ele>309</ele>
        <time>2013-06-19T10:49:02Z</time>
      </trkpt>
      <trkpt lat="47.2995" lon="6.22037">
        <ele>306</ele>
        <time>2013-06-19T10:49:26Z</time>
      </trkpt>
      <trkpt lat="47.29956" lon="6.22027">
        <ele>308</ele>
        <time>2013-06-19T10:49:31Z</time>
      </trkpt>
      <trkpt lat="47.29965" lon="6.22015">
        <ele>308</ele>
        <time>2013-06-19T10:49:35Z</time>
      </trkpt>
      <trkpt lat="47.29974" lon="6.22003">
        <ele>308</ele>
        <time>2013-06-19T10:49:37Z</time>
      </trkpt>
      <trkpt lat="47.29982" lon="6.21993">
        <ele>308</ele>
        <time>2013-06-19T10:49:39Z</time>
      </trkpt>
      <trkpt lat="47.29989" lon="6.21985">
        <ele>308</ele>
        <time>2013-06-19T10:49:42Z</time>
      </trkpt>
      <trkpt lat="47.29998" lon="6.21976">
        <ele>307</ele>
        <time>2013-06-19T10:49:43Z</time>
      </trkpt>
      <trkpt lat="47.30006" lon="6.21965">
        <ele>307</ele>
        <time>2013-06-19T10:49:47Z</time>
      </trkpt>
      <trkpt lat="47.30014" lon="6.21953">
        <ele>306</ele>
        <time>2013-06-19T10:49:47Z</time>
      </trkpt>
      <trkpt lat="47.30021" lon="6.21941">
        <ele>306</ele>
        <time>2013-06-19T10:49:49Z</time>
      </trkpt>
      <trkpt lat="47.30029" lon="6.21926">
        <ele>306</ele>
        <time>2013-06-19T10:49:51Z</time>
      </trkpt>
      <trkpt lat="47.30036" lon="6.21915">
        <ele>306</ele>
        <time>2013-06-19T10:49:53Z</time>
      </trkpt>
      <trkpt lat="47.30043" lon="6.21903">
        <ele>306</ele>
        <time>2013-06-19T10:49:55Z</time>
      </trkpt>
      <trkpt lat="47.30051" lon="6.21891">
        <ele>306</ele>
        <time>2013-06-19T10:49:58Z</time>
      </trkpt>
      <trkpt lat="47.30058" lon="6.21878">
        <ele>307</ele>
        <time>2013-06-19T10:49:59Z</time>
      </trkpt>
      <trkpt lat="47.30066" lon="6.21865">
        <ele>307</ele>
        <time>2013-06-19T10:50:01Z</time>
      </trkpt>
      <trkpt lat="47.30073" lon="6.21851">
        <ele>306</ele>
        <time>2013-06-19T10:50:03Z</time>
      </trkpt>
      <trkpt lat="47.30081" lon="6.2184">
        <ele>306</ele>
        <time>2013-06-19T10:50:05Z</time>
      </trkpt>
      <trkpt lat="47.30088" lon="6.21827">
        <ele>306</ele>
        <time>2013-06-19T10:50:07Z</time>
      </trkpt>
      <trkpt lat="47.30096" lon="6.21813">
        <ele>306</ele>
        <time>2013-06-19T10:50:09Z</time>
      </trkpt>
      <trkpt lat="47.30104" lon="6.218">
        <ele>307</ele>
        <time>2013-06-19T10:50:11Z</time>
      </trkpt>
      <trkpt lat="47.30112" lon="6.21786">
        <ele>308</ele>
        <time>2013-06-19T10:50:13Z</time>
      </trkpt>
      <trkpt lat="47.30119" lon="6.21773">
        <ele>306</ele>
        <time>2013-06-19T10:50:15Z</time>
      </trkpt>
      <trkpt lat="47.30127" lon="6.2176">
        <ele>303</ele>
        <time>2013-06-19T10:50:17Z</time>
      </trkpt>
      <trkpt lat="47.30133" lon="6.21748">
        <ele>304</ele>
        <time>2013-06-19T10:50:19Z</time>
      </trkpt>
      <trkpt lat="47.30141" lon="6.21734">
        <ele>303</ele>
        <time>2013-06-19T10:50:21Z</time>
      </trkpt>
      <trkpt lat="47.30148" lon="6.2172">
        <ele>304</ele>
        <time>2013-06-19T10:50:23Z</time>
      </trkpt>
      <trkpt lat="47.30155" lon="6.21708">
        <ele>305</ele>
        <time>2013-06-19T10:50:25Z</time>
      </trkpt>
      <trkpt lat="47.30162" lon="6.21696">
        <ele>305</ele>
        <time>2013-06-19T10:50:27Z</time>
      </trkpt>
      <trkpt lat="47.30171" lon="6.21685">
        <ele>306</ele>
        <time>2013-06-19T10:50:29Z</time>
      </trkpt>
      <trkpt lat="47.30179" lon="6.21676">
        <ele>305</ele>
        <time>2013-06-19T10:50:31Z</time>
      </trkpt>
      <trkpt lat="47.30188" lon="6.21666">
        <ele>305</ele>
        <time>2013-06-19T10:50:33Z</time>
      </trkpt>
      <trkpt lat="47.30195" lon="6.21654">
        <ele>305</ele>
        <time>2013-06-19T10:50:35Z</time>
      </trkpt>
      <trkpt lat="47.30202" lon="6.21642">
        <ele>304</ele>
        <time>2013-06-19T10:50:37Z</time>
      </trkpt>
      <trkpt lat="47.3021" lon="6.21631">
        <ele>306</ele>
        <time>2013-06-19T10:50:39Z</time>
      </trkpt>
      <trkpt lat="47.30218" lon="6.21618">
        <ele>307</ele>
        <time>2013-06-19T10:50:42Z</time>
      </trkpt>
      <trkpt lat="47.30227" lon="6.21604">
        <ele>307</ele>
        <time>2013-06-19T10:50:43Z</time>
      </trkpt>
      <trkpt lat="47.30236" lon="6.21593">
        <ele>307</ele>
        <time>2013-06-19T10:50:45Z</time>
      </trkpt>
      <trkpt lat="47.30243" lon="6.21579">
        <ele>310</ele>
        <time>2013-06-19T10:50:47Z</time>
      </trkpt>
      <trkpt lat="47.30252" lon="6.2157">
        <ele>307</ele>
        <time>2013-06-19T10:50:49Z</time>
      </trkpt>
      <trkpt lat="47.30257" lon="6.21558">
        <ele>308</ele>
        <time>2013-06-19T10:50:51Z</time>
      </trkpt>
      <trkpt lat="47.30264" lon="6.21544">
        <ele>308</ele>
        <time>2013-06-19T10:50:53Z</time>
      </trkpt>
      <trkpt lat="47.30269" lon="6.21531">
        <ele>308</ele>
        <time>2013-06-19T10:50:55Z</time>
      </trkpt>
      <trkpt lat="47.30275" lon="6.21515">
        <ele>308</ele>
        <time>2013-06-19T10:50:57Z</time>
      </trkpt>
      <trkpt lat="47.3028" lon="6.21499">
        <ele>308</ele>
        <time>2013-06-19T10:50:59Z</time>
      </trkpt>
      <trkpt lat="47.30289" lon="6.21487">
        <ele>307</ele>
        <time>2013-06-19T10:51:01Z</time>
      </trkpt>
      <trkpt lat="47.30296" lon="6.21476">
        <ele>306</ele>
        <time>2013-06-19T10:51:03Z</time>
      </trkpt>
      <trkpt lat="47.30304" lon="6.21464">
        <ele>307</ele>
        <time>2013-06-19T10:51:05Z</time>
      </trkpt>
      <trkpt lat="47.30312" lon="6.21453">
        <ele>307</ele>
        <time>2013-06-19T10:51:07Z</time>
      </trkpt>
      <trkpt lat="47.30321" lon="6.2144">
        <ele>308</ele>
        <time>2013-06-19T10:51:09Z</time>
      </trkpt>
      <trkpt lat="47.30327" lon="6.21425">
        <ele>310</ele>
        <time>2013-06-19T10:51:11Z</time>
      </trkpt>
      <trkpt lat="47.30333" lon="6.21409">
        <ele>313</ele>
        <time>2013-06-19T10:51:13Z</time>
      </trkpt>
      <trkpt lat="47.30336" lon="6.21395">
        <ele>313</ele>
        <time>2013-06-19T10:51:15Z</time>
      </trkpt>
      <trkpt lat="47.30339" lon="6.21381">
        <ele>310</ele>
        <time>2013-06-19T10:51:17Z</time>
      </trkpt>
      <trkpt lat="47.30343" lon="6.21365">
        <ele>308</ele>
        <time>2013-06-19T10:51:19Z</time>
      </trkpt>
      <trkpt lat="47.30346" lon="6.21346">
        <ele>308</ele>
        <time>2013-06-19T10:51:22Z</time>
      </trkpt>
      <trkpt lat="47.30347" lon="6.2133">
        <ele>309</ele>
        <time>2013-06-19T10:51:24Z</time>
      </trkpt>
      <trkpt lat="47.30347" lon="6.21313">
        <ele>310</ele>
        <time>2013-06-19T10:51:26Z</time>
      </trkpt>
      <trkpt lat="47.30348" lon="6.21299">
        <ele>310</ele>
        <time>2013-06-19T10:51:28Z</time>
      </trkpt>
      <trkpt lat="47.30351" lon="6.21281">
        <ele>311</ele>
        <time>2013-06-19T10:51:30Z</time>
      </trkpt>
      <trkpt lat="47.30353" lon="6.21263">
        <ele>314</ele>
        <time>2013-06-19T10:51:32Z</time>
      </trkpt>
      <trkpt lat="47.30354" lon="6.21248">
        <ele>316</ele>
        <time>2013-06-19T10:51:34Z</time>
      </trkpt>
      <trkpt lat="47.30353" lon="6.21234">
        <ele>317</ele>
        <time>2013-06-19T10:51:37Z</time>
      </trkpt>
      <trkpt lat="47.30357" lon="6.21219">
        <ele>319</ele>
        <time>2013-06-19T10:51:40Z</time>
      </trkpt>
      <trkpt lat="47.30362" lon="6.21207">
        <ele>319</ele>
        <time>2013-06-19T10:51:41Z</time>
      </trkpt>
      <trkpt lat="47.30366" lon="6.21195">
        <ele>319</ele>
        <time>2013-06-19T10:51:42Z</time>
      </trkpt>
      <trkpt lat="47.30371" lon="6.21177">
        <ele>319</ele>
        <time>2013-06-19T10:51:44Z</time>
      </trkpt>
      <trkpt lat="47.30376" lon="6.21158">
        <ele>318</ele>
        <time>2013-06-19T10:51:46Z</time>
      </trkpt>
      <trkpt lat="47.3038" lon="6.2114">
        <ele>317</ele>
        <time>2013-06-19T10:51:48Z</time>
      </trkpt>
      <trkpt lat="47.30383" lon="6.21123">
        <ele>317</ele>
        <time>2013-06-19T10:51:50Z</time>
      </trkpt>
      <trkpt lat="47.30386" lon="6.21107">
        <ele>317</ele>
        <time>2013-06-19T10:51:52Z</time>
      </trkpt>
      <trkpt lat="47.30388" lon="6.2109">
        <ele>317</ele>
        <time>2013-06-19T10:51:54Z</time>
      </trkpt>
      <trkpt lat="47.3039" lon="6.21073">
        <ele>318</ele>
        <time>2013-06-19T10:51:56Z</time>
      </trkpt>
      <trkpt lat="47.3039" lon="6.21057">
        <ele>318</ele>
        <time>2013-06-19T10:51:58Z</time>
      </trkpt>
      <trkpt lat="47.30388" lon="6.21043">
        <ele>317</ele>
        <time>2013-06-19T10:51:59Z</time>
      </trkpt>
      <trkpt lat="47.30387" lon="6.21027">
        <ele>319</ele>
        <time>2013-06-19T10:52:02Z</time>
      </trkpt>
      <trkpt lat="47.30386" lon="6.2101">
        <ele>318</ele>
        <time>2013-06-19T10:52:04Z</time>
      </trkpt>
      <trkpt lat="47.30387" lon="6.20992">
        <ele>316</ele>
        <time>2013-06-19T10:52:05Z</time>
      </trkpt>
      <trkpt lat="47.30386" lon="6.20976">
        <ele>316</ele>
        <time>2013-06-19T10:52:08Z</time>
      </trkpt>
      <trkpt lat="47.30384" lon="6.20959">
        <ele>314</ele>
        <time>2013-06-19T10:52:09Z</time>
      </trkpt>
      <trkpt lat="47.30383" lon="6.20945">
        <ele>312</ele>
        <time>2013-06-19T10:52:11Z</time>
      </trkpt>
      <trkpt lat="47.30379" lon="6.20931">
        <ele>310</ele>
        <time>2013-06-19T10:52:13Z</time>
      </trkpt>
      <trkpt lat="47.30377" lon="6.20914">
        <ele>310</ele>
        <time>2013-06-19T10:52:15Z</time>
      </trkpt>
      <trkpt lat="47.30373" lon="6.20899">
        <ele>309</ele>
        <time>2013-06-19T10:52:17Z</time>
      </trkpt>
      <trkpt lat="47.30372" lon="6.2088">
        <ele>308</ele>
        <time>2013-06-19T10:52:21Z</time>
      </trkpt>
      <trkpt lat="47.30367" lon="6.20863">
        <ele>308</ele>
        <time>2013-06-19T10:52:23Z</time>
      </trkpt>
      <trkpt lat="47.30362" lon="6.2085">
        <ele>305</ele>
        <time>2013-06-19T10:52:25Z</time>
      </trkpt>
      <trkpt lat="47.30356" lon="6.20835">
        <ele>304</ele>
        <time>2013-06-19T10:52:27Z</time>
      </trkpt>
      <trkpt lat="47.30349" lon="6.2082">
        <ele>305</ele>
        <time>2013-06-19T10:52:29Z</time>
      </trkpt>
      <trkpt lat="47.30342" lon="6.20806">
        <ele>306</ele>
        <time>2013-06-19T10:52:30Z</time>
      </trkpt>
      <trkpt lat="47.30335" lon="6.20794">
        <ele>307</ele>
        <time>2013-06-19T10:52:33Z</time>
      </trkpt>
      <trkpt lat="47.30327" lon="6.20783">
        <ele>307</ele>
        <time>2013-06-19T10:52:34Z</time>
      </trkpt>
      <trkpt lat="47.30319" lon="6.20775">
        <ele>309</ele>
        <time>2013-06-19T10:52:36Z</time>
      </trkpt>
      <trkpt lat="47.30314" lon="6.20765">
        <ele>311</ele>
        <time>2013-06-19T10:52:38Z</time>
      </trkpt>
      <trkpt lat="47.30303" lon="6.20754">
        <ele>311</ele>
        <time>2013-06-19T10:52:41Z</time>
      </trkpt>
      <trkpt lat="47.30292" lon="6.20745">
        <ele>313</ele>
        <time>2013-06-19T10:52:44Z</time>
      </trkpt>
      <trkpt lat="47.30284" lon="6.20736">
        <ele>314</ele>
        <time>2013-06-19T10:52:46Z</time>
      </trkpt>
      <trkpt lat="47.30276" lon="6.20729">
        <ele>313</ele>
        <time>2013-06-19T10:52:48Z</time>
      </trkpt>
      <trkpt lat="47.30265" lon="6.20721">
        <ele>313</ele>
        <time>2013-06-19T10:52:51Z</time>
      </trkpt>
      <trkpt lat="47.30254" lon="6.20711">
        <ele>314</ele>
        <time>2013-06-19T10:52:55Z</time>
      </trkpt>
      <trkpt lat="47.30244" lon="6.20702">
        <ele>315</ele>
        <time>2013-06-19T10:52:57Z</time>
      </trkpt>
      <trkpt lat="47.30236" lon="6.20695">
        <ele>314</ele>
        <time>2013-06-19T10:53:00Z</time>
      </trkpt>
      <trkpt lat="47.30228" lon="6.20687">
        <ele>314</ele>
        <time>2013-06-19T10:53:03Z</time>
      </trkpt>
      <trkpt lat="47.3022" lon="6.20679">
        <ele>314</ele>
        <time>2013-06-19T10:53:06Z</time>
      </trkpt>
      <trkpt lat="47.30211" lon="6.2067">
        <ele>314</ele>
        <time>2013-06-19T10:53:09Z</time>
      </trkpt>
      <trkpt lat="47.30205" lon="6.2066">
        <ele>313</ele>
        <time>2013-06-19T10:53:11Z</time>
      </trkpt>
      <trkpt lat="47.30195" lon="6.20652">
        <ele>312</ele>
        <time>2013-06-19T10:53:13Z</time>
      </trkpt>
      <trkpt lat="47.30184" lon="6.20645">
        <ele>310</ele>
        <time>2013-06-19T10:53:15Z</time>
      </trkpt>
      <trkpt lat="47.30171" lon="6.20639">
        <ele>308</ele>
        <time>2013-06-19T10:53:17Z</time>
      </trkpt>
      <trkpt lat="47.30156" lon="6.20633">
        <ele>307</ele>
        <time>2013-06-19T10:53:19Z</time>
      </trkpt>
      <trkpt lat="47.30139" lon="6.20627">
        <ele>306</ele>
        <time>2013-06-19T10:53:21Z</time>
      </trkpt>
      <trkpt lat="47.30123" lon="6.20619">
        <ele>306</ele>
        <time>2013-06-19T10:53:23Z</time>
      </trkpt>
      <trkpt lat="47.30106" lon="6.20611">
        <ele>305</ele>
        <time>2013-06-19T10:53:25Z</time>
      </trkpt>
      <trkpt lat="47.30098" lon="6.20607">
        <ele>305</ele>
        <time>2013-06-19T10:53:26Z</time>
      </trkpt>
      <trkpt lat="47.30082" lon="6.20598">
        <ele>306</ele>
        <time>2013-06-19T10:53:28Z</time>
      </trkpt>
      <trkpt lat="47.30066" lon="6.20592">
        <ele>306</ele>
        <time>2013-06-19T10:53:30Z</time>
      </trkpt>
      <trkpt lat="47.30053" lon="6.20588">
        <ele>305</ele>
        <time>2013-06-19T10:53:32Z</time>
      </trkpt>
      <trkpt lat="47.30039" lon="6.20582">
        <ele>305</ele>
        <time>2013-06-19T10:53:34Z</time>
      </trkpt>
      <trkpt lat="47.30026" lon="6.20579">
        <ele>304</ele>
        <time>2013-06-19T10:53:36Z</time>
      </trkpt>
      <trkpt lat="47.30013" lon="6.20575">
        <ele>305</ele>
        <time>2013-06-19T10:53:39Z</time>
      </trkpt>
      <trkpt lat="47.3" lon="6.20571">
        <ele>305</ele>
        <time>2013-06-19T10:53:40Z</time>
      </trkpt>
      <trkpt lat="47.29987" lon="6.20568">
        <ele>304</ele>
        <time>2013-06-19T10:53:42Z</time>
      </trkpt>
      <trkpt lat="47.29974" lon="6.20564">
        <ele>304</ele>
        <time>2013-06-19T10:53:44Z</time>
      </trkpt>
      <trkpt lat="47.2996" lon="6.20561">
        <ele>304</ele>
        <time>2013-06-19T10:53:46Z</time>
      </trkpt>
      <trkpt lat="47.29948" lon="6.20557">
        <ele>305</ele>
        <time>2013-06-19T10:53:48Z</time>
      </trkpt>
      <trkpt lat="47.29935" lon="6.20553">
        <ele>305</ele>
        <time>2013-06-19T10:53:50Z</time>
      </trkpt>
      <trkpt lat="47.29924" lon="6.20548">
        <ele>304</ele>
        <time>2013-06-19T10:53:52Z</time>
      </trkpt>
      <trkpt lat="47.29911" lon="6.20542">
        <ele>304</ele>
        <time>2013-06-19T10:53:54Z</time>
      </trkpt>
      <trkpt lat="47.29899" lon="6.20536">
        <ele>303</ele>
        <time>2013-06-19T10:53:56Z</time>
      </trkpt>
      <trkpt lat="47.29888" lon="6.20531">
        <ele>303</ele>
        <time>2013-06-19T10:53:58Z</time>
      </trkpt>
      <trkpt lat="47.29877" lon="6.20525">
        <ele>303</ele>
        <time>2013-06-19T10:54:00Z</time>
      </trkpt>
      <trkpt lat="47.29867" lon="6.20518">
        <ele>304</ele>
        <time>2013-06-19T10:54:02Z</time>
      </trkpt>
      <trkpt lat="47.29857" lon="6.20514">
        <ele>304</ele>
        <time>2013-06-19T10:54:04Z</time>
      </trkpt>
      <trkpt lat="47.29846" lon="6.2051">
        <ele>303</ele>
        <time>2013-06-19T10:54:06Z</time>
      </trkpt>
      <trkpt lat="47.29836" lon="6.20507">
        <ele>303</ele>
        <time>2013-06-19T10:54:08Z</time>
      </trkpt>
      <trkpt lat="47.29827" lon="6.20503">
        <ele>304</ele>
        <time>2013-06-19T10:54:10Z</time>
      </trkpt>
      <trkpt lat="47.29817" lon="6.20499">
        <ele>305</ele>
        <time>2013-06-19T10:54:12Z</time>
      </trkpt>
      <trkpt lat="47.29807" lon="6.20495">
        <ele>306</ele>
        <time>2013-06-19T10:54:14Z</time>
      </trkpt>
      <trkpt lat="47.29797" lon="6.20491">
        <ele>306</ele>
        <time>2013-06-19T10:54:16Z</time>
      </trkpt>
      <trkpt lat="47.29786" lon="6.20487">
        <ele>306</ele>
        <time>2013-06-19T10:54:18Z</time>
      </trkpt>
      <trkpt lat="47.29775" lon="6.20483">
        <ele>307</ele>
        <time>2013-06-19T10:54:20Z</time>
      </trkpt>
      <trkpt lat="47.29763" lon="6.20481">
        <ele>307</ele>
        <time>2013-06-19T10:54:23Z</time>
      </trkpt>
      <trkpt lat="47.29754" lon="6.20478">
        <ele>308</ele>
        <time>2013-06-19T10:54:24Z</time>
      </trkpt>
      <trkpt lat="47.29743" lon="6.20476">
        <ele>308</ele>
        <time>2013-06-19T10:54:26Z</time>
      </trkpt>
      <trkpt lat="47.2973" lon="6.20472">
        <ele>308</ele>
        <time>2013-06-19T10:54:29Z</time>
      </trkpt>
      <trkpt lat="47.2972" lon="6.20469">
        <ele>309</ele>
        <time>2013-06-19T10:54:32Z</time>
      </trkpt>
      <trkpt lat="47.29711" lon="6.20467">
        <ele>309</ele>
        <time>2013-06-19T10:54:34Z</time>
      </trkpt>
      <trkpt lat="47.29699" lon="6.20461">
        <ele>308</ele>
        <time>2013-06-19T10:54:37Z</time>
      </trkpt>
      <trkpt lat="47.29686" lon="6.20458">
        <ele>309</ele>
        <time>2013-06-19T10:54:40Z</time>
      </trkpt>
      <trkpt lat="47.29673" lon="6.20455">
        <ele>308</ele>
        <time>2013-06-19T10:54:43Z</time>
      </trkpt>
      <trkpt lat="47.29662" lon="6.20449">
        <ele>306</ele>
        <time>2013-06-19T10:54:46Z</time>
      </trkpt>
      <trkpt lat="47.29651" lon="6.20447">
        <ele>307</ele>
        <time>2013-06-19T10:54:49Z</time>
      </trkpt>
      <trkpt lat="47.29641" lon="6.20445">
        <ele>308</ele>
        <time>2013-06-19T10:54:52Z</time>
      </trkpt>
      <trkpt lat="47.2963" lon="6.20443">
        <ele>308</ele>
        <time>2013-06-19T10:54:55Z</time>
      </trkpt>
      <trkpt lat="47.29618" lon="6.20442">
        <ele>309</ele>
        <time>2013-06-19T10:54:58Z</time>
      </trkpt>
      <trkpt lat="47.29607" lon="6.20439">
        <ele>309</ele>
        <time>2013-06-19T10:55:00Z</time>
      </trkpt>
      <trkpt lat="47.29598" lon="6.20437">
        <ele>308</ele>
        <time>2013-06-19T10:55:02Z</time>
      </trkpt>
      <trkpt lat="47.29589" lon="6.20436">
        <ele>308</ele>
        <time>2013-06-19T10:55:04Z</time>
      </trkpt>
      <trkpt lat="47.29579" lon="6.20434">
        <ele>308</ele>
        <time>2013-06-19T10:55:06Z</time>
      </trkpt>
      <trkpt lat="47.2957" lon="6.20433">
        <ele>308</ele>
        <time>2013-06-19T10:55:08Z</time>
      </trkpt>
      <trkpt lat="47.2956" lon="6.20432">
        <ele>307</ele>
        <time>2013-06-19T10:55:10Z</time>
      </trkpt>
      <trkpt lat="47.29551" lon="6.20427">
        <ele>307</ele>
        <time>2013-06-19T10:55:12Z</time>
      </trkpt>
      <trkpt lat="47.29539" lon="6.20423">
        <ele>306</ele>
        <time>2013-06-19T10:55:14Z</time>
      </trkpt>
      <trkpt lat="47.2953" lon="6.20421">
        <ele>306</ele>
        <time>2013-06-19T10:55:16Z</time>
      </trkpt>
      <trkpt lat="47.2952" lon="6.20419">
        <ele>307</ele>
        <time>2013-06-19T10:55:18Z</time>
      </trkpt>
      <trkpt lat="47.29511" lon="6.20416">
        <ele>306</ele>
        <time>2013-06-19T10:55:20Z</time>
      </trkpt>
      <trkpt lat="47.29498" lon="6.20412">
        <ele>306</ele>
        <time>2013-06-19T10:55:23Z</time>
      </trkpt>
      <trkpt lat="47.29485" lon="6.20405">
        <ele>304</ele>
        <time>2013-06-19T10:55:26Z</time>
      </trkpt>
      <trkpt lat="47.29475" lon="6.20403">
        <ele>304</ele>
        <time>2013-06-19T10:55:28Z</time>
      </trkpt>
      <trkpt lat="47.29462" lon="6.20398">
        <ele>304</ele>
        <time>2013-06-19T10:55:31Z</time>
      </trkpt>
      <trkpt lat="47.29453" lon="6.20394">
        <ele>305</ele>
        <time>2013-06-19T10:55:32Z</time>
      </trkpt>
      <trkpt lat="47.29443" lon="6.20392">
        <ele>304</ele>
        <time>2013-06-19T10:55:34Z</time>
      </trkpt>
      <trkpt lat="47.29432" lon="6.20387">
        <ele>303</ele>
        <time>2013-06-19T10:55:36Z</time>
      </trkpt>
      <trkpt lat="47.29422" lon="6.20383">
        <ele>303</ele>
        <time>2013-06-19T10:55:38Z</time>
      </trkpt>
      <trkpt lat="47.29412" lon="6.20381">
        <ele>302</ele>
        <time>2013-06-19T10:55:40Z</time>
      </trkpt>
      <trkpt lat="47.29402" lon="6.20375">
        <ele>302</ele>
        <time>2013-06-19T10:55:42Z</time>
      </trkpt>
      <trkpt lat="47.2939" lon="6.20371">
        <ele>302</ele>
        <time>2013-06-19T10:55:44Z</time>
      </trkpt>
      <trkpt lat="47.2938" lon="6.20367">
        <ele>302</ele>
        <time>2013-06-19T10:55:46Z</time>
      </trkpt>
      <trkpt lat="47.2937" lon="6.20361">
        <ele>302</ele>
        <time>2013-06-19T10:55:48Z</time>
      </trkpt>
      <trkpt lat="47.29358" lon="6.20355">
        <ele>301</ele>
        <time>2013-06-19T10:55:50Z</time>
      </trkpt>
      <trkpt lat="47.29347" lon="6.20348">
        <ele>300</ele>
        <time>2013-06-19T10:55:53Z</time>
      </trkpt>
      <trkpt lat="47.29335" lon="6.20343">
        <ele>300</ele>
        <time>2013-06-19T10:55:54Z</time>
      </trkpt>
      <trkpt lat="47.29325" lon="6.20338">
        <ele>301</ele>
        <time>2013-06-19T10:55:56Z</time>
      </trkpt>
      <trkpt lat="47.29313" lon="6.20333">
        <ele>302</ele>
        <time>2013-06-19T10:55:58Z</time>
      </trkpt>
      <trkpt lat="47.29301" lon="6.20322">
        <ele>303</ele>
        <time>2013-06-19T10:56:00Z</time>
      </trkpt>
      <trkpt lat="47.29287" lon="6.20315">
        <ele>303</ele>
        <time>2013-06-19T10:56:02Z</time>
      </trkpt>
      <trkpt lat="47.29274" lon="6.20306">
        <ele>303</ele>
        <time>2013-06-19T10:56:04Z</time>
      </trkpt>
      <trkpt lat="47.29263" lon="6.20298">
        <ele>305</ele>
        <time>2013-06-19T10:56:06Z</time>
      </trkpt>
      <trkpt lat="47.29252" lon="6.203">
        <ele>306</ele>
        <time>2013-06-19T10:56:09Z</time>
      </trkpt>
      <trkpt lat="47.29248" lon="6.20317">
        <ele>306</ele>
        <time>2013-06-19T10:56:12Z</time>
      </trkpt>
      <trkpt lat="47.29237" lon="6.20319">
        <ele>305</ele>
        <time>2013-06-19T10:56:16Z</time>
      </trkpt>
      <trkpt lat="47.29225" lon="6.20313">
        <ele>304</ele>
        <time>2013-06-19T10:56:17Z</time>
      </trkpt>
      <trkpt lat="47.29213" lon="6.20306">
        <ele>302</ele>
        <time>2013-06-19T10:56:19Z</time>
      </trkpt>
      <trkpt lat="47.29202" lon="6.20297">
        <ele>301</ele>
        <time>2013-06-19T10:56:21Z</time>
      </trkpt>
      <trkpt lat="47.29189" lon="6.20288">
        <ele>300</ele>
        <time>2013-06-19T10:56:23Z</time>
      </trkpt>
      <trkpt lat="47.29178" lon="6.2028">
        <ele>300</ele>
        <time>2013-06-19T10:56:25Z</time>
      </trkpt>
      <trkpt lat="47.29166" lon="6.20273">
        <ele>301</ele>
        <time>2013-06-19T10:56:28Z</time>
      </trkpt>
      <trkpt lat="47.29153" lon="6.20265">
        <ele>300</ele>
        <time>2013-06-19T10:56:29Z</time>
      </trkpt>
      <trkpt lat="47.29141" lon="6.20263">
        <ele>298</ele>
        <time>2013-06-19T10:56:31Z</time>
      </trkpt>
      <trkpt lat="47.29127" lon="6.20266">
        <ele>298</ele>
        <time>2013-06-19T10:56:33Z</time>
      </trkpt>
      <trkpt lat="47.29114" lon="6.20268">
        <ele>298</ele>
        <time>2013-06-19T10:56:35Z</time>
      </trkpt>
      <trkpt lat="47.29101" lon="6.20269">
        <ele>298</ele>
        <time>2013-06-19T10:56:37Z</time>
      </trkpt>
      <trkpt lat="47.29088" lon="6.20267">
        <ele>299</ele>
        <time>2013-06-19T10:56:40Z</time>
      </trkpt>
      <trkpt lat="47.29078" lon="6.2026">
        <ele>299</ele>
        <time>2013-06-19T10:56:41Z</time>
      </trkpt>
      <trkpt lat="47.2907" lon="6.20248">
        <ele>301</ele>
        <time>2013-06-19T10:56:43Z</time>
      </trkpt>
      <trkpt lat="47.29061" lon="6.20234">
        <ele>302</ele>
        <time>2013-06-19T10:56:45Z</time>
      </trkpt>
      <trkpt lat="47.29055" lon="6.20218">
        <ele>302</ele>
        <time>2013-06-19T10:56:47Z</time>
      </trkpt>
      <trkpt lat="47.29051" lon="6.202">
        <ele>304</ele>
        <time>2013-06-19T10:56:49Z</time>
      </trkpt>
      <trkpt lat="47.29044" lon="6.20184">
        <ele>303</ele>
        <time>2013-06-19T10:56:51Z</time>
      </trkpt>
      <trkpt lat="47.29037" lon="6.20168">
        <ele>304</ele>
        <time>2013-06-19T10:56:53Z</time>
      </trkpt>
      <trkpt lat="47.2903" lon="6.20153">
        <ele>304</ele>
        <time>2013-06-19T10:56:55Z</time>
      </trkpt>
      <trkpt lat="47.29024" lon="6.20138">
        <ele>306</ele>
        <time>2013-06-19T10:56:56Z</time>
      </trkpt>
      <trkpt lat="47.29017" lon="6.20125">
        <ele>305</ele>
        <time>2013-06-19T10:56:58Z</time>
      </trkpt>
      <trkpt lat="47.2901" lon="6.20112">
        <ele>306</ele>
        <time>2013-06-19T10:57:00Z</time>
      </trkpt>
      <trkpt lat="47.29005" lon="6.20097">
        <ele>305</ele>
        <time>2013-06-19T10:57:02Z</time>
      </trkpt>
      <trkpt lat="47.29004" lon="6.20079">
        <ele>304</ele>
        <time>2013-06-19T10:57:04Z</time>
      </trkpt>
      <trkpt lat="47.29004" lon="6.20064">
        <ele>305</ele>
        <time>2013-06-19T10:57:07Z</time>
      </trkpt>
      <trkpt lat="47.28994" lon="6.20059">
        <ele>308</ele>
        <time>2013-06-19T10:57:08Z</time>
      </trkpt>
      <trkpt lat="47.28993" lon="6.20042">
        <ele>308</ele>
        <time>2013-06-19T10:57:13Z</time>
      </trkpt>
      <trkpt lat="47.28992" lon="6.20025">
        <ele>309</ele>
        <time>2013-06-19T10:57:17Z</time>
      </trkpt>
      <trkpt lat="47.28987" lon="6.20013">
        <ele>309</ele>
        <time>2013-06-19T10:57:21Z</time>
      </trkpt>
      <trkpt lat="47.2898" lon="6.19996">
        <ele>310</ele>
        <time>2013-06-19T10:57:24Z</time>
      </trkpt>
      <trkpt lat="47.28953" lon="6.19973">
        <ele>306</ele>
        <time>2013-06-19T10:57:25Z</time>
      </trkpt>
      <trkpt lat="47.28946" lon="6.19961">
        <ele>308</ele>
        <time>2013-06-19T10:57:26Z</time>
      </trkpt>
      <trkpt lat="47.28943" lon="6.19946">
        <ele>308</ele>
        <time>2013-06-19T10:57:27Z</time>
      </trkpt>
      <trkpt lat="47.28936" lon="6.1992">
        <ele>306</ele>
        <time>2013-06-19T10:57:29Z</time>
      </trkpt>
      <trkpt lat="47.28933" lon="6.19901">
        <ele>305</ele>
        <time>2013-06-19T10:57:31Z</time>
      </trkpt>
      <trkpt lat="47.28926" lon="6.1988">
        <ele>304</ele>
        <time>2013-06-19T10:57:33Z</time>
      </trkpt>
      <trkpt lat="47.28922" lon="6.19852">
        <ele>306</ele>
        <time>2013-06-19T10:57:35Z</time>
      </trkpt>
      <trkpt lat="47.28921" lon="6.19829">
        <ele>307</ele>
        <time>2013-06-19T10:57:37Z</time>
      </trkpt>
      <trkpt lat="47.28915" lon="6.19815">
        <ele>309</ele>
        <time>2013-06-19T10:57:39Z</time>
      </trkpt>
      <trkpt lat="47.2891" lon="6.19803">
        <ele>312</ele>
        <time>2013-06-19T10:57:40Z</time>
      </trkpt>
      <trkpt lat="47.28906" lon="6.1979">
        <ele>312</ele>
        <time>2013-06-19T10:57:42Z</time>
      </trkpt>
      <trkpt lat="47.28904" lon="6.19776">
        <ele>312</ele>
        <time>2013-06-19T10:57:44Z</time>
      </trkpt>
      <trkpt lat="47.28903" lon="6.19747">
        <ele>316</ele>
        <time>2013-06-19T10:57:47Z</time>
      </trkpt>
      <trkpt lat="47.28898" lon="6.19734">
        <ele>318</ele>
        <time>2013-06-19T10:57:51Z</time>
      </trkpt>
      <trkpt lat="47.28902" lon="6.19722">
        <ele>314</ele>
        <time>2013-06-19T11:00:15Z</time>
      </trkpt>
      <trkpt lat="47.28903" lon="6.19709">
        <ele>312</ele>
        <time>2013-06-19T11:00:18Z</time>
      </trkpt>
      <trkpt lat="47.28902" lon="6.19694">
        <ele>309</ele>
        <time>2013-06-19T11:00:21Z</time>
      </trkpt>
      <trkpt lat="47.28899" lon="6.19681">
        <ele>309</ele>
        <time>2013-06-19T11:00:24Z</time>
      </trkpt>
      <trkpt lat="47.28895" lon="6.19664">
        <ele>308</ele>
        <time>2013-06-19T11:00:26Z</time>
      </trkpt>
      <trkpt lat="47.28893" lon="6.19643">
        <ele>316</ele>
        <time>2013-06-19T11:00:29Z</time>
      </trkpt>
      <trkpt lat="47.28892" lon="6.19627">
        <ele>316</ele>
        <time>2013-06-19T11:00:32Z</time>
      </trkpt>
      <trkpt lat="47.2889" lon="6.19607">
        <ele>317</ele>
        <time>2013-06-19T11:00:34Z</time>
      </trkpt>
      <trkpt lat="47.28892" lon="6.19589">
        <ele>317</ele>
        <time>2013-06-19T11:00:36Z</time>
      </trkpt>
      <trkpt lat="47.28893" lon="6.19566">
        <ele>315</ele>
        <time>2013-06-19T11:00:38Z</time>
      </trkpt>
      <trkpt lat="47.2889" lon="6.19551">
        <ele>315</ele>
        <time>2013-06-19T11:00:40Z</time>
      </trkpt>
      <trkpt lat="47.28886" lon="6.19531">
        <ele>319</ele>
        <time>2013-06-19T11:00:43Z</time>
      </trkpt>
      <trkpt lat="47.28884" lon="6.19511">
        <ele>320</ele>
        <time>2013-06-19T11:00:45Z</time>
      </trkpt>
      <trkpt lat="47.28882" lon="6.19494">
        <ele>317</ele>
        <time>2013-06-19T11:00:47Z</time>
      </trkpt>
      <trkpt lat="47.28881" lon="6.19474">
        <ele>316</ele>
        <time>2013-06-19T11:00:49Z</time>
      </trkpt>
      <trkpt lat="47.28879" lon="6.19458">
        <ele>315</ele>
        <time>2013-06-19T11:00:51Z</time>
      </trkpt>
      <trkpt lat="47.28881" lon="6.19433">
        <ele>313</ele>
        <time>2013-06-19T11:00:53Z</time>
      </trkpt>
      <trkpt lat="47.2888" lon="6.19415">
        <ele>312</ele>
        <time>2013-06-19T11:00:56Z</time>
      </trkpt>
      <trkpt lat="47.28881" lon="6.19397">
        <ele>314</ele>
        <time>2013-06-19T11:00:57Z</time>
      </trkpt>
      <trkpt lat="47.28882" lon="6.19383">
        <ele>313</ele>
        <time>2013-06-19T11:00:58Z</time>
      </trkpt>
      <trkpt lat="47.2888" lon="6.19364">
        <ele>311</ele>
        <time>2013-06-19T11:01:00Z</time>
      </trkpt>
      <trkpt lat="47.2888" lon="6.19341">
        <ele>310</ele>
        <time>2013-06-19T11:01:02Z</time>
      </trkpt>
      <trkpt lat="47.28878" lon="6.19324">
        <ele>310</ele>
        <time>2013-06-19T11:01:04Z</time>
      </trkpt>
      <trkpt lat="47.28878" lon="6.19305">
        <ele>310</ele>
        <time>2013-06-19T11:01:07Z</time>
      </trkpt>
      <trkpt lat="47.28875" lon="6.19288">
        <ele>309</ele>
        <time>2013-06-19T11:01:08Z</time>
      </trkpt>
      <trkpt lat="47.28875" lon="6.19266">
        <ele>310</ele>
        <time>2013-06-19T11:01:10Z</time>
      </trkpt>
      <trkpt lat="47.28875" lon="6.19242">
        <ele>307</ele>
        <time>2013-06-19T11:01:12Z</time>
      </trkpt>
      <trkpt lat="47.2887" lon="6.19227">
        <ele>311</ele>
        <time>2013-06-19T11:01:14Z</time>
      </trkpt>
      <trkpt lat="47.28868" lon="6.19205">
        <ele>314</ele>
        <time>2013-06-19T11:01:16Z</time>
      </trkpt>
      <trkpt lat="47.28869" lon="6.19172">
        <ele>311</ele>
        <time>2013-06-19T11:01:19Z</time>
      </trkpt>
      <trkpt lat="47.28869" lon="6.19151">
        <ele>310</ele>
        <time>2013-06-19T11:01:21Z</time>
      </trkpt>
      <trkpt lat="47.28867" lon="6.1913">
        <ele>310</ele>
        <time>2013-06-19T11:01:23Z</time>
      </trkpt>
      <trkpt lat="47.28866" lon="6.19112">
        <ele>311</ele>
        <time>2013-06-19T11:01:25Z</time>
      </trkpt>
      <trkpt lat="47.28867" lon="6.19091">
        <ele>310</ele>
        <time>2013-06-19T11:01:27Z</time>
      </trkpt>
      <trkpt lat="47.28869" lon="6.19064">
        <ele>309</ele>
        <time>2013-06-19T11:01:29Z</time>
      </trkpt>
      <trkpt lat="47.2887" lon="6.19042">
        <ele>308</ele>
        <time>2013-06-19T11:01:31Z</time>
      </trkpt>
      <trkpt lat="47.28871" lon="6.19021">
        <ele>308</ele>
        <time>2013-06-19T11:01:33Z</time>
      </trkpt>
      <trkpt lat="47.28874" lon="6.19008">
        <ele>309</ele>
        <time>2013-06-19T11:01:34Z</time>
      </trkpt>
      <trkpt lat="47.28877" lon="6.18987">
        <ele>309</ele>
        <time>2013-06-19T11:01:36Z</time>
      </trkpt>
      <trkpt lat="47.28881" lon="6.18962">
        <ele>307</ele>
        <time>2013-06-19T11:01:38Z</time>
      </trkpt>
      <trkpt lat="47.28883" lon="6.1895">
        <ele>307</ele>
        <time>2013-06-19T11:01:39Z</time>
      </trkpt>
      <trkpt lat="47.28886" lon="6.18928">
        <ele>306</ele>
        <time>2013-06-19T11:01:41Z</time>
      </trkpt>
      <trkpt lat="47.2889" lon="6.18906">
        <ele>304</ele>
        <time>2013-06-19T11:01:43Z</time>
      </trkpt>
      <trkpt lat="47.28892" lon="6.18888">
        <ele>306</ele>
        <time>2013-06-19T11:01:45Z</time>
      </trkpt>
      <trkpt lat="47.28896" lon="6.18864">
        <ele>304</ele>
        <time>2013-06-19T11:01:47Z</time>
      </trkpt>
      <trkpt lat="47.28899" lon="6.18843">
        <ele>303</ele>
        <time>2013-06-19T11:01:49Z</time>
      </trkpt>
      <trkpt lat="47.28904" lon="6.18823">
        <ele>303</ele>
        <time>2013-06-19T11:01:51Z</time>
      </trkpt>
      <trkpt lat="47.28909" lon="6.18802">
        <ele>304</ele>
        <time>2013-06-19T11:01:53Z</time>
      </trkpt>
      <trkpt lat="47.28913" lon="6.18782">
        <ele>305</ele>
        <time>2013-06-19T11:01:55Z</time>
      </trkpt>
      <trkpt lat="47.28917" lon="6.18765">
        <ele>305</ele>
        <time>2013-06-19T11:01:57Z</time>
      </trkpt>
      <trkpt lat="47.2892" lon="6.18749">
        <ele>304</ele>
        <time>2013-06-19T11:01:59Z</time>
      </trkpt>
      <trkpt lat="47.28925" lon="6.1873">
        <ele>303</ele>
        <time>2013-06-19T11:02:01Z</time>
      </trkpt>
      <trkpt lat="47.28928" lon="6.18713">
        <ele>302</ele>
        <time>2013-06-19T11:02:03Z</time>
      </trkpt>
      <trkpt lat="47.28934" lon="6.18693">
        <ele>303</ele>
        <time>2013-06-19T11:02:05Z</time>
      </trkpt>
      <trkpt lat="47.28938" lon="6.18673">
        <ele>302</ele>
        <time>2013-06-19T11:02:07Z</time>
      </trkpt>
      <trkpt lat="47.28941" lon="6.18658">
        <ele>304</ele>
        <time>2013-06-19T11:02:09Z</time>
      </trkpt>
      <trkpt lat="47.28946" lon="6.18641">
        <ele>304</ele>
        <time>2013-06-19T11:02:11Z</time>
      </trkpt>
      <trkpt lat="47.2895" lon="6.18626">
        <ele>304</ele>
        <time>2013-06-19T11:02:13Z</time>
      </trkpt>
      <trkpt lat="47.28953" lon="6.18611">
        <ele>304</ele>
        <time>2013-06-19T11:02:15Z</time>
      </trkpt>
      <trkpt lat="47.28957" lon="6.18597">
        <ele>304</ele>
        <time>2013-06-19T11:02:17Z</time>
      </trkpt>
      <trkpt lat="47.28963" lon="6.18575">
        <ele>302</ele>
        <time>2013-06-19T11:02:19Z</time>
      </trkpt>
      <trkpt lat="47.28968" lon="6.18558">
        <ele>301</ele>
        <time>2013-06-19T11:02:21Z</time>
      </trkpt>
      <trkpt lat="47.28973" lon="6.18541">
        <ele>301</ele>
        <time>2013-06-19T11:02:23Z</time>
      </trkpt>
      <trkpt lat="47.28978" lon="6.18523">
        <ele>302</ele>
        <time>2013-06-19T11:02:24Z</time>
      </trkpt>
      <trkpt lat="47.28983" lon="6.18505">
        <ele>302</ele>
        <time>2013-06-19T11:02:26Z</time>
      </trkpt>
      <trkpt lat="47.28988" lon="6.18487">
        <ele>302</ele>
        <time>2013-06-19T11:02:28Z</time>
      </trkpt>
      <trkpt lat="47.28994" lon="6.18469">
        <ele>300</ele>
        <time>2013-06-19T11:02:30Z</time>
      </trkpt>
      <trkpt lat="47.28999" lon="6.1845">
        <ele>300</ele>
        <time>2013-06-19T11:02:32Z</time>
      </trkpt>
      <trkpt lat="47.29004" lon="6.18434">
        <ele>300</ele>
        <time>2013-06-19T11:02:35Z</time>
      </trkpt>
      <trkpt lat="47.29008" lon="6.18417">
        <ele>301</ele>
        <time>2013-06-19T11:02:36Z</time>
      </trkpt>
      <trkpt lat="47.29012" lon="6.18402">
        <ele>301</ele>
        <time>2013-06-19T11:02:38Z</time>
      </trkpt>
      <trkpt lat="47.29017" lon="6.18384">
        <ele>301</ele>
        <time>2013-06-19T11:02:40Z</time>
      </trkpt>
      <trkpt lat="47.29022" lon="6.18367">
        <ele>300</ele>
        <time>2013-06-19T11:02:42Z</time>
      </trkpt>
      <trkpt lat="47.29028" lon="6.1835">
        <ele>300</ele>
        <time>2013-06-19T11:02:44Z</time>
      </trkpt>
      <trkpt lat="47.29033" lon="6.18332">
        <ele>300</ele>
        <time>2013-06-19T11:02:46Z</time>
      </trkpt>
      <trkpt lat="47.29038" lon="6.18316">
        <ele>300</ele>
        <time>2013-06-19T11:02:48Z</time>
      </trkpt>
      <trkpt lat="47.29043" lon="6.18299">
        <ele>300</ele>
        <time>2013-06-19T11:02:50Z</time>
      </trkpt>
      <trkpt lat="47.29047" lon="6.18283">
        <ele>300</ele>
        <time>2013-06-19T11:02:52Z</time>
      </trkpt>
      <trkpt lat="47.2905" lon="6.18265">
        <ele>300</ele>
        <time>2013-06-19T11:02:54Z</time>
      </trkpt>
      <trkpt lat="47.29054" lon="6.18248">
        <ele>301</ele>
        <time>2013-06-19T11:02:57Z</time>
      </trkpt>
      <trkpt lat="47.29058" lon="6.18231">
        <ele>302</ele>
        <time>2013-06-19T11:02:58Z</time>
      </trkpt>
      <trkpt lat="47.29062" lon="6.18212">
        <ele>302</ele>
        <time>2013-06-19T11:03:00Z</time>
      </trkpt>
      <trkpt lat="47.29066" lon="6.18194">
        <ele>303</ele>
        <time>2013-06-19T11:03:02Z</time>
      </trkpt>
      <trkpt lat="47.29069" lon="6.18177">
        <ele>302</ele>
        <time>2013-06-19T11:03:04Z</time>
      </trkpt>
      <trkpt lat="47.29071" lon="6.1816">
        <ele>302</ele>
        <time>2013-06-19T11:03:06Z</time>
      </trkpt>
      <trkpt lat="47.29074" lon="6.18133">
        <ele>303</ele>
        <time>2013-06-19T11:03:10Z</time>
      </trkpt>
      <trkpt lat="47.29076" lon="6.18114">
        <ele>303</ele>
        <time>2013-06-19T11:03:12Z</time>
      </trkpt>
      <trkpt lat="47.29077" lon="6.18098">
        <ele>303</ele>
        <time>2013-06-19T11:03:14Z</time>
      </trkpt>
      <trkpt lat="47.29076" lon="6.18079">
        <ele>305</ele>
        <time>2013-06-19T11:03:17Z</time>
      </trkpt>
      <trkpt lat="47.29076" lon="6.18064">
        <ele>306</ele>
        <time>2013-06-19T11:03:19Z</time>
      </trkpt>
      <trkpt lat="47.29075" lon="6.18043">
        <ele>308</ele>
        <time>2013-06-19T11:03:22Z</time>
      </trkpt>
      <trkpt lat="47.2907" lon="6.18027">
        <ele>307</ele>
        <time>2013-06-19T11:03:24Z</time>
      </trkpt>
      <trkpt lat="47.29069" lon="6.18007">
        <ele>306</ele>
        <time>2013-06-19T11:03:26Z</time>
      </trkpt>
      <trkpt lat="47.29068" lon="6.1799">
        <ele>307</ele>
        <time>2013-06-19T11:03:28Z</time>
      </trkpt>
      <trkpt lat="47.29066" lon="6.17972">
        <ele>306</ele>
        <time>2013-06-19T11:03:30Z</time>
      </trkpt>
      <trkpt lat="47.29063" lon="6.17951">
        <ele>306</ele>
        <time>2013-06-19T11:03:33Z</time>
      </trkpt>
      <trkpt lat="47.29063" lon="6.17927">
        <ele>305</ele>
        <time>2013-06-19T11:03:34Z</time>
      </trkpt>
      <trkpt lat="47.29062" lon="6.17911">
        <ele>305</ele>
        <time>2013-06-19T11:03:36Z</time>
      </trkpt>
      <trkpt lat="47.2906" lon="6.17894">
        <ele>303</ele>
        <time>2013-06-19T11:03:38Z</time>
      </trkpt>
      <trkpt lat="47.29058" lon="6.17878">
        <ele>303</ele>
        <time>2013-06-19T11:03:40Z</time>
      </trkpt>
      <trkpt lat="47.29056" lon="6.1786">
        <ele>303</ele>
        <time>2013-06-19T11:03:42Z</time>
      </trkpt>
      <trkpt lat="47.29051" lon="6.17844">
        <ele>305</ele>
        <time>2013-06-19T11:03:44Z</time>
      </trkpt>
      <trkpt lat="47.29047" lon="6.17826">
        <ele>306</ele>
        <time>2013-06-19T11:03:46Z</time>
      </trkpt>
      <trkpt lat="47.29045" lon="6.17806">
        <ele>305</ele>
        <time>2013-06-19T11:03:48Z</time>
      </trkpt>
      <trkpt lat="47.29044" lon="6.17793">
        <ele>304</ele>
        <time>2013-06-19T11:03:49Z</time>
      </trkpt>
      <trkpt lat="47.29042" lon="6.17776">
        <ele>304</ele>
        <time>2013-06-19T11:03:51Z</time>
      </trkpt>
      <trkpt lat="47.29039" lon="6.17757">
        <ele>305</ele>
        <time>2013-06-19T11:03:53Z</time>
      </trkpt>
      <trkpt lat="47.29035" lon="6.17742">
        <ele>305</ele>
        <time>2013-06-19T11:03:55Z</time>
      </trkpt>
      <trkpt lat="47.29034" lon="6.17725">
        <ele>304</ele>
        <time>2013-06-19T11:03:56Z</time>
      </trkpt>
      <trkpt lat="47.2903" lon="6.17708">
        <ele>303</ele>
        <time>2013-06-19T11:03:58Z</time>
      </trkpt>
      <trkpt lat="47.29027" lon="6.1769">
        <ele>301</ele>
        <time>2013-06-19T11:04:00Z</time>
      </trkpt>
      <trkpt lat="47.29022" lon="6.17675">
        <ele>302</ele>
        <time>2013-06-19T11:04:02Z</time>
      </trkpt>
      <trkpt lat="47.29016" lon="6.17661">
        <ele>303</ele>
        <time>2013-06-19T11:04:04Z</time>
      </trkpt>
      <trkpt lat="47.29008" lon="6.17648">
        <ele>303</ele>
        <time>2013-06-19T11:04:06Z</time>
      </trkpt>
      <trkpt lat="47.29002" lon="6.17633">
        <ele>304</ele>
        <time>2013-06-19T11:04:08Z</time>
      </trkpt>
      <trkpt lat="47.28997" lon="6.17618">
        <ele>304</ele>
        <time>2013-06-19T11:04:10Z</time>
      </trkpt>
      <trkpt lat="47.28992" lon="6.17604">
        <ele>304</ele>
        <time>2013-06-19T11:04:12Z</time>
      </trkpt>
      <trkpt lat="47.28997" lon="6.17584">
        <ele>302</ele>
        <time>2013-06-19T11:04:14Z</time>
      </trkpt>
      <trkpt lat="47.29007" lon="6.17576">
        <ele>301</ele>
        <time>2013-06-19T11:04:17Z</time>
      </trkpt>
      <trkpt lat="47.29012" lon="6.17562">
        <ele>298</ele>
        <time>2013-06-19T11:04:18Z</time>
      </trkpt>
      <trkpt lat="47.29008" lon="6.17547">
        <ele>298</ele>
        <time>2013-06-19T11:04:20Z</time>
      </trkpt>
      <trkpt lat="47.29001" lon="6.17529">
        <ele>296</ele>
        <time>2013-06-19T11:04:22Z</time>
      </trkpt>
      <trkpt lat="47.28992" lon="6.17516">
        <ele>296</ele>
        <time>2013-06-19T11:04:24Z</time>
      </trkpt>
      <trkpt lat="47.28984" lon="6.17503">
        <ele>296</ele>
        <time>2013-06-19T11:04:26Z</time>
      </trkpt>
      <trkpt lat="47.28976" lon="6.17491">
        <ele>297</ele>
        <time>2013-06-19T11:04:28Z</time>
      </trkpt>
      <trkpt lat="47.28972" lon="6.17476">
        <ele>297</ele>
        <time>2013-06-19T11:04:31Z</time>
      </trkpt>
      <trkpt lat="47.2897" lon="6.17459">
        <ele>298</ele>
        <time>2013-06-19T11:04:32Z</time>
      </trkpt>
      <trkpt lat="47.28967" lon="6.17443">
        <ele>299</ele>
        <time>2013-06-19T11:04:34Z</time>
      </trkpt>
      <trkpt lat="47.28966" lon="6.17425">
        <ele>299</ele>
        <time>2013-06-19T11:04:36Z</time>
      </trkpt>
      <trkpt lat="47.28964" lon="6.17405">
        <ele>300</ele>
        <time>2013-06-19T11:04:39Z</time>
      </trkpt>
      <trkpt lat="47.28962" lon="6.17384">
        <ele>300</ele>
        <time>2013-06-19T11:04:40Z</time>
      </trkpt>
      <trkpt lat="47.28959" lon="6.17363">
        <ele>299</ele>
        <time>2013-06-19T11:04:42Z</time>
      </trkpt>
      <trkpt lat="47.28959" lon="6.17338">
        <ele>298</ele>
        <time>2013-06-19T11:04:44Z</time>
      </trkpt>
      <trkpt lat="47.2896" lon="6.1731">
        <ele>297</ele>
        <time>2013-06-19T11:04:46Z</time>
      </trkpt>
      <trkpt lat="47.28959" lon="6.17288">
        <ele>298</ele>
        <time>2013-06-19T11:04:48Z</time>
      </trkpt>
      <trkpt lat="47.28955" lon="6.17264">
        <ele>296</ele>
        <time>2013-06-19T11:04:50Z</time>
      </trkpt>
      <trkpt lat="47.28955" lon="6.17251">
        <ele>296</ele>
        <time>2013-06-19T11:04:51Z</time>
      </trkpt>
      <trkpt lat="47.28953" lon="6.17227">
        <ele>297</ele>
        <time>2013-06-19T11:04:53Z</time>
      </trkpt>
      <trkpt lat="47.28952" lon="6.17213">
        <ele>297</ele>
        <time>2013-06-19T11:04:54Z</time>
      </trkpt>
      <trkpt lat="47.28951" lon="6.17189">
        <ele>298</ele>
        <time>2013-06-19T11:04:56Z</time>
      </trkpt>
      <trkpt lat="47.2895" lon="6.17165">
        <ele>297</ele>
        <time>2013-06-19T11:04:58Z</time>
      </trkpt>
      <trkpt lat="47.2895" lon="6.17152">
        <ele>297</ele>
        <time>2013-06-19T11:04:59Z</time>
      </trkpt>
      <trkpt lat="47.28949" lon="6.17128">
        <ele>296</ele>
        <time>2013-06-19T11:05:01Z</time>
      </trkpt>
      <trkpt lat="47.28948" lon="6.17114">
        <ele>296</ele>
        <time>2013-06-19T11:05:02Z</time>
      </trkpt>
      <trkpt lat="47.28948" lon="6.17099">
        <ele>295</ele>
        <time>2013-06-19T11:05:03Z</time>
      </trkpt>
      <trkpt lat="47.28946" lon="6.17074">
        <ele>294</ele>
        <time>2013-06-19T11:05:05Z</time>
      </trkpt>
      <trkpt lat="47.28944" lon="6.17049">
        <ele>294</ele>
        <time>2013-06-19T11:05:07Z</time>
      </trkpt>
      <trkpt lat="47.28942" lon="6.17027">
        <ele>294</ele>
        <time>2013-06-19T11:05:09Z</time>
      </trkpt>
      <trkpt lat="47.28939" lon="6.17005">
        <ele>293</ele>
        <time>2013-06-19T11:05:12Z</time>
      </trkpt>
      <trkpt lat="47.28938" lon="6.16984">
        <ele>293</ele>
        <time>2013-06-19T11:05:13Z</time>
      </trkpt>
      <trkpt lat="47.28936" lon="6.1696">
        <ele>293</ele>
        <time>2013-06-19T11:05:15Z</time>
      </trkpt>
      <trkpt lat="47.28935" lon="6.16939">
        <ele>294</ele>
        <time>2013-06-19T11:05:17Z</time>
      </trkpt>
      <trkpt lat="47.28935" lon="6.16919">
        <ele>295</ele>
        <time>2013-06-19T11:05:19Z</time>
      </trkpt>
      <trkpt lat="47.28932" lon="6.16899">
        <ele>294</ele>
        <time>2013-06-19T11:05:21Z</time>
      </trkpt>
      <trkpt lat="47.2893" lon="6.16879">
        <ele>293</ele>
        <time>2013-06-19T11:05:23Z</time>
      </trkpt>
      <trkpt lat="47.28931" lon="6.16855">
        <ele>292</ele>
        <time>2013-06-19T11:05:25Z</time>
      </trkpt>
      <trkpt lat="47.2893" lon="6.16837">
        <ele>292</ele>
        <time>2013-06-19T11:05:27Z</time>
      </trkpt>
      <trkpt lat="47.28927" lon="6.16816">
        <ele>292</ele>
        <time>2013-06-19T11:05:29Z</time>
      </trkpt>
      <trkpt lat="47.28927" lon="6.16794">
        <ele>291</ele>
        <time>2013-06-19T11:05:31Z</time>
      </trkpt>
      <trkpt lat="47.28925" lon="6.16773">
        <ele>291</ele>
        <time>2013-06-19T11:05:34Z</time>
      </trkpt>
      <trkpt lat="47.28925" lon="6.16752">
        <ele>292</ele>
        <time>2013-06-19T11:05:35Z</time>
      </trkpt>
      <trkpt lat="47.28923" lon="6.16732">
        <ele>292</ele>
        <time>2013-06-19T11:05:37Z</time>
      </trkpt>
      <trkpt lat="47.28923" lon="6.16709">
        <ele>290</ele>
        <time>2013-06-19T11:05:39Z</time>
      </trkpt>
      <trkpt lat="47.28923" lon="6.16688">
        <ele>289</ele>
        <time>2013-06-19T11:05:41Z</time>
      </trkpt>
      <trkpt lat="47.28922" lon="6.16666">
        <ele>289</ele>
        <time>2013-06-19T11:05:43Z</time>
      </trkpt>
      <trkpt lat="47.28922" lon="6.16645">
        <ele>290</ele>
        <time>2013-06-19T11:05:47Z</time>
      </trkpt>
      <trkpt lat="47.2892" lon="6.16624">
        <ele>291</ele>
        <time>2013-06-19T11:05:49Z</time>
      </trkpt>
      <trkpt lat="47.28919" lon="6.16603">
        <ele>288</ele>
        <time>2013-06-19T11:05:51Z</time>
      </trkpt>
      <trkpt lat="47.28917" lon="6.16581">
        <ele>288</ele>
        <time>2013-06-19T11:05:53Z</time>
      </trkpt>
      <trkpt lat="47.28916" lon="6.16557">
        <ele>288</ele>
        <time>2013-06-19T11:05:55Z</time>
      </trkpt>
      <trkpt lat="47.28914" lon="6.16534">
        <ele>289</ele>
        <time>2013-06-19T11:05:57Z</time>
      </trkpt>
      <trkpt lat="47.28912" lon="6.16513">
        <ele>288</ele>
        <time>2013-06-19T11:05:59Z</time>
      </trkpt>
      <trkpt lat="47.2891" lon="6.1649">
        <ele>287</ele>
        <time>2013-06-19T11:06:01Z</time>
      </trkpt>
      <trkpt lat="47.28909" lon="6.16468">
        <ele>287</ele>
        <time>2013-06-19T11:06:03Z</time>
      </trkpt>
      <trkpt lat="47.28907" lon="6.16445">
        <ele>287</ele>
        <time>2013-06-19T11:06:05Z</time>
      </trkpt>
      <trkpt lat="47.28905" lon="6.16422">
        <ele>287</ele>
        <time>2013-06-19T11:06:07Z</time>
      </trkpt>
      <trkpt lat="47.28902" lon="6.16402">
        <ele>289</ele>
        <time>2013-06-19T11:06:09Z</time>
      </trkpt>
      <trkpt lat="47.28901" lon="6.1638">
        <ele>289</ele>
        <time>2013-06-19T11:06:11Z</time>
      </trkpt>
      <trkpt lat="47.28897" lon="6.1636">
        <ele>292</ele>
        <time>2013-06-19T11:06:13Z</time>
      </trkpt>
      <trkpt lat="47.28898" lon="6.16347">
        <ele>290</ele>
        <time>2013-06-19T11:06:14Z</time>
      </trkpt>
      <trkpt lat="47.28894" lon="6.16326">
        <ele>289</ele>
        <time>2013-06-19T11:06:16Z</time>
      </trkpt>
      <trkpt lat="47.2889" lon="6.16306">
        <ele>291</ele>
        <time>2013-06-19T11:06:18Z</time>
      </trkpt>
      <trkpt lat="47.28887" lon="6.16283">
        <ele>291</ele>
        <time>2013-06-19T11:06:20Z</time>
      </trkpt>
      <trkpt lat="47.28886" lon="6.16262">
        <ele>292</ele>
        <time>2013-06-19T11:06:22Z</time>
      </trkpt>
      <trkpt lat="47.28883" lon="6.1624">
        <ele>292</ele>
        <time>2013-06-19T11:06:24Z</time>
      </trkpt>
      <trkpt lat="47.2888" lon="6.16217">
        <ele>289</ele>
        <time>2013-06-19T11:06:26Z</time>
      </trkpt>
      <trkpt lat="47.28878" lon="6.16196">
        <ele>287</ele>
        <time>2013-06-19T11:06:28Z</time>
      </trkpt>
      <trkpt lat="47.28875" lon="6.16176">
        <ele>288</ele>
        <time>2013-06-19T11:06:31Z</time>
      </trkpt>
      <trkpt lat="47.28872" lon="6.16152">
        <ele>287</ele>
        <time>2013-06-19T11:06:32Z</time>
      </trkpt>
      <trkpt lat="47.2887" lon="6.16132">
        <ele>288</ele>
        <time>2013-06-19T11:06:34Z</time>
      </trkpt>
      <trkpt lat="47.28867" lon="6.16111">
        <ele>288</ele>
        <time>2013-06-19T11:06:36Z</time>
      </trkpt>
      <trkpt lat="47.28865" lon="6.1609">
        <ele>289</ele>
        <time>2013-06-19T11:06:38Z</time>
      </trkpt>
      <trkpt lat="47.28862" lon="6.1607">
        <ele>289</ele>
        <time>2013-06-19T11:06:40Z</time>
      </trkpt>
      <trkpt lat="47.28858" lon="6.16052">
        <ele>290</ele>
        <time>2013-06-19T11:06:42Z</time>
      </trkpt>
      <trkpt lat="47.28855" lon="6.16032">
        <ele>290</ele>
        <time>2013-06-19T11:06:44Z</time>
      </trkpt>
      <trkpt lat="47.28852" lon="6.1601">
        <ele>290</ele>
        <time>2013-06-19T11:06:46Z</time>
      </trkpt>
      <trkpt lat="47.28851" lon="6.15989">
        <ele>290</ele>
        <time>2013-06-19T11:06:48Z</time>
      </trkpt>
      <trkpt lat="47.28848" lon="6.15969">
        <ele>290</ele>
        <time>2013-06-19T11:06:50Z</time>
      </trkpt>
      <trkpt lat="47.28846" lon="6.15952">
        <ele>290</ele>
        <time>2013-06-19T11:06:52Z</time>
      </trkpt>
      <trkpt lat="47.28844" lon="6.15933">
        <ele>290</ele>
        <time>2013-06-19T11:06:53Z</time>
      </trkpt>
      <trkpt lat="47.2884" lon="6.15918">
        <ele>291</ele>
        <time>2013-06-19T11:06:55Z</time>
      </trkpt>
      <trkpt lat="47.28838" lon="6.15901">
        <ele>291</ele>
        <time>2013-06-19T11:06:57Z</time>
      </trkpt>
      <trkpt lat="47.28836" lon="6.15886">
        <ele>292</ele>
        <time>2013-06-19T11:06:59Z</time>
      </trkpt>
      <trkpt lat="47.28831" lon="6.15871">
        <ele>291</ele>
        <time>2013-06-19T11:07:01Z</time>
      </trkpt>
      <trkpt lat="47.28829" lon="6.15855">
        <ele>291</ele>
        <time>2013-06-19T11:07:03Z</time>
      </trkpt>
      <trkpt lat="47.28827" lon="6.15838">
        <ele>292</ele>
        <time>2013-06-19T11:07:05Z</time>
      </trkpt>
      <trkpt lat="47.28825" lon="6.15819">
        <ele>291</ele>
        <time>2013-06-19T11:07:07Z</time>
      </trkpt>
      <trkpt lat="47.28824" lon="6.15802">
        <ele>292</ele>
        <time>2013-06-19T11:07:09Z</time>
      </trkpt>
      <trkpt lat="47.28822" lon="6.15783">
        <ele>291</ele>
        <time>2013-06-19T11:07:11Z</time>
      </trkpt>
      <trkpt lat="47.28821" lon="6.15764">
        <ele>292</ele>
        <time>2013-06-19T11:07:13Z</time>
      </trkpt>
      <trkpt lat="47.28819" lon="6.15745">
        <ele>291</ele>
        <time>2013-06-19T11:07:15Z</time>
      </trkpt>
      <trkpt lat="47.28816" lon="6.1573">
        <ele>292</ele>
        <time>2013-06-19T11:07:17Z</time>
      </trkpt>
      <trkpt lat="47.28815" lon="6.15712">
        <ele>290</ele>
        <time>2013-06-19T11:07:19Z</time>
      </trkpt>
      <trkpt lat="47.28811" lon="6.15694">
        <ele>292</ele>
        <time>2013-06-19T11:07:21Z</time>
      </trkpt>
      <trkpt lat="47.28807" lon="6.15677">
        <ele>293</ele>
        <time>2013-06-19T11:07:23Z</time>
      </trkpt>
      <trkpt lat="47.28803" lon="6.1566">
        <ele>293</ele>
        <time>2013-06-19T11:07:25Z</time>
      </trkpt>
      <trkpt lat="47.288" lon="6.15642">
        <ele>293</ele>
        <time>2013-06-19T11:07:27Z</time>
      </trkpt>
      <trkpt lat="47.28796" lon="6.15624">
        <ele>293</ele>
        <time>2013-06-19T11:07:29Z</time>
      </trkpt>
      <trkpt lat="47.28794" lon="6.15605">
        <ele>292</ele>
        <time>2013-06-19T11:07:31Z</time>
      </trkpt>
      <trkpt lat="47.2879" lon="6.15587">
        <ele>293</ele>
        <time>2013-06-19T11:07:33Z</time>
      </trkpt>
      <trkpt lat="47.28785" lon="6.15569">
        <ele>293</ele>
        <time>2013-06-19T11:07:35Z</time>
      </trkpt>
      <trkpt lat="47.28781" lon="6.15553">
        <ele>294</ele>
        <time>2013-06-19T11:07:37Z</time>
      </trkpt>
      <trkpt lat="47.28778" lon="6.15536">
        <ele>294</ele>
        <time>2013-06-19T11:07:39Z</time>
      </trkpt>
      <trkpt lat="47.28775" lon="6.15517">
        <ele>295</ele>
        <time>2013-06-19T11:07:41Z</time>
      </trkpt>
      <trkpt lat="47.2877" lon="6.155">
        <ele>295</ele>
        <time>2013-06-19T11:07:43Z</time>
      </trkpt>
      <trkpt lat="47.28766" lon="6.15482">
        <ele>295</ele>
        <time>2013-06-19T11:07:45Z</time>
      </trkpt>
      <trkpt lat="47.28762" lon="6.15463">
        <ele>294</ele>
        <time>2013-06-19T11:07:48Z</time>
      </trkpt>
      <trkpt lat="47.28759" lon="6.15443">
        <ele>294</ele>
        <time>2013-06-19T11:07:50Z</time>
      </trkpt>
      <trkpt lat="47.28755" lon="6.15424">
        <ele>293</ele>
        <time>2013-06-19T11:07:52Z</time>
      </trkpt>
      <trkpt lat="47.28752" lon="6.15406">
        <ele>293</ele>
        <time>2013-06-19T11:07:54Z</time>
      </trkpt>
      <trkpt lat="47.28748" lon="6.15391">
        <ele>296</ele>
        <time>2013-06-19T11:07:56Z</time>
      </trkpt>
      <trkpt lat="47.28745" lon="6.15374">
        <ele>296</ele>
        <time>2013-06-19T11:07:58Z</time>
      </trkpt>
      <trkpt lat="47.28741" lon="6.15357">
        <ele>295</ele>
        <time>2013-06-19T11:08:00Z</time>
      </trkpt>
      <trkpt lat="47.28738" lon="6.15339">
        <ele>295</ele>
        <time>2013-06-19T11:08:02Z</time>
      </trkpt>
      <trkpt lat="47.28733" lon="6.15322">
        <ele>294</ele>
        <time>2013-06-19T11:08:04Z</time>
      </trkpt>
      <trkpt lat="47.2873" lon="6.15307">
        <ele>294</ele>
        <time>2013-06-19T11:08:06Z</time>
      </trkpt>
      <trkpt lat="47.28727" lon="6.15292">
        <ele>293</ele>
        <time>2013-06-19T11:08:08Z</time>
      </trkpt>
      <trkpt lat="47.28723" lon="6.15277">
        <ele>294</ele>
        <time>2013-06-19T11:08:10Z</time>
      </trkpt>
      <trkpt lat="47.2872" lon="6.15262">
        <ele>295</ele>
        <time>2013-06-19T11:08:11Z</time>
      </trkpt>
      <trkpt lat="47.28715" lon="6.15247">
        <ele>296</ele>
        <time>2013-06-19T11:08:13Z</time>
      </trkpt>
      <trkpt lat="47.28713" lon="6.15233">
        <ele>296</ele>
        <time>2013-06-19T11:08:15Z</time>
      </trkpt>
      <trkpt lat="47.28711" lon="6.15217">
        <ele>297</ele>
        <time>2013-06-19T11:08:18Z</time>
      </trkpt>
      <trkpt lat="47.28715" lon="6.15202">
        <ele>294</ele>
        <time>2013-06-19T11:08:22Z</time>
      </trkpt>
      <trkpt lat="47.2872" lon="6.15187">
        <ele>296</ele>
        <time>2013-06-19T11:08:27Z</time>
      </trkpt>
      <trkpt lat="47.28722" lon="6.15173">
        <ele>296</ele>
        <time>2013-06-19T11:08:32Z</time>
      </trkpt>
      <trkpt lat="47.28719" lon="6.15158">
        <ele>296</ele>
        <time>2013-06-19T11:08:36Z</time>
      </trkpt>
      <trkpt lat="47.28714" lon="6.15141">
        <ele>295</ele>
        <time>2013-06-19T11:08:38Z</time>
      </trkpt>
      <trkpt lat="47.28709" lon="6.15124">
        <ele>296</ele>
        <time>2013-06-19T11:08:41Z</time>
      </trkpt>
      <trkpt lat="47.28704" lon="6.15108">
        <ele>296</ele>
        <time>2013-06-19T11:08:44Z</time>
      </trkpt>
      <trkpt lat="47.28699" lon="6.15092">
        <ele>296</ele>
        <time>2013-06-19T11:08:47Z</time>
      </trkpt>
      <trkpt lat="47.28694" lon="6.15076">
        <ele>297</ele>
        <time>2013-06-19T11:08:51Z</time>
      </trkpt>
      <trkpt lat="47.2869" lon="6.1506">
        <ele>297</ele>
        <time>2013-06-19T11:08:53Z</time>
      </trkpt>
      <trkpt lat="47.28687" lon="6.15045">
        <ele>295</ele>
        <time>2013-06-19T11:08:56Z</time>
      </trkpt>
      <trkpt lat="47.28682" lon="6.15029">
        <ele>295</ele>
        <time>2013-06-19T11:09:00Z</time>
      </trkpt>
      <trkpt lat="47.28678" lon="6.15013">
        <ele>296</ele>
        <time>2013-06-19T11:09:02Z</time>
      </trkpt>
      <trkpt lat="47.28672" lon="6.14998">
        <ele>297</ele>
        <time>2013-06-19T11:09:05Z</time>
      </trkpt>
      <trkpt lat="47.28667" lon="6.14984">
        <ele>298</ele>
        <time>2013-06-19T11:09:09Z</time>
      </trkpt>
      <trkpt lat="47.28663" lon="6.14969">
        <ele>297</ele>
        <time>2013-06-19T11:09:11Z</time>
      </trkpt>
      <trkpt lat="47.28658" lon="6.14954">
        <ele>298</ele>
        <time>2013-06-19T11:09:14Z</time>
      </trkpt>
      <trkpt lat="47.28654" lon="6.1494">
        <ele>298</ele>
        <time>2013-06-19T11:09:17Z</time>
      </trkpt>
      <trkpt lat="47.28649" lon="6.14927">
        <ele>299</ele>
        <time>2013-06-19T11:09:21Z</time>
      </trkpt>
      <trkpt lat="47.28643" lon="6.14916">
        <ele>302</ele>
        <time>2013-06-19T11:09:23Z</time>
      </trkpt>
      <trkpt lat="47.28636" lon="6.14904">
        <ele>303</ele>
        <time>2013-06-19T11:09:26Z</time>
      </trkpt>
      <trkpt lat="47.28629" lon="6.14892">
        <ele>301</ele>
        <time>2013-06-19T11:09:29Z</time>
      </trkpt>
      <trkpt lat="47.28621" lon="6.14885">
        <ele>301</ele>
        <time>2013-06-19T11:09:33Z</time>
      </trkpt>
      <trkpt lat="47.28608" lon="6.14891">
        <ele>301</ele>
        <time>2013-06-19T11:09:35Z</time>
      </trkpt>
      <trkpt lat="47.28599" lon="6.14897">
        <ele>302</ele>
        <time>2013-06-19T11:09:37Z</time>
      </trkpt>
      <trkpt lat="47.2859" lon="6.14902">
        <ele>302</ele>
        <time>2013-06-19T11:09:39Z</time>
      </trkpt>
      <trkpt lat="47.28581" lon="6.14908">
        <ele>302</ele>
        <time>2013-06-19T11:09:41Z</time>
      </trkpt>
      <trkpt lat="47.2857" lon="6.14915">
        <ele>302</ele>
        <time>2013-06-19T11:09:43Z</time>
      </trkpt>
      <trkpt lat="47.2856" lon="6.14921">
        <ele>302</ele>
        <time>2013-06-19T11:09:45Z</time>
      </trkpt>
      <trkpt lat="47.28552" lon="6.14927">
        <ele>303</ele>
        <time>2013-06-19T11:09:47Z</time>
      </trkpt>
      <trkpt lat="47.28542" lon="6.14932">
        <ele>303</ele>
        <time>2013-06-19T11:09:49Z</time>
      </trkpt>
      <trkpt lat="47.28532" lon="6.14939">
        <ele>302</ele>
        <time>2013-06-19T11:09:51Z</time>
      </trkpt>
      <trkpt lat="47.28523" lon="6.14946">
        <ele>301</ele>
        <time>2013-06-19T11:09:53Z</time>
      </trkpt>
      <trkpt lat="47.28513" lon="6.14954">
        <ele>300</ele>
        <time>2013-06-19T11:09:55Z</time>
      </trkpt>
      <trkpt lat="47.28503" lon="6.14962">
        <ele>300</ele>
        <time>2013-06-19T11:09:57Z</time>
      </trkpt>
      <trkpt lat="47.28494" lon="6.14971">
        <ele>300</ele>
        <time>2013-06-19T11:09:59Z</time>
      </trkpt>
      <trkpt lat="47.28483" lon="6.1498">
        <ele>299</ele>
        <time>2013-06-19T11:10:01Z</time>
      </trkpt>
      <trkpt lat="47.28475" lon="6.14996">
        <ele>298</ele>
        <time>2013-06-19T11:10:03Z</time>
      </trkpt>
      <trkpt lat="47.28471" lon="6.15012">
        <ele>298</ele>
        <time>2013-06-19T11:10:05Z</time>
      </trkpt>
      <trkpt lat="47.28467" lon="6.1503">
        <ele>298</ele>
        <time>2013-06-19T11:10:07Z</time>
      </trkpt>
      <trkpt lat="47.28466" lon="6.15048">
        <ele>297</ele>
        <time>2013-06-19T11:10:09Z</time>
      </trkpt>
      <trkpt lat="47.28465" lon="6.15067">
        <ele>298</ele>
        <time>2013-06-19T11:10:11Z</time>
      </trkpt>
      <trkpt lat="47.28465" lon="6.15085">
        <ele>297</ele>
        <time>2013-06-19T11:10:13Z</time>
      </trkpt>
      <trkpt lat="47.28464" lon="6.15106">
        <ele>297</ele>
        <time>2013-06-19T11:10:15Z</time>
      </trkpt>
      <trkpt lat="47.28462" lon="6.15124">
        <ele>298</ele>
        <time>2013-06-19T11:10:19Z</time>
      </trkpt>
      <trkpt lat="47.28453" lon="6.15154">
        <ele>299</ele>
        <time>2013-06-19T11:10:21Z</time>
      </trkpt>
      <trkpt lat="47.28444" lon="6.15169">
        <ele>300</ele>
        <time>2013-06-19T11:10:22Z</time>
      </trkpt>
      <trkpt lat="47.28433" lon="6.15177">
        <ele>300</ele>
        <time>2013-06-19T11:10:24Z</time>
      </trkpt>
      <trkpt lat="47.28422" lon="6.15182">
        <ele>301</ele>
        <time>2013-06-19T11:10:26Z</time>
      </trkpt>
      <trkpt lat="47.28414" lon="6.15191">
        <ele>303</ele>
        <time>2013-06-19T11:10:28Z</time>
      </trkpt>
      <trkpt lat="47.28404" lon="6.15203">
        <ele>306</ele>
        <time>2013-06-19T11:10:32Z</time>
      </trkpt>
      <trkpt lat="47.28399" lon="6.15216">
        <ele>307</ele>
        <time>2013-06-19T11:10:34Z</time>
      </trkpt>
      <trkpt lat="47.28395" lon="6.15232">
        <ele>309</ele>
        <time>2013-06-19T11:10:37Z</time>
      </trkpt>
      <trkpt lat="47.28387" lon="6.15244">
        <ele>307</ele>
        <time>2013-06-19T11:10:40Z</time>
      </trkpt>
      <trkpt lat="47.28375" lon="6.15245">
        <ele>307</ele>
        <time>2013-06-19T11:10:44Z</time>
      </trkpt>
      <trkpt lat="47.28365" lon="6.15243">
        <ele>308</ele>
        <time>2013-06-19T11:10:47Z</time>
      </trkpt>
      <trkpt lat="47.28354" lon="6.15239">
        <ele>308</ele>
        <time>2013-06-19T11:10:50Z</time>
      </trkpt>
      <trkpt lat="47.28343" lon="6.15237">
        <ele>307</ele>
        <time>2013-06-19T11:10:54Z</time>
      </trkpt>
      <trkpt lat="47.28333" lon="6.15235">
        <ele>307</ele>
        <time>2013-06-19T11:10:56Z</time>
      </trkpt>
      <trkpt lat="47.28322" lon="6.15233">
        <ele>307</ele>
        <time>2013-06-19T11:10:59Z</time>
      </trkpt>
      <trkpt lat="47.28312" lon="6.15232">
        <ele>305</ele>
        <time>2013-06-19T11:11:02Z</time>
      </trkpt>
      <trkpt lat="47.28302" lon="6.15234">
        <ele>306</ele>
        <time>2013-06-19T11:11:06Z</time>
      </trkpt>
      <trkpt lat="47.28292" lon="6.1524">
        <ele>306</ele>
        <time>2013-06-19T11:11:09Z</time>
      </trkpt>
      <trkpt lat="47.28282" lon="6.15241">
        <ele>308</ele>
        <time>2013-06-19T11:11:12Z</time>
      </trkpt>
      <trkpt lat="47.28271" lon="6.15232">
        <ele>309</ele>
        <time>2013-06-19T11:11:16Z</time>
      </trkpt>
      <trkpt lat="47.28262" lon="6.15224">
        <ele>311</ele>
        <time>2013-06-19T11:11:19Z</time>
      </trkpt>
      <trkpt lat="47.28253" lon="6.15212">
        <ele>309</ele>
        <time>2013-06-19T11:11:22Z</time>
      </trkpt>
      <trkpt lat="47.28246" lon="6.15202">
        <ele>308</ele>
        <time>2013-06-19T11:11:25Z</time>
      </trkpt>
      <trkpt lat="47.28236" lon="6.15194">
        <ele>307</ele>
        <time>2013-06-19T11:11:28Z</time>
      </trkpt>
      <trkpt lat="47.28227" lon="6.15188">
        <ele>307</ele>
        <time>2013-06-19T11:11:31Z</time>
      </trkpt>
      <trkpt lat="47.28219" lon="6.15181">
        <ele>308</ele>
        <time>2013-06-19T11:11:34Z</time>
      </trkpt>
      <trkpt lat="47.28211" lon="6.15172">
        <ele>305</ele>
        <time>2013-06-19T11:11:37Z</time>
      </trkpt>
      <trkpt lat="47.28205" lon="6.15161">
        <ele>306</ele>
        <time>2013-06-19T11:11:40Z</time>
      </trkpt>
      <trkpt lat="47.28199" lon="6.1515">
        <ele>308</ele>
        <time>2013-06-19T11:11:43Z</time>
      </trkpt>
      <trkpt lat="47.28194" lon="6.15138">
        <ele>308</ele>
        <time>2013-06-19T11:11:46Z</time>
      </trkpt>
      <trkpt lat="47.2819" lon="6.15122">
        <ele>309</ele>
        <time>2013-06-19T11:11:50Z</time>
      </trkpt>
      <trkpt lat="47.28185" lon="6.15106">
        <ele>311</ele>
        <time>2013-06-19T11:11:54Z</time>
      </trkpt>
      <trkpt lat="47.2818" lon="6.15092">
        <ele>311</ele>
        <time>2013-06-19T11:11:58Z</time>
      </trkpt>
      <trkpt lat="47.28175" lon="6.1508">
        <ele>316</ele>
        <time>2013-06-19T11:12:04Z</time>
      </trkpt>
      <trkpt lat="47.28171" lon="6.15068">
        <ele>315</ele>
        <time>2013-06-19T11:12:08Z</time>
      </trkpt>
      <trkpt lat="47.28168" lon="6.15055">
        <ele>315</ele>
        <time>2013-06-19T11:12:11Z</time>
      </trkpt>
      <trkpt lat="47.28165" lon="6.15042">
        <ele>316</ele>
        <time>2013-06-19T11:12:13Z</time>
      </trkpt>
      <trkpt lat="47.28163" lon="6.15027">
        <ele>314</ele>
        <time>2013-06-19T11:12:16Z</time>
      </trkpt>
      <trkpt lat="47.28162" lon="6.15005">
        <ele>314</ele>
        <time>2013-06-19T11:12:19Z</time>
      </trkpt>
      <trkpt lat="47.28159" lon="6.14986">
        <ele>315</ele>
        <time>2013-06-19T11:12:23Z</time>
      </trkpt>
      <trkpt lat="47.28157" lon="6.14968">
        <ele>317</ele>
        <time>2013-06-19T11:12:25Z</time>
      </trkpt>
      <trkpt lat="47.28162" lon="6.14953">
        <ele>317</ele>
        <time>2013-06-19T11:12:27Z</time>
      </trkpt>
      <trkpt lat="47.28167" lon="6.14941">
        <ele>318</ele>
        <time>2013-06-19T11:12:29Z</time>
      </trkpt>
      <trkpt lat="47.28177" lon="6.1493">
        <ele>317</ele>
        <time>2013-06-19T11:12:32Z</time>
      </trkpt>
      <trkpt lat="47.28187" lon="6.14923">
        <ele>318</ele>
        <time>2013-06-19T11:12:35Z</time>
      </trkpt>
      <trkpt lat="47.28197" lon="6.14917">
        <ele>319</ele>
        <time>2013-06-19T11:12:38Z</time>
      </trkpt>
      <trkpt lat="47.28207" lon="6.1491">
        <ele>320</ele>
        <time>2013-06-19T11:12:41Z</time>
      </trkpt>
      <trkpt lat="47.28217" lon="6.14904">
        <ele>319</ele>
        <time>2013-06-19T11:12:44Z</time>
      </trkpt>
      <trkpt lat="47.28226" lon="6.14898">
        <ele>319</ele>
        <time>2013-06-19T11:12:47Z</time>
      </trkpt>
      <trkpt lat="47.28236" lon="6.14892">
        <ele>320</ele>
        <time>2013-06-19T11:12:50Z</time>
      </trkpt>
      <trkpt lat="47.28245" lon="6.14886">
        <ele>324</ele>
        <time>2013-06-19T11:12:53Z</time>
      </trkpt>
      <trkpt lat="47.28253" lon="6.14879">
        <ele>324</ele>
        <time>2013-06-19T11:12:55Z</time>
      </trkpt>
      <trkpt lat="47.28262" lon="6.14869">
        <ele>325</ele>
        <time>2013-06-19T11:12:59Z</time>
      </trkpt>
      <trkpt lat="47.28267" lon="6.14853">
        <ele>323</ele>
        <time>2013-06-19T11:13:03Z</time>
      </trkpt>
      <trkpt lat="47.28265" lon="6.14838">
        <ele>324</ele>
        <time>2013-06-19T11:13:06Z</time>
      </trkpt>
      <trkpt lat="47.28264" lon="6.1482">
        <ele>322</ele>
        <time>2013-06-19T11:13:08Z</time>
      </trkpt>
      <trkpt lat="47.28261" lon="6.14801">
        <ele>322</ele>
        <time>2013-06-19T11:13:11Z</time>
      </trkpt>
      <trkpt lat="47.28259" lon="6.14787">
        <ele>322</ele>
        <time>2013-06-19T11:13:13Z</time>
      </trkpt>
      <trkpt lat="47.28257" lon="6.14771">
        <ele>322</ele>
        <time>2013-06-19T11:13:15Z</time>
      </trkpt>
      <trkpt lat="47.28254" lon="6.14757">
        <ele>322</ele>
        <time>2013-06-19T11:13:17Z</time>
      </trkpt>
      <trkpt lat="47.28254" lon="6.14739">
        <ele>320</ele>
        <time>2013-06-19T11:13:19Z</time>
      </trkpt>
      <trkpt lat="47.28251" lon="6.14722">
        <ele>320</ele>
        <time>2013-06-19T11:13:21Z</time>
      </trkpt>
      <trkpt lat="47.28251" lon="6.14702">
        <ele>318</ele>
        <time>2013-06-19T11:13:23Z</time>
      </trkpt>
      <trkpt lat="47.28248" lon="6.14684">
        <ele>319</ele>
        <time>2013-06-19T11:13:25Z</time>
      </trkpt>
      <trkpt lat="47.28244" lon="6.14665">
        <ele>319</ele>
        <time>2013-06-19T11:13:28Z</time>
      </trkpt>
      <trkpt lat="47.28243" lon="6.14646">
        <ele>318</ele>
        <time>2013-06-19T11:13:29Z</time>
      </trkpt>
      <trkpt lat="47.28238" lon="6.14624">
        <ele>318</ele>
        <time>2013-06-19T11:13:31Z</time>
      </trkpt>
      <trkpt lat="47.28236" lon="6.14606">
        <ele>318</ele>
        <time>2013-06-19T11:13:33Z</time>
      </trkpt>
      <trkpt lat="47.28233" lon="6.14582">
        <ele>317</ele>
        <time>2013-06-19T11:13:35Z</time>
      </trkpt>
      <trkpt lat="47.28231" lon="6.14558">
        <ele>317</ele>
        <time>2013-06-19T11:13:37Z</time>
      </trkpt>
      <trkpt lat="47.28228" lon="6.14534">
        <ele>318</ele>
        <time>2013-06-19T11:13:39Z</time>
      </trkpt>
      <trkpt lat="47.28225" lon="6.14515">
        <ele>318</ele>
        <time>2013-06-19T11:13:42Z</time>
      </trkpt>
      <trkpt lat="47.28223" lon="6.14493">
        <ele>318</ele>
        <time>2013-06-19T11:13:43Z</time>
      </trkpt>
      <trkpt lat="47.2822" lon="6.1447">
        <ele>317</ele>
        <time>2013-06-19T11:13:45Z</time>
      </trkpt>
      <trkpt lat="47.28216" lon="6.14446">
        <ele>316</ele>
        <time>2013-06-19T11:13:47Z</time>
      </trkpt>
      <trkpt lat="47.2821" lon="6.14424">
        <ele>317</ele>
        <time>2013-06-19T11:13:49Z</time>
      </trkpt>
      <trkpt lat="47.28206" lon="6.14401">
        <ele>315</ele>
        <time>2013-06-19T11:13:51Z</time>
      </trkpt>
      <trkpt lat="47.282" lon="6.14377">
        <ele>315</ele>
        <time>2013-06-19T11:13:54Z</time>
      </trkpt>
      <trkpt lat="47.28195" lon="6.14352">
        <ele>314</ele>
        <time>2013-06-19T11:13:55Z</time>
      </trkpt>
      <trkpt lat="47.2819" lon="6.14328">
        <ele>313</ele>
        <time>2013-06-19T11:13:57Z</time>
      </trkpt>
      <trkpt lat="47.28184" lon="6.14306">
        <ele>314</ele>
        <time>2013-06-19T11:13:59Z</time>
      </trkpt>
      <trkpt lat="47.28179" lon="6.14281">
        <ele>314</ele>
        <time>2013-06-19T11:14:01Z</time>
      </trkpt>
      <trkpt lat="47.28174" lon="6.14258">
        <ele>315</ele>
        <time>2013-06-19T11:14:03Z</time>
      </trkpt>
      <trkpt lat="47.28168" lon="6.14234">
        <ele>317</ele>
        <time>2013-06-19T11:14:04Z</time>
      </trkpt>
      <trkpt lat="47.28163" lon="6.14211">
        <ele>317</ele>
        <time>2013-06-19T11:14:07Z</time>
      </trkpt>
      <trkpt lat="47.28161" lon="6.14198">
        <ele>316</ele>
        <time>2013-06-19T11:14:07Z</time>
      </trkpt>
      <trkpt lat="47.28154" lon="6.14175">
        <ele>313</ele>
        <time>2013-06-19T11:14:10Z</time>
      </trkpt>
      <trkpt lat="47.28149" lon="6.1415">
        <ele>311</ele>
        <time>2013-06-19T11:14:11Z</time>
      </trkpt>
      <trkpt lat="47.28146" lon="6.14133">
        <ele>309</ele>
        <time>2013-06-19T11:14:13Z</time>
      </trkpt>
      <trkpt lat="47.28145" lon="6.14118">
        <ele>308</ele>
        <time>2013-06-19T11:14:14Z</time>
      </trkpt>
      <trkpt lat="47.28145" lon="6.141">
        <ele>307</ele>
        <time>2013-06-19T11:14:15Z</time>
      </trkpt>
      <trkpt lat="47.28145" lon="6.14082">
        <ele>306</ele>
        <time>2013-06-19T11:14:15Z</time>
      </trkpt>
      <trkpt lat="47.28146" lon="6.14064">
        <ele>304</ele>
        <time>2013-06-19T11:14:16Z</time>
      </trkpt>
      <trkpt lat="47.28148" lon="6.14046">
        <ele>303</ele>
        <time>2013-06-19T11:14:18Z</time>
      </trkpt>
      <trkpt lat="47.28149" lon="6.14028">
        <ele>303</ele>
        <time>2013-06-19T11:14:18Z</time>
      </trkpt>
      <trkpt lat="47.28151" lon="6.14012">
        <ele>303</ele>
        <time>2013-06-19T11:14:19Z</time>
      </trkpt>
      <trkpt lat="47.28152" lon="6.13996">
        <ele>303</ele>
        <time>2013-06-19T11:14:20Z</time>
      </trkpt>
      <trkpt lat="47.28153" lon="6.1398">
        <ele>303</ele>
        <time>2013-06-19T11:14:22Z</time>
      </trkpt>
      <trkpt lat="47.28154" lon="6.13965">
        <ele>302</ele>
        <time>2013-06-19T11:14:22Z</time>
      </trkpt>
      <trkpt lat="47.28153" lon="6.1395">
        <ele>303</ele>
        <time>2013-06-19T11:14:23Z</time>
      </trkpt>
      <trkpt lat="47.28153" lon="6.13937">
        <ele>305</ele>
        <time>2013-06-19T11:14:24Z</time>
      </trkpt>
      <trkpt lat="47.28153" lon="6.13907">
        <ele>305</ele>
        <time>2013-06-19T11:14:26Z</time>
      </trkpt>
      <trkpt lat="47.28159" lon="6.13896">
        <ele>300</ele>
        <time>2013-06-19T11:14:27Z</time>
      </trkpt>
      <trkpt lat="47.28156" lon="6.13873">
        <ele>301</ele>
        <time>2013-06-19T11:14:29Z</time>
      </trkpt>
      <trkpt lat="47.28153" lon="6.13855">
        <ele>301</ele>
        <time>2013-06-19T11:14:32Z</time>
      </trkpt>
      <trkpt lat="47.28146" lon="6.13846">
        <ele>302</ele>
        <time>2013-06-19T11:14:33Z</time>
      </trkpt>
      <trkpt lat="47.28139" lon="6.13827">
        <ele>302</ele>
        <time>2013-06-19T11:14:35Z</time>
      </trkpt>
      <trkpt lat="47.28138" lon="6.13804">
        <ele>300</ele>
        <time>2013-06-19T11:14:37Z</time>
      </trkpt>
      <trkpt lat="47.28135" lon="6.13784">
        <ele>299</ele>
        <time>2013-06-19T11:14:39Z</time>
      </trkpt>
      <trkpt lat="47.28132" lon="6.13765">
        <ele>299</ele>
        <time>2013-06-19T11:14:41Z</time>
      </trkpt>
      <trkpt lat="47.28129" lon="6.13746">
        <ele>299</ele>
        <time>2013-06-19T11:14:43Z</time>
      </trkpt>
      <trkpt lat="47.28126" lon="6.13728">
        <ele>299</ele>
        <time>2013-06-19T11:14:45Z</time>
      </trkpt>
      <trkpt lat="47.2812" lon="6.13708">
        <ele>299</ele>
        <time>2013-06-19T11:14:48Z</time>
      </trkpt>
      <trkpt lat="47.28115" lon="6.13688">
        <ele>298</ele>
        <time>2013-06-19T11:14:49Z</time>
      </trkpt>
      <trkpt lat="47.2811" lon="6.13668">
        <ele>297</ele>
        <time>2013-06-19T11:14:51Z</time>
      </trkpt>
      <trkpt lat="47.28106" lon="6.13648">
        <ele>298</ele>
        <time>2013-06-19T11:14:53Z</time>
      </trkpt>
      <trkpt lat="47.28103" lon="6.13628">
        <ele>299</ele>
        <time>2013-06-19T11:14:55Z</time>
      </trkpt>
      <trkpt lat="47.28098" lon="6.13611">
        <ele>298</ele>
        <time>2013-06-19T11:14:57Z</time>
      </trkpt>
      <trkpt lat="47.28094" lon="6.13594">
        <ele>300</ele>
        <time>2013-06-19T11:14:59Z</time>
      </trkpt>
      <trkpt lat="47.28094" lon="6.13572">
        <ele>302</ele>
        <time>2013-06-19T11:15:01Z</time>
      </trkpt>
      <trkpt lat="47.28091" lon="6.13552">
        <ele>302</ele>
        <time>2013-06-19T11:15:03Z</time>
      </trkpt>
      <trkpt lat="47.28088" lon="6.1353">
        <ele>302</ele>
        <time>2013-06-19T11:15:05Z</time>
      </trkpt>
      <trkpt lat="47.28089" lon="6.13508">
        <ele>303</ele>
        <time>2013-06-19T11:15:07Z</time>
      </trkpt>
      <trkpt lat="47.28088" lon="6.13487">
        <ele>304</ele>
        <time>2013-06-19T11:15:10Z</time>
      </trkpt>
      <trkpt lat="47.28087" lon="6.13467">
        <ele>304</ele>
        <time>2013-06-19T11:15:11Z</time>
      </trkpt>
      <trkpt lat="47.28084" lon="6.13448">
        <ele>306</ele>
        <time>2013-06-19T11:15:13Z</time>
      </trkpt>
      <trkpt lat="47.2808" lon="6.13432">
        <ele>306</ele>
        <time>2013-06-19T11:15:15Z</time>
      </trkpt>
      <trkpt lat="47.28076" lon="6.13419">
        <ele>307</ele>
        <time>2013-06-19T11:15:17Z</time>
      </trkpt>
      <trkpt lat="47.2807" lon="6.13406">
        <ele>307</ele>
        <time>2013-06-19T11:15:19Z</time>
      </trkpt>
      <trkpt lat="47.28065" lon="6.13394">
        <ele>307</ele>
        <time>2013-06-19T11:15:21Z</time>
      </trkpt>
      <trkpt lat="47.28057" lon="6.13377">
        <ele>307</ele>
        <time>2013-06-19T11:15:24Z</time>
      </trkpt>
      <trkpt lat="47.28048" lon="6.13367">
        <ele>307</ele>
        <time>2013-06-19T11:15:26Z</time>
      </trkpt>
      <trkpt lat="47.28042" lon="6.13355">
        <ele>306</ele>
        <time>2013-06-19T11:15:28Z</time>
      </trkpt>
      <trkpt lat="47.28034" lon="6.13343">
        <ele>308</ele>
        <time>2013-06-19T11:15:30Z</time>
      </trkpt>
      <trkpt lat="47.28028" lon="6.13328">
        <ele>308</ele>
        <time>2013-06-19T11:15:32Z</time>
      </trkpt>
      <trkpt lat="47.28021" lon="6.13306">
        <ele>307</ele>
        <time>2013-06-19T11:15:34Z</time>
      </trkpt>
      <trkpt lat="47.28011" lon="6.13292">
        <ele>304</ele>
        <time>2013-06-19T11:15:36Z</time>
      </trkpt>
      <trkpt lat="47.28001" lon="6.13277">
        <ele>305</ele>
        <time>2013-06-19T11:15:38Z</time>
      </trkpt>
      <trkpt lat="47.2799" lon="6.13264">
        <ele>304</ele>
        <time>2013-06-19T11:15:40Z</time>
      </trkpt>
      <trkpt lat="47.27979" lon="6.13248">
        <ele>303</ele>
        <time>2013-06-19T11:15:43Z</time>
      </trkpt>
      <trkpt lat="47.27968" lon="6.13233">
        <ele>302</ele>
        <time>2013-06-19T11:15:44Z</time>
      </trkpt>
      <trkpt lat="47.27962" lon="6.13218">
        <ele>301</ele>
        <time>2013-06-19T11:15:46Z</time>
      </trkpt>
      <trkpt lat="47.27955" lon="6.13202">
        <ele>302</ele>
        <time>2013-06-19T11:15:48Z</time>
      </trkpt>
      <trkpt lat="47.27943" lon="6.13186">
        <ele>303</ele>
        <time>2013-06-19T11:15:50Z</time>
      </trkpt>
      <trkpt lat="47.27933" lon="6.13171">
        <ele>303</ele>
        <time>2013-06-19T11:15:52Z</time>
      </trkpt>
      <trkpt lat="47.27921" lon="6.13157">
        <ele>301</ele>
        <time>2013-06-19T11:15:54Z</time>
      </trkpt>
      <trkpt lat="47.2791" lon="6.13143">
        <ele>301</ele>
        <time>2013-06-19T11:15:56Z</time>
      </trkpt>
      <trkpt lat="47.27899" lon="6.13129">
        <ele>301</ele>
        <time>2013-06-19T11:15:58Z</time>
      </trkpt>
      <trkpt lat="47.27888" lon="6.13118">
        <ele>301</ele>
        <time>2013-06-19T11:16:00Z</time>
      </trkpt>
      <trkpt lat="47.27877" lon="6.1311">
        <ele>303</ele>
        <time>2013-06-19T11:16:02Z</time>
      </trkpt>
      <trkpt lat="47.27868" lon="6.13102">
        <ele>303</ele>
        <time>2013-06-19T11:16:05Z</time>
      </trkpt>
      <trkpt lat="47.27859" lon="6.13092">
        <ele>305</ele>
        <time>2013-06-19T11:16:06Z</time>
      </trkpt>
      <trkpt lat="47.27857" lon="6.13078">
        <ele>303</ele>
        <time>2013-06-19T11:16:07Z</time>
      </trkpt>
      <trkpt lat="47.27848" lon="6.13068">
        <ele>303</ele>
        <time>2013-06-19T11:16:09Z</time>
      </trkpt>
      <trkpt lat="47.27841" lon="6.13056">
        <ele>303</ele>
        <time>2013-06-19T11:16:11Z</time>
      </trkpt>
      <trkpt lat="47.27831" lon="6.1305">
        <ele>303</ele>
        <time>2013-06-19T11:16:13Z</time>
      </trkpt>
      <trkpt lat="47.27825" lon="6.13037">
        <ele>303</ele>
        <time>2013-06-19T11:16:16Z</time>
      </trkpt>
      <trkpt lat="47.27814" lon="6.13029">
        <ele>304</ele>
        <time>2013-06-19T11:16:17Z</time>
      </trkpt>
      <trkpt lat="47.27807" lon="6.13018">
        <ele>304</ele>
        <time>2013-06-19T11:16:19Z</time>
      </trkpt>
      <trkpt lat="47.278" lon="6.13008">
        <ele>304</ele>
        <time>2013-06-19T11:16:21Z</time>
      </trkpt>
      <trkpt lat="47.27791" lon="6.12997">
        <ele>304</ele>
        <time>2013-06-19T11:16:23Z</time>
      </trkpt>
      <trkpt lat="47.27782" lon="6.12981">
        <ele>303</ele>
        <time>2013-06-19T11:16:25Z</time>
      </trkpt>
      <trkpt lat="47.27773" lon="6.12967">
        <ele>304</ele>
        <time>2013-06-19T11:16:27Z</time>
      </trkpt>
      <trkpt lat="47.27764" lon="6.12957">
        <ele>305</ele>
        <time>2013-06-19T11:16:29Z</time>
      </trkpt>
      <trkpt lat="47.27753" lon="6.12944">
        <ele>305</ele>
        <time>2013-06-19T11:16:31Z</time>
      </trkpt>
      <trkpt lat="47.27741" lon="6.12933">
        <ele>303</ele>
        <time>2013-06-19T11:16:33Z</time>
      </trkpt>
      <trkpt lat="47.27732" lon="6.12927">
        <ele>302</ele>
        <time>2013-06-19T11:16:34Z</time>
      </trkpt>
      <trkpt lat="47.27719" lon="6.12913">
        <ele>301</ele>
        <time>2013-06-19T11:16:36Z</time>
      </trkpt>
      <trkpt lat="47.27707" lon="6.12904">
        <ele>301</ele>
        <time>2013-06-19T11:16:38Z</time>
      </trkpt>
      <trkpt lat="47.27696" lon="6.12891">
        <ele>302</ele>
        <time>2013-06-19T11:16:40Z</time>
      </trkpt>
      <trkpt lat="47.27684" lon="6.1288">
        <ele>303</ele>
        <time>2013-06-19T11:16:42Z</time>
      </trkpt>
      <trkpt lat="47.27676" lon="6.12867">
        <ele>303</ele>
        <time>2013-06-19T11:16:44Z</time>
      </trkpt>
      <trkpt lat="47.2767" lon="6.12847">
        <ele>301</ele>
        <time>2013-06-19T11:16:46Z</time>
      </trkpt>
      <trkpt lat="47.27661" lon="6.12833">
        <ele>300</ele>
        <time>2013-06-19T11:16:49Z</time>
      </trkpt>
      <trkpt lat="47.2765" lon="6.12822">
        <ele>299</ele>
        <time>2013-06-19T11:16:50Z</time>
      </trkpt>
      <trkpt lat="47.27641" lon="6.1281">
        <ele>300</ele>
        <time>2013-06-19T11:16:52Z</time>
      </trkpt>
      <trkpt lat="47.27632" lon="6.12796">
        <ele>301</ele>
        <time>2013-06-19T11:16:54Z</time>
      </trkpt>
      <trkpt lat="47.27625" lon="6.1278">
        <ele>303</ele>
        <time>2013-06-19T11:16:56Z</time>
      </trkpt>
      <trkpt lat="47.27616" lon="6.12768">
        <ele>304</ele>
        <time>2013-06-19T11:16:58Z</time>
      </trkpt>
      <trkpt lat="47.27606" lon="6.12757">
        <ele>303</ele>
        <time>2013-06-19T11:17:00Z</time>
      </trkpt>
      <trkpt lat="47.27599" lon="6.12747">
        <ele>303</ele>
        <time>2013-06-19T11:17:02Z</time>
      </trkpt>
      <trkpt lat="47.27594" lon="6.12734">
        <ele>303</ele>
        <time>2013-06-19T11:17:04Z</time>
      </trkpt>
      <trkpt lat="47.27586" lon="6.12722">
        <ele>303</ele>
        <time>2013-06-19T11:17:06Z</time>
      </trkpt>
      <trkpt lat="47.27581" lon="6.12711">
        <ele>304</ele>
        <time>2013-06-19T11:17:08Z</time>
      </trkpt>
      <trkpt lat="47.27571" lon="6.12699">
        <ele>304</ele>
        <time>2013-06-19T11:17:11Z</time>
      </trkpt>
      <trkpt lat="47.27559" lon="6.12689">
        <ele>305</ele>
        <time>2013-06-19T11:17:13Z</time>
      </trkpt>
      <trkpt lat="47.27551" lon="6.12677">
        <ele>306</ele>
        <time>2013-06-19T11:17:16Z</time>
      </trkpt>
      <trkpt lat="47.27543" lon="6.1267">
        <ele>306</ele>
        <time>2013-06-19T11:17:18Z</time>
      </trkpt>
      <trkpt lat="47.27538" lon="6.12656">
        <ele>305</ele>
        <time>2013-06-19T11:17:20Z</time>
      </trkpt>
      <trkpt lat="47.27528" lon="6.12644">
        <ele>305</ele>
        <time>2013-06-19T11:17:23Z</time>
      </trkpt>
      <trkpt lat="47.27522" lon="6.12635">
        <ele>305</ele>
        <time>2013-06-19T11:17:25Z</time>
      </trkpt>
      <trkpt lat="47.27513" lon="6.1262">
        <ele>305</ele>
        <time>2013-06-19T11:17:28Z</time>
      </trkpt>
      <trkpt lat="47.2751" lon="6.12607">
        <ele>303</ele>
        <time>2013-06-19T11:17:30Z</time>
      </trkpt>
      <trkpt lat="47.27502" lon="6.12593">
        <ele>303</ele>
        <time>2013-06-19T11:17:33Z</time>
      </trkpt>
      <trkpt lat="47.27496" lon="6.12584">
        <ele>304</ele>
        <time>2013-06-19T11:17:35Z</time>
      </trkpt>
      <trkpt lat="47.27486" lon="6.12574">
        <ele>305</ele>
        <time>2013-06-19T11:17:38Z</time>
      </trkpt>
      <trkpt lat="47.27476" lon="6.12563">
        <ele>306</ele>
        <time>2013-06-19T11:17:41Z</time>
      </trkpt>
      <trkpt lat="47.27468" lon="6.12553">
        <ele>307</ele>
        <time>2013-06-19T11:17:44Z</time>
      </trkpt>
      <trkpt lat="47.27459" lon="6.12543">
        <ele>307</ele>
        <time>2013-06-19T11:17:47Z</time>
      </trkpt>
      <trkpt lat="47.27448" lon="6.12539">
        <ele>311</ele>
        <time>2013-06-19T11:17:50Z</time>
      </trkpt>
      <trkpt lat="47.27436" lon="6.12542">
        <ele>317</ele>
        <time>2013-06-19T11:17:53Z</time>
      </trkpt>
      <trkpt lat="47.27424" lon="6.12539">
        <ele>321</ele>
        <time>2013-06-19T11:17:57Z</time>
      </trkpt>
      <trkpt lat="47.27417" lon="6.12529">
        <ele>320</ele>
        <time>2013-06-19T11:18:00Z</time>
      </trkpt>
      <trkpt lat="47.27418" lon="6.12516">
        <ele>318</ele>
        <time>2013-06-19T11:18:02Z</time>
      </trkpt>
      <trkpt lat="47.27413" lon="6.12502">
        <ele>320</ele>
        <time>2013-06-19T11:18:07Z</time>
      </trkpt>
      <trkpt lat="47.27406" lon="6.12492">
        <ele>320</ele>
        <time>2013-06-19T11:18:10Z</time>
      </trkpt>
      <trkpt lat="47.27398" lon="6.1248">
        <ele>318</ele>
        <time>2013-06-19T11:18:13Z</time>
      </trkpt>
      <trkpt lat="47.27391" lon="6.12467">
        <ele>317</ele>
        <time>2013-06-19T11:18:16Z</time>
      </trkpt>
      <trkpt lat="47.27383" lon="6.12455">
        <ele>317</ele>
        <time>2013-06-19T11:18:19Z</time>
      </trkpt>
      <trkpt lat="47.27374" lon="6.12443">
        <ele>316</ele>
        <time>2013-06-19T11:18:22Z</time>
      </trkpt>
      <trkpt lat="47.27365" lon="6.12431">
        <ele>317</ele>
        <time>2013-06-19T11:18:25Z</time>
      </trkpt>
      <trkpt lat="47.27357" lon="6.12421">
        <ele>318</ele>
        <time>2013-06-19T11:18:29Z</time>
      </trkpt>
      <trkpt lat="47.27348" lon="6.12411">
        <ele>318</ele>
        <time>2013-06-19T11:18:31Z</time>
      </trkpt>
      <trkpt lat="47.27342" lon="6.12399">
        <ele>319</ele>
        <time>2013-06-19T11:18:34Z</time>
      </trkpt>
      <trkpt lat="47.27337" lon="6.12387">
        <ele>318</ele>
        <time>2013-06-19T11:18:37Z</time>
      </trkpt>
      <trkpt lat="47.27331" lon="6.12375">
        <ele>315</ele>
        <time>2013-06-19T11:18:40Z</time>
      </trkpt>
      <trkpt lat="47.27323" lon="6.12364">
        <ele>316</ele>
        <time>2013-06-19T11:18:44Z</time>
      </trkpt>
      <trkpt lat="47.27315" lon="6.12353">
        <ele>316</ele>
        <time>2013-06-19T11:18:48Z</time>
      </trkpt>
      <trkpt lat="47.27305" lon="6.12347">
        <ele>319</ele>
        <time>2013-06-19T11:18:51Z</time>
      </trkpt>
      <trkpt lat="47.27294" lon="6.12345">
        <ele>320</ele>
        <time>2013-06-19T11:18:54Z</time>
      </trkpt>
      <trkpt lat="47.27284" lon="6.12335">
        <ele>319</ele>
        <time>2013-06-19T11:18:57Z</time>
      </trkpt>
      <trkpt lat="47.27274" lon="6.12319">
        <ele>320</ele>
        <time>2013-06-19T11:19:00Z</time>
      </trkpt>
      <trkpt lat="47.27267" lon="6.12311">
        <ele>321</ele>
        <time>2013-06-19T11:19:02Z</time>
      </trkpt>
      <trkpt lat="47.27259" lon="6.12302">
        <ele>321</ele>
        <time>2013-06-19T11:19:04Z</time>
      </trkpt>
      <trkpt lat="47.27248" lon="6.12289">
        <ele>320</ele>
        <time>2013-06-19T11:19:07Z</time>
      </trkpt>
      <trkpt lat="47.27239" lon="6.12282">
        <ele>320</ele>
        <time>2013-06-19T11:19:09Z</time>
      </trkpt>
      <trkpt lat="47.27234" lon="6.12264">
        <ele>318</ele>
        <time>2013-06-19T11:19:11Z</time>
      </trkpt>
      <trkpt lat="47.27225" lon="6.12253">
        <ele>318</ele>
        <time>2013-06-19T11:19:13Z</time>
      </trkpt>
      <trkpt lat="47.27215" lon="6.12247">
        <ele>319</ele>
        <time>2013-06-19T11:19:15Z</time>
      </trkpt>
      <trkpt lat="47.27207" lon="6.12238">
        <ele>318</ele>
        <time>2013-06-19T11:19:17Z</time>
      </trkpt>
      <trkpt lat="47.27195" lon="6.12238">
        <ele>317</ele>
        <time>2013-06-19T11:19:19Z</time>
      </trkpt>
      <trkpt lat="47.27186" lon="6.12234">
        <ele>316</ele>
        <time>2013-06-19T11:19:21Z</time>
      </trkpt>
      <trkpt lat="47.27176" lon="6.12233">
        <ele>315</ele>
        <time>2013-06-19T11:19:22Z</time>
      </trkpt>
      <trkpt lat="47.27164" lon="6.12227">
        <ele>315</ele>
        <time>2013-06-19T11:19:24Z</time>
      </trkpt>
      <trkpt lat="47.27151" lon="6.12212">
        <ele>311</ele>
        <time>2013-06-19T11:19:26Z</time>
      </trkpt>
      <trkpt lat="47.27137" lon="6.12199">
        <ele>309</ele>
        <time>2013-06-19T11:19:28Z</time>
      </trkpt>
      <trkpt lat="47.27126" lon="6.12195">
        <ele>309</ele>
        <time>2013-06-19T11:19:29Z</time>
      </trkpt>
      <trkpt lat="47.27113" lon="6.12184">
        <ele>309</ele>
        <time>2013-06-19T11:19:31Z</time>
      </trkpt>
      <trkpt lat="47.27097" lon="6.12175">
        <ele>309</ele>
        <time>2013-06-19T11:19:33Z</time>
      </trkpt>
      <trkpt lat="47.27086" lon="6.12173">
        <ele>307</ele>
        <time>2013-06-19T11:19:35Z</time>
      </trkpt>
      <trkpt lat="47.27068" lon="6.12169">
        <ele>304</ele>
        <time>2013-06-19T11:19:36Z</time>
      </trkpt>
      <trkpt lat="47.2705" lon="6.12169">
        <ele>303</ele>
        <time>2013-06-19T11:19:38Z</time>
      </trkpt>
      <trkpt lat="47.27034" lon="6.12166">
        <ele>304</ele>
        <time>2013-06-19T11:19:40Z</time>
      </trkpt>
      <trkpt lat="47.27017" lon="6.12159">
        <ele>302</ele>
        <time>2013-06-19T11:19:42Z</time>
      </trkpt>
      <trkpt lat="47.27008" lon="6.12156">
        <ele>301</ele>
        <time>2013-06-19T11:19:43Z</time>
      </trkpt>
      <trkpt lat="47.26991" lon="6.1215">
        <ele>299</ele>
        <time>2013-06-19T11:19:45Z</time>
      </trkpt>
      <trkpt lat="47.26977" lon="6.12141">
        <ele>298</ele>
        <time>2013-06-19T11:19:47Z</time>
      </trkpt>
      <trkpt lat="47.26967" lon="6.12131">
        <ele>297</ele>
        <time>2013-06-19T11:19:50Z</time>
      </trkpt>
      <trkpt lat="47.2696" lon="6.12116">
        <ele>297</ele>
        <time>2013-06-19T11:19:51Z</time>
      </trkpt>
      <trkpt lat="47.26954" lon="6.12102">
        <ele>296</ele>
        <time>2013-06-19T11:19:53Z</time>
      </trkpt>
      <trkpt lat="47.26942" lon="6.12088">
        <ele>296</ele>
        <time>2013-06-19T11:19:55Z</time>
      </trkpt>
      <trkpt lat="47.26935" lon="6.12072">
        <ele>297</ele>
        <time>2013-06-19T11:19:57Z</time>
      </trkpt>
      <trkpt lat="47.26929" lon="6.12056">
        <ele>297</ele>
        <time>2013-06-19T11:19:59Z</time>
      </trkpt>
      <trkpt lat="47.2692" lon="6.1204">
        <ele>296</ele>
        <time>2013-06-19T11:20:01Z</time>
      </trkpt>
      <trkpt lat="47.26912" lon="6.12027">
        <ele>295</ele>
        <time>2013-06-19T11:20:03Z</time>
      </trkpt>
      <trkpt lat="47.26904" lon="6.12019">
        <ele>301</ele>
        <time>2013-06-19T11:20:06Z</time>
      </trkpt>
      <trkpt lat="47.26898" lon="6.12006">
        <ele>302</ele>
        <time>2013-06-19T11:20:09Z</time>
      </trkpt>
      <trkpt lat="47.26888" lon="6.1199">
        <ele>302</ele>
        <time>2013-06-19T11:20:12Z</time>
      </trkpt>
      <trkpt lat="47.26879" lon="6.11985">
        <ele>303</ele>
        <time>2013-06-19T11:20:14Z</time>
      </trkpt>
      <trkpt lat="47.26872" lon="6.11975">
        <ele>303</ele>
        <time>2013-06-19T11:20:17Z</time>
      </trkpt>
      <trkpt lat="47.26867" lon="6.11963">
        <ele>303</ele>
        <time>2013-06-19T11:20:20Z</time>
      </trkpt>
      <trkpt lat="47.26859" lon="6.1195">
        <ele>303</ele>
        <time>2013-06-19T11:20:23Z</time>
      </trkpt>
      <trkpt lat="47.26854" lon="6.11937">
        <ele>301</ele>
        <time>2013-06-19T11:20:25Z</time>
      </trkpt>
      <trkpt lat="47.26862" lon="6.119">
        <ele>299</ele>
        <time>2013-06-19T11:20:26Z</time>
      </trkpt>
      <trkpt lat="47.26859" lon="6.11882">
        <ele>299</ele>
        <time>2013-06-19T11:20:29Z</time>
      </trkpt>
      <trkpt lat="47.26858" lon="6.11864">
        <ele>299</ele>
        <time>2013-06-19T11:20:32Z</time>
      </trkpt>
      <trkpt lat="47.26859" lon="6.11845">
        <ele>297</ele>
        <time>2013-06-19T11:20:35Z</time>
      </trkpt>
      <trkpt lat="47.26857" lon="6.11825">
        <ele>297</ele>
        <time>2013-06-19T11:20:38Z</time>
      </trkpt>
      <trkpt lat="47.26855" lon="6.11808">
        <ele>297</ele>
        <time>2013-06-19T11:20:41Z</time>
      </trkpt>
      <trkpt lat="47.26858" lon="6.11795">
        <ele>299</ele>
        <time>2013-06-19T11:20:43Z</time>
      </trkpt>
      <trkpt lat="47.26857" lon="6.11779">
        <ele>302</ele>
        <time>2013-06-19T11:20:46Z</time>
      </trkpt>
      <trkpt lat="47.26852" lon="6.11764">
        <ele>304</ele>
        <time>2013-06-19T11:20:49Z</time>
      </trkpt>
      <trkpt lat="47.26845" lon="6.1175">
        <ele>305</ele>
        <time>2013-06-19T11:20:52Z</time>
      </trkpt>
      <trkpt lat="47.26837" lon="6.11737">
        <ele>306</ele>
        <time>2013-06-19T11:20:54Z</time>
      </trkpt>
      <trkpt lat="47.2683" lon="6.11722">
        <ele>304</ele>
        <time>2013-06-19T11:20:56Z</time>
      </trkpt>
      <trkpt lat="47.26822" lon="6.11708">
        <ele>304</ele>
        <time>2013-06-19T11:20:57Z</time>
      </trkpt>
      <trkpt lat="47.26812" lon="6.11694">
        <ele>303</ele>
        <time>2013-06-19T11:20:59Z</time>
      </trkpt>
      <trkpt lat="47.26804" lon="6.11681">
        <ele>304</ele>
        <time>2013-06-19T11:21:01Z</time>
      </trkpt>
      <trkpt lat="47.26797" lon="6.11671">
        <ele>304</ele>
        <time>2013-06-19T11:21:03Z</time>
      </trkpt>
      <trkpt lat="47.26794" lon="6.11659">
        <ele>305</ele>
        <time>2013-06-19T11:21:05Z</time>
      </trkpt>
      <trkpt lat="47.2679" lon="6.11642">
        <ele>305</ele>
        <time>2013-06-19T11:21:08Z</time>
      </trkpt>
      <trkpt lat="47.26782" lon="6.11625">
        <ele>306</ele>
        <time>2013-06-19T11:21:11Z</time>
      </trkpt>
      <trkpt lat="47.26777" lon="6.11614">
        <ele>306</ele>
        <time>2013-06-19T11:21:14Z</time>
      </trkpt>
      <trkpt lat="47.26771" lon="6.11602">
        <ele>307</ele>
        <time>2013-06-19T11:21:15Z</time>
      </trkpt>
      <trkpt lat="47.26763" lon="6.11584">
        <ele>310</ele>
        <time>2013-06-19T11:21:17Z</time>
      </trkpt>
      <trkpt lat="47.26757" lon="6.11572">
        <ele>310</ele>
        <time>2013-06-19T11:21:19Z</time>
      </trkpt>
      <trkpt lat="47.26748" lon="6.11564">
        <ele>311</ele>
        <time>2013-06-19T11:21:21Z</time>
      </trkpt>
      <trkpt lat="47.26741" lon="6.1155">
        <ele>312</ele>
        <time>2013-06-19T11:21:23Z</time>
      </trkpt>
      <trkpt lat="47.26737" lon="6.11535">
        <ele>312</ele>
        <time>2013-06-19T11:21:25Z</time>
      </trkpt>
      <trkpt lat="47.26738" lon="6.11522">
        <ele>314</ele>
        <time>2013-06-19T11:21:26Z</time>
      </trkpt>
      <trkpt lat="47.2673" lon="6.11509">
        <ele>314</ele>
        <time>2013-06-19T11:21:28Z</time>
      </trkpt>
      <trkpt lat="47.26724" lon="6.11493">
        <ele>314</ele>
        <time>2013-06-19T11:21:30Z</time>
      </trkpt>
      <trkpt lat="47.26718" lon="6.1148">
        <ele>314</ele>
        <time>2013-06-19T11:21:32Z</time>
      </trkpt>
      <trkpt lat="47.26716" lon="6.11464">
        <ele>314</ele>
        <time>2013-06-19T11:21:34Z</time>
      </trkpt>
      <trkpt lat="47.26711" lon="6.1145">
        <ele>314</ele>
        <time>2013-06-19T11:21:36Z</time>
      </trkpt>
      <trkpt lat="47.26703" lon="6.11434">
        <ele>311</ele>
        <time>2013-06-19T11:21:38Z</time>
      </trkpt>
      <trkpt lat="47.26696" lon="6.11419">
        <ele>307</ele>
        <time>2013-06-19T11:21:40Z</time>
      </trkpt>
      <trkpt lat="47.26688" lon="6.11405">
        <ele>307</ele>
        <time>2013-06-19T11:21:42Z</time>
      </trkpt>
      <trkpt lat="47.2668" lon="6.11394">
        <ele>309</ele>
        <time>2013-06-19T11:21:47Z</time>
      </trkpt>
      <trkpt lat="47.26672" lon="6.11368">
        <ele>309</ele>
        <time>2013-06-19T11:21:49Z</time>
      </trkpt>
      <trkpt lat="47.26666" lon="6.11355">
        <ele>309</ele>
        <time>2013-06-19T11:21:51Z</time>
      </trkpt>
      <trkpt lat="47.26661" lon="6.11343">
        <ele>311</ele>
        <time>2013-06-19T11:21:53Z</time>
      </trkpt>
      <trkpt lat="47.26657" lon="6.11324">
        <ele>310</ele>
        <time>2013-06-19T11:21:55Z</time>
      </trkpt>
      <trkpt lat="47.26655" lon="6.11305">
        <ele>309</ele>
        <time>2013-06-19T11:21:58Z</time>
      </trkpt>
      <trkpt lat="47.2665" lon="6.11286">
        <ele>309</ele>
        <time>2013-06-19T11:22:00Z</time>
      </trkpt>
      <trkpt lat="47.26648" lon="6.11273">
        <ele>309</ele>
        <time>2013-06-19T11:22:01Z</time>
      </trkpt>
      <trkpt lat="47.26645" lon="6.11256">
        <ele>307</ele>
        <time>2013-06-19T11:22:03Z</time>
      </trkpt>
      <trkpt lat="47.26639" lon="6.11239">
        <ele>307</ele>
        <time>2013-06-19T11:22:06Z</time>
      </trkpt>
      <trkpt lat="47.26628" lon="6.11229">
        <ele>307</ele>
        <time>2013-06-19T11:22:09Z</time>
      </trkpt>
      <trkpt lat="47.26625" lon="6.11216">
        <ele>306</ele>
        <time>2013-06-19T11:22:09Z</time>
      </trkpt>
      <trkpt lat="47.26622" lon="6.11199">
        <ele>302</ele>
        <time>2013-06-19T11:22:10Z</time>
      </trkpt>
      <trkpt lat="47.26621" lon="6.11185">
        <ele>301</ele>
        <time>2013-06-19T11:22:12Z</time>
      </trkpt>
      <trkpt lat="47.26617" lon="6.11168">
        <ele>301</ele>
        <time>2013-06-19T11:22:15Z</time>
      </trkpt>
      <trkpt lat="47.26609" lon="6.11157">
        <ele>301</ele>
        <time>2013-06-19T11:22:17Z</time>
      </trkpt>
      <trkpt lat="47.26611" lon="6.11142">
        <ele>301</ele>
        <time>2013-06-19T11:22:19Z</time>
      </trkpt>
      <trkpt lat="47.26611" lon="6.11128">
        <ele>302</ele>
        <time>2013-06-19T11:22:21Z</time>
      </trkpt>
      <trkpt lat="47.26605" lon="6.11116">
        <ele>302</ele>
        <time>2013-06-19T11:22:23Z</time>
      </trkpt>
      <trkpt lat="47.26601" lon="6.11102">
        <ele>303</ele>
        <time>2013-06-19T11:22:26Z</time>
      </trkpt>
      <trkpt lat="47.26595" lon="6.11087">
        <ele>304</ele>
        <time>2013-06-19T11:22:30Z</time>
      </trkpt>
      <trkpt lat="47.26587" lon="6.11074">
        <ele>305</ele>
        <time>2013-06-19T11:22:33Z</time>
      </trkpt>
      <trkpt lat="47.26583" lon="6.11062">
        <ele>305</ele>
        <time>2013-06-19T11:22:36Z</time>
      </trkpt>
      <trkpt lat="47.26582" lon="6.11045">
        <ele>307</ele>
        <time>2013-06-19T11:22:39Z</time>
      </trkpt>
      <trkpt lat="47.26579" lon="6.11026">
        <ele>307</ele>
        <time>2013-06-19T11:22:42Z</time>
      </trkpt>
      <trkpt lat="47.26579" lon="6.11012">
        <ele>308</ele>
        <time>2013-06-19T11:22:44Z</time>
      </trkpt>
      <trkpt lat="47.26581" lon="6.10999">
        <ele>308</ele>
        <time>2013-06-19T11:22:46Z</time>
      </trkpt>
      <trkpt lat="47.26586" lon="6.10982">
        <ele>308</ele>
        <time>2013-06-19T11:22:49Z</time>
      </trkpt>
      <trkpt lat="47.26589" lon="6.10968">
        <ele>307</ele>
        <time>2013-06-19T11:22:51Z</time>
      </trkpt>
      <trkpt lat="47.26595" lon="6.10951">
        <ele>306</ele>
        <time>2013-06-19T11:22:53Z</time>
      </trkpt>
      <trkpt lat="47.26619" lon="6.10913">
        <ele>305</ele>
        <time>2013-06-19T11:22:55Z</time>
      </trkpt>
      <trkpt lat="47.26623" lon="6.109">
        <ele>306</ele>
        <time>2013-06-19T11:22:57Z</time>
      </trkpt>
      <trkpt lat="47.2663" lon="6.10875">
        <ele>304</ele>
        <time>2013-06-19T11:22:59Z</time>
      </trkpt>
      <trkpt lat="47.26632" lon="6.10858">
        <ele>299</ele>
        <time>2013-06-19T11:23:00Z</time>
      </trkpt>
      <trkpt lat="47.2664" lon="6.10837">
        <ele>301</ele>
        <time>2013-06-19T11:23:02Z</time>
      </trkpt>
      <trkpt lat="47.26643" lon="6.10818">
        <ele>299</ele>
        <time>2013-06-19T11:23:04Z</time>
      </trkpt>
      <trkpt lat="47.26644" lon="6.10798">
        <ele>300</ele>
        <time>2013-06-19T11:23:06Z</time>
      </trkpt>
      <trkpt lat="47.26644" lon="6.10781">
        <ele>301</ele>
        <time>2013-06-19T11:23:08Z</time>
      </trkpt>
      <trkpt lat="47.26643" lon="6.10766">
        <ele>300</ele>
        <time>2013-06-19T11:23:10Z</time>
      </trkpt>
      <trkpt lat="47.26639" lon="6.10749">
        <ele>301</ele>
        <time>2013-06-19T11:23:13Z</time>
      </trkpt>
      <trkpt lat="47.26638" lon="6.10735">
        <ele>302</ele>
        <time>2013-06-19T11:23:15Z</time>
      </trkpt>
      <trkpt lat="47.26636" lon="6.1072">
        <ele>301</ele>
        <time>2013-06-19T11:23:17Z</time>
      </trkpt>
      <trkpt lat="47.26635" lon="6.10693">
        <ele>301</ele>
        <time>2013-06-19T11:23:19Z</time>
      </trkpt>
      <trkpt lat="47.26634" lon="6.10679">
        <ele>301</ele>
        <time>2013-06-19T11:23:20Z</time>
      </trkpt>
      <trkpt lat="47.26634" lon="6.10658">
        <ele>301</ele>
        <time>2013-06-19T11:23:22Z</time>
      </trkpt>
      <trkpt lat="47.26634" lon="6.10634">
        <ele>301</ele>
        <time>2013-06-19T11:23:24Z</time>
      </trkpt>
      <trkpt lat="47.26632" lon="6.10611">
        <ele>301</ele>
        <time>2013-06-19T11:23:26Z</time>
      </trkpt>
      <trkpt lat="47.26628" lon="6.10595">
        <ele>301</ele>
        <time>2013-06-19T11:23:28Z</time>
      </trkpt>
      <trkpt lat="47.26626" lon="6.10575">
        <ele>301</ele>
        <time>2013-06-19T11:23:30Z</time>
      </trkpt>
      <trkpt lat="47.26625" lon="6.10555">
        <ele>301</ele>
        <time>2013-06-19T11:23:32Z</time>
      </trkpt>
      <trkpt lat="47.26622" lon="6.10535">
        <ele>302</ele>
        <time>2013-06-19T11:23:34Z</time>
      </trkpt>
      <trkpt lat="47.26621" lon="6.10513">
        <ele>301</ele>
        <time>2013-06-19T11:23:36Z</time>
      </trkpt>
      <trkpt lat="47.2662" lon="6.10492">
        <ele>301</ele>
        <time>2013-06-19T11:23:38Z</time>
      </trkpt>
      <trkpt lat="47.26623" lon="6.10464">
        <ele>300</ele>
        <time>2013-06-19T11:23:40Z</time>
      </trkpt>
      <trkpt lat="47.26622" lon="6.1045">
        <ele>299</ele>
        <time>2013-06-19T11:23:41Z</time>
      </trkpt>
      <trkpt lat="47.26623" lon="6.10429">
        <ele>299</ele>
        <time>2013-06-19T11:23:43Z</time>
      </trkpt>
      <trkpt lat="47.26625" lon="6.10409">
        <ele>299</ele>
        <time>2013-06-19T11:23:45Z</time>
      </trkpt>
      <trkpt lat="47.26629" lon="6.10389">
        <ele>298</ele>
        <time>2013-06-19T11:23:47Z</time>
      </trkpt>
      <trkpt lat="47.26634" lon="6.10369">
        <ele>298</ele>
        <time>2013-06-19T11:23:49Z</time>
      </trkpt>
      <trkpt lat="47.26634" lon="6.1035">
        <ele>298</ele>
        <time>2013-06-19T11:23:51Z</time>
      </trkpt>
      <trkpt lat="47.26637" lon="6.10328">
        <ele>297</ele>
        <time>2013-06-19T11:23:53Z</time>
      </trkpt>
      <trkpt lat="47.2664" lon="6.10309">
        <ele>297</ele>
        <time>2013-06-19T11:23:55Z</time>
      </trkpt>
      <trkpt lat="47.2664" lon="6.10291">
        <ele>298</ele>
        <time>2013-06-19T11:23:57Z</time>
      </trkpt>
      <trkpt lat="47.26638" lon="6.10275">
        <ele>297</ele>
        <time>2013-06-19T11:23:59Z</time>
      </trkpt>
      <trkpt lat="47.26639" lon="6.10256">
        <ele>297</ele>
        <time>2013-06-19T11:24:01Z</time>
      </trkpt>
      <trkpt lat="47.26642" lon="6.10238">
        <ele>297</ele>
        <time>2013-06-19T11:24:03Z</time>
      </trkpt>
      <trkpt lat="47.26653" lon="6.10217">
        <ele>296</ele>
        <time>2013-06-19T11:24:05Z</time>
      </trkpt>
      <trkpt lat="47.26652" lon="6.102">
        <ele>296</ele>
        <time>2013-06-19T11:24:07Z</time>
      </trkpt>
      <trkpt lat="47.2665" lon="6.1018">
        <ele>296</ele>
        <time>2013-06-19T11:24:09Z</time>
      </trkpt>
      <trkpt lat="47.26649" lon="6.10162">
        <ele>296</ele>
        <time>2013-06-19T11:24:11Z</time>
      </trkpt>
      <trkpt lat="47.26647" lon="6.10145">
        <ele>295</ele>
        <time>2013-06-19T11:24:13Z</time>
      </trkpt>
      <trkpt lat="47.26647" lon="6.10129">
        <ele>294</ele>
        <time>2013-06-19T11:24:15Z</time>
      </trkpt>
      <trkpt lat="47.26643" lon="6.10114">
        <ele>294</ele>
        <time>2013-06-19T11:24:17Z</time>
      </trkpt>
      <trkpt lat="47.2665" lon="6.10104">
        <ele>294</ele>
        <time>2013-06-19T11:24:18Z</time>
      </trkpt>
      <trkpt lat="47.26653" lon="6.10086">
        <ele>294</ele>
        <time>2013-06-19T11:24:20Z</time>
      </trkpt>
      <trkpt lat="47.26652" lon="6.10068">
        <ele>293</ele>
        <time>2013-06-19T11:24:22Z</time>
      </trkpt>
      <trkpt lat="47.26651" lon="6.10037">
        <ele>293</ele>
        <time>2013-06-19T11:24:26Z</time>
      </trkpt>
      <trkpt lat="47.26649" lon="6.10024">
        <ele>293</ele>
        <time>2013-06-19T11:24:28Z</time>
      </trkpt>
      <trkpt lat="47.26649" lon="6.10008">
        <ele>293</ele>
        <time>2013-06-19T11:24:30Z</time>
      </trkpt>
      <trkpt lat="47.26649" lon="6.0999">
        <ele>293</ele>
        <time>2013-06-19T11:24:32Z</time>
      </trkpt>
      <trkpt lat="47.26649" lon="6.09972">
        <ele>294</ele>
        <time>2013-06-19T11:24:34Z</time>
      </trkpt>
      <trkpt lat="47.26652" lon="6.09953">
        <ele>295</ele>
        <time>2013-06-19T11:24:36Z</time>
      </trkpt>
      <trkpt lat="47.26658" lon="6.09933">
        <ele>296</ele>
        <time>2013-06-19T11:24:38Z</time>
      </trkpt>
      <trkpt lat="47.26661" lon="6.09915">
        <ele>297</ele>
        <time>2013-06-19T11:24:40Z</time>
      </trkpt>
      <trkpt lat="47.26666" lon="6.09896">
        <ele>297</ele>
        <time>2013-06-19T11:24:42Z</time>
      </trkpt>
      <trkpt lat="47.26669" lon="6.09881">
        <ele>297</ele>
        <time>2013-06-19T11:24:44Z</time>
      </trkpt>
      <trkpt lat="47.26671" lon="6.09868">
        <ele>296</ele>
        <time>2013-06-19T11:24:46Z</time>
      </trkpt>
      <trkpt lat="47.26677" lon="6.09853">
        <ele>296</ele>
        <time>2013-06-19T11:24:49Z</time>
      </trkpt>
      <trkpt lat="47.26683" lon="6.09841">
        <ele>295</ele>
        <time>2013-06-19T11:24:51Z</time>
      </trkpt>
      <trkpt lat="47.26693" lon="6.09826">
        <ele>295</ele>
        <time>2013-06-19T11:24:53Z</time>
      </trkpt>
      <trkpt lat="47.26699" lon="6.09815">
        <ele>295</ele>
        <time>2013-06-19T11:24:55Z</time>
      </trkpt>
      <trkpt lat="47.26701" lon="6.09799">
        <ele>295</ele>
        <time>2013-06-19T11:24:57Z</time>
      </trkpt>
      <trkpt lat="47.26709" lon="6.09784">
        <ele>295</ele>
        <time>2013-06-19T11:24:59Z</time>
      </trkpt>
      <trkpt lat="47.26721" lon="6.09768">
        <ele>295</ele>
        <time>2013-06-19T11:25:01Z</time>
      </trkpt>
      <trkpt lat="47.26728" lon="6.09756">
        <ele>295</ele>
        <time>2013-06-19T11:25:03Z</time>
      </trkpt>
      <trkpt lat="47.26735" lon="6.09739">
        <ele>296</ele>
        <time>2013-06-19T11:25:05Z</time>
      </trkpt>
      <trkpt lat="47.2674" lon="6.09726">
        <ele>296</ele>
        <time>2013-06-19T11:25:07Z</time>
      </trkpt>
      <trkpt lat="47.26746" lon="6.09708">
        <ele>297</ele>
        <time>2013-06-19T11:25:09Z</time>
      </trkpt>
      <trkpt lat="47.26749" lon="6.0969">
        <ele>297</ele>
        <time>2013-06-19T11:25:11Z</time>
      </trkpt>
      <trkpt lat="47.26754" lon="6.09675">
        <ele>297</ele>
        <time>2013-06-19T11:25:13Z</time>
      </trkpt>
      <trkpt lat="47.2676" lon="6.09656">
        <ele>298</ele>
        <time>2013-06-19T11:25:16Z</time>
      </trkpt>
      <trkpt lat="47.26771" lon="6.09645">
        <ele>298</ele>
        <time>2013-06-19T11:25:19Z</time>
      </trkpt>
      <trkpt lat="47.26778" lon="6.09629">
        <ele>298</ele>
        <time>2013-06-19T11:25:21Z</time>
      </trkpt>
      <trkpt lat="47.26786" lon="6.09613">
        <ele>298</ele>
        <time>2013-06-19T11:25:23Z</time>
      </trkpt>
      <trkpt lat="47.2679" lon="6.09597">
        <ele>298</ele>
        <time>2013-06-19T11:25:25Z</time>
      </trkpt>
      <trkpt lat="47.26798" lon="6.09578">
        <ele>295</ele>
        <time>2013-06-19T11:25:27Z</time>
      </trkpt>
      <trkpt lat="47.26802" lon="6.09566">
        <ele>295</ele>
        <time>2013-06-19T11:25:28Z</time>
      </trkpt>
      <trkpt lat="47.26808" lon="6.0955">
        <ele>296</ele>
        <time>2013-06-19T11:25:30Z</time>
      </trkpt>
      <trkpt lat="47.26812" lon="6.09531">
        <ele>295</ele>
        <time>2013-06-19T11:25:32Z</time>
      </trkpt>
      <trkpt lat="47.26818" lon="6.09514">
        <ele>295</ele>
        <time>2013-06-19T11:25:34Z</time>
      </trkpt>
      <trkpt lat="47.26821" lon="6.09493">
        <ele>294</ele>
        <time>2013-06-19T11:25:36Z</time>
      </trkpt>
      <trkpt lat="47.26826" lon="6.09475">
        <ele>293</ele>
        <time>2013-06-19T11:25:38Z</time>
      </trkpt>
      <trkpt lat="47.2683" lon="6.0946">
        <ele>294</ele>
        <time>2013-06-19T11:25:40Z</time>
      </trkpt>
      <trkpt lat="47.26835" lon="6.09444">
        <ele>294</ele>
        <time>2013-06-19T11:25:42Z</time>
      </trkpt>
      <trkpt lat="47.26839" lon="6.09423">
        <ele>293</ele>
        <time>2013-06-19T11:25:44Z</time>
      </trkpt>
      <trkpt lat="47.26841" lon="6.09407">
        <ele>293</ele>
        <time>2013-06-19T11:25:46Z</time>
      </trkpt>
      <trkpt lat="47.26843" lon="6.09387">
        <ele>294</ele>
        <time>2013-06-19T11:25:49Z</time>
      </trkpt>
      <trkpt lat="47.2684" lon="6.09371">
        <ele>294</ele>
        <time>2013-06-19T11:25:51Z</time>
      </trkpt>
      <trkpt lat="47.26842" lon="6.09355">
        <ele>294</ele>
        <time>2013-06-19T11:25:53Z</time>
      </trkpt>
      <trkpt lat="47.26845" lon="6.09323">
        <ele>288</ele>
        <time>2013-06-19T11:25:57Z</time>
      </trkpt>
      <trkpt lat="47.26846" lon="6.09308">
        <ele>288</ele>
        <time>2013-06-19T11:26:00Z</time>
      </trkpt>
      <trkpt lat="47.26848" lon="6.09292">
        <ele>288</ele>
        <time>2013-06-19T11:26:04Z</time>
      </trkpt>
      <trkpt lat="47.26834" lon="6.09208">
        <ele>289</ele>
        <time>2013-06-19T11:26:14Z</time>
      </trkpt>
      <trkpt lat="47.26833" lon="6.09194">
        <ele>289</ele>
        <time>2013-06-19T11:26:16Z</time>
      </trkpt>
      <trkpt lat="47.26819" lon="6.09184">
        <ele>289</ele>
        <time>2013-06-19T11:26:18Z</time>
      </trkpt>
      <trkpt lat="47.26809" lon="6.09185">
        <ele>290</ele>
        <time>2013-06-19T11:26:19Z</time>
      </trkpt>
      <trkpt lat="47.26814" lon="6.09168">
        <ele>291</ele>
        <time>2013-06-19T11:26:22Z</time>
      </trkpt>
      <trkpt lat="47.26817" lon="6.09152">
        <ele>291</ele>
        <time>2013-06-19T11:26:25Z</time>
      </trkpt>
      <trkpt lat="47.26812" lon="6.09139">
        <ele>291</ele>
        <time>2013-06-19T11:26:27Z</time>
      </trkpt>
      <trkpt lat="47.26813" lon="6.09124">
        <ele>291</ele>
        <time>2013-06-19T11:26:31Z</time>
      </trkpt>
      <trkpt lat="47.26814" lon="6.0911">
        <ele>291</ele>
        <time>2013-06-19T11:26:33Z</time>
      </trkpt>
      <trkpt lat="47.2681" lon="6.09097">
        <ele>292</ele>
        <time>2013-06-19T11:26:35Z</time>
      </trkpt>
      <trkpt lat="47.26817" lon="6.09082">
        <ele>291</ele>
        <time>2013-06-19T11:26:36Z</time>
      </trkpt>
      <trkpt lat="47.26822" lon="6.09067">
        <ele>292</ele>
        <time>2013-06-19T11:26:39Z</time>
      </trkpt>
      <trkpt lat="47.26823" lon="6.09049">
        <ele>292</ele>
        <time>2013-06-19T11:26:41Z</time>
      </trkpt>
      <trkpt lat="47.26822" lon="6.09034">
        <ele>292</ele>
        <time>2013-06-19T11:26:43Z</time>
      </trkpt>
      <trkpt lat="47.2682" lon="6.09017">
        <ele>292</ele>
        <time>2013-06-19T11:26:46Z</time>
      </trkpt>
      <trkpt lat="47.26818" lon="6.08999">
        <ele>294</ele>
        <time>2013-06-19T11:26:49Z</time>
      </trkpt>
      <trkpt lat="47.26821" lon="6.08984">
        <ele>297</ele>
        <time>2013-06-19T11:26:54Z</time>
      </trkpt>
      <trkpt lat="47.26823" lon="6.0897">
        <ele>297</ele>
        <time>2013-06-19T11:26:57Z</time>
      </trkpt>
      <trkpt lat="47.26832" lon="6.08954">
        <ele>299</ele>
        <time>2013-06-19T11:26:59Z</time>
      </trkpt>
      <trkpt lat="47.26842" lon="6.0894">
        <ele>297</ele>
        <time>2013-06-19T11:27:01Z</time>
      </trkpt>
      <trkpt lat="47.26849" lon="6.08931">
        <ele>297</ele>
        <time>2013-06-19T11:27:03Z</time>
      </trkpt>
      <trkpt lat="47.26857" lon="6.08924">
        <ele>298</ele>
        <time>2013-06-19T11:27:05Z</time>
      </trkpt>
      <trkpt lat="47.26863" lon="6.08913">
        <ele>301</ele>
        <time>2013-06-19T11:28:12Z</time>
      </trkpt>
      <trkpt lat="47.26864" lon="6.08896">
        <ele>299</ele>
        <time>2013-06-19T11:28:17Z</time>
      </trkpt>
      <trkpt lat="47.26862" lon="6.08879">
        <ele>300</ele>
        <time>2013-06-19T11:28:21Z</time>
      </trkpt>
      <trkpt lat="47.26861" lon="6.08863">
        <ele>299</ele>
        <time>2013-06-19T11:28:24Z</time>
      </trkpt>
      <trkpt lat="47.26859" lon="6.08847">
        <ele>300</ele>
        <time>2013-06-19T11:28:27Z</time>
      </trkpt>
      <trkpt lat="47.26854" lon="6.0883">
        <ele>301</ele>
        <time>2013-06-19T11:28:30Z</time>
      </trkpt>
      <trkpt lat="47.26851" lon="6.08812">
        <ele>300</ele>
        <time>2013-06-19T11:28:33Z</time>
      </trkpt>
      <trkpt lat="47.26845" lon="6.08798">
        <ele>299</ele>
        <time>2013-06-19T11:28:36Z</time>
      </trkpt>
      <trkpt lat="47.26838" lon="6.08787">
        <ele>298</ele>
        <time>2013-06-19T11:28:39Z</time>
      </trkpt>
      <trkpt lat="47.26827" lon="6.08792">
        <ele>298</ele>
        <time>2013-06-19T11:28:42Z</time>
      </trkpt>
      <trkpt lat="47.26811" lon="6.08808">
        <ele>299</ele>
        <time>2013-06-19T11:28:45Z</time>
      </trkpt>
      <trkpt lat="47.26798" lon="6.0882">
        <ele>297</ele>
        <time>2013-06-19T11:28:48Z</time>
      </trkpt>
      <trkpt lat="47.2679" lon="6.08827">
        <ele>296</ele>
        <time>2013-06-19T11:28:50Z</time>
      </trkpt>
      <trkpt lat="47.26782" lon="6.08839">
        <ele>296</ele>
        <time>2013-06-19T11:28:52Z</time>
      </trkpt>
      <trkpt lat="47.26774" lon="6.08848">
        <ele>295</ele>
        <time>2013-06-19T11:28:54Z</time>
      </trkpt>
      <trkpt lat="47.26766" lon="6.08855">
        <ele>295</ele>
        <time>2013-06-19T11:28:56Z</time>
      </trkpt>
      <trkpt lat="47.26754" lon="6.08865">
        <ele>295</ele>
        <time>2013-06-19T11:28:59Z</time>
      </trkpt>
      <trkpt lat="47.26746" lon="6.08872">
        <ele>294</ele>
        <time>2013-06-19T11:29:01Z</time>
      </trkpt>
      <trkpt lat="47.26737" lon="6.0888">
        <ele>295</ele>
        <time>2013-06-19T11:29:05Z</time>
      </trkpt>
      <trkpt lat="47.26727" lon="6.08881">
        <ele>297</ele>
        <time>2013-06-19T11:29:09Z</time>
      </trkpt>
      <trkpt lat="47.26719" lon="6.08879">
        <ele>299</ele>
        <time>2013-06-19T11:29:13Z</time>
      </trkpt>
      <trkpt lat="47.26709" lon="6.08875">
        <ele>299</ele>
        <time>2013-06-19T11:29:18Z</time>
      </trkpt>
      <trkpt lat="47.26698" lon="6.08875">
        <ele>299</ele>
        <time>2013-06-19T11:29:23Z</time>
      </trkpt>
      <trkpt lat="47.26688" lon="6.08869">
        <ele>299</ele>
        <time>2013-06-19T11:29:26Z</time>
      </trkpt>
      <trkpt lat="47.26678" lon="6.08864">
        <ele>299</ele>
        <time>2013-06-19T11:29:27Z</time>
      </trkpt>
      <trkpt lat="47.26668" lon="6.08858">
        <ele>299</ele>
        <time>2013-06-19T11:29:29Z</time>
      </trkpt>
      <trkpt lat="47.26658" lon="6.08855">
        <ele>301</ele>
        <time>2013-06-19T11:29:31Z</time>
      </trkpt>
      <trkpt lat="47.26646" lon="6.08851">
        <ele>300</ele>
        <time>2013-06-19T11:29:33Z</time>
      </trkpt>
      <trkpt lat="47.26637" lon="6.08849">
        <ele>299</ele>
        <time>2013-06-19T11:29:35Z</time>
      </trkpt>
      <trkpt lat="47.26628" lon="6.08847">
        <ele>300</ele>
        <time>2013-06-19T11:29:37Z</time>
      </trkpt>
      <trkpt lat="47.26614" lon="6.08844">
        <ele>295</ele>
        <time>2013-06-19T11:29:39Z</time>
      </trkpt>
      <trkpt lat="47.26601" lon="6.0884">
        <ele>291</ele>
        <time>2013-06-19T11:29:41Z</time>
      </trkpt>
      <trkpt lat="47.26588" lon="6.08838">
        <ele>290</ele>
        <time>2013-06-19T11:29:43Z</time>
      </trkpt>
      <trkpt lat="47.26578" lon="6.08833">
        <ele>295</ele>
        <time>2013-06-19T11:29:45Z</time>
      </trkpt>
      <trkpt lat="47.26566" lon="6.08827">
        <ele>297</ele>
        <time>2013-06-19T11:29:47Z</time>
      </trkpt>
      <trkpt lat="47.26553" lon="6.08821">
        <ele>298</ele>
        <time>2013-06-19T11:29:49Z</time>
      </trkpt>
      <trkpt lat="47.26541" lon="6.08813">
        <ele>294</ele>
        <time>2013-06-19T11:29:51Z</time>
      </trkpt>
      <trkpt lat="47.26529" lon="6.08806">
        <ele>294</ele>
        <time>2013-06-19T11:29:53Z</time>
      </trkpt>
      <trkpt lat="47.26516" lon="6.08795">
        <ele>291</ele>
        <time>2013-06-19T11:29:55Z</time>
      </trkpt>
      <trkpt lat="47.26503" lon="6.08786">
        <ele>290</ele>
        <time>2013-06-19T11:29:57Z</time>
      </trkpt>
      <trkpt lat="47.26489" lon="6.08781">
        <ele>291</ele>
        <time>2013-06-19T11:29:59Z</time>
      </trkpt>
      <trkpt lat="47.26477" lon="6.08774">
        <ele>291</ele>
        <time>2013-06-19T11:30:01Z</time>
      </trkpt>
      <trkpt lat="47.26466" lon="6.08767">
        <ele>290</ele>
        <time>2013-06-19T11:30:03Z</time>
      </trkpt>
      <trkpt lat="47.26455" lon="6.08762">
        <ele>292</ele>
        <time>2013-06-19T11:30:05Z</time>
      </trkpt>
      <trkpt lat="47.26442" lon="6.08758">
        <ele>292</ele>
        <time>2013-06-19T11:30:07Z</time>
      </trkpt>
      <trkpt lat="47.2643" lon="6.08753">
        <ele>291</ele>
        <time>2013-06-19T11:30:09Z</time>
      </trkpt>
      <trkpt lat="47.26421" lon="6.08748">
        <ele>297</ele>
        <time>2013-06-19T11:30:11Z</time>
      </trkpt>
      <trkpt lat="47.26411" lon="6.08741">
        <ele>296</ele>
        <time>2013-06-19T11:30:13Z</time>
      </trkpt>
      <trkpt lat="47.26397" lon="6.08737">
        <ele>296</ele>
        <time>2013-06-19T11:30:15Z</time>
      </trkpt>
      <trkpt lat="47.26386" lon="6.08733">
        <ele>297</ele>
        <time>2013-06-19T11:30:17Z</time>
      </trkpt>
      <trkpt lat="47.26373" lon="6.08723">
        <ele>297</ele>
        <time>2013-06-19T11:30:19Z</time>
      </trkpt>
      <trkpt lat="47.26358" lon="6.08723">
        <ele>296</ele>
        <time>2013-06-19T11:30:20Z</time>
      </trkpt>
      <trkpt lat="47.26348" lon="6.08722">
        <ele>297</ele>
        <time>2013-06-19T11:30:23Z</time>
      </trkpt>
      <trkpt lat="47.26337" lon="6.0872">
        <ele>297</ele>
        <time>2013-06-19T11:30:24Z</time>
      </trkpt>
      <trkpt lat="47.26326" lon="6.08719">
        <ele>297</ele>
        <time>2013-06-19T11:30:26Z</time>
      </trkpt>
      <trkpt lat="47.26303" lon="6.08718">
        <ele>297</ele>
        <time>2013-06-19T11:30:31Z</time>
      </trkpt>
      <trkpt lat="47.26293" lon="6.08717">
        <ele>297</ele>
        <time>2013-06-19T11:30:33Z</time>
      </trkpt>
      <trkpt lat="47.26255" lon="6.0868">
        <ele>298</ele>
        <time>2013-06-19T11:30:40Z</time>
      </trkpt>
      <trkpt lat="47.26245" lon="6.08674">
        <ele>299</ele>
        <time>2013-06-19T11:30:42Z</time>
      </trkpt>
      <trkpt lat="47.26236" lon="6.08664">
        <ele>299</ele>
        <time>2013-06-19T11:30:44Z</time>
      </trkpt>
      <trkpt lat="47.26226" lon="6.0866">
        <ele>299</ele>
        <time>2013-06-19T11:30:46Z</time>
      </trkpt>
      <trkpt lat="47.26215" lon="6.08651">
        <ele>299</ele>
        <time>2013-06-19T11:30:48Z</time>
      </trkpt>
      <trkpt lat="47.26205" lon="6.08643">
        <ele>300</ele>
        <time>2013-06-19T11:30:50Z</time>
      </trkpt>
      <trkpt lat="47.26195" lon="6.08635">
        <ele>301</ele>
        <time>2013-06-19T11:30:52Z</time>
      </trkpt>
      <trkpt lat="47.26184" lon="6.08626">
        <ele>302</ele>
        <time>2013-06-19T11:30:54Z</time>
      </trkpt>
      <trkpt lat="47.26174" lon="6.08617">
        <ele>303</ele>
        <time>2013-06-19T11:30:56Z</time>
      </trkpt>
      <trkpt lat="47.26163" lon="6.08607">
        <ele>303</ele>
        <time>2013-06-19T11:30:58Z</time>
      </trkpt>
      <trkpt lat="47.26152" lon="6.08599">
        <ele>302</ele>
        <time>2013-06-19T11:31:00Z</time>
      </trkpt>
      <trkpt lat="47.2614" lon="6.08591">
        <ele>303</ele>
        <time>2013-06-19T11:31:02Z</time>
      </trkpt>
      <trkpt lat="47.2613" lon="6.08583">
        <ele>303</ele>
        <time>2013-06-19T11:31:04Z</time>
      </trkpt>
      <trkpt lat="47.2612" lon="6.08575">
        <ele>303</ele>
        <time>2013-06-19T11:31:06Z</time>
      </trkpt>
      <trkpt lat="47.26111" lon="6.08565">
        <ele>303</ele>
        <time>2013-06-19T11:31:08Z</time>
      </trkpt>
      <trkpt lat="47.26101" lon="6.08555">
        <ele>303</ele>
        <time>2013-06-19T11:31:10Z</time>
      </trkpt>
      <trkpt lat="47.26091" lon="6.08546">
        <ele>304</ele>
        <time>2013-06-19T11:31:12Z</time>
      </trkpt>
      <trkpt lat="47.2608" lon="6.08538">
        <ele>304</ele>
        <time>2013-06-19T11:31:14Z</time>
      </trkpt>
      <trkpt lat="47.26064" lon="6.0853">
        <ele>304</ele>
        <time>2013-06-19T11:31:16Z</time>
      </trkpt>
      <trkpt lat="47.26049" lon="6.08521">
        <ele>305</ele>
        <time>2013-06-19T11:31:18Z</time>
      </trkpt>
      <trkpt lat="47.26037" lon="6.08516">
        <ele>305</ele>
        <time>2013-06-19T11:31:20Z</time>
      </trkpt>
      <trkpt lat="47.26025" lon="6.08507">
        <ele>306</ele>
        <time>2013-06-19T11:31:22Z</time>
      </trkpt>
      <trkpt lat="47.26013" lon="6.08499">
        <ele>305</ele>
        <time>2013-06-19T11:31:24Z</time>
      </trkpt>
      <trkpt lat="47.26003" lon="6.08491">
        <ele>306</ele>
        <time>2013-06-19T11:31:26Z</time>
      </trkpt>
      <trkpt lat="47.2599" lon="6.0848">
        <ele>306</ele>
        <time>2013-06-19T11:31:28Z</time>
      </trkpt>
      <trkpt lat="47.25975" lon="6.0847">
        <ele>307</ele>
        <time>2013-06-19T11:31:30Z</time>
      </trkpt>
      <trkpt lat="47.25962" lon="6.08461">
        <ele>307</ele>
        <time>2013-06-19T11:31:32Z</time>
      </trkpt>
      <trkpt lat="47.25952" lon="6.08457">
        <ele>308</ele>
        <time>2013-06-19T11:31:34Z</time>
      </trkpt>
      <trkpt lat="47.25934" lon="6.08451">
        <ele>306</ele>
        <time>2013-06-19T11:31:36Z</time>
      </trkpt>
      <trkpt lat="47.25921" lon="6.08448">
        <ele>305</ele>
        <time>2013-06-19T11:31:38Z</time>
      </trkpt>
      <trkpt lat="47.25909" lon="6.08442">
        <ele>307</ele>
        <time>2013-06-19T11:31:40Z</time>
      </trkpt>
      <trkpt lat="47.25898" lon="6.08437">
        <ele>307</ele>
        <time>2013-06-19T11:31:42Z</time>
      </trkpt>
      <trkpt lat="47.25884" lon="6.08434">
        <ele>307</ele>
        <time>2013-06-19T11:31:44Z</time>
      </trkpt>
      <trkpt lat="47.25873" lon="6.08427">
        <ele>307</ele>
        <time>2013-06-19T11:31:46Z</time>
      </trkpt>
      <trkpt lat="47.25863" lon="6.0842">
        <ele>307</ele>
        <time>2013-06-19T11:31:48Z</time>
      </trkpt>
      <trkpt lat="47.25852" lon="6.0841">
        <ele>307</ele>
        <time>2013-06-19T11:31:50Z</time>
      </trkpt>
      <trkpt lat="47.25841" lon="6.08402">
        <ele>307</ele>
        <time>2013-06-19T11:31:52Z</time>
      </trkpt>
      <trkpt lat="47.25831" lon="6.08394">
        <ele>308</ele>
        <time>2013-06-19T11:31:54Z</time>
      </trkpt>
      <trkpt lat="47.2582" lon="6.08389">
        <ele>308</ele>
        <time>2013-06-19T11:31:56Z</time>
      </trkpt>
      <trkpt lat="47.2581" lon="6.0838">
        <ele>309</ele>
        <time>2013-06-19T11:31:58Z</time>
      </trkpt>
      <trkpt lat="47.25799" lon="6.08373">
        <ele>309</ele>
        <time>2013-06-19T11:32:00Z</time>
      </trkpt>
      <trkpt lat="47.25789" lon="6.08367">
        <ele>309</ele>
        <time>2013-06-19T11:32:02Z</time>
      </trkpt>
      <trkpt lat="47.25781" lon="6.08362">
        <ele>310</ele>
        <time>2013-06-19T11:32:04Z</time>
      </trkpt>
      <trkpt lat="47.25771" lon="6.08356">
        <ele>310</ele>
        <time>2013-06-19T11:32:06Z</time>
      </trkpt>
      <trkpt lat="47.25758" lon="6.08348">
        <ele>310</ele>
        <time>2013-06-19T11:32:08Z</time>
      </trkpt>
      <trkpt lat="47.25747" lon="6.08341">
        <ele>312</ele>
        <time>2013-06-19T11:32:10Z</time>
      </trkpt>
      <trkpt lat="47.25734" lon="6.08332">
        <ele>306</ele>
        <time>2013-06-19T11:32:12Z</time>
      </trkpt>
      <trkpt lat="47.25721" lon="6.08325">
        <ele>305</ele>
        <time>2013-06-19T11:32:14Z</time>
      </trkpt>
      <trkpt lat="47.25708" lon="6.08317">
        <ele>304</ele>
        <time>2013-06-19T11:32:16Z</time>
      </trkpt>
      <trkpt lat="47.25696" lon="6.08309">
        <ele>303</ele>
        <time>2013-06-19T11:32:18Z</time>
      </trkpt>
      <trkpt lat="47.25685" lon="6.08303">
        <ele>303</ele>
        <time>2013-06-19T11:32:20Z</time>
      </trkpt>
      <trkpt lat="47.25675" lon="6.08295">
        <ele>303</ele>
        <time>2013-06-19T11:32:22Z</time>
      </trkpt>
      <trkpt lat="47.2566" lon="6.08286">
        <ele>300</ele>
        <time>2013-06-19T11:32:24Z</time>
      </trkpt>
      <trkpt lat="47.25646" lon="6.0828">
        <ele>299</ele>
        <time>2013-06-19T11:32:26Z</time>
      </trkpt>
      <trkpt lat="47.25634" lon="6.08274">
        <ele>299</ele>
        <time>2013-06-19T11:32:28Z</time>
      </trkpt>
      <trkpt lat="47.25621" lon="6.08269">
        <ele>299</ele>
        <time>2013-06-19T11:32:30Z</time>
      </trkpt>
      <trkpt lat="47.2561" lon="6.0826">
        <ele>301</ele>
        <time>2013-06-19T11:32:32Z</time>
      </trkpt>
      <trkpt lat="47.25599" lon="6.08254">
        <ele>300</ele>
        <time>2013-06-19T11:32:34Z</time>
      </trkpt>
      <trkpt lat="47.25588" lon="6.08247">
        <ele>299</ele>
        <time>2013-06-19T11:32:36Z</time>
      </trkpt>
      <trkpt lat="47.25574" lon="6.0824">
        <ele>301</ele>
        <time>2013-06-19T11:32:38Z</time>
      </trkpt>
      <trkpt lat="47.25561" lon="6.08233">
        <ele>301</ele>
        <time>2013-06-19T11:32:40Z</time>
      </trkpt>
      <trkpt lat="47.2555" lon="6.08226">
        <ele>300</ele>
        <time>2013-06-19T11:32:42Z</time>
      </trkpt>
      <trkpt lat="47.25538" lon="6.08219">
        <ele>301</ele>
        <time>2013-06-19T11:32:44Z</time>
      </trkpt>
      <trkpt lat="47.25526" lon="6.08212">
        <ele>301</ele>
        <time>2013-06-19T11:32:46Z</time>
      </trkpt>
      <trkpt lat="47.25513" lon="6.08205">
        <ele>302</ele>
        <time>2013-06-19T11:32:48Z</time>
      </trkpt>
      <trkpt lat="47.25501" lon="6.08196">
        <ele>303</ele>
        <time>2013-06-19T11:32:50Z</time>
      </trkpt>
      <trkpt lat="47.25491" lon="6.08192">
        <ele>302</ele>
        <time>2013-06-19T11:32:52Z</time>
      </trkpt>
      <trkpt lat="47.2548" lon="6.08187">
        <ele>302</ele>
        <time>2013-06-19T11:32:54Z</time>
      </trkpt>
      <trkpt lat="47.25468" lon="6.08176">
        <ele>301</ele>
        <time>2013-06-19T11:32:56Z</time>
      </trkpt>
      <trkpt lat="47.25457" lon="6.08165">
        <ele>302</ele>
        <time>2013-06-19T11:32:58Z</time>
      </trkpt>
      <trkpt lat="47.25448" lon="6.08156">
        <ele>303</ele>
        <time>2013-06-19T11:33:00Z</time>
      </trkpt>
      <trkpt lat="47.25438" lon="6.08147">
        <ele>304</ele>
        <time>2013-06-19T11:33:02Z</time>
      </trkpt>
      <trkpt lat="47.25427" lon="6.08137">
        <ele>305</ele>
        <time>2013-06-19T11:33:04Z</time>
      </trkpt>
      <trkpt lat="47.25413" lon="6.08128">
        <ele>307</ele>
        <time>2013-06-19T11:33:06Z</time>
      </trkpt>
      <trkpt lat="47.25401" lon="6.08119">
        <ele>307</ele>
        <time>2013-06-19T11:33:08Z</time>
      </trkpt>
      <trkpt lat="47.25389" lon="6.08106">
        <ele>305</ele>
        <time>2013-06-19T11:33:10Z</time>
      </trkpt>
      <trkpt lat="47.25379" lon="6.08096">
        <ele>307</ele>
        <time>2013-06-19T11:33:12Z</time>
      </trkpt>
      <trkpt lat="47.2537" lon="6.08089">
        <ele>307</ele>
        <time>2013-06-19T11:33:14Z</time>
      </trkpt>
      <trkpt lat="47.25362" lon="6.08084">
        <ele>308</ele>
        <time>2013-06-19T11:33:16Z</time>
      </trkpt>
      <trkpt lat="47.25352" lon="6.08072">
        <ele>308</ele>
        <time>2013-06-19T11:33:18Z</time>
      </trkpt>
      <trkpt lat="47.25344" lon="6.0806">
        <ele>309</ele>
        <time>2013-06-19T11:33:20Z</time>
      </trkpt>
      <trkpt lat="47.25337" lon="6.08049">
        <ele>310</ele>
        <time>2013-06-19T11:33:22Z</time>
      </trkpt>
      <trkpt lat="47.25327" lon="6.08035">
        <ele>311</ele>
        <time>2013-06-19T11:33:25Z</time>
      </trkpt>
      <trkpt lat="47.25318" lon="6.08028">
        <ele>311</ele>
        <time>2013-06-19T11:33:27Z</time>
      </trkpt>
      <trkpt lat="47.25309" lon="6.0802">
        <ele>315</ele>
        <time>2013-06-19T11:33:31Z</time>
      </trkpt>
      <trkpt lat="47.25302" lon="6.08011">
        <ele>315</ele>
        <time>2013-06-19T11:33:33Z</time>
      </trkpt>
      <trkpt lat="47.25296" lon="6.08">
        <ele>312</ele>
        <time>2013-06-19T11:33:36Z</time>
      </trkpt>
      <trkpt lat="47.25292" lon="6.07984">
        <ele>313</ele>
        <time>2013-06-19T11:33:41Z</time>
      </trkpt>
      <trkpt lat="47.2529" lon="6.07969">
        <ele>313</ele>
        <time>2013-06-19T11:33:44Z</time>
      </trkpt>
      <trkpt lat="47.25286" lon="6.07954">
        <ele>314</ele>
        <time>2013-06-19T11:33:47Z</time>
      </trkpt>
      <trkpt lat="47.25277" lon="6.07937">
        <ele>312</ele>
        <time>2013-06-19T11:33:50Z</time>
      </trkpt>
      <trkpt lat="47.25272" lon="6.07926">
        <ele>312</ele>
        <time>2013-06-19T11:33:51Z</time>
      </trkpt>
      <trkpt lat="47.25269" lon="6.07907">
        <ele>312</ele>
        <time>2013-06-19T11:33:53Z</time>
      </trkpt>
      <trkpt lat="47.25266" lon="6.0789">
        <ele>313</ele>
        <time>2013-06-19T11:33:55Z</time>
      </trkpt>
      <trkpt lat="47.25263" lon="6.07871">
        <ele>312</ele>
        <time>2013-06-19T11:33:57Z</time>
      </trkpt>
      <trkpt lat="47.25259" lon="6.07854">
        <ele>311</ele>
        <time>2013-06-19T11:33:59Z</time>
      </trkpt>
      <trkpt lat="47.25256" lon="6.07833">
        <ele>309</ele>
        <time>2013-06-19T11:34:01Z</time>
      </trkpt>
      <trkpt lat="47.25251" lon="6.07813">
        <ele>308</ele>
        <time>2013-06-19T11:34:03Z</time>
      </trkpt>
      <trkpt lat="47.25247" lon="6.07792">
        <ele>308</ele>
        <time>2013-06-19T11:34:05Z</time>
      </trkpt>
      <trkpt lat="47.25242" lon="6.07772">
        <ele>308</ele>
        <time>2013-06-19T11:34:07Z</time>
      </trkpt>
      <trkpt lat="47.25236" lon="6.07753">
        <ele>308</ele>
        <time>2013-06-19T11:34:09Z</time>
      </trkpt>
      <trkpt lat="47.25228" lon="6.07733">
        <ele>303</ele>
        <time>2013-06-19T11:34:11Z</time>
      </trkpt>
      <trkpt lat="47.2522" lon="6.07712">
        <ele>300</ele>
        <time>2013-06-19T11:34:13Z</time>
      </trkpt>
      <trkpt lat="47.25214" lon="6.07694">
        <ele>302</ele>
        <time>2013-06-19T11:34:15Z</time>
      </trkpt>
      <trkpt lat="47.25206" lon="6.07679">
        <ele>303</ele>
        <time>2013-06-19T11:34:17Z</time>
      </trkpt>
      <trkpt lat="47.25198" lon="6.0766">
        <ele>301</ele>
        <time>2013-06-19T11:34:19Z</time>
      </trkpt>
      <trkpt lat="47.25193" lon="6.07643">
        <ele>300</ele>
        <time>2013-06-19T11:34:21Z</time>
      </trkpt>
      <trkpt lat="47.25184" lon="6.07629">
        <ele>302</ele>
        <time>2013-06-19T11:34:23Z</time>
      </trkpt>
      <trkpt lat="47.25175" lon="6.07614">
        <ele>300</ele>
        <time>2013-06-19T11:34:25Z</time>
      </trkpt>
      <trkpt lat="47.25165" lon="6.07599">
        <ele>299</ele>
        <time>2013-06-19T11:34:27Z</time>
      </trkpt>
      <trkpt lat="47.25155" lon="6.07582">
        <ele>298</ele>
        <time>2013-06-19T11:34:29Z</time>
      </trkpt>
      <trkpt lat="47.25146" lon="6.07567">
        <ele>297</ele>
        <time>2013-06-19T11:34:31Z</time>
      </trkpt>
      <trkpt lat="47.25135" lon="6.07553">
        <ele>297</ele>
        <time>2013-06-19T11:34:33Z</time>
      </trkpt>
      <trkpt lat="47.25124" lon="6.0754">
        <ele>296</ele>
        <time>2013-06-19T11:34:35Z</time>
      </trkpt>
      <trkpt lat="47.25112" lon="6.07527">
        <ele>298</ele>
        <time>2013-06-19T11:34:37Z</time>
      </trkpt>
      <trkpt lat="47.25102" lon="6.07516">
        <ele>298</ele>
        <time>2013-06-19T11:34:39Z</time>
      </trkpt>
      <trkpt lat="47.25088" lon="6.07507">
        <ele>299</ele>
        <time>2013-06-19T11:34:41Z</time>
      </trkpt>
      <trkpt lat="47.25078" lon="6.07496">
        <ele>297</ele>
        <time>2013-06-19T11:34:43Z</time>
      </trkpt>
      <trkpt lat="47.25067" lon="6.07483">
        <ele>297</ele>
        <time>2013-06-19T11:34:45Z</time>
      </trkpt>
      <trkpt lat="47.25053" lon="6.07478">
        <ele>301</ele>
        <time>2013-06-19T11:34:47Z</time>
      </trkpt>
      <trkpt lat="47.25043" lon="6.07464">
        <ele>302</ele>
        <time>2013-06-19T11:34:49Z</time>
      </trkpt>
      <trkpt lat="47.2503" lon="6.07454">
        <ele>302</ele>
        <time>2013-06-19T11:34:51Z</time>
      </trkpt>
      <trkpt lat="47.25019" lon="6.07448">
        <ele>302</ele>
        <time>2013-06-19T11:34:53Z</time>
      </trkpt>
      <trkpt lat="47.2501" lon="6.07435">
        <ele>301</ele>
        <time>2013-06-19T11:34:55Z</time>
      </trkpt>
      <trkpt lat="47.24999" lon="6.07426">
        <ele>300</ele>
        <time>2013-06-19T11:34:57Z</time>
      </trkpt>
      <trkpt lat="47.24989" lon="6.07416">
        <ele>299</ele>
        <time>2013-06-19T11:34:59Z</time>
      </trkpt>
      <trkpt lat="47.24979" lon="6.07403">
        <ele>297</ele>
        <time>2013-06-19T11:35:01Z</time>
      </trkpt>
      <trkpt lat="47.24968" lon="6.07392">
        <ele>294</ele>
        <time>2013-06-19T11:35:03Z</time>
      </trkpt>
      <trkpt lat="47.24957" lon="6.07385">
        <ele>296</ele>
        <time>2013-06-19T11:35:05Z</time>
      </trkpt>
      <trkpt lat="47.24947" lon="6.07375">
        <ele>295</ele>
        <time>2013-06-19T11:35:07Z</time>
      </trkpt>
      <trkpt lat="47.24934" lon="6.07366">
        <ele>294</ele>
        <time>2013-06-19T11:35:09Z</time>
      </trkpt>
      <trkpt lat="47.24925" lon="6.07356">
        <ele>293</ele>
        <time>2013-06-19T11:35:11Z</time>
      </trkpt>
      <trkpt lat="47.24914" lon="6.07347">
        <ele>293</ele>
        <time>2013-06-19T11:35:13Z</time>
      </trkpt>
      <trkpt lat="47.24901" lon="6.07338">
        <ele>292</ele>
        <time>2013-06-19T11:35:15Z</time>
      </trkpt>
      <trkpt lat="47.24889" lon="6.07331">
        <ele>293</ele>
        <time>2013-06-19T11:35:17Z</time>
      </trkpt>
      <trkpt lat="47.24881" lon="6.07322">
        <ele>294</ele>
        <time>2013-06-19T11:35:19Z</time>
      </trkpt>
      <trkpt lat="47.24871" lon="6.07313">
        <ele>295</ele>
        <time>2013-06-19T11:35:21Z</time>
      </trkpt>
      <trkpt lat="47.24861" lon="6.07303">
        <ele>295</ele>
        <time>2013-06-19T11:35:23Z</time>
      </trkpt>
      <trkpt lat="47.24851" lon="6.07291">
        <ele>297</ele>
        <time>2013-06-19T11:35:25Z</time>
      </trkpt>
      <trkpt lat="47.24842" lon="6.07279">
        <ele>296</ele>
        <time>2013-06-19T11:35:27Z</time>
      </trkpt>
      <trkpt lat="47.24833" lon="6.07267">
        <ele>296</ele>
        <time>2013-06-19T11:35:29Z</time>
      </trkpt>
      <trkpt lat="47.24824" lon="6.07253">
        <ele>295</ele>
        <time>2013-06-19T11:35:31Z</time>
      </trkpt>
      <trkpt lat="47.24815" lon="6.07245">
        <ele>295</ele>
        <time>2013-06-19T11:35:33Z</time>
      </trkpt>
      <trkpt lat="47.24807" lon="6.07234">
        <ele>295</ele>
        <time>2013-06-19T11:35:35Z</time>
      </trkpt>
      <trkpt lat="47.248" lon="6.07222">
        <ele>298</ele>
        <time>2013-06-19T11:35:37Z</time>
      </trkpt>
      <trkpt lat="47.24791" lon="6.07207">
        <ele>298</ele>
        <time>2013-06-19T11:35:39Z</time>
      </trkpt>
      <trkpt lat="47.24783" lon="6.07195">
        <ele>298</ele>
        <time>2013-06-19T11:35:41Z</time>
      </trkpt>
      <trkpt lat="47.24774" lon="6.07182">
        <ele>299</ele>
        <time>2013-06-19T11:35:43Z</time>
      </trkpt>
      <trkpt lat="47.24766" lon="6.07168">
        <ele>298</ele>
        <time>2013-06-19T11:35:45Z</time>
      </trkpt>
      <trkpt lat="47.2476" lon="6.07156">
        <ele>298</ele>
        <time>2013-06-19T11:35:47Z</time>
      </trkpt>
      <trkpt lat="47.24752" lon="6.07145">
        <ele>297</ele>
        <time>2013-06-19T11:35:49Z</time>
      </trkpt>
      <trkpt lat="47.24743" lon="6.07132">
        <ele>297</ele>
        <time>2013-06-19T11:35:51Z</time>
      </trkpt>
      <trkpt lat="47.24736" lon="6.0712">
        <ele>299</ele>
        <time>2013-06-19T11:35:53Z</time>
      </trkpt>
      <trkpt lat="47.24729" lon="6.07106">
        <ele>297</ele>
        <time>2013-06-19T11:35:55Z</time>
      </trkpt>
      <trkpt lat="47.24722" lon="6.07092">
        <ele>297</ele>
        <time>2013-06-19T11:35:57Z</time>
      </trkpt>
      <trkpt lat="47.24712" lon="6.07078">
        <ele>297</ele>
        <time>2013-06-19T11:35:59Z</time>
      </trkpt>
      <trkpt lat="47.24703" lon="6.07063">
        <ele>296</ele>
        <time>2013-06-19T11:36:01Z</time>
      </trkpt>
      <trkpt lat="47.24693" lon="6.07048">
        <ele>295</ele>
        <time>2013-06-19T11:36:03Z</time>
      </trkpt>
      <trkpt lat="47.24683" lon="6.07037">
        <ele>296</ele>
        <time>2013-06-19T11:36:05Z</time>
      </trkpt>
      <trkpt lat="47.24674" lon="6.07025">
        <ele>295</ele>
        <time>2013-06-19T11:36:07Z</time>
      </trkpt>
      <trkpt lat="47.24664" lon="6.07012">
        <ele>294</ele>
        <time>2013-06-19T11:36:09Z</time>
      </trkpt>
      <trkpt lat="47.24655" lon="6.07002">
        <ele>295</ele>
        <time>2013-06-19T11:36:11Z</time>
      </trkpt>
      <trkpt lat="47.24645" lon="6.06987">
        <ele>297</ele>
        <time>2013-06-19T11:36:13Z</time>
      </trkpt>
      <trkpt lat="47.24637" lon="6.0697">
        <ele>296</ele>
        <time>2013-06-19T11:36:15Z</time>
      </trkpt>
      <trkpt lat="47.24628" lon="6.06957">
        <ele>296</ele>
        <time>2013-06-19T11:36:17Z</time>
      </trkpt>
      <trkpt lat="47.24617" lon="6.06942">
        <ele>294</ele>
        <time>2013-06-19T11:36:19Z</time>
      </trkpt>
      <trkpt lat="47.2461" lon="6.0693">
        <ele>294</ele>
        <time>2013-06-19T11:36:21Z</time>
      </trkpt>
      <trkpt lat="47.246" lon="6.06921">
        <ele>294</ele>
        <time>2013-06-19T11:36:23Z</time>
      </trkpt>
      <trkpt lat="47.2459" lon="6.06907">
        <ele>291</ele>
        <time>2013-06-19T11:36:25Z</time>
      </trkpt>
      <trkpt lat="47.2458" lon="6.06896">
        <ele>291</ele>
        <time>2013-06-19T11:36:27Z</time>
      </trkpt>
      <trkpt lat="47.24572" lon="6.0689">
        <ele>293</ele>
        <time>2013-06-19T11:36:29Z</time>
      </trkpt>
      <trkpt lat="47.24563" lon="6.06886">
        <ele>295</ele>
        <time>2013-06-19T11:36:31Z</time>
      </trkpt>
      <trkpt lat="47.24551" lon="6.06874">
        <ele>296</ele>
        <time>2013-06-19T11:36:33Z</time>
      </trkpt>
      <trkpt lat="47.24542" lon="6.06866">
        <ele>295</ele>
        <time>2013-06-19T11:36:35Z</time>
      </trkpt>
      <trkpt lat="47.24529" lon="6.06857">
        <ele>294</ele>
        <time>2013-06-19T11:36:37Z</time>
      </trkpt>
      <trkpt lat="47.24516" lon="6.06847">
        <ele>292</ele>
        <time>2013-06-19T11:36:40Z</time>
      </trkpt>
      <trkpt lat="47.24505" lon="6.06843">
        <ele>292</ele>
        <time>2013-06-19T11:36:42Z</time>
      </trkpt>
      <trkpt lat="47.24494" lon="6.06836">
        <ele>293</ele>
        <time>2013-06-19T11:36:44Z</time>
      </trkpt>
      <trkpt lat="47.24488" lon="6.06822">
        <ele>291</ele>
        <time>2013-06-19T11:36:47Z</time>
      </trkpt>
      <trkpt lat="47.24476" lon="6.06817">
        <ele>294</ele>
        <time>2013-06-19T11:36:49Z</time>
      </trkpt>
      <trkpt lat="47.24465" lon="6.06812">
        <ele>294</ele>
        <time>2013-06-19T11:36:51Z</time>
      </trkpt>
      <trkpt lat="47.24453" lon="6.06806">
        <ele>295</ele>
        <time>2013-06-19T11:36:53Z</time>
      </trkpt>
      <trkpt lat="47.24441" lon="6.06804">
        <ele>296</ele>
        <time>2013-06-19T11:36:55Z</time>
      </trkpt>
      <trkpt lat="47.24427" lon="6.06799">
        <ele>296</ele>
        <time>2013-06-19T11:36:57Z</time>
      </trkpt>
      <trkpt lat="47.24414" lon="6.06794">
        <ele>296</ele>
        <time>2013-06-19T11:36:59Z</time>
      </trkpt>
      <trkpt lat="47.24401" lon="6.06789">
        <ele>295</ele>
        <time>2013-06-19T11:37:01Z</time>
      </trkpt>
      <trkpt lat="47.2439" lon="6.06784">
        <ele>295</ele>
        <time>2013-06-19T11:37:03Z</time>
      </trkpt>
      <trkpt lat="47.24377" lon="6.06781">
        <ele>296</ele>
        <time>2013-06-19T11:37:05Z</time>
      </trkpt>
      <trkpt lat="47.24365" lon="6.06777">
        <ele>296</ele>
        <time>2013-06-19T11:37:07Z</time>
      </trkpt>
      <trkpt lat="47.24352" lon="6.06771">
        <ele>295</ele>
        <time>2013-06-19T11:37:09Z</time>
      </trkpt>
      <trkpt lat="47.24338" lon="6.06768">
        <ele>296</ele>
        <time>2013-06-19T11:37:11Z</time>
      </trkpt>
      <trkpt lat="47.24326" lon="6.06762">
        <ele>297</ele>
        <time>2013-06-19T11:37:13Z</time>
      </trkpt>
      <trkpt lat="47.24311" lon="6.06757">
        <ele>295</ele>
        <time>2013-06-19T11:37:15Z</time>
      </trkpt>
      <trkpt lat="47.24302" lon="6.06753">
        <ele>296</ele>
        <time>2013-06-19T11:37:16Z</time>
      </trkpt>
      <trkpt lat="47.24291" lon="6.06749">
        <ele>296</ele>
        <time>2013-06-19T11:37:18Z</time>
      </trkpt>
      <trkpt lat="47.24281" lon="6.06745">
        <ele>297</ele>
        <time>2013-06-19T11:37:20Z</time>
      </trkpt>
      <trkpt lat="47.24269" lon="6.0674">
        <ele>297</ele>
        <time>2013-06-19T11:37:22Z</time>
      </trkpt>
      <trkpt lat="47.24256" lon="6.06735">
        <ele>295</ele>
        <time>2013-06-19T11:37:24Z</time>
      </trkpt>
      <trkpt lat="47.24245" lon="6.06733">
        <ele>295</ele>
        <time>2013-06-19T11:37:26Z</time>
      </trkpt>
      <trkpt lat="47.24234" lon="6.06727">
        <ele>296</ele>
        <time>2013-06-19T11:37:28Z</time>
      </trkpt>
      <trkpt lat="47.24221" lon="6.0672">
        <ele>298</ele>
        <time>2013-06-19T11:37:31Z</time>
      </trkpt>
      <trkpt lat="47.2421" lon="6.06713">
        <ele>299</ele>
        <time>2013-06-19T11:37:34Z</time>
      </trkpt>
      <trkpt lat="47.24199" lon="6.06708">
        <ele>302</ele>
        <time>2013-06-19T11:37:40Z</time>
      </trkpt>
      <trkpt lat="47.2419" lon="6.067">
        <ele>302</ele>
        <time>2013-06-19T11:37:44Z</time>
      </trkpt>
      <trkpt lat="47.24178" lon="6.06693">
        <ele>303</ele>
        <time>2013-06-19T11:37:47Z</time>
      </trkpt>
      <trkpt lat="47.24165" lon="6.06681">
        <ele>302</ele>
        <time>2013-06-19T11:37:50Z</time>
      </trkpt>
      <trkpt lat="47.24157" lon="6.06672">
        <ele>302</ele>
        <time>2013-06-19T11:37:52Z</time>
      </trkpt>
      <trkpt lat="47.24149" lon="6.06664">
        <ele>302</ele>
        <time>2013-06-19T11:37:54Z</time>
      </trkpt>
      <trkpt lat="47.24137" lon="6.06658">
        <ele>303</ele>
        <time>2013-06-19T11:37:56Z</time>
      </trkpt>
      <trkpt lat="47.24128" lon="6.0665">
        <ele>303</ele>
        <time>2013-06-19T11:37:58Z</time>
      </trkpt>
      <trkpt lat="47.24117" lon="6.06641">
        <ele>304</ele>
        <time>2013-06-19T11:38:00Z</time>
      </trkpt>
      <trkpt lat="47.24107" lon="6.06631">
        <ele>304</ele>
        <time>2013-06-19T11:38:03Z</time>
      </trkpt>
      <trkpt lat="47.24098" lon="6.06623">
        <ele>305</ele>
        <time>2013-06-19T11:38:05Z</time>
      </trkpt>
      <trkpt lat="47.24091" lon="6.06612">
        <ele>306</ele>
        <time>2013-06-19T11:38:07Z</time>
      </trkpt>
      <trkpt lat="47.24083" lon="6.06604">
        <ele>307</ele>
        <time>2013-06-19T11:38:09Z</time>
      </trkpt>
      <trkpt lat="47.24072" lon="6.06593">
        <ele>310</ele>
        <time>2013-06-19T11:38:11Z</time>
      </trkpt>
      <trkpt lat="47.24065" lon="6.06581">
        <ele>309</ele>
        <time>2013-06-19T11:38:13Z</time>
      </trkpt>
      <trkpt lat="47.24058" lon="6.06571">
        <ele>309</ele>
        <time>2013-06-19T11:38:15Z</time>
      </trkpt>
      <trkpt lat="47.24049" lon="6.06561">
        <ele>309</ele>
        <time>2013-06-19T11:38:17Z</time>
      </trkpt>
      <trkpt lat="47.2404" lon="6.06549">
        <ele>310</ele>
        <time>2013-06-19T11:38:19Z</time>
      </trkpt>
      <trkpt lat="47.2403" lon="6.06537">
        <ele>310</ele>
        <time>2013-06-19T11:38:21Z</time>
      </trkpt>
      <trkpt lat="47.24017" lon="6.0653">
        <ele>308</ele>
        <time>2013-06-19T11:38:23Z</time>
      </trkpt>
      <trkpt lat="47.24005" lon="6.06526">
        <ele>308</ele>
        <time>2013-06-19T11:38:25Z</time>
      </trkpt>
      <trkpt lat="47.23994" lon="6.06521">
        <ele>309</ele>
        <time>2013-06-19T11:38:27Z</time>
      </trkpt>
      <trkpt lat="47.23985" lon="6.06517">
        <ele>305</ele>
        <time>2013-06-19T11:38:28Z</time>
      </trkpt>
      <trkpt lat="47.23971" lon="6.06509">
        <ele>305</ele>
        <time>2013-06-19T11:38:30Z</time>
      </trkpt>
      <trkpt lat="47.23961" lon="6.06498">
        <ele>304</ele>
        <time>2013-06-19T11:38:32Z</time>
      </trkpt>
      <trkpt lat="47.23951" lon="6.06488">
        <ele>304</ele>
        <time>2013-06-19T11:38:34Z</time>
      </trkpt>
      <trkpt lat="47.23941" lon="6.06482">
        <ele>303</ele>
        <time>2013-06-19T11:38:35Z</time>
      </trkpt>
      <trkpt lat="47.23928" lon="6.06471">
        <ele>302</ele>
        <time>2013-06-19T11:38:37Z</time>
      </trkpt>
      <trkpt lat="47.23917" lon="6.06461">
        <ele>302</ele>
        <time>2013-06-19T11:38:39Z</time>
      </trkpt>
      <trkpt lat="47.23906" lon="6.06454">
        <ele>303</ele>
        <time>2013-06-19T11:38:41Z</time>
      </trkpt>
      <trkpt lat="47.23892" lon="6.06446">
        <ele>303</ele>
        <time>2013-06-19T11:38:43Z</time>
      </trkpt>
      <trkpt lat="47.23881" lon="6.06437">
        <ele>305</ele>
        <time>2013-06-19T11:38:45Z</time>
      </trkpt>
      <trkpt lat="47.23869" lon="6.06429">
        <ele>305</ele>
        <time>2013-06-19T11:38:47Z</time>
      </trkpt>
      <trkpt lat="47.23855" lon="6.06424">
        <ele>305</ele>
        <time>2013-06-19T11:38:49Z</time>
      </trkpt>
      <trkpt lat="47.23841" lon="6.06415">
        <ele>305</ele>
        <time>2013-06-19T11:38:51Z</time>
      </trkpt>
      <trkpt lat="47.23828" lon="6.06408">
        <ele>305</ele>
        <time>2013-06-19T11:38:53Z</time>
      </trkpt>
      <trkpt lat="47.23812" lon="6.064">
        <ele>304</ele>
        <time>2013-06-19T11:38:55Z</time>
      </trkpt>
      <trkpt lat="47.23798" lon="6.06391">
        <ele>304</ele>
        <time>2013-06-19T11:38:57Z</time>
      </trkpt>
      <trkpt lat="47.23782" lon="6.06384">
        <ele>304</ele>
        <time>2013-06-19T11:38:59Z</time>
      </trkpt>
      <trkpt lat="47.23766" lon="6.06375">
        <ele>305</ele>
        <time>2013-06-19T11:39:01Z</time>
      </trkpt>
      <trkpt lat="47.23753" lon="6.06364">
        <ele>305</ele>
        <time>2013-06-19T11:39:03Z</time>
      </trkpt>
      <trkpt lat="47.2374" lon="6.06354">
        <ele>305</ele>
        <time>2013-06-19T11:39:05Z</time>
      </trkpt>
      <trkpt lat="47.23724" lon="6.06338">
        <ele>302</ele>
        <time>2013-06-19T11:39:07Z</time>
      </trkpt>
      <trkpt lat="47.23716" lon="6.06327">
        <ele>301</ele>
        <time>2013-06-19T11:39:08Z</time>
      </trkpt>
      <trkpt lat="47.23703" lon="6.0631">
        <ele>300</ele>
        <time>2013-06-19T11:39:10Z</time>
      </trkpt>
      <trkpt lat="47.23692" lon="6.06295">
        <ele>301</ele>
        <time>2013-06-19T11:39:12Z</time>
      </trkpt>
      <trkpt lat="47.23678" lon="6.06281">
        <ele>298</ele>
        <time>2013-06-19T11:39:14Z</time>
      </trkpt>
      <trkpt lat="47.23665" lon="6.0627">
        <ele>300</ele>
        <time>2013-06-19T11:39:16Z</time>
      </trkpt>
      <trkpt lat="47.23653" lon="6.0626">
        <ele>304</ele>
        <time>2013-06-19T11:39:18Z</time>
      </trkpt>
      <trkpt lat="47.23638" lon="6.06255">
        <ele>302</ele>
        <time>2013-06-19T11:39:20Z</time>
      </trkpt>
      <trkpt lat="47.23624" lon="6.06248">
        <ele>301</ele>
        <time>2013-06-19T11:39:22Z</time>
      </trkpt>
      <trkpt lat="47.23607" lon="6.06238">
        <ele>300</ele>
        <time>2013-06-19T11:39:24Z</time>
      </trkpt>
      <trkpt lat="47.23593" lon="6.06238">
        <ele>299</ele>
        <time>2013-06-19T11:39:26Z</time>
      </trkpt>
      <trkpt lat="47.23578" lon="6.06233">
        <ele>299</ele>
        <time>2013-06-19T11:39:28Z</time>
      </trkpt>
      <trkpt lat="47.23565" lon="6.06227">
        <ele>297</ele>
        <time>2013-06-19T11:39:30Z</time>
      </trkpt>
      <trkpt lat="47.23551" lon="6.06221">
        <ele>297</ele>
        <time>2013-06-19T11:39:32Z</time>
      </trkpt>
      <trkpt lat="47.23539" lon="6.06212">
        <ele>294</ele>
        <time>2013-06-19T11:39:34Z</time>
      </trkpt>
      <trkpt lat="47.23526" lon="6.06206">
        <ele>296</ele>
        <time>2013-06-19T11:39:36Z</time>
      </trkpt>
      <trkpt lat="47.23513" lon="6.06198">
        <ele>296</ele>
        <time>2013-06-19T11:39:38Z</time>
      </trkpt>
      <trkpt lat="47.23502" lon="6.0619">
        <ele>296</ele>
        <time>2013-06-19T11:39:40Z</time>
      </trkpt>
      <trkpt lat="47.23491" lon="6.06185">
        <ele>296</ele>
        <time>2013-06-19T11:39:42Z</time>
      </trkpt>
      <trkpt lat="47.23479" lon="6.06179">
        <ele>297</ele>
        <time>2013-06-19T11:39:44Z</time>
      </trkpt>
      <trkpt lat="47.23468" lon="6.06175">
        <ele>297</ele>
        <time>2013-06-19T11:39:46Z</time>
      </trkpt>
      <trkpt lat="47.23458" lon="6.06167">
        <ele>297</ele>
        <time>2013-06-19T11:39:48Z</time>
      </trkpt>
      <trkpt lat="47.23449" lon="6.06163">
        <ele>297</ele>
        <time>2013-06-19T11:39:50Z</time>
      </trkpt>
      <trkpt lat="47.23435" lon="6.06158">
        <ele>296</ele>
        <time>2013-06-19T11:39:52Z</time>
      </trkpt>
      <trkpt lat="47.23423" lon="6.06154">
        <ele>297</ele>
        <time>2013-06-19T11:39:54Z</time>
      </trkpt>
      <trkpt lat="47.23412" lon="6.06152">
        <ele>299</ele>
        <time>2013-06-19T11:39:56Z</time>
      </trkpt>
      <trkpt lat="47.23402" lon="6.0615">
        <ele>300</ele>
        <time>2013-06-19T11:39:58Z</time>
      </trkpt>
      <trkpt lat="47.23392" lon="6.06147">
        <ele>299</ele>
        <time>2013-06-19T11:40:00Z</time>
      </trkpt>
      <trkpt lat="47.23381" lon="6.06146">
        <ele>302</ele>
        <time>2013-06-19T11:40:02Z</time>
      </trkpt>
      <trkpt lat="47.23372" lon="6.06142">
        <ele>303</ele>
        <time>2013-06-19T11:40:04Z</time>
      </trkpt>
      <trkpt lat="47.23359" lon="6.06136">
        <ele>303</ele>
        <time>2013-06-19T11:40:07Z</time>
      </trkpt>
      <trkpt lat="47.23349" lon="6.06134">
        <ele>306</ele>
        <time>2013-06-19T11:40:09Z</time>
      </trkpt>
      <trkpt lat="47.23341" lon="6.06129">
        <ele>304</ele>
        <time>2013-06-19T11:40:11Z</time>
      </trkpt>
      <trkpt lat="47.23332" lon="6.06127">
        <ele>304</ele>
        <time>2013-06-19T11:40:13Z</time>
      </trkpt>
      <trkpt lat="47.23319" lon="6.0612">
        <ele>304</ele>
        <time>2013-06-19T11:40:16Z</time>
      </trkpt>
      <trkpt lat="47.23307" lon="6.06111">
        <ele>304</ele>
        <time>2013-06-19T11:40:19Z</time>
      </trkpt>
      <trkpt lat="47.23299" lon="6.06105">
        <ele>306</ele>
        <time>2013-06-19T11:40:21Z</time>
      </trkpt>
      <trkpt lat="47.23287" lon="6.061">
        <ele>303</ele>
        <time>2013-06-19T11:40:24Z</time>
      </trkpt>
      <trkpt lat="47.23276" lon="6.06095">
        <ele>300</ele>
        <time>2013-06-19T11:40:29Z</time>
      </trkpt>
      <trkpt lat="47.23266" lon="6.06089">
        <ele>300</ele>
        <time>2013-06-19T11:40:34Z</time>
      </trkpt>
      <trkpt lat="47.23264" lon="6.06076">
        <ele>306</ele>
        <time>2013-06-19T11:40:59Z</time>
      </trkpt>
      <trkpt lat="47.23275" lon="6.0607">
        <ele>301</ele>
        <time>2013-06-19T11:48:17Z</time>
      </trkpt>
      <trkpt lat="47.23284" lon="6.06065">
        <ele>291</ele>
        <time>2013-06-19T11:49:56Z</time>
      </trkpt>
      <trkpt lat="47.23276" lon="6.06071">
        <ele>295</ele>
        <time>2013-06-19T11:50:13Z</time>
      </trkpt>
      <trkpt lat="47.23267" lon="6.06066">
        <ele>295</ele>
        <time>2013-06-19T11:50:55Z</time>
      </trkpt>
      <trkpt lat="47.23276" lon="6.06071">
        <ele>292</ele>
        <time>2013-06-19T11:53:47Z</time>
      </trkpt>
      <trkpt lat="47.23286" lon="6.06073">
        <ele>295</ele>
        <time>2013-06-19T11:53:52Z</time>
      </trkpt>
      <trkpt lat="47.23296" lon="6.06074">
        <ele>300</ele>
        <time>2013-06-19T11:54:35Z</time>
      </trkpt>
      <trkpt lat="47.23273" lon="6.0606">
        <ele>293</ele>
        <time>2013-06-19T11:55:43Z</time>
      </trkpt>
      <trkpt lat="47.23269" lon="6.06073">
        <ele>294</ele>
        <time>2013-06-19T11:56:02Z</time>
      </trkpt>
      <trkpt lat="47.23259" lon="6.06074">
        <ele>295</ele>
        <time>2013-06-19T11:57:08Z</time>
      </trkpt>
      <trkpt lat="47.23249" lon="6.06072">
        <ele>298</ele>
        <time>2013-06-19T11:57:14Z</time>
      </trkpt>
      <trkpt lat="47.2324" lon="6.06068">
        <ele>299</ele>
        <time>2013-06-19T11:57:18Z</time>
      </trkpt>
      <trkpt lat="47.23232" lon="6.06061">
        <ele>298</ele>
        <time>2013-06-19T11:57:22Z</time>
      </trkpt>
      <trkpt lat="47.23224" lon="6.06051">
        <ele>296</ele>
        <time>2013-06-19T11:57:26Z</time>
      </trkpt>
      <trkpt lat="47.23225" lon="6.06038">
        <ele>296</ele>
        <time>2013-06-19T11:58:01Z</time>
      </trkpt>
      <trkpt lat="47.23218" lon="6.06026">
        <ele>297</ele>
        <time>2013-06-19T11:58:05Z</time>
      </trkpt>
      <trkpt lat="47.23211" lon="6.06015">
        <ele>299</ele>
        <time>2013-06-19T11:58:08Z</time>
      </trkpt>
      <trkpt lat="47.23204" lon="6.06006">
        <ele>299</ele>
        <time>2013-06-19T11:58:11Z</time>
      </trkpt>
      <trkpt lat="47.23196" lon="6.05997">
        <ele>300</ele>
        <time>2013-06-19T11:58:14Z</time>
      </trkpt>
      <trkpt lat="47.23188" lon="6.05989">
        <ele>302</ele>
        <time>2013-06-19T11:58:17Z</time>
      </trkpt>
      <trkpt lat="47.23179" lon="6.05978">
        <ele>300</ele>
        <time>2013-06-19T11:58:20Z</time>
      </trkpt>
      <trkpt lat="47.23169" lon="6.05968">
        <ele>300</ele>
        <time>2013-06-19T11:58:23Z</time>
      </trkpt>
      <trkpt lat="47.23153" lon="6.05954">
        <ele>301</ele>
        <time>2013-06-19T11:58:26Z</time>
      </trkpt>
      <trkpt lat="47.23144" lon="6.05939">
        <ele>300</ele>
        <time>2013-06-19T11:58:28Z</time>
      </trkpt>
      <trkpt lat="47.23134" lon="6.05925">
        <ele>303</ele>
        <time>2013-06-19T11:58:30Z</time>
      </trkpt>
      <trkpt lat="47.23126" lon="6.05914">
        <ele>302</ele>
        <time>2013-06-19T11:58:32Z</time>
      </trkpt>
      <trkpt lat="47.23117" lon="6.05903">
        <ele>302</ele>
        <time>2013-06-19T11:58:34Z</time>
      </trkpt>
      <trkpt lat="47.23108" lon="6.05891">
        <ele>301</ele>
        <time>2013-06-19T11:58:37Z</time>
      </trkpt>
      <trkpt lat="47.231" lon="6.05882">
        <ele>299</ele>
        <time>2013-06-19T11:58:39Z</time>
      </trkpt>
      <trkpt lat="47.23092" lon="6.05874">
        <ele>298</ele>
        <time>2013-06-19T11:58:41Z</time>
      </trkpt>
      <trkpt lat="47.23083" lon="6.05864">
        <ele>298</ele>
        <time>2013-06-19T11:58:44Z</time>
      </trkpt>
      <trkpt lat="47.23076" lon="6.05857">
        <ele>300</ele>
        <time>2013-06-19T11:58:47Z</time>
      </trkpt>
      <trkpt lat="47.23068" lon="6.05846">
        <ele>305</ele>
        <time>2013-06-19T11:58:50Z</time>
      </trkpt>
      <trkpt lat="47.23059" lon="6.05836">
        <ele>306</ele>
        <time>2013-06-19T11:58:54Z</time>
      </trkpt>
      <trkpt lat="47.23055" lon="6.05823">
        <ele>307</ele>
        <time>2013-06-19T11:59:00Z</time>
      </trkpt>
      <trkpt lat="47.23051" lon="6.05811">
        <ele>304</ele>
        <time>2013-06-19T11:59:04Z</time>
      </trkpt>
      <trkpt lat="47.23033" lon="6.05792">
        <ele>302</ele>
        <time>2013-06-19T11:59:07Z</time>
      </trkpt>
      <trkpt lat="47.23026" lon="6.05782">
        <ele>300</ele>
        <time>2013-06-19T11:59:09Z</time>
      </trkpt>
      <trkpt lat="47.23016" lon="6.05773">
        <ele>299</ele>
        <time>2013-06-19T11:59:12Z</time>
      </trkpt>
      <trkpt lat="47.23009" lon="6.05764">
        <ele>298</ele>
        <time>2013-06-19T11:59:14Z</time>
      </trkpt>
      <trkpt lat="47.23001" lon="6.05757">
        <ele>296</ele>
        <time>2013-06-19T11:59:15Z</time>
      </trkpt>
      <trkpt lat="47.22992" lon="6.05748">
        <ele>295</ele>
        <time>2013-06-19T11:59:17Z</time>
      </trkpt>
      <trkpt lat="47.22983" lon="6.05737">
        <ele>295</ele>
        <time>2013-06-19T11:59:19Z</time>
      </trkpt>
      <trkpt lat="47.22974" lon="6.05726">
        <ele>293</ele>
        <time>2013-06-19T11:59:21Z</time>
      </trkpt>
      <trkpt lat="47.22967" lon="6.05715">
        <ele>293</ele>
        <time>2013-06-19T11:59:23Z</time>
      </trkpt>
      <trkpt lat="47.22959" lon="6.05702">
        <ele>294</ele>
        <time>2013-06-19T11:59:25Z</time>
      </trkpt>
      <trkpt lat="47.22949" lon="6.0569">
        <ele>294</ele>
        <time>2013-06-19T11:59:27Z</time>
      </trkpt>
      <trkpt lat="47.22939" lon="6.05676">
        <ele>294</ele>
        <time>2013-06-19T11:59:29Z</time>
      </trkpt>
      <trkpt lat="47.22928" lon="6.05662">
        <ele>293</ele>
        <time>2013-06-19T11:59:31Z</time>
      </trkpt>
      <trkpt lat="47.2292" lon="6.0565">
        <ele>292</ele>
        <time>2013-06-19T11:59:32Z</time>
      </trkpt>
      <trkpt lat="47.22911" lon="6.05637">
        <ele>292</ele>
        <time>2013-06-19T11:59:34Z</time>
      </trkpt>
      <trkpt lat="47.22905" lon="6.05626">
        <ele>292</ele>
        <time>2013-06-19T11:59:36Z</time>
      </trkpt>
      <trkpt lat="47.22899" lon="6.05615">
        <ele>292</ele>
        <time>2013-06-19T11:59:38Z</time>
      </trkpt>
      <trkpt lat="47.22891" lon="6.05603">
        <ele>292</ele>
        <time>2013-06-19T11:59:40Z</time>
      </trkpt>
      <trkpt lat="47.22883" lon="6.05594">
        <ele>292</ele>
        <time>2013-06-19T11:59:42Z</time>
      </trkpt>
      <trkpt lat="47.22876" lon="6.05581">
        <ele>292</ele>
        <time>2013-06-19T11:59:44Z</time>
      </trkpt>
      <trkpt lat="47.22869" lon="6.05566">
        <ele>292</ele>
        <time>2013-06-19T11:59:47Z</time>
      </trkpt>
      <trkpt lat="47.22862" lon="6.05554">
        <ele>292</ele>
        <time>2013-06-19T11:59:49Z</time>
      </trkpt>
      <trkpt lat="47.22854" lon="6.05542">
        <ele>292</ele>
        <time>2013-06-19T11:59:51Z</time>
      </trkpt>
      <trkpt lat="47.22846" lon="6.05527">
        <ele>292</ele>
        <time>2013-06-19T11:59:53Z</time>
      </trkpt>
      <trkpt lat="47.22835" lon="6.05512">
        <ele>293</ele>
        <time>2013-06-19T11:59:55Z</time>
      </trkpt>
      <trkpt lat="47.22828" lon="6.05496">
        <ele>293</ele>
        <time>2013-06-19T11:59:57Z</time>
      </trkpt>
      <trkpt lat="47.22823" lon="6.05483">
        <ele>292</ele>
        <time>2013-06-19T11:59:59Z</time>
      </trkpt>
      <trkpt lat="47.22818" lon="6.0547">
        <ele>292</ele>
        <time>2013-06-19T12:00:01Z</time>
      </trkpt>
      <trkpt lat="47.22809" lon="6.05458">
        <ele>293</ele>
        <time>2013-06-19T12:00:03Z</time>
      </trkpt>
      <trkpt lat="47.22805" lon="6.05446">
        <ele>293</ele>
        <time>2013-06-19T12:00:05Z</time>
      </trkpt>
      <trkpt lat="47.22799" lon="6.05432">
        <ele>293</ele>
        <time>2013-06-19T12:00:07Z</time>
      </trkpt>
      <trkpt lat="47.22794" lon="6.0542">
        <ele>293</ele>
        <time>2013-06-19T12:00:09Z</time>
      </trkpt>
      <trkpt lat="47.22788" lon="6.05403">
        <ele>294</ele>
        <time>2013-06-19T12:00:12Z</time>
      </trkpt>
      <trkpt lat="47.2278" lon="6.05393">
        <ele>295</ele>
        <time>2013-06-19T12:00:14Z</time>
      </trkpt>
      <trkpt lat="47.22768" lon="6.05381">
        <ele>295</ele>
        <time>2013-06-19T12:00:16Z</time>
      </trkpt>
      <trkpt lat="47.22759" lon="6.05365">
        <ele>295</ele>
        <time>2013-06-19T12:00:18Z</time>
      </trkpt>
      <trkpt lat="47.22755" lon="6.05352">
        <ele>295</ele>
        <time>2013-06-19T12:00:20Z</time>
      </trkpt>
      <trkpt lat="47.22749" lon="6.05336">
        <ele>295</ele>
        <time>2013-06-19T12:00:22Z</time>
      </trkpt>
      <trkpt lat="47.22745" lon="6.05317">
        <ele>294</ele>
        <time>2013-06-19T12:00:24Z</time>
      </trkpt>
      <trkpt lat="47.22741" lon="6.05303">
        <ele>294</ele>
        <time>2013-06-19T12:00:26Z</time>
      </trkpt>
      <trkpt lat="47.22735" lon="6.05287">
        <ele>294</ele>
        <time>2013-06-19T12:00:28Z</time>
      </trkpt>
      <trkpt lat="47.2273" lon="6.05271">
        <ele>295</ele>
        <time>2013-06-19T12:00:30Z</time>
      </trkpt>
      <trkpt lat="47.22723" lon="6.05253">
        <ele>296</ele>
        <time>2013-06-19T12:00:32Z</time>
      </trkpt>
      <trkpt lat="47.2272" lon="6.05236">
        <ele>296</ele>
        <time>2013-06-19T12:00:34Z</time>
      </trkpt>
      <trkpt lat="47.22715" lon="6.0522">
        <ele>295</ele>
        <time>2013-06-19T12:00:36Z</time>
      </trkpt>
      <trkpt lat="47.2271" lon="6.05205">
        <ele>296</ele>
        <time>2013-06-19T12:00:37Z</time>
      </trkpt>
      <trkpt lat="47.22706" lon="6.05186">
        <ele>300</ele>
        <time>2013-06-19T12:00:39Z</time>
      </trkpt>
      <trkpt lat="47.227" lon="6.05168">
        <ele>301</ele>
        <time>2013-06-19T12:00:41Z</time>
      </trkpt>
      <trkpt lat="47.22695" lon="6.05153">
        <ele>303</ele>
        <time>2013-06-19T12:00:43Z</time>
      </trkpt>
      <trkpt lat="47.22689" lon="6.05136">
        <ele>303</ele>
        <time>2013-06-19T12:00:45Z</time>
      </trkpt>
      <trkpt lat="47.22685" lon="6.05121">
        <ele>304</ele>
        <time>2013-06-19T12:00:48Z</time>
      </trkpt>
      <trkpt lat="47.2268" lon="6.05107">
        <ele>304</ele>
        <time>2013-06-19T12:00:50Z</time>
      </trkpt>
      <trkpt lat="47.22677" lon="6.05093">
        <ele>304</ele>
        <time>2013-06-19T12:00:52Z</time>
      </trkpt>
      <trkpt lat="47.22673" lon="6.05079">
        <ele>304</ele>
        <time>2013-06-19T12:00:54Z</time>
      </trkpt>
      <trkpt lat="47.22667" lon="6.05062">
        <ele>304</ele>
        <time>2013-06-19T12:00:56Z</time>
      </trkpt>
      <trkpt lat="47.22662" lon="6.05046">
        <ele>306</ele>
        <time>2013-06-19T12:00:58Z</time>
      </trkpt>
      <trkpt lat="47.2266" lon="6.0503">
        <ele>307</ele>
        <time>2013-06-19T12:01:00Z</time>
      </trkpt>
      <trkpt lat="47.22657" lon="6.05015">
        <ele>307</ele>
        <time>2013-06-19T12:01:02Z</time>
      </trkpt>
      <trkpt lat="47.22653" lon="6.05">
        <ele>308</ele>
        <time>2013-06-19T12:01:04Z</time>
      </trkpt>
      <trkpt lat="47.22649" lon="6.04981">
        <ele>307</ele>
        <time>2013-06-19T12:01:06Z</time>
      </trkpt>
      <trkpt lat="47.22646" lon="6.04966">
        <ele>309</ele>
        <time>2013-06-19T12:01:08Z</time>
      </trkpt>
      <trkpt lat="47.2264" lon="6.04949">
        <ele>310</ele>
        <time>2013-06-19T12:01:11Z</time>
      </trkpt>
      <trkpt lat="47.22635" lon="6.04935">
        <ele>310</ele>
        <time>2013-06-19T12:01:13Z</time>
      </trkpt>
      <trkpt lat="47.22631" lon="6.0492">
        <ele>309</ele>
        <time>2013-06-19T12:01:15Z</time>
      </trkpt>
      <trkpt lat="47.22626" lon="6.04906">
        <ele>309</ele>
        <time>2013-06-19T12:01:17Z</time>
      </trkpt>
      <trkpt lat="47.22621" lon="6.04889">
        <ele>311</ele>
        <time>2013-06-19T12:01:19Z</time>
      </trkpt>
      <trkpt lat="47.22619" lon="6.04872">
        <ele>312</ele>
        <time>2013-06-19T12:01:21Z</time>
      </trkpt>
      <trkpt lat="47.22615" lon="6.04858">
        <ele>314</ele>
        <time>2013-06-19T12:01:23Z</time>
      </trkpt>
      <trkpt lat="47.22609" lon="6.04841">
        <ele>317</ele>
        <time>2013-06-19T12:01:26Z</time>
      </trkpt>
      <trkpt lat="47.22609" lon="6.04821">
        <ele>319</ele>
        <time>2013-06-19T12:01:28Z</time>
      </trkpt>
      <trkpt lat="47.22608" lon="6.04799">
        <ele>320</ele>
        <time>2013-06-19T12:01:30Z</time>
      </trkpt>
      <trkpt lat="47.22607" lon="6.0478">
        <ele>320</ele>
        <time>2013-06-19T12:01:32Z</time>
      </trkpt>
      <trkpt lat="47.22606" lon="6.04759">
        <ele>320</ele>
        <time>2013-06-19T12:01:34Z</time>
      </trkpt>
      <trkpt lat="47.22604" lon="6.04738">
        <ele>321</ele>
        <time>2013-06-19T12:01:36Z</time>
      </trkpt>
      <trkpt lat="47.22602" lon="6.04724">
        <ele>321</ele>
        <time>2013-06-19T12:01:38Z</time>
      </trkpt>
      <trkpt lat="47.226" lon="6.04704">
        <ele>321</ele>
        <time>2013-06-19T12:01:40Z</time>
      </trkpt>
      <trkpt lat="47.22598" lon="6.04687">
        <ele>322</ele>
        <time>2013-06-19T12:01:42Z</time>
      </trkpt>
      <trkpt lat="47.22598" lon="6.04673">
        <ele>322</ele>
        <time>2013-06-19T12:01:44Z</time>
      </trkpt>
      <trkpt lat="47.22596" lon="6.04656">
        <ele>322</ele>
        <time>2013-06-19T12:01:47Z</time>
      </trkpt>
      <trkpt lat="47.22595" lon="6.04639">
        <ele>323</ele>
        <time>2013-06-19T12:01:49Z</time>
      </trkpt>
      <trkpt lat="47.22593" lon="6.0462">
        <ele>324</ele>
        <time>2013-06-19T12:01:51Z</time>
      </trkpt>
      <trkpt lat="47.22591" lon="6.04603">
        <ele>323</ele>
        <time>2013-06-19T12:01:53Z</time>
      </trkpt>
      <trkpt lat="47.2259" lon="6.04585">
        <ele>324</ele>
        <time>2013-06-19T12:01:55Z</time>
      </trkpt>
      <trkpt lat="47.2259" lon="6.04569">
        <ele>324</ele>
        <time>2013-06-19T12:01:57Z</time>
      </trkpt>
      <trkpt lat="47.22589" lon="6.04553">
        <ele>323</ele>
        <time>2013-06-19T12:01:59Z</time>
      </trkpt>
      <trkpt lat="47.2259" lon="6.04533">
        <ele>324</ele>
        <time>2013-06-19T12:02:01Z</time>
      </trkpt>
      <trkpt lat="47.22589" lon="6.04509">
        <ele>322</ele>
        <time>2013-06-19T12:02:03Z</time>
      </trkpt>
      <trkpt lat="47.22591" lon="6.04489">
        <ele>322</ele>
        <time>2013-06-19T12:02:05Z</time>
      </trkpt>
      <trkpt lat="47.22594" lon="6.04468">
        <ele>320</ele>
        <time>2013-06-19T12:02:07Z</time>
      </trkpt>
      <trkpt lat="47.22596" lon="6.04448">
        <ele>319</ele>
        <time>2013-06-19T12:02:09Z</time>
      </trkpt>
      <trkpt lat="47.22598" lon="6.04434">
        <ele>319</ele>
        <time>2013-06-19T12:02:11Z</time>
      </trkpt>
      <trkpt lat="47.22599" lon="6.04419">
        <ele>318</ele>
        <time>2013-06-19T12:02:13Z</time>
      </trkpt>
      <trkpt lat="47.226" lon="6.04403">
        <ele>316</ele>
        <time>2013-06-19T12:02:15Z</time>
      </trkpt>
      <trkpt lat="47.22604" lon="6.04382">
        <ele>314</ele>
        <time>2013-06-19T12:02:17Z</time>
      </trkpt>
      <trkpt lat="47.22605" lon="6.04364">
        <ele>312</ele>
        <time>2013-06-19T12:02:19Z</time>
      </trkpt>
      <trkpt lat="47.22607" lon="6.04346">
        <ele>312</ele>
        <time>2013-06-19T12:02:21Z</time>
      </trkpt>
      <trkpt lat="47.22611" lon="6.04328">
        <ele>310</ele>
        <time>2013-06-19T12:02:23Z</time>
      </trkpt>
      <trkpt lat="47.22614" lon="6.04309">
        <ele>307</ele>
        <time>2013-06-19T12:02:25Z</time>
      </trkpt>
      <trkpt lat="47.22618" lon="6.04293">
        <ele>306</ele>
        <time>2013-06-19T12:02:27Z</time>
      </trkpt>
      <trkpt lat="47.22621" lon="6.04278">
        <ele>305</ele>
        <time>2013-06-19T12:02:29Z</time>
      </trkpt>
      <trkpt lat="47.22626" lon="6.04266">
        <ele>305</ele>
        <time>2013-06-19T12:02:31Z</time>
      </trkpt>
      <trkpt lat="47.22631" lon="6.04248">
        <ele>305</ele>
        <time>2013-06-19T12:02:33Z</time>
      </trkpt>
      <trkpt lat="47.22635" lon="6.04232">
        <ele>306</ele>
        <time>2013-06-19T12:02:35Z</time>
      </trkpt>
      <trkpt lat="47.22639" lon="6.04217">
        <ele>305</ele>
        <time>2013-06-19T12:02:36Z</time>
      </trkpt>
      <trkpt lat="47.22644" lon="6.04197">
        <ele>304</ele>
        <time>2013-06-19T12:02:39Z</time>
      </trkpt>
      <trkpt lat="47.22651" lon="6.04177">
        <ele>307</ele>
        <time>2013-06-19T12:02:42Z</time>
      </trkpt>
      <trkpt lat="47.22655" lon="6.0416">
        <ele>307</ele>
        <time>2013-06-19T12:02:45Z</time>
      </trkpt>
      <trkpt lat="47.22662" lon="6.04147">
        <ele>306</ele>
        <time>2013-06-19T12:02:46Z</time>
      </trkpt>
      <trkpt lat="47.22667" lon="6.04129">
        <ele>306</ele>
        <time>2013-06-19T12:02:48Z</time>
      </trkpt>
      <trkpt lat="47.22673" lon="6.04113">
        <ele>305</ele>
        <time>2013-06-19T12:02:50Z</time>
      </trkpt>
      <trkpt lat="47.2268" lon="6.04099">
        <ele>303</ele>
        <time>2013-06-19T12:02:52Z</time>
      </trkpt>
      <trkpt lat="47.22685" lon="6.04085">
        <ele>302</ele>
        <time>2013-06-19T12:02:54Z</time>
      </trkpt>
      <trkpt lat="47.22688" lon="6.04072">
        <ele>303</ele>
        <time>2013-06-19T12:02:56Z</time>
      </trkpt>
      <trkpt lat="47.22695" lon="6.04059">
        <ele>303</ele>
        <time>2013-06-19T12:02:58Z</time>
      </trkpt>
      <trkpt lat="47.22701" lon="6.04048">
        <ele>304</ele>
        <time>2013-06-19T12:03:00Z</time>
      </trkpt>
      <trkpt lat="47.22709" lon="6.04032">
        <ele>304</ele>
        <time>2013-06-19T12:03:02Z</time>
      </trkpt>
      <trkpt lat="47.22719" lon="6.04019">
        <ele>306</ele>
        <time>2013-06-19T12:03:04Z</time>
      </trkpt>
      <trkpt lat="47.22727" lon="6.04006">
        <ele>306</ele>
        <time>2013-06-19T12:03:06Z</time>
      </trkpt>
      <trkpt lat="47.22736" lon="6.03992">
        <ele>306</ele>
        <time>2013-06-19T12:03:08Z</time>
      </trkpt>
      <trkpt lat="47.22744" lon="6.03979">
        <ele>307</ele>
        <time>2013-06-19T12:03:10Z</time>
      </trkpt>
      <trkpt lat="47.22753" lon="6.03965">
        <ele>308</ele>
        <time>2013-06-19T12:03:12Z</time>
      </trkpt>
      <trkpt lat="47.22761" lon="6.03949">
        <ele>307</ele>
        <time>2013-06-19T12:03:14Z</time>
      </trkpt>
      <trkpt lat="47.22769" lon="6.03934">
        <ele>307</ele>
        <time>2013-06-19T12:03:16Z</time>
      </trkpt>
      <trkpt lat="47.22776" lon="6.03922">
        <ele>306</ele>
        <time>2013-06-19T12:03:19Z</time>
      </trkpt>
      <trkpt lat="47.22787" lon="6.03908">
        <ele>306</ele>
        <time>2013-06-19T12:03:20Z</time>
      </trkpt>
      <trkpt lat="47.22796" lon="6.03893">
        <ele>303</ele>
        <time>2013-06-19T12:03:22Z</time>
      </trkpt>
      <trkpt lat="47.22806" lon="6.03884">
        <ele>302</ele>
        <time>2013-06-19T12:03:24Z</time>
      </trkpt>
      <trkpt lat="47.22815" lon="6.03881">
        <ele>301</ele>
        <time>2013-06-19T12:03:25Z</time>
      </trkpt>
      <trkpt lat="47.22824" lon="6.03874">
        <ele>302</ele>
        <time>2013-06-19T12:03:27Z</time>
      </trkpt>
      <trkpt lat="47.22834" lon="6.03869">
        <ele>301</ele>
        <time>2013-06-19T12:03:29Z</time>
      </trkpt>
      <trkpt lat="47.22847" lon="6.03861">
        <ele>300</ele>
        <time>2013-06-19T12:03:31Z</time>
      </trkpt>
      <trkpt lat="47.22857" lon="6.0386">
        <ele>302</ele>
        <time>2013-06-19T12:03:33Z</time>
      </trkpt>
      <trkpt lat="47.22867" lon="6.0385">
        <ele>302</ele>
        <time>2013-06-19T12:03:36Z</time>
      </trkpt>
      <trkpt lat="47.22875" lon="6.0384">
        <ele>302</ele>
        <time>2013-06-19T12:03:38Z</time>
      </trkpt>
      <trkpt lat="47.22884" lon="6.03833">
        <ele>302</ele>
        <time>2013-06-19T12:03:40Z</time>
      </trkpt>
      <trkpt lat="47.22898" lon="6.03824">
        <ele>301</ele>
        <time>2013-06-19T12:03:43Z</time>
      </trkpt>
      <trkpt lat="47.22909" lon="6.03816">
        <ele>301</ele>
        <time>2013-06-19T12:03:44Z</time>
      </trkpt>
      <trkpt lat="47.2292" lon="6.03807">
        <ele>300</ele>
        <time>2013-06-19T12:03:46Z</time>
      </trkpt>
      <trkpt lat="47.22931" lon="6.03794">
        <ele>299</ele>
        <time>2013-06-19T12:03:48Z</time>
      </trkpt>
      <trkpt lat="47.22945" lon="6.03786">
        <ele>297</ele>
        <time>2013-06-19T12:03:50Z</time>
      </trkpt>
      <trkpt lat="47.22957" lon="6.03777">
        <ele>296</ele>
        <time>2013-06-19T12:03:52Z</time>
      </trkpt>
      <trkpt lat="47.22968" lon="6.03765">
        <ele>294</ele>
        <time>2013-06-19T12:03:54Z</time>
      </trkpt>
      <trkpt lat="47.22981" lon="6.03753">
        <ele>294</ele>
        <time>2013-06-19T12:03:56Z</time>
      </trkpt>
      <trkpt lat="47.22991" lon="6.03742">
        <ele>293</ele>
        <time>2013-06-19T12:03:58Z</time>
      </trkpt>
      <trkpt lat="47.23001" lon="6.03733">
        <ele>292</ele>
        <time>2013-06-19T12:04:00Z</time>
      </trkpt>
      <trkpt lat="47.23011" lon="6.03722">
        <ele>291</ele>
        <time>2013-06-19T12:04:02Z</time>
      </trkpt>
      <trkpt lat="47.23024" lon="6.03713">
        <ele>291</ele>
        <time>2013-06-19T12:04:04Z</time>
      </trkpt>
      <trkpt lat="47.23039" lon="6.03704">
        <ele>292</ele>
        <time>2013-06-19T12:04:06Z</time>
      </trkpt>
      <trkpt lat="47.23052" lon="6.03695">
        <ele>293</ele>
        <time>2013-06-19T12:04:08Z</time>
      </trkpt>
      <trkpt lat="47.23063" lon="6.03684">
        <ele>293</ele>
        <time>2013-06-19T12:04:10Z</time>
      </trkpt>
      <trkpt lat="47.23072" lon="6.03674">
        <ele>291</ele>
        <time>2013-06-19T12:04:12Z</time>
      </trkpt>
      <trkpt lat="47.23082" lon="6.03662">
        <ele>290</ele>
        <time>2013-06-19T12:04:14Z</time>
      </trkpt>
      <trkpt lat="47.23095" lon="6.03653">
        <ele>292</ele>
        <time>2013-06-19T12:04:16Z</time>
      </trkpt>
      <trkpt lat="47.23101" lon="6.0364">
        <ele>290</ele>
        <time>2013-06-19T12:04:18Z</time>
      </trkpt>
      <trkpt lat="47.23109" lon="6.03627">
        <ele>291</ele>
        <time>2013-06-19T12:04:20Z</time>
      </trkpt>
      <trkpt lat="47.23116" lon="6.03615">
        <ele>290</ele>
        <time>2013-06-19T12:04:22Z</time>
      </trkpt>
      <trkpt lat="47.23123" lon="6.03604">
        <ele>291</ele>
        <time>2013-06-19T12:04:24Z</time>
      </trkpt>
      <trkpt lat="47.2313" lon="6.03591">
        <ele>291</ele>
        <time>2013-06-19T12:04:27Z</time>
      </trkpt>
      <trkpt lat="47.23136" lon="6.03579">
        <ele>293</ele>
        <time>2013-06-19T12:04:30Z</time>
      </trkpt>
      <trkpt lat="47.23144" lon="6.03572">
        <ele>296</ele>
        <time>2013-06-19T12:04:32Z</time>
      </trkpt>
      <trkpt lat="47.23156" lon="6.03567">
        <ele>293</ele>
        <time>2013-06-19T12:04:35Z</time>
      </trkpt>
      <trkpt lat="47.23168" lon="6.03571">
        <ele>292</ele>
        <time>2013-06-19T12:04:38Z</time>
      </trkpt>
      <trkpt lat="47.2318" lon="6.03571">
        <ele>291</ele>
        <time>2013-06-19T12:04:40Z</time>
      </trkpt>
      <trkpt lat="47.23194" lon="6.03574">
        <ele>293</ele>
        <time>2013-06-19T12:04:42Z</time>
      </trkpt>
      <trkpt lat="47.23208" lon="6.03576">
        <ele>293</ele>
        <time>2013-06-19T12:04:44Z</time>
      </trkpt>
      <trkpt lat="47.2322" lon="6.03575">
        <ele>294</ele>
        <time>2013-06-19T12:04:46Z</time>
      </trkpt>
      <trkpt lat="47.23235" lon="6.0357">
        <ele>294</ele>
        <time>2013-06-19T12:04:48Z</time>
      </trkpt>
      <trkpt lat="47.23248" lon="6.03569">
        <ele>294</ele>
        <time>2013-06-19T12:04:50Z</time>
      </trkpt>
      <trkpt lat="47.23259" lon="6.03566">
        <ele>293</ele>
        <time>2013-06-19T12:04:52Z</time>
      </trkpt>
      <trkpt lat="47.23271" lon="6.0356">
        <ele>292</ele>
        <time>2013-06-19T12:04:54Z</time>
      </trkpt>
      <trkpt lat="47.23283" lon="6.03555">
        <ele>293</ele>
        <time>2013-06-19T12:04:56Z</time>
      </trkpt>
      <trkpt lat="47.23293" lon="6.03551">
        <ele>293</ele>
        <time>2013-06-19T12:04:58Z</time>
      </trkpt>
      <trkpt lat="47.23303" lon="6.03543">
        <ele>293</ele>
        <time>2013-06-19T12:05:00Z</time>
      </trkpt>
      <trkpt lat="47.23313" lon="6.03538">
        <ele>293</ele>
        <time>2013-06-19T12:05:02Z</time>
      </trkpt>
      <trkpt lat="47.23323" lon="6.03524">
        <ele>293</ele>
        <time>2013-06-19T12:05:05Z</time>
      </trkpt>
      <trkpt lat="47.23335" lon="6.0352">
        <ele>293</ele>
        <time>2013-06-19T12:05:07Z</time>
      </trkpt>
      <trkpt lat="47.23348" lon="6.03515">
        <ele>293</ele>
        <time>2013-06-19T12:05:09Z</time>
      </trkpt>
      <trkpt lat="47.23361" lon="6.03509">
        <ele>293</ele>
        <time>2013-06-19T12:05:11Z</time>
      </trkpt>
      <trkpt lat="47.23375" lon="6.03503">
        <ele>292</ele>
        <time>2013-06-19T12:05:13Z</time>
      </trkpt>
      <trkpt lat="47.23391" lon="6.03492">
        <ele>289</ele>
        <time>2013-06-19T12:05:17Z</time>
      </trkpt>
      <trkpt lat="47.23402" lon="6.03488">
        <ele>291</ele>
        <time>2013-06-19T12:05:19Z</time>
      </trkpt>
      <trkpt lat="47.23411" lon="6.03483">
        <ele>291</ele>
        <time>2013-06-19T12:05:21Z</time>
      </trkpt>
      <trkpt lat="47.23423" lon="6.03478">
        <ele>290</ele>
        <time>2013-06-19T12:05:24Z</time>
      </trkpt>
      <trkpt lat="47.23438" lon="6.03475">
        <ele>293</ele>
        <time>2013-06-19T12:05:27Z</time>
      </trkpt>
      <trkpt lat="47.23446" lon="6.03468">
        <ele>291</ele>
        <time>2013-06-19T12:05:28Z</time>
      </trkpt>
      <trkpt lat="47.23458" lon="6.03457">
        <ele>292</ele>
        <time>2013-06-19T12:05:30Z</time>
      </trkpt>
      <trkpt lat="47.23468" lon="6.0345">
        <ele>293</ele>
        <time>2013-06-19T12:05:32Z</time>
      </trkpt>
      <trkpt lat="47.23478" lon="6.03443">
        <ele>292</ele>
        <time>2013-06-19T12:05:34Z</time>
      </trkpt>
      <trkpt lat="47.23489" lon="6.03432">
        <ele>290</ele>
        <time>2013-06-19T12:05:36Z</time>
      </trkpt>
      <trkpt lat="47.23498" lon="6.03426">
        <ele>291</ele>
        <time>2013-06-19T12:05:38Z</time>
      </trkpt>
      <trkpt lat="47.23502" lon="6.03414">
        <ele>292</ele>
        <time>2013-06-19T12:05:41Z</time>
      </trkpt>
      <trkpt lat="47.23508" lon="6.03398">
        <ele>294</ele>
        <time>2013-06-19T12:05:45Z</time>
      </trkpt>
      <trkpt lat="47.23518" lon="6.03389">
        <ele>295</ele>
        <time>2013-06-19T12:05:48Z</time>
      </trkpt>
      <trkpt lat="47.23529" lon="6.03381">
        <ele>296</ele>
        <time>2013-06-19T12:05:50Z</time>
      </trkpt>
      <trkpt lat="47.23539" lon="6.03374">
        <ele>297</ele>
        <time>2013-06-19T12:05:52Z</time>
      </trkpt>
      <trkpt lat="47.23547" lon="6.03367">
        <ele>297</ele>
        <time>2013-06-19T12:05:54Z</time>
      </trkpt>
      <trkpt lat="47.23553" lon="6.03354">
        <ele>299</ele>
        <time>2013-06-19T12:05:56Z</time>
      </trkpt>
      <trkpt lat="47.23561" lon="6.03348">
        <ele>302</ele>
        <time>2013-06-19T12:05:58Z</time>
      </trkpt>
      <trkpt lat="47.23571" lon="6.03336">
        <ele>303</ele>
        <time>2013-06-19T12:06:01Z</time>
      </trkpt>
      <trkpt lat="47.2358" lon="6.0333">
        <ele>303</ele>
        <time>2013-06-19T12:06:03Z</time>
      </trkpt>
      <trkpt lat="47.23587" lon="6.0332">
        <ele>302</ele>
        <time>2013-06-19T12:06:05Z</time>
      </trkpt>
      <trkpt lat="47.23596" lon="6.03314">
        <ele>302</ele>
        <time>2013-06-19T12:06:07Z</time>
      </trkpt>
      <trkpt lat="47.23607" lon="6.03304">
        <ele>303</ele>
        <time>2013-06-19T12:06:10Z</time>
      </trkpt>
      <trkpt lat="47.23614" lon="6.03294">
        <ele>297</ele>
        <time>2013-06-19T12:06:13Z</time>
      </trkpt>
      <trkpt lat="47.23623" lon="6.03291">
        <ele>294</ele>
        <time>2013-06-19T12:06:17Z</time>
      </trkpt>
      <trkpt lat="47.23632" lon="6.03296">
        <ele>294</ele>
        <time>2013-06-19T12:07:25Z</time>
      </trkpt>
      <trkpt lat="47.23644" lon="6.03296">
        <ele>299</ele>
        <time>2013-06-19T12:07:29Z</time>
      </trkpt>
      <trkpt lat="47.23653" lon="6.03291">
        <ele>304</ele>
        <time>2013-06-19T12:07:32Z</time>
      </trkpt>
      <trkpt lat="47.23666" lon="6.03285">
        <ele>306</ele>
        <time>2013-06-19T12:07:35Z</time>
      </trkpt>
      <trkpt lat="47.23677" lon="6.03278">
        <ele>306</ele>
        <time>2013-06-19T12:07:38Z</time>
      </trkpt>
      <trkpt lat="47.23687" lon="6.03272">
        <ele>308</ele>
        <time>2013-06-19T12:07:41Z</time>
      </trkpt>
      <trkpt lat="47.23697" lon="6.03266">
        <ele>308</ele>
        <time>2013-06-19T12:07:44Z</time>
      </trkpt>
      <trkpt lat="47.23707" lon="6.03258">
        <ele>306</ele>
        <time>2013-06-19T12:07:47Z</time>
      </trkpt>
      <trkpt lat="47.23716" lon="6.03252">
        <ele>304</ele>
        <time>2013-06-19T12:07:49Z</time>
      </trkpt>
      <trkpt lat="47.23727" lon="6.03242">
        <ele>303</ele>
        <time>2013-06-19T12:07:52Z</time>
      </trkpt>
      <trkpt lat="47.23734" lon="6.03233">
        <ele>304</ele>
        <time>2013-06-19T12:07:54Z</time>
      </trkpt>
      <trkpt lat="47.23743" lon="6.0322">
        <ele>303</ele>
        <time>2013-06-19T12:07:57Z</time>
      </trkpt>
      <trkpt lat="47.23752" lon="6.0321">
        <ele>301</ele>
        <time>2013-06-19T12:08:00Z</time>
      </trkpt>
      <trkpt lat="47.23761" lon="6.03212">
        <ele>295</ele>
        <time>2013-06-19T12:08:04Z</time>
      </trkpt>
      <trkpt lat="47.2377" lon="6.03224">
        <ele>292</ele>
        <time>2013-06-19T12:08:08Z</time>
      </trkpt>
      <trkpt lat="47.23777" lon="6.03233">
        <ele>293</ele>
        <time>2013-06-19T12:08:11Z</time>
      </trkpt>
      <trkpt lat="47.23787" lon="6.03247">
        <ele>294</ele>
        <time>2013-06-19T12:08:15Z</time>
      </trkpt>
      <trkpt lat="47.23795" lon="6.03261">
        <ele>296</ele>
        <time>2013-06-19T12:08:18Z</time>
      </trkpt>
      <trkpt lat="47.23801" lon="6.03277">
        <ele>294</ele>
        <time>2013-06-19T12:08:21Z</time>
      </trkpt>
      <trkpt lat="47.23806" lon="6.03289">
        <ele>295</ele>
        <time>2013-06-19T12:08:23Z</time>
      </trkpt>
      <trkpt lat="47.23811" lon="6.03302">
        <ele>296</ele>
        <time>2013-06-19T12:08:25Z</time>
      </trkpt>
      <trkpt lat="47.23815" lon="6.03318">
        <ele>298</ele>
        <time>2013-06-19T12:08:27Z</time>
      </trkpt>
      <trkpt lat="47.23823" lon="6.03337">
        <ele>301</ele>
        <time>2013-06-19T12:08:29Z</time>
      </trkpt>
      <trkpt lat="47.23828" lon="6.03351">
        <ele>302</ele>
        <time>2013-06-19T12:08:31Z</time>
      </trkpt>
      <trkpt lat="47.2383" lon="6.03365">
        <ele>299</ele>
        <time>2013-06-19T12:08:34Z</time>
      </trkpt>
      <trkpt lat="47.23838" lon="6.03389">
        <ele>300</ele>
        <time>2013-06-19T12:08:43Z</time>
      </trkpt>
      <trkpt lat="47.23842" lon="6.03405">
        <ele>300</ele>
        <time>2013-06-19T12:08:46Z</time>
      </trkpt>
      <trkpt lat="47.23854" lon="6.03402">
        <ele>300</ele>
        <time>2013-06-19T12:08:47Z</time>
      </trkpt>
      <trkpt lat="47.23866" lon="6.03399">
        <ele>299</ele>
        <time>2013-06-19T12:08:50Z</time>
      </trkpt>
      <trkpt lat="47.23876" lon="6.03391">
        <ele>298</ele>
        <time>2013-06-19T12:08:53Z</time>
      </trkpt>
      <trkpt lat="47.23888" lon="6.03387">
        <ele>296</ele>
        <time>2013-06-19T12:08:55Z</time>
      </trkpt>
      <trkpt lat="47.239" lon="6.0338">
        <ele>297</ele>
        <time>2013-06-19T12:08:58Z</time>
      </trkpt>
      <trkpt lat="47.2391" lon="6.03378">
        <ele>293</ele>
        <time>2013-06-19T12:09:00Z</time>
      </trkpt>
      <trkpt lat="47.2392" lon="6.03377">
        <ele>293</ele>
        <time>2013-06-19T12:09:02Z</time>
      </trkpt>
      <trkpt lat="47.23931" lon="6.03377">
        <ele>294</ele>
        <time>2013-06-19T12:09:05Z</time>
      </trkpt>
      <trkpt lat="47.2394" lon="6.03376">
        <ele>294</ele>
        <time>2013-06-19T12:09:07Z</time>
      </trkpt>
      <trkpt lat="47.23953" lon="6.03378">
        <ele>294</ele>
        <time>2013-06-19T12:09:10Z</time>
      </trkpt>
      <trkpt lat="47.23964" lon="6.03376">
        <ele>296</ele>
        <time>2013-06-19T12:09:13Z</time>
      </trkpt>
      <trkpt lat="47.23975" lon="6.03378">
        <ele>298</ele>
        <time>2013-06-19T12:09:15Z</time>
      </trkpt>
      <trkpt lat="47.23986" lon="6.03376">
        <ele>299</ele>
        <time>2013-06-19T12:09:18Z</time>
      </trkpt>
      <trkpt lat="47.23996" lon="6.03371">
        <ele>298</ele>
        <time>2013-06-19T12:09:21Z</time>
      </trkpt>
      <trkpt lat="47.24011" lon="6.03366">
        <ele>299</ele>
        <time>2013-06-19T12:09:24Z</time>
      </trkpt>
      <trkpt lat="47.24025" lon="6.03361">
        <ele>298</ele>
        <time>2013-06-19T12:09:26Z</time>
      </trkpt>
      <trkpt lat="47.24035" lon="6.03358">
        <ele>299</ele>
        <time>2013-06-19T12:09:28Z</time>
      </trkpt>
      <trkpt lat="47.2405" lon="6.03348">
        <ele>300</ele>
        <time>2013-06-19T12:09:31Z</time>
      </trkpt>
      <trkpt lat="47.24061" lon="6.03341">
        <ele>300</ele>
        <time>2013-06-19T12:09:34Z</time>
      </trkpt>
      <trkpt lat="47.24071" lon="6.03335">
        <ele>302</ele>
        <time>2013-06-19T12:09:37Z</time>
      </trkpt>
      <trkpt lat="47.24081" lon="6.03327">
        <ele>304</ele>
        <time>2013-06-19T12:09:41Z</time>
      </trkpt>
      <trkpt lat="47.24092" lon="6.03316">
        <ele>304</ele>
        <time>2013-06-19T12:09:44Z</time>
      </trkpt>
      <trkpt lat="47.24102" lon="6.0331">
        <ele>306</ele>
        <time>2013-06-19T12:09:46Z</time>
      </trkpt>
      <trkpt lat="47.24113" lon="6.03306">
        <ele>304</ele>
        <time>2013-06-19T12:09:48Z</time>
      </trkpt>
      <trkpt lat="47.24124" lon="6.03301">
        <ele>305</ele>
        <time>2013-06-19T12:09:50Z</time>
      </trkpt>
      <trkpt lat="47.24135" lon="6.03294">
        <ele>304</ele>
        <time>2013-06-19T12:09:52Z</time>
      </trkpt>
      <trkpt lat="47.24153" lon="6.03291">
        <ele>305</ele>
        <time>2013-06-19T12:09:54Z</time>
      </trkpt>
      <trkpt lat="47.24163" lon="6.03292">
        <ele>307</ele>
        <time>2013-06-19T12:09:57Z</time>
      </trkpt>
      <trkpt lat="47.24172" lon="6.03301">
        <ele>308</ele>
        <time>2013-06-19T12:10:00Z</time>
      </trkpt>
      <trkpt lat="47.24179" lon="6.03314">
        <ele>307</ele>
        <time>2013-06-19T12:10:03Z</time>
      </trkpt>
      <trkpt lat="47.2419" lon="6.03321">
        <ele>311</ele>
        <time>2013-06-19T12:10:06Z</time>
      </trkpt>
      <trkpt lat="47.24199" lon="6.03326">
        <ele>311</ele>
        <time>2013-06-19T12:10:09Z</time>
      </trkpt>
      <trkpt lat="47.24209" lon="6.03331">
        <ele>310</ele>
        <time>2013-06-19T12:10:12Z</time>
      </trkpt>
      <trkpt lat="47.24219" lon="6.0334">
        <ele>311</ele>
        <time>2013-06-19T12:10:15Z</time>
      </trkpt>
      <trkpt lat="47.24228" lon="6.0335">
        <ele>312</ele>
        <time>2013-06-19T12:10:18Z</time>
      </trkpt>
      <trkpt lat="47.24237" lon="6.03362">
        <ele>314</ele>
        <time>2013-06-19T12:10:21Z</time>
      </trkpt>
      <trkpt lat="47.24249" lon="6.03369">
        <ele>315</ele>
        <time>2013-06-19T12:10:24Z</time>
      </trkpt>
      <trkpt lat="47.2426" lon="6.03375">
        <ele>316</ele>
        <time>2013-06-19T12:10:27Z</time>
      </trkpt>
      <trkpt lat="47.24271" lon="6.03379">
        <ele>317</ele>
        <time>2013-06-19T12:10:30Z</time>
      </trkpt>
      <trkpt lat="47.24282" lon="6.03384">
        <ele>318</ele>
        <time>2013-06-19T12:10:33Z</time>
      </trkpt>
      <trkpt lat="47.24295" lon="6.03391">
        <ele>318</ele>
        <time>2013-06-19T12:10:35Z</time>
      </trkpt>
      <trkpt lat="47.24305" lon="6.03396">
        <ele>318</ele>
        <time>2013-06-19T12:10:37Z</time>
      </trkpt>
      <trkpt lat="47.24315" lon="6.03401">
        <ele>317</ele>
        <time>2013-06-19T12:10:39Z</time>
      </trkpt>
      <trkpt lat="47.24328" lon="6.03408">
        <ele>317</ele>
        <time>2013-06-19T12:10:42Z</time>
      </trkpt>
      <trkpt lat="47.24342" lon="6.03417">
        <ele>316</ele>
        <time>2013-06-19T12:10:44Z</time>
      </trkpt>
      <trkpt lat="47.24356" lon="6.03426">
        <ele>315</ele>
        <time>2013-06-19T12:10:46Z</time>
      </trkpt>
      <trkpt lat="47.24368" lon="6.03432">
        <ele>313</ele>
        <time>2013-06-19T12:10:48Z</time>
      </trkpt>
      <trkpt lat="47.2438" lon="6.03439">
        <ele>312</ele>
        <time>2013-06-19T12:10:50Z</time>
      </trkpt>
      <trkpt lat="47.24392" lon="6.03445">
        <ele>312</ele>
        <time>2013-06-19T12:10:52Z</time>
      </trkpt>
      <trkpt lat="47.24403" lon="6.03453">
        <ele>312</ele>
        <time>2013-06-19T12:10:54Z</time>
      </trkpt>
      <trkpt lat="47.24416" lon="6.0346">
        <ele>311</ele>
        <time>2013-06-19T12:10:56Z</time>
      </trkpt>
      <trkpt lat="47.24427" lon="6.03467">
        <ele>310</ele>
        <time>2013-06-19T12:10:58Z</time>
      </trkpt>
      <trkpt lat="47.2444" lon="6.03472">
        <ele>309</ele>
        <time>2013-06-19T12:11:00Z</time>
      </trkpt>
      <trkpt lat="47.24451" lon="6.03478">
        <ele>308</ele>
        <time>2013-06-19T12:11:02Z</time>
      </trkpt>
      <trkpt lat="47.2446" lon="6.03484">
        <ele>308</ele>
        <time>2013-06-19T12:11:04Z</time>
      </trkpt>
      <trkpt lat="47.24473" lon="6.03491">
        <ele>307</ele>
        <time>2013-06-19T12:11:06Z</time>
      </trkpt>
      <trkpt lat="47.24484" lon="6.03495">
        <ele>307</ele>
        <time>2013-06-19T12:11:08Z</time>
      </trkpt>
      <trkpt lat="47.24495" lon="6.03498">
        <ele>308</ele>
        <time>2013-06-19T12:11:10Z</time>
      </trkpt>
      <trkpt lat="47.24506" lon="6.03502">
        <ele>308</ele>
        <time>2013-06-19T12:11:12Z</time>
      </trkpt>
      <trkpt lat="47.24517" lon="6.03504">
        <ele>306</ele>
        <time>2013-06-19T12:11:14Z</time>
      </trkpt>
      <trkpt lat="47.24528" lon="6.03506">
        <ele>304</ele>
        <time>2013-06-19T12:11:16Z</time>
      </trkpt>
      <trkpt lat="47.24537" lon="6.0351">
        <ele>305</ele>
        <time>2013-06-19T12:11:18Z</time>
      </trkpt>
      <trkpt lat="47.24548" lon="6.03511">
        <ele>307</ele>
        <time>2013-06-19T12:11:21Z</time>
      </trkpt>
      <trkpt lat="47.24558" lon="6.03507">
        <ele>308</ele>
        <time>2013-06-19T12:11:39Z</time>
      </trkpt>
      <trkpt lat="47.24568" lon="6.03495">
        <ele>308</ele>
        <time>2013-06-19T12:11:43Z</time>
      </trkpt>
      <trkpt lat="47.24575" lon="6.03482">
        <ele>305</ele>
        <time>2013-06-19T12:11:46Z</time>
      </trkpt>
      <trkpt lat="47.24583" lon="6.03469">
        <ele>304</ele>
        <time>2013-06-19T12:11:49Z</time>
      </trkpt>
      <trkpt lat="47.24591" lon="6.03455">
        <ele>303</ele>
        <time>2013-06-19T12:11:52Z</time>
      </trkpt>
      <trkpt lat="47.24598" lon="6.03445">
        <ele>302</ele>
        <time>2013-06-19T12:11:54Z</time>
      </trkpt>
      <trkpt lat="47.24606" lon="6.03435">
        <ele>302</ele>
        <time>2013-06-19T12:11:56Z</time>
      </trkpt>
      <trkpt lat="47.24612" lon="6.03425">
        <ele>303</ele>
        <time>2013-06-19T12:11:58Z</time>
      </trkpt>
      <trkpt lat="47.2462" lon="6.03413">
        <ele>303</ele>
        <time>2013-06-19T12:12:01Z</time>
      </trkpt>
      <trkpt lat="47.24626" lon="6.03401">
        <ele>302</ele>
        <time>2013-06-19T12:12:05Z</time>
      </trkpt>
      <trkpt lat="47.24633" lon="6.0339">
        <ele>304</ele>
        <time>2013-06-19T12:12:09Z</time>
      </trkpt>
      <trkpt lat="47.24643" lon="6.03381">
        <ele>299</ele>
        <time>2013-06-19T12:12:13Z</time>
      </trkpt>
      <trkpt lat="47.24653" lon="6.03374">
        <ele>301</ele>
        <time>2013-06-19T12:12:17Z</time>
      </trkpt>
      <trkpt lat="47.24661" lon="6.03365">
        <ele>302</ele>
        <time>2013-06-19T12:12:20Z</time>
      </trkpt>
      <trkpt lat="47.2467" lon="6.03355">
        <ele>304</ele>
        <time>2013-06-19T12:12:23Z</time>
      </trkpt>
      <trkpt lat="47.24677" lon="6.03346">
        <ele>305</ele>
        <time>2013-06-19T12:12:26Z</time>
      </trkpt>
      <trkpt lat="47.24685" lon="6.03336">
        <ele>307</ele>
        <time>2013-06-19T12:12:29Z</time>
      </trkpt>
      <trkpt lat="47.24693" lon="6.03326">
        <ele>306</ele>
        <time>2013-06-19T12:12:32Z</time>
      </trkpt>
      <trkpt lat="47.24701" lon="6.03317">
        <ele>308</ele>
        <time>2013-06-19T12:12:35Z</time>
      </trkpt>
      <trkpt lat="47.24709" lon="6.03304">
        <ele>309</ele>
        <time>2013-06-19T12:12:39Z</time>
      </trkpt>
      <trkpt lat="47.24717" lon="6.03294">
        <ele>309</ele>
        <time>2013-06-19T12:12:42Z</time>
      </trkpt>
      <trkpt lat="47.24724" lon="6.03284">
        <ele>312</ele>
        <time>2013-06-19T12:12:45Z</time>
      </trkpt>
      <trkpt lat="47.2473" lon="6.03274">
        <ele>313</ele>
        <time>2013-06-19T12:12:49Z</time>
      </trkpt>
      <trkpt lat="47.24737" lon="6.03265">
        <ele>313</ele>
        <time>2013-06-19T12:13:00Z</time>
      </trkpt>
      <trkpt lat="47.24744" lon="6.03252">
        <ele>311</ele>
        <time>2013-06-19T12:14:14Z</time>
      </trkpt>
      <trkpt lat="47.24756" lon="6.03245">
        <ele>313</ele>
        <time>2013-06-19T12:14:17Z</time>
      </trkpt>
      <trkpt lat="47.24768" lon="6.03238">
        <ele>316</ele>
        <time>2013-06-19T12:14:20Z</time>
      </trkpt>
      <trkpt lat="47.24777" lon="6.03228">
        <ele>317</ele>
        <time>2013-06-19T12:14:23Z</time>
      </trkpt>
      <trkpt lat="47.24785" lon="6.03216">
        <ele>315</ele>
        <time>2013-06-19T12:14:26Z</time>
      </trkpt>
      <trkpt lat="47.24793" lon="6.03206">
        <ele>316</ele>
        <time>2013-06-19T12:14:29Z</time>
      </trkpt>
      <trkpt lat="47.24799" lon="6.03196">
        <ele>316</ele>
        <time>2013-06-19T12:14:32Z</time>
      </trkpt>
      <trkpt lat="47.2481" lon="6.03189">
        <ele>320</ele>
        <time>2013-06-19T12:14:36Z</time>
      </trkpt>
      <trkpt lat="47.24821" lon="6.03184">
        <ele>321</ele>
        <time>2013-06-19T12:14:39Z</time>
      </trkpt>
      <trkpt lat="47.2483" lon="6.03176">
        <ele>323</ele>
        <time>2013-06-19T12:14:42Z</time>
      </trkpt>
      <trkpt lat="47.2484" lon="6.03166">
        <ele>321</ele>
        <time>2013-06-19T12:14:45Z</time>
      </trkpt>
      <trkpt lat="47.24851" lon="6.03156">
        <ele>322</ele>
        <time>2013-06-19T12:14:48Z</time>
      </trkpt>
      <trkpt lat="47.24859" lon="6.03151">
        <ele>322</ele>
        <time>2013-06-19T12:14:50Z</time>
      </trkpt>
      <trkpt lat="47.24871" lon="6.03142">
        <ele>324</ele>
        <time>2013-06-19T12:14:53Z</time>
      </trkpt>
      <trkpt lat="47.24882" lon="6.03136">
        <ele>324</ele>
        <time>2013-06-19T12:14:56Z</time>
      </trkpt>
      <trkpt lat="47.2489" lon="6.0313">
        <ele>326</ele>
        <time>2013-06-19T12:14:59Z</time>
      </trkpt>
      <trkpt lat="47.24895" lon="6.03119">
        <ele>329</ele>
        <time>2013-06-19T12:15:09Z</time>
      </trkpt>
      <trkpt lat="47.24905" lon="6.03114">
        <ele>327</ele>
        <time>2013-06-19T12:15:15Z</time>
      </trkpt>
      <trkpt lat="47.24914" lon="6.03112">
        <ele>325</ele>
        <time>2013-06-19T12:15:19Z</time>
      </trkpt>
      <trkpt lat="47.24923" lon="6.03107">
        <ele>325</ele>
        <time>2013-06-19T12:15:23Z</time>
      </trkpt>
      <trkpt lat="47.24933" lon="6.03103">
        <ele>323</ele>
        <time>2013-06-19T12:15:26Z</time>
      </trkpt>
      <trkpt lat="47.24945" lon="6.03099">
        <ele>326</ele>
        <time>2013-06-19T12:15:29Z</time>
      </trkpt>
      <trkpt lat="47.24955" lon="6.03096">
        <ele>328</ele>
        <time>2013-06-19T12:15:33Z</time>
      </trkpt>
      <trkpt lat="47.24966" lon="6.03093">
        <ele>330</ele>
        <time>2013-06-19T12:15:35Z</time>
      </trkpt>
      <trkpt lat="47.24986" lon="6.03089">
        <ele>332</ele>
        <time>2013-06-19T12:15:41Z</time>
      </trkpt>
      <trkpt lat="47.24994" lon="6.03084">
        <ele>332</ele>
        <time>2013-06-19T12:15:44Z</time>
      </trkpt>
      <trkpt lat="47.25003" lon="6.03079">
        <ele>329</ele>
        <time>2013-06-19T12:15:48Z</time>
      </trkpt>
      <trkpt lat="47.25014" lon="6.03078">
        <ele>335</ele>
        <time>2013-06-19T12:15:51Z</time>
      </trkpt>
      <trkpt lat="47.25024" lon="6.03074">
        <ele>333</ele>
        <time>2013-06-19T12:15:54Z</time>
      </trkpt>
      <trkpt lat="47.25033" lon="6.03071">
        <ele>332</ele>
        <time>2013-06-19T12:15:57Z</time>
      </trkpt>
      <trkpt lat="47.25044" lon="6.03068">
        <ele>337</ele>
        <time>2013-06-19T12:16:01Z</time>
      </trkpt>
      <trkpt lat="47.25054" lon="6.03068">
        <ele>340</ele>
        <time>2013-06-19T12:16:05Z</time>
      </trkpt>
      <trkpt lat="47.25065" lon="6.03064">
        <ele>340</ele>
        <time>2013-06-19T12:16:09Z</time>
      </trkpt>
      <trkpt lat="47.25075" lon="6.03059">
        <ele>338</ele>
        <time>2013-06-19T12:16:13Z</time>
      </trkpt>
      <trkpt lat="47.25085" lon="6.03055">
        <ele>339</ele>
        <time>2013-06-19T12:16:17Z</time>
      </trkpt>
      <trkpt lat="47.25097" lon="6.0305">
        <ele>340</ele>
        <time>2013-06-19T12:16:22Z</time>
      </trkpt>
      <trkpt lat="47.25107" lon="6.03046">
        <ele>340</ele>
        <time>2013-06-19T12:16:25Z</time>
      </trkpt>
      <trkpt lat="47.25116" lon="6.03042">
        <ele>340</ele>
        <time>2013-06-19T12:16:28Z</time>
      </trkpt>
      <trkpt lat="47.25124" lon="6.03037">
        <ele>340</ele>
        <time>2013-06-19T12:16:31Z</time>
      </trkpt>
      <trkpt lat="47.25134" lon="6.0303">
        <ele>342</ele>
        <time>2013-06-19T12:16:35Z</time>
      </trkpt>
      <trkpt lat="47.25143" lon="6.03025">
        <ele>343</ele>
        <time>2013-06-19T12:16:39Z</time>
      </trkpt>
      <trkpt lat="47.25153" lon="6.0302">
        <ele>343</ele>
        <time>2013-06-19T12:16:43Z</time>
      </trkpt>
      <trkpt lat="47.25164" lon="6.03018">
        <ele>340</ele>
        <time>2013-06-19T12:16:47Z</time>
      </trkpt>
      <trkpt lat="47.25174" lon="6.03015">
        <ele>341</ele>
        <time>2013-06-19T12:16:50Z</time>
      </trkpt>
      <trkpt lat="47.25184" lon="6.03014">
        <ele>343</ele>
        <time>2013-06-19T12:16:53Z</time>
      </trkpt>
      <trkpt lat="47.25194" lon="6.03016">
        <ele>343</ele>
        <time>2013-06-19T12:16:56Z</time>
      </trkpt>
      <trkpt lat="47.25205" lon="6.0302">
        <ele>343</ele>
        <time>2013-06-19T12:17:00Z</time>
      </trkpt>
      <trkpt lat="47.25214" lon="6.03026">
        <ele>342</ele>
        <time>2013-06-19T12:17:03Z</time>
      </trkpt>
      <trkpt lat="47.25222" lon="6.03032">
        <ele>342</ele>
        <time>2013-06-19T12:17:06Z</time>
      </trkpt>
      <trkpt lat="47.25231" lon="6.03037">
        <ele>343</ele>
        <time>2013-06-19T12:17:09Z</time>
      </trkpt>
      <trkpt lat="47.2524" lon="6.03042">
        <ele>342</ele>
        <time>2013-06-19T12:17:13Z</time>
      </trkpt>
      <trkpt lat="47.25249" lon="6.03045">
        <ele>344</ele>
        <time>2013-06-19T12:17:16Z</time>
      </trkpt>
      <trkpt lat="47.25258" lon="6.0305">
        <ele>344</ele>
        <time>2013-06-19T12:17:19Z</time>
      </trkpt>
      <trkpt lat="47.25267" lon="6.03055">
        <ele>344</ele>
        <time>2013-06-19T12:17:22Z</time>
      </trkpt>
      <trkpt lat="47.25279" lon="6.03058">
        <ele>347</ele>
        <time>2013-06-19T12:17:26Z</time>
      </trkpt>
      <trkpt lat="47.25289" lon="6.03063">
        <ele>347</ele>
        <time>2013-06-19T12:17:30Z</time>
      </trkpt>
      <trkpt lat="47.253" lon="6.03067">
        <ele>347</ele>
        <time>2013-06-19T12:17:35Z</time>
      </trkpt>
      <trkpt lat="47.25308" lon="6.03073">
        <ele>348</ele>
        <time>2013-06-19T12:17:38Z</time>
      </trkpt>
      <trkpt lat="47.25318" lon="6.03078">
        <ele>347</ele>
        <time>2013-06-19T12:17:41Z</time>
      </trkpt>
      <trkpt lat="47.25328" lon="6.0308">
        <ele>347</ele>
        <time>2013-06-19T12:17:45Z</time>
      </trkpt>
      <trkpt lat="47.25337" lon="6.03087">
        <ele>347</ele>
        <time>2013-06-19T12:17:48Z</time>
      </trkpt>
      <trkpt lat="47.25347" lon="6.03096">
        <ele>349</ele>
        <time>2013-06-19T12:17:51Z</time>
      </trkpt>
      <trkpt lat="47.25356" lon="6.03103">
        <ele>349</ele>
        <time>2013-06-19T12:17:54Z</time>
      </trkpt>
      <trkpt lat="47.25364" lon="6.0311">
        <ele>351</ele>
        <time>2013-06-19T12:17:57Z</time>
      </trkpt>
      <trkpt lat="47.25374" lon="6.03117">
        <ele>353</ele>
        <time>2013-06-19T12:18:01Z</time>
      </trkpt>
      <trkpt lat="47.25383" lon="6.03127">
        <ele>352</ele>
        <time>2013-06-19T12:18:05Z</time>
      </trkpt>
      <trkpt lat="47.25392" lon="6.03136">
        <ele>352</ele>
        <time>2013-06-19T12:18:09Z</time>
      </trkpt>
      <trkpt lat="47.25402" lon="6.03143">
        <ele>353</ele>
        <time>2013-06-19T12:18:14Z</time>
      </trkpt>
      <trkpt lat="47.25411" lon="6.03149">
        <ele>353</ele>
        <time>2013-06-19T12:18:17Z</time>
      </trkpt>
      <trkpt lat="47.2542" lon="6.03155">
        <ele>356</ele>
        <time>2013-06-19T12:18:20Z</time>
      </trkpt>
      <trkpt lat="47.25429" lon="6.03161">
        <ele>356</ele>
        <time>2013-06-19T12:18:23Z</time>
      </trkpt>
      <trkpt lat="47.2544" lon="6.03167">
        <ele>356</ele>
        <time>2013-06-19T12:18:26Z</time>
      </trkpt>
      <trkpt lat="47.25451" lon="6.03174">
        <ele>359</ele>
        <time>2013-06-19T12:18:30Z</time>
      </trkpt>
      <trkpt lat="47.25461" lon="6.0318">
        <ele>360</ele>
        <time>2013-06-19T12:18:33Z</time>
      </trkpt>
      <trkpt lat="47.25471" lon="6.03186">
        <ele>360</ele>
        <time>2013-06-19T12:18:36Z</time>
      </trkpt>
      <trkpt lat="47.25483" lon="6.03196">
        <ele>359</ele>
        <time>2013-06-19T12:18:38Z</time>
      </trkpt>
      <trkpt lat="47.25492" lon="6.03204">
        <ele>360</ele>
        <time>2013-06-19T12:18:40Z</time>
      </trkpt>
      <trkpt lat="47.25501" lon="6.03211">
        <ele>359</ele>
        <time>2013-06-19T12:18:42Z</time>
      </trkpt>
      <trkpt lat="47.25509" lon="6.0322">
        <ele>358</ele>
        <time>2013-06-19T12:18:44Z</time>
      </trkpt>
      <trkpt lat="47.25517" lon="6.03227">
        <ele>358</ele>
        <time>2013-06-19T12:18:46Z</time>
      </trkpt>
      <trkpt lat="47.25526" lon="6.03239">
        <ele>358</ele>
        <time>2013-06-19T12:18:49Z</time>
      </trkpt>
      <trkpt lat="47.25531" lon="6.0325">
        <ele>358</ele>
        <time>2013-06-19T12:18:52Z</time>
      </trkpt>
      <trkpt lat="47.25538" lon="6.03264">
        <ele>358</ele>
        <time>2013-06-19T12:18:55Z</time>
      </trkpt>
      <trkpt lat="47.25543" lon="6.03277">
        <ele>357</ele>
        <time>2013-06-19T12:18:58Z</time>
      </trkpt>
      <trkpt lat="47.2555" lon="6.03292">
        <ele>355</ele>
        <time>2013-06-19T12:19:01Z</time>
      </trkpt>
      <trkpt lat="47.25557" lon="6.03304">
        <ele>356</ele>
        <time>2013-06-19T12:19:04Z</time>
      </trkpt>
      <trkpt lat="47.25564" lon="6.03316">
        <ele>361</ele>
        <time>2013-06-19T12:19:08Z</time>
      </trkpt>
      <trkpt lat="47.2557" lon="6.03326">
        <ele>362</ele>
        <time>2013-06-19T12:19:11Z</time>
      </trkpt>
      <trkpt lat="47.25578" lon="6.03338">
        <ele>360</ele>
        <time>2013-06-19T12:19:14Z</time>
      </trkpt>
      <trkpt lat="47.25587" lon="6.03352">
        <ele>360</ele>
        <time>2013-06-19T12:19:17Z</time>
      </trkpt>
      <trkpt lat="47.25595" lon="6.03364">
        <ele>363</ele>
        <time>2013-06-19T12:19:20Z</time>
      </trkpt>
      <trkpt lat="47.25602" lon="6.03377">
        <ele>362</ele>
        <time>2013-06-19T12:19:23Z</time>
      </trkpt>
      <trkpt lat="47.2561" lon="6.0339">
        <ele>362</ele>
        <time>2013-06-19T12:19:26Z</time>
      </trkpt>
      <trkpt lat="47.25618" lon="6.03401">
        <ele>361</ele>
        <time>2013-06-19T12:19:29Z</time>
      </trkpt>
      <trkpt lat="47.25625" lon="6.03411">
        <ele>362</ele>
        <time>2013-06-19T12:19:32Z</time>
      </trkpt>
      <trkpt lat="47.25633" lon="6.03424">
        <ele>361</ele>
        <time>2013-06-19T12:19:36Z</time>
      </trkpt>
      <trkpt lat="47.25639" lon="6.03438">
        <ele>360</ele>
        <time>2013-06-19T12:19:39Z</time>
      </trkpt>
      <trkpt lat="47.25645" lon="6.03452">
        <ele>360</ele>
        <time>2013-06-19T12:19:42Z</time>
      </trkpt>
      <trkpt lat="47.25654" lon="6.03466">
        <ele>360</ele>
        <time>2013-06-19T12:19:45Z</time>
      </trkpt>
      <trkpt lat="47.25662" lon="6.03479">
        <ele>359</ele>
        <time>2013-06-19T12:19:48Z</time>
      </trkpt>
      <trkpt lat="47.2567" lon="6.03491">
        <ele>360</ele>
        <time>2013-06-19T12:19:51Z</time>
      </trkpt>
      <trkpt lat="47.25676" lon="6.03504">
        <ele>359</ele>
        <time>2013-06-19T12:19:54Z</time>
      </trkpt>
      <trkpt lat="47.25683" lon="6.03517">
        <ele>358</ele>
        <time>2013-06-19T12:19:57Z</time>
      </trkpt>
      <trkpt lat="47.2569" lon="6.03527">
        <ele>360</ele>
        <time>2013-06-19T12:20:00Z</time>
      </trkpt>
      <trkpt lat="47.25697" lon="6.03539">
        <ele>363</ele>
        <time>2013-06-19T12:20:04Z</time>
      </trkpt>
      <trkpt lat="47.25702" lon="6.03551">
        <ele>363</ele>
        <time>2013-06-19T12:20:07Z</time>
      </trkpt>
      <trkpt lat="47.2571" lon="6.0356">
        <ele>364</ele>
        <time>2013-06-19T12:20:10Z</time>
      </trkpt>
      <trkpt lat="47.25719" lon="6.03562">
        <ele>361</ele>
        <time>2013-06-19T12:20:13Z</time>
      </trkpt>
      <trkpt lat="47.25729" lon="6.03554">
        <ele>361</ele>
        <time>2013-06-19T12:20:16Z</time>
      </trkpt>
      <trkpt lat="47.2574" lon="6.03543">
        <ele>363</ele>
        <time>2013-06-19T12:20:19Z</time>
      </trkpt>
      <trkpt lat="47.2575" lon="6.03533">
        <ele>363</ele>
        <time>2013-06-19T12:20:22Z</time>
      </trkpt>
      <trkpt lat="47.25759" lon="6.03524">
        <ele>364</ele>
        <time>2013-06-19T12:20:25Z</time>
      </trkpt>
      <trkpt lat="47.25766" lon="6.03513">
        <ele>365</ele>
        <time>2013-06-19T12:20:28Z</time>
      </trkpt>
      <trkpt lat="47.25772" lon="6.03502">
        <ele>366</ele>
        <time>2013-06-19T12:20:31Z</time>
      </trkpt>
      <trkpt lat="47.25779" lon="6.03492">
        <ele>367</ele>
        <time>2013-06-19T12:20:34Z</time>
      </trkpt>
      <trkpt lat="47.25787" lon="6.03484">
        <ele>369</ele>
        <time>2013-06-19T12:20:37Z</time>
      </trkpt>
      <trkpt lat="47.25797" lon="6.03477">
        <ele>367</ele>
        <time>2013-06-19T12:20:41Z</time>
      </trkpt>
      <trkpt lat="47.25802" lon="6.03489">
        <ele>363</ele>
        <time>2013-06-19T12:21:15Z</time>
      </trkpt>
    </trkseg>
  </trk>
</gpx>